<?xml version="1.0" encoding="UTF-8" standalone="no" ?>
<gpx xmlns="http://www.topografix.com/GPX/1/1" xmlns:xsi="http://www.w3.org/2001/XMLSchema-instance" xsi:schemaLocation="http://www.topografix.com/GPX/1/1 http://www.topografix.com/GPX/1/1/gpx.xsd" version="1.1" creator="VisuGPX - https://www.visugpx.com">
  <metadata>
    <name>sermaise souzy la briche 20 km facile</name>
    <desc><![CDATA[belle ballade du 15 juin 2013]]></desc>
  </metadata>
  <trk>
    <name><![CDATA[Track2013/06/15_10:46]]></name>
    <trkseg>
      <trkpt lat="48.53156" lon="2.06976">
        <ele>93.179737</ele>
        <time>2013-06-15T08:46:41Z</time>
      </trkpt>
      <trkpt lat="48.53158" lon="2.06977">
        <ele>94.04052</ele>
        <time>2013-06-15T08:46:46Z</time>
      </trkpt>
      <trkpt lat="48.53156" lon="2.06976">
        <ele>93.929058</ele>
        <time>2013-06-15T08:46:51Z</time>
      </trkpt>
      <trkpt lat="48.53156" lon="2.06976">
        <ele>93.929058</ele>
        <time>2013-06-15T08:46:56Z</time>
      </trkpt>
      <trkpt lat="48.53156" lon="2.06976">
        <ele>94.590833</ele>
        <time>2013-06-15T08:47:01Z</time>
      </trkpt>
      <trkpt lat="48.53156" lon="2.06976">
        <ele>96.001929</ele>
        <time>2013-06-15T08:47:06Z</time>
      </trkpt>
      <trkpt lat="48.53158" lon="2.06979">
        <ele>92.65334</ele>
        <time>2013-06-15T08:47:11Z</time>
      </trkpt>
      <trkpt lat="48.53158" lon="2.06979">
        <ele>91.991565</ele>
        <time>2013-06-15T08:47:16Z</time>
      </trkpt>
      <trkpt lat="48.53159" lon="2.06979">
        <ele>89.169373</ele>
        <time>2013-06-15T08:47:21Z</time>
      </trkpt>
      <trkpt lat="48.53158" lon="2.06979">
        <ele>88.420053</ele>
        <time>2013-06-15T08:47:26Z</time>
      </trkpt>
      <trkpt lat="48.53158" lon="2.06979">
        <ele>88.420053</ele>
        <time>2013-06-15T08:47:31Z</time>
      </trkpt>
      <trkpt lat="48.53158" lon="2.06977">
        <ele>88.396136</ele>
        <time>2013-06-15T08:47:36Z</time>
      </trkpt>
      <trkpt lat="48.53159" lon="2.06979">
        <ele>86.347182</ele>
        <time>2013-06-15T08:47:41Z</time>
      </trkpt>
      <trkpt lat="48.53159" lon="2.06979">
        <ele>86.347182</ele>
        <time>2013-06-15T08:47:46Z</time>
      </trkpt>
      <trkpt lat="48.53158" lon="2.0698">
        <ele>85.621778</ele>
        <time>2013-06-15T08:47:51Z</time>
      </trkpt>
      <trkpt lat="48.53158" lon="2.0698">
        <ele>85.621778</ele>
        <time>2013-06-15T08:47:56Z</time>
      </trkpt>
      <trkpt lat="48.53158" lon="2.0698">
        <ele>85.621778</ele>
        <time>2013-06-15T08:48:01Z</time>
      </trkpt>
      <trkpt lat="48.53158" lon="2.0698">
        <ele>82.799586</ele>
        <time>2013-06-15T08:48:06Z</time>
      </trkpt>
      <trkpt lat="48.53157" lon="2.0698">
        <ele>81.300944</ele>
        <time>2013-06-15T08:48:11Z</time>
      </trkpt>
      <trkpt lat="48.53157" lon="2.0698">
        <ele>81.300944</ele>
        <time>2013-06-15T08:48:16Z</time>
      </trkpt>
      <trkpt lat="48.53157" lon="2.0698">
        <ele>81.300944</ele>
        <time>2013-06-15T08:48:21Z</time>
      </trkpt>
      <trkpt lat="48.53156" lon="2.0698">
        <ele>81.962719</ele>
        <time>2013-06-15T08:48:26Z</time>
      </trkpt>
      <trkpt lat="48.53156" lon="2.0698">
        <ele>81.962719</ele>
        <time>2013-06-15T08:48:31Z</time>
      </trkpt>
      <trkpt lat="48.53156" lon="2.0698">
        <ele>81.962719</ele>
        <time>2013-06-15T08:48:36Z</time>
      </trkpt>
      <trkpt lat="48.53156" lon="2.0698">
        <ele>86.196007</ele>
        <time>2013-06-15T08:48:41Z</time>
      </trkpt>
      <trkpt lat="48.53156" lon="2.0698">
        <ele>86.196007</ele>
        <time>2013-06-15T08:48:46Z</time>
      </trkpt>
      <trkpt lat="48.53156" lon="2.0698">
        <ele>87.607103</ele>
        <time>2013-06-15T08:48:51Z</time>
      </trkpt>
      <trkpt lat="48.53156" lon="2.0698">
        <ele>87.607103</ele>
        <time>2013-06-15T08:48:56Z</time>
      </trkpt>
      <trkpt lat="48.53156" lon="2.06981">
        <ele>86.219924</ele>
        <time>2013-06-15T08:49:01Z</time>
      </trkpt>
      <trkpt lat="48.53156" lon="2.06981">
        <ele>87.63102</ele>
        <time>2013-06-15T08:49:06Z</time>
      </trkpt>
      <trkpt lat="48.53154" lon="2.06984">
        <ele>86.841989</ele>
        <time>2013-06-15T08:49:11Z</time>
      </trkpt>
      <trkpt lat="48.53153" lon="2.06985">
        <ele>86.778362</ele>
        <time>2013-06-15T08:49:16Z</time>
      </trkpt>
      <trkpt lat="48.53151" lon="2.06985">
        <ele>87.352594</ele>
        <time>2013-06-15T08:49:21Z</time>
      </trkpt>
      <trkpt lat="48.53151" lon="2.06985">
        <ele>87.352594</ele>
        <time>2013-06-15T08:49:26Z</time>
      </trkpt>
      <trkpt lat="48.53151" lon="2.06985">
        <ele>87.352594</ele>
        <time>2013-06-15T08:49:31Z</time>
      </trkpt>
      <trkpt lat="48.53151" lon="2.06985">
        <ele>87.352594</ele>
        <time>2013-06-15T08:49:36Z</time>
      </trkpt>
      <trkpt lat="48.5315" lon="2.06983">
        <ele>86.555439</ele>
        <time>2013-06-15T08:49:41Z</time>
      </trkpt>
      <trkpt lat="48.53148" lon="2.06978">
        <ele>87.719697</ele>
        <time>2013-06-15T08:49:46Z</time>
      </trkpt>
      <trkpt lat="48.53145" lon="2.06973">
        <ele>88.110722</ele>
        <time>2013-06-15T08:49:51Z</time>
      </trkpt>
      <trkpt lat="48.53141" lon="2.06967">
        <ele>89.163529</ele>
        <time>2013-06-15T08:49:56Z</time>
      </trkpt>
      <trkpt lat="48.53138" lon="2.06966">
        <ele>89.626309</ele>
        <time>2013-06-15T08:50:01Z</time>
      </trkpt>
      <trkpt lat="48.53135" lon="2.06963">
        <ele>89.403398</ele>
        <time>2013-06-15T08:50:06Z</time>
      </trkpt>
      <trkpt lat="48.53133" lon="2.06957">
        <ele>88.470882</ele>
        <time>2013-06-15T08:50:11Z</time>
      </trkpt>
      <trkpt lat="48.5313" lon="2.06949">
        <ele>88.814098</ele>
        <time>2013-06-15T08:50:16Z</time>
      </trkpt>
      <trkpt lat="48.53127" lon="2.06944">
        <ele>89.205148</ele>
        <time>2013-06-15T08:50:21Z</time>
      </trkpt>
      <trkpt lat="48.53124" lon="2.06943">
        <ele>91.102949</ele>
        <time>2013-06-15T08:50:26Z</time>
      </trkpt>
      <trkpt lat="48.53123" lon="2.06942">
        <ele>92.402596</ele>
        <time>2013-06-15T08:50:31Z</time>
      </trkpt>
      <trkpt lat="48.53121" lon="2.06939">
        <ele>94.340111</ele>
        <time>2013-06-15T08:50:36Z</time>
      </trkpt>
      <trkpt lat="48.53119" lon="2.06935">
        <ele>96.253715</ele>
        <time>2013-06-15T08:50:41Z</time>
      </trkpt>
      <trkpt lat="48.53119" lon="2.06935">
        <ele>96.253715</ele>
        <time>2013-06-15T08:50:46Z</time>
      </trkpt>
      <trkpt lat="48.53119" lon="2.06935">
        <ele>96.253715</ele>
        <time>2013-06-15T08:50:51Z</time>
      </trkpt>
      <trkpt lat="48.53119" lon="2.06932">
        <ele>97.616988</ele>
        <time>2013-06-15T08:50:56Z</time>
      </trkpt>
      <trkpt lat="48.53118" lon="2.06927">
        <ele>99.594221</ele>
        <time>2013-06-15T08:51:01Z</time>
      </trkpt>
      <trkpt lat="48.53116" lon="2.0692">
        <ele>100.710694</ele>
        <time>2013-06-15T08:51:06Z</time>
      </trkpt>
      <trkpt lat="48.53115" lon="2.06917">
        <ele>98.502461</ele>
        <time>2013-06-15T08:51:11Z</time>
      </trkpt>
      <trkpt lat="48.53115" lon="2.06916">
        <ele>97.729236</ele>
        <time>2013-06-15T08:51:16Z</time>
      </trkpt>
      <trkpt lat="48.53113" lon="2.06913">
        <ele>97.593882</ele>
        <time>2013-06-15T08:51:21Z</time>
      </trkpt>
      <trkpt lat="48.53112" lon="2.06909">
        <ele>95.274208</ele>
        <time>2013-06-15T08:51:26Z</time>
      </trkpt>
      <trkpt lat="48.53112" lon="2.06909">
        <ele>95.274208</ele>
        <time>2013-06-15T08:51:31Z</time>
      </trkpt>
      <trkpt lat="48.53112" lon="2.06909">
        <ele>95.274208</ele>
        <time>2013-06-15T08:51:36Z</time>
      </trkpt>
      <trkpt lat="48.53112" lon="2.06909">
        <ele>95.274208</ele>
        <time>2013-06-15T08:51:41Z</time>
      </trkpt>
      <trkpt lat="48.5311" lon="2.06907">
        <ele>96.573862</ele>
        <time>2013-06-15T08:51:46Z</time>
      </trkpt>
      <trkpt lat="48.5311" lon="2.06907">
        <ele>95.824547</ele>
        <time>2013-06-15T08:51:51Z</time>
      </trkpt>
      <trkpt lat="48.53109" lon="2.06906">
        <ele>96.46242</ele>
        <time>2013-06-15T08:51:56Z</time>
      </trkpt>
      <trkpt lat="48.53106" lon="2.06903">
        <ele>96.901319</ele>
        <time>2013-06-15T08:52:01Z</time>
      </trkpt>
      <trkpt lat="48.53101" lon="2.069">
        <ele>95.841592</ele>
        <time>2013-06-15T08:52:06Z</time>
      </trkpt>
      <trkpt lat="48.53101" lon="2.069">
        <ele>95.841592</ele>
        <time>2013-06-15T08:52:11Z</time>
      </trkpt>
      <trkpt lat="48.53101" lon="2.069">
        <ele>96.503375</ele>
        <time>2013-06-15T08:52:16Z</time>
      </trkpt>
      <trkpt lat="48.53101" lon="2.069">
        <ele>96.503375</ele>
        <time>2013-06-15T08:52:21Z</time>
      </trkpt>
      <trkpt lat="48.53101" lon="2.069">
        <ele>96.503375</ele>
        <time>2013-06-15T08:52:26Z</time>
      </trkpt>
      <trkpt lat="48.53101" lon="2.069">
        <ele>96.503375</ele>
        <time>2013-06-15T08:52:31Z</time>
      </trkpt>
      <trkpt lat="48.53101" lon="2.069">
        <ele>96.503375</ele>
        <time>2013-06-15T08:52:36Z</time>
      </trkpt>
      <trkpt lat="48.53101" lon="2.069">
        <ele>96.503375</ele>
        <time>2013-06-15T08:52:41Z</time>
      </trkpt>
      <trkpt lat="48.531" lon="2.06898">
        <ele>96.368029</ele>
        <time>2013-06-15T08:52:46Z</time>
      </trkpt>
      <trkpt lat="48.53098" lon="2.06893">
        <ele>96.870559</ele>
        <time>2013-06-15T08:52:51Z</time>
      </trkpt>
      <trkpt lat="48.53094" lon="2.06891">
        <ele>96.560155</ele>
        <time>2013-06-15T08:52:56Z</time>
      </trkpt>
      <trkpt lat="48.53092" lon="2.0689">
        <ele>97.134409</ele>
        <time>2013-06-15T08:53:01Z</time>
      </trkpt>
      <trkpt lat="48.53091" lon="2.06892">
        <ele>97.8201</ele>
        <time>2013-06-15T08:53:06Z</time>
      </trkpt>
      <trkpt lat="48.53091" lon="2.06892">
        <ele>97.8201</ele>
        <time>2013-06-15T08:53:11Z</time>
      </trkpt>
      <trkpt lat="48.53091" lon="2.0689">
        <ele>99.207291</ele>
        <time>2013-06-15T08:53:16Z</time>
      </trkpt>
      <trkpt lat="48.53091" lon="2.06889">
        <ele>99.183384</ele>
        <time>2013-06-15T08:53:21Z</time>
      </trkpt>
      <trkpt lat="48.53091" lon="2.06889">
        <ele>98.434071</ele>
        <time>2013-06-15T08:53:26Z</time>
      </trkpt>
      <trkpt lat="48.53089" lon="2.06889">
        <ele>98.346542</ele>
        <time>2013-06-15T08:53:31Z</time>
      </trkpt>
      <trkpt lat="48.53085" lon="2.06893">
        <ele>98.817464</ele>
        <time>2013-06-15T08:53:36Z</time>
      </trkpt>
      <trkpt lat="48.53082" lon="2.06894">
        <ele>99.328103</ele>
        <time>2013-06-15T08:53:41Z</time>
      </trkpt>
      <trkpt lat="48.53079" lon="2.06897">
        <ele>99.200865</ele>
        <time>2013-06-15T08:53:46Z</time>
      </trkpt>
      <trkpt lat="48.53078" lon="2.06898">
        <ele>100.548345</ele>
        <time>2013-06-15T08:53:51Z</time>
      </trkpt>
      <trkpt lat="48.53075" lon="2.06899">
        <ele>100.397202</ele>
        <time>2013-06-15T08:53:56Z</time>
      </trkpt>
      <trkpt lat="48.53071" lon="2.06902">
        <ele>103.00464</ele>
        <time>2013-06-15T08:54:01Z</time>
      </trkpt>
      <trkpt lat="48.53067" lon="2.06904">
        <ele>103.451673</ele>
        <time>2013-06-15T08:54:06Z</time>
      </trkpt>
      <trkpt lat="48.53056" lon="2.06906">
        <ele>101.38822</ele>
        <time>2013-06-15T08:54:11Z</time>
      </trkpt>
      <trkpt lat="48.53052" lon="2.06908">
        <ele>101.811358</ele>
        <time>2013-06-15T08:54:16Z</time>
      </trkpt>
      <trkpt lat="48.53048" lon="2.06907">
        <ele>102.9599</ele>
        <time>2013-06-15T08:54:21Z</time>
      </trkpt>
      <trkpt lat="48.53044" lon="2.06909">
        <ele>102.721255</ele>
        <time>2013-06-15T08:54:26Z</time>
      </trkpt>
      <trkpt lat="48.53041" lon="2.06913">
        <ele>103.27974</ele>
        <time>2013-06-15T08:54:31Z</time>
      </trkpt>
      <trkpt lat="48.53038" lon="2.06918">
        <ele>102.45104</ele>
        <time>2013-06-15T08:54:36Z</time>
      </trkpt>
      <trkpt lat="48.53036" lon="2.06922">
        <ele>103.097047</ele>
        <time>2013-06-15T08:54:41Z</time>
      </trkpt>
      <trkpt lat="48.5303" lon="2.06926">
        <ele>103.480514</ele>
        <time>2013-06-15T08:54:46Z</time>
      </trkpt>
      <trkpt lat="48.53028" lon="2.0693">
        <ele>105.537625</ele>
        <time>2013-06-15T08:54:51Z</time>
      </trkpt>
      <trkpt lat="48.53024" lon="2.06935">
        <ele>106.781832</ele>
        <time>2013-06-15T08:54:56Z</time>
      </trkpt>
      <trkpt lat="48.53021" lon="2.06939">
        <ele>108.089643</ele>
        <time>2013-06-15T08:55:01Z</time>
      </trkpt>
      <trkpt lat="48.53019" lon="2.06941">
        <ele>110.122849</ele>
        <time>2013-06-15T08:55:06Z</time>
      </trkpt>
      <trkpt lat="48.53018" lon="2.06944">
        <ele>112.243567</ele>
        <time>2013-06-15T08:55:11Z</time>
      </trkpt>
      <trkpt lat="48.53016" lon="2.06948">
        <ele>112.889591</ele>
        <time>2013-06-15T08:55:16Z</time>
      </trkpt>
      <trkpt lat="48.53015" lon="2.06953">
        <ele>112.897737</ele>
        <time>2013-06-15T08:55:21Z</time>
      </trkpt>
      <trkpt lat="48.53012" lon="2.06957">
        <ele>112.794461</ele>
        <time>2013-06-15T08:55:26Z</time>
      </trkpt>
      <trkpt lat="48.53011" lon="2.0696">
        <ele>112.754782</ele>
        <time>2013-06-15T08:55:31Z</time>
      </trkpt>
      <trkpt lat="48.53008" lon="2.06962">
        <ele>114.038692</ele>
        <time>2013-06-15T08:55:36Z</time>
      </trkpt>
      <trkpt lat="48.53004" lon="2.06965">
        <ele>114.485794</ele>
        <time>2013-06-15T08:55:41Z</time>
      </trkpt>
      <trkpt lat="48.53001" lon="2.06967">
        <ele>115.76971</ele>
        <time>2013-06-15T08:55:46Z</time>
      </trkpt>
      <trkpt lat="48.52998" lon="2.06971">
        <ele>117.077544</ele>
        <time>2013-06-15T08:55:51Z</time>
      </trkpt>
      <trkpt lat="48.52993" lon="2.06974">
        <ele>118.186453</ele>
        <time>2013-06-15T08:55:56Z</time>
      </trkpt>
      <trkpt lat="48.52989" lon="2.06976">
        <ele>119.382872</ele>
        <time>2013-06-15T08:56:01Z</time>
      </trkpt>
      <trkpt lat="48.52987" lon="2.06979">
        <ele>120.666798</ele>
        <time>2013-06-15T08:56:06Z</time>
      </trkpt>
      <trkpt lat="48.52984" lon="2.06983">
        <ele>120.563545</ele>
        <time>2013-06-15T08:56:11Z</time>
      </trkpt>
      <trkpt lat="48.52981" lon="2.06985">
        <ele>122.509273</ele>
        <time>2013-06-15T08:56:16Z</time>
      </trkpt>
      <trkpt lat="48.52979" lon="2.06988">
        <ele>123.131407</ele>
        <time>2013-06-15T08:56:21Z</time>
      </trkpt>
      <trkpt lat="48.52977" lon="2.06992">
        <ele>123.777461</ele>
        <time>2013-06-15T08:56:26Z</time>
      </trkpt>
      <trkpt lat="48.52972" lon="2.06996">
        <ele>125.659615</ele>
        <time>2013-06-15T08:56:31Z</time>
      </trkpt>
      <trkpt lat="48.52967" lon="2.06998">
        <ele>126.106756</ele>
        <time>2013-06-15T08:56:36Z</time>
      </trkpt>
      <trkpt lat="48.52967" lon="2.07002">
        <ele>126.840316</ele>
        <time>2013-06-15T08:56:41Z</time>
      </trkpt>
      <trkpt lat="48.52965" lon="2.07008">
        <ele>127.5103</ele>
        <time>2013-06-15T08:56:46Z</time>
      </trkpt>
      <trkpt lat="48.52962" lon="2.07011">
        <ele>130.229266</ele>
        <time>2013-06-15T08:56:51Z</time>
      </trkpt>
      <trkpt lat="48.52961" lon="2.07017">
        <ele>129.575655</ele>
        <time>2013-06-15T08:56:56Z</time>
      </trkpt>
      <trkpt lat="48.5296" lon="2.07022">
        <ele>131.744244</ele>
        <time>2013-06-15T08:57:01Z</time>
      </trkpt>
      <trkpt lat="48.52959" lon="2.07026">
        <ele>133.139614</ele>
        <time>2013-06-15T08:57:06Z</time>
      </trkpt>
      <trkpt lat="48.52954" lon="2.0703">
        <ele>135.021796</ele>
        <time>2013-06-15T08:57:11Z</time>
      </trkpt>
      <trkpt lat="48.52952" lon="2.07031">
        <ele>135.620025</ele>
        <time>2013-06-15T08:57:16Z</time>
      </trkpt>
      <trkpt lat="48.5295" lon="2.07031">
        <ele>136.856134</ele>
        <time>2013-06-15T08:57:21Z</time>
      </trkpt>
      <trkpt lat="48.52945" lon="2.07032">
        <ele>137.941181</ele>
        <time>2013-06-15T08:57:26Z</time>
      </trkpt>
      <trkpt lat="48.52939" lon="2.07033">
        <ele>138.276937</ele>
        <time>2013-06-15T08:57:31Z</time>
      </trkpt>
      <trkpt lat="48.52934" lon="2.07034">
        <ele>137.289092</ele>
        <time>2013-06-15T08:57:36Z</time>
      </trkpt>
      <trkpt lat="48.52931" lon="2.07036">
        <ele>137.79984</ele>
        <time>2013-06-15T08:57:41Z</time>
      </trkpt>
      <trkpt lat="48.52928" lon="2.07037">
        <ele>138.31059</ele>
        <time>2013-06-15T08:57:46Z</time>
      </trkpt>
      <trkpt lat="48.52922" lon="2.07037">
        <ele>138.622441</ele>
        <time>2013-06-15T08:57:51Z</time>
      </trkpt>
      <trkpt lat="48.52916" lon="2.07038">
        <ele>138.958223</ele>
        <time>2013-06-15T08:57:56Z</time>
      </trkpt>
      <trkpt lat="48.52911" lon="2.07036">
        <ele>141.406553</ele>
        <time>2013-06-15T08:58:01Z</time>
      </trkpt>
      <trkpt lat="48.52905" lon="2.07036">
        <ele>141.718423</ele>
        <time>2013-06-15T08:58:06Z</time>
      </trkpt>
      <trkpt lat="48.529" lon="2.07034">
        <ele>140.595275</ele>
        <time>2013-06-15T08:58:11Z</time>
      </trkpt>
      <trkpt lat="48.52895" lon="2.07034">
        <ele>140.994639</ele>
        <time>2013-06-15T08:58:16Z</time>
      </trkpt>
      <trkpt lat="48.5289" lon="2.07034">
        <ele>141.306526</ele>
        <time>2013-06-15T08:58:21Z</time>
      </trkpt>
      <trkpt lat="48.52884" lon="2.07034">
        <ele>141.61842</ele>
        <time>2013-06-15T08:58:26Z</time>
      </trkpt>
      <trkpt lat="48.52879" lon="2.07033">
        <ele>141.268509</ele>
        <time>2013-06-15T08:58:31Z</time>
      </trkpt>
      <trkpt lat="48.52877" lon="2.07033">
        <ele>141.842843</ele>
        <time>2013-06-15T08:58:36Z</time>
      </trkpt>
      <trkpt lat="48.52877" lon="2.07033">
        <ele>141.842843</ele>
        <time>2013-06-15T08:58:41Z</time>
      </trkpt>
      <trkpt lat="48.52877" lon="2.07033">
        <ele>141.842843</ele>
        <time>2013-06-15T08:58:46Z</time>
      </trkpt>
      <trkpt lat="48.52877" lon="2.07033">
        <ele>141.842843</ele>
        <time>2013-06-15T08:58:51Z</time>
      </trkpt>
      <trkpt lat="48.52874" lon="2.07033">
        <ele>141.667891</ele>
        <time>2013-06-15T08:58:56Z</time>
      </trkpt>
      <trkpt lat="48.5287" lon="2.07034">
        <ele>142.091201</ele>
        <time>2013-06-15T08:59:01Z</time>
      </trkpt>
      <trkpt lat="48.52865" lon="2.07037">
        <ele>141.789153</ele>
        <time>2013-06-15T08:59:06Z</time>
      </trkpt>
      <trkpt lat="48.5286" lon="2.07037">
        <ele>142.188547</ele>
        <time>2013-06-15T08:59:11Z</time>
      </trkpt>
      <trkpt lat="48.52855" lon="2.07038">
        <ele>143.273684</ele>
        <time>2013-06-15T08:59:16Z</time>
      </trkpt>
      <trkpt lat="48.5285" lon="2.07039">
        <ele>143.697012</ele>
        <time>2013-06-15T08:59:21Z</time>
      </trkpt>
      <trkpt lat="48.52845" lon="2.07041">
        <ele>144.0568</ele>
        <time>2013-06-15T08:59:26Z</time>
      </trkpt>
      <trkpt lat="48.52841" lon="2.07045">
        <ele>144.615456</ele>
        <time>2013-06-15T08:59:31Z</time>
      </trkpt>
      <trkpt lat="48.52844" lon="2.07052">
        <ele>144.910024</ele>
        <time>2013-06-15T08:59:36Z</time>
      </trkpt>
      <trkpt lat="48.52845" lon="2.07058">
        <ele>145.093201</ele>
        <time>2013-06-15T08:59:41Z</time>
      </trkpt>
      <trkpt lat="48.52847" lon="2.07064">
        <ele>145.387779</ele>
        <time>2013-06-15T08:59:46Z</time>
      </trkpt>
      <trkpt lat="48.52849" lon="2.07071">
        <ele>145.594891</ele>
        <time>2013-06-15T08:59:51Z</time>
      </trkpt>
      <trkpt lat="48.52851" lon="2.07078">
        <ele>145.889478</ele>
        <time>2013-06-15T08:59:56Z</time>
      </trkpt>
      <trkpt lat="48.52853" lon="2.07085">
        <ele>146.18407</ele>
        <time>2013-06-15T09:00:01Z</time>
      </trkpt>
      <trkpt lat="48.52855" lon="2.07092">
        <ele>145.729381</ele>
        <time>2013-06-15T09:00:06Z</time>
      </trkpt>
      <trkpt lat="48.52858" lon="2.07099">
        <ele>146.023983</ele>
        <time>2013-06-15T09:00:11Z</time>
      </trkpt>
      <trkpt lat="48.52859" lon="2.07107">
        <ele>146.255051</ele>
        <time>2013-06-15T09:00:16Z</time>
      </trkpt>
      <trkpt lat="48.52861" lon="2.07115">
        <ele>145.824311</ele>
        <time>2013-06-15T09:00:21Z</time>
      </trkpt>
      <trkpt lat="48.52863" lon="2.07122">
        <ele>146.118929</ele>
        <time>2013-06-15T09:00:26Z</time>
      </trkpt>
      <trkpt lat="48.52866" lon="2.07129">
        <ele>145.75174</ele>
        <time>2013-06-15T09:00:31Z</time>
      </trkpt>
      <trkpt lat="48.52869" lon="2.07136">
        <ele>145.384556</ele>
        <time>2013-06-15T09:00:36Z</time>
      </trkpt>
      <trkpt lat="48.52873" lon="2.07143">
        <ele>145.766667</ele>
        <time>2013-06-15T09:00:41Z</time>
      </trkpt>
      <trkpt lat="48.52876" lon="2.07148">
        <ele>145.375558</ele>
        <time>2013-06-15T09:00:46Z</time>
      </trkpt>
      <trkpt lat="48.52878" lon="2.07155">
        <ele>145.670203</ele>
        <time>2013-06-15T09:00:51Z</time>
      </trkpt>
      <trkpt lat="48.52883" lon="2.07162">
        <ele>145.390521</ele>
        <time>2013-06-15T09:00:56Z</time>
      </trkpt>
      <trkpt lat="48.52885" lon="2.07169">
        <ele>145.685177</ele>
        <time>2013-06-15T09:01:01Z</time>
      </trkpt>
      <trkpt lat="48.52888" lon="2.07176">
        <ele>145.318029</ele>
        <time>2013-06-15T09:01:06Z</time>
      </trkpt>
      <trkpt lat="48.52892" lon="2.07183">
        <ele>145.700176</ele>
        <time>2013-06-15T09:01:11Z</time>
      </trkpt>
      <trkpt lat="48.52895" lon="2.07188">
        <ele>145.309098</ele>
        <time>2013-06-15T09:01:16Z</time>
      </trkpt>
      <trkpt lat="48.52898" lon="2.07195">
        <ele>144.941967</ele>
        <time>2013-06-15T09:01:21Z</time>
      </trkpt>
      <trkpt lat="48.52902" lon="2.07201">
        <ele>145.300189</ele>
        <time>2013-06-15T09:01:26Z</time>
      </trkpt>
      <trkpt lat="48.52906" lon="2.07206">
        <ele>145.658417</ele>
        <time>2013-06-15T09:01:31Z</time>
      </trkpt>
      <trkpt lat="48.52909" lon="2.07215">
        <ele>145.315248</ele>
        <time>2013-06-15T09:01:36Z</time>
      </trkpt>
      <trkpt lat="48.52911" lon="2.07222">
        <ele>145.609947</ele>
        <time>2013-06-15T09:01:41Z</time>
      </trkpt>
      <trkpt lat="48.52913" lon="2.07228">
        <ele>145.904652</ele>
        <time>2013-06-15T09:01:46Z</time>
      </trkpt>
      <trkpt lat="48.52917" lon="2.07234">
        <ele>146.262901</ele>
        <time>2013-06-15T09:01:51Z</time>
      </trkpt>
      <trkpt lat="48.5292" lon="2.07241">
        <ele>146.557615</ele>
        <time>2013-06-15T09:01:56Z</time>
      </trkpt>
      <trkpt lat="48.52923" lon="2.07248">
        <ele>146.19053</ele>
        <time>2013-06-15T09:02:01Z</time>
      </trkpt>
      <trkpt lat="48.52925" lon="2.07249">
        <ele>144.978359</ele>
        <time>2013-06-15T09:02:06Z</time>
      </trkpt>
      <trkpt lat="48.52926" lon="2.07255">
        <ele>143.750548</ele>
        <time>2013-06-15T09:02:11Z</time>
      </trkpt>
      <trkpt lat="48.52929" lon="2.0726">
        <ele>144.021329</ele>
        <time>2013-06-15T09:02:16Z</time>
      </trkpt>
      <trkpt lat="48.52932" lon="2.07267">
        <ele>143.65426</ele>
        <time>2013-06-15T09:02:21Z</time>
      </trkpt>
      <trkpt lat="48.52934" lon="2.07274">
        <ele>143.949001</ele>
        <time>2013-06-15T09:02:26Z</time>
      </trkpt>
      <trkpt lat="48.52938" lon="2.07281">
        <ele>142.920142</ele>
        <time>2013-06-15T09:02:31Z</time>
      </trkpt>
      <trkpt lat="48.52941" lon="2.07289">
        <ele>142.577045</ele>
        <time>2013-06-15T09:02:36Z</time>
      </trkpt>
      <trkpt lat="48.52944" lon="2.07296">
        <ele>142.210001</ele>
        <time>2013-06-15T09:02:41Z</time>
      </trkpt>
      <trkpt lat="48.52947" lon="2.07304">
        <ele>143.278017</ele>
        <time>2013-06-15T09:02:46Z</time>
      </trkpt>
      <trkpt lat="48.5295" lon="2.07311">
        <ele>142.910985</ele>
        <time>2013-06-15T09:02:51Z</time>
      </trkpt>
      <trkpt lat="48.52953" lon="2.07318">
        <ele>143.205761</ele>
        <time>2013-06-15T09:02:56Z</time>
      </trkpt>
      <trkpt lat="48.52956" lon="2.07325">
        <ele>142.838741</ele>
        <time>2013-06-15T09:03:01Z</time>
      </trkpt>
      <trkpt lat="48.52958" lon="2.07332">
        <ele>143.795327</ele>
        <time>2013-06-15T09:03:06Z</time>
      </trkpt>
      <trkpt lat="48.5296" lon="2.07339">
        <ele>144.090118</ele>
        <time>2013-06-15T09:03:11Z</time>
      </trkpt>
      <trkpt lat="48.52962" lon="2.07346">
        <ele>145.046713</ele>
        <time>2013-06-15T09:03:16Z</time>
      </trkpt>
      <trkpt lat="48.52964" lon="2.07354">
        <ele>145.365474</ele>
        <time>2013-06-15T09:03:21Z</time>
      </trkpt>
      <trkpt lat="48.52964" lon="2.07361">
        <ele>145.485281</ele>
        <time>2013-06-15T09:03:26Z</time>
      </trkpt>
      <trkpt lat="48.52965" lon="2.07369">
        <ele>147.127652</ele>
        <time>2013-06-15T09:03:31Z</time>
      </trkpt>
      <trkpt lat="48.52966" lon="2.07377">
        <ele>146.609632</ele>
        <time>2013-06-15T09:03:36Z</time>
      </trkpt>
      <trkpt lat="48.52967" lon="2.07386">
        <ele>148.275979</ele>
        <time>2013-06-15T09:03:41Z</time>
      </trkpt>
      <trkpt lat="48.52966" lon="2.07396">
        <ele>148.443736</ele>
        <time>2013-06-15T09:03:46Z</time>
      </trkpt>
      <trkpt lat="48.52967" lon="2.07407">
        <ele>150.134065</ele>
        <time>2013-06-15T09:03:51Z</time>
      </trkpt>
      <trkpt lat="48.52969" lon="2.07416">
        <ele>150.389339</ele>
        <time>2013-06-15T09:03:56Z</time>
      </trkpt>
      <trkpt lat="48.52969" lon="2.07426">
        <ele>149.895322</ele>
        <time>2013-06-15T09:04:01Z</time>
      </trkpt>
      <trkpt lat="48.5297" lon="2.07434">
        <ele>149.377343</ele>
        <time>2013-06-15T09:04:06Z</time>
      </trkpt>
      <trkpt lat="48.52971" lon="2.07443">
        <ele>149.632639</ele>
        <time>2013-06-15T09:04:11Z</time>
      </trkpt>
      <trkpt lat="48.52972" lon="2.07451">
        <ele>150.613271</ele>
        <time>2013-06-15T09:04:16Z</time>
      </trkpt>
      <trkpt lat="48.52975" lon="2.0746">
        <ele>149.521015</ele>
        <time>2013-06-15T09:04:21Z</time>
      </trkpt>
      <trkpt lat="48.52978" lon="2.07468">
        <ele>149.178066</ele>
        <time>2013-06-15T09:04:26Z</time>
      </trkpt>
      <trkpt lat="48.5298" lon="2.07478">
        <ele>147.3605</ele>
        <time>2013-06-15T09:04:31Z</time>
      </trkpt>
      <trkpt lat="48.52983" lon="2.07486">
        <ele>147.766867</ele>
        <time>2013-06-15T09:04:36Z</time>
      </trkpt>
      <trkpt lat="48.52986" lon="2.07494">
        <ele>146.674641</ele>
        <time>2013-06-15T09:04:41Z</time>
      </trkpt>
      <trkpt lat="48.5299" lon="2.07501">
        <ele>147.057046</ele>
        <time>2013-06-15T09:04:46Z</time>
      </trkpt>
      <trkpt lat="48.52995" lon="2.07509">
        <ele>146.139848</ele>
        <time>2013-06-15T09:04:51Z</time>
      </trkpt>
      <trkpt lat="48.52998" lon="2.07516">
        <ele>146.522269</ele>
        <time>2013-06-15T09:04:56Z</time>
      </trkpt>
      <trkpt lat="48.53001" lon="2.07523">
        <ele>147.566489</ele>
        <time>2013-06-15T09:05:01Z</time>
      </trkpt>
      <trkpt lat="48.53006" lon="2.07527">
        <ele>147.239168</ele>
        <time>2013-06-15T09:05:06Z</time>
      </trkpt>
      <trkpt lat="48.5301" lon="2.07533">
        <ele>145.524738</ele>
        <time>2013-06-15T09:05:11Z</time>
      </trkpt>
      <trkpt lat="48.53013" lon="2.0754">
        <ele>143.746784</ele>
        <time>2013-06-15T09:05:16Z</time>
      </trkpt>
      <trkpt lat="48.53019" lon="2.07547">
        <ele>139.983462</ele>
        <time>2013-06-15T09:05:21Z</time>
      </trkpt>
      <trkpt lat="48.53023" lon="2.07553">
        <ele>139.680148</ele>
        <time>2013-06-15T09:05:26Z</time>
      </trkpt>
      <trkpt lat="48.53027" lon="2.07558">
        <ele>139.37684</ele>
        <time>2013-06-15T09:05:31Z</time>
      </trkpt>
      <trkpt lat="48.53032" lon="2.07565">
        <ele>138.435735</ele>
        <time>2013-06-15T09:05:36Z</time>
      </trkpt>
      <trkpt lat="48.53036" lon="2.07571">
        <ele>138.79423</ele>
        <time>2013-06-15T09:05:41Z</time>
      </trkpt>
      <trkpt lat="48.5304" lon="2.07577">
        <ele>139.15273</ele>
        <time>2013-06-15T09:05:46Z</time>
      </trkpt>
      <trkpt lat="48.53043" lon="2.07582">
        <ele>140.173023</ele>
        <time>2013-06-15T09:05:51Z</time>
      </trkpt>
      <trkpt lat="48.53047" lon="2.07588">
        <ele>139.869746</ele>
        <time>2013-06-15T09:05:56Z</time>
      </trkpt>
      <trkpt lat="48.53052" lon="2.07595">
        <ele>138.928677</ele>
        <time>2013-06-15T09:06:01Z</time>
      </trkpt>
      <trkpt lat="48.53056" lon="2.076">
        <ele>139.2872</ele>
        <time>2013-06-15T09:06:06Z</time>
      </trkpt>
      <trkpt lat="48.53061" lon="2.07604">
        <ele>139.709263</ele>
        <time>2013-06-15T09:06:11Z</time>
      </trkpt>
      <trkpt lat="48.53065" lon="2.07611">
        <ele>140.841097</ele>
        <time>2013-06-15T09:06:16Z</time>
      </trkpt>
      <trkpt lat="48.5307" lon="2.07617">
        <ele>140.537853</ele>
        <time>2013-06-15T09:06:21Z</time>
      </trkpt>
      <trkpt lat="48.53073" lon="2.07624">
        <ele>140.920391</ele>
        <time>2013-06-15T09:06:26Z</time>
      </trkpt>
      <trkpt lat="48.53078" lon="2.07628">
        <ele>142.004262</ele>
        <time>2013-06-15T09:06:31Z</time>
      </trkpt>
      <trkpt lat="48.53082" lon="2.07634">
        <ele>143.112132</ele>
        <time>2013-06-15T09:06:36Z</time>
      </trkpt>
      <trkpt lat="48.53085" lon="2.07641">
        <ele>142.745375</ele>
        <time>2013-06-15T09:06:41Z</time>
      </trkpt>
      <trkpt lat="48.53089" lon="2.07646">
        <ele>142.442163</ele>
        <time>2013-06-15T09:06:46Z</time>
      </trkpt>
      <trkpt lat="48.53094" lon="2.07653">
        <ele>142.162951</ele>
        <time>2013-06-15T09:06:51Z</time>
      </trkpt>
      <trkpt lat="48.53098" lon="2.0766">
        <ele>140.472653</ele>
        <time>2013-06-15T09:06:56Z</time>
      </trkpt>
      <trkpt lat="48.53102" lon="2.07667">
        <ele>139.444143</ele>
        <time>2013-06-15T09:07:01Z</time>
      </trkpt>
      <trkpt lat="48.53105" lon="2.07674">
        <ele>139.077418</ele>
        <time>2013-06-15T09:07:06Z</time>
      </trkpt>
      <trkpt lat="48.53108" lon="2.07682">
        <ele>138.734698</ele>
        <time>2013-06-15T09:07:11Z</time>
      </trkpt>
      <trkpt lat="48.53112" lon="2.07691">
        <ele>139.141301</ele>
        <time>2013-06-15T09:07:16Z</time>
      </trkpt>
      <trkpt lat="48.53115" lon="2.07699">
        <ele>137.387503</ele>
        <time>2013-06-15T09:07:21Z</time>
      </trkpt>
      <trkpt lat="48.53118" lon="2.07706">
        <ele>138.431899</ele>
        <time>2013-06-15T09:07:26Z</time>
      </trkpt>
      <trkpt lat="48.5312" lon="2.07715">
        <ele>138.774987</ele>
        <time>2013-06-15T09:07:31Z</time>
      </trkpt>
      <trkpt lat="48.53123" lon="2.07722">
        <ele>140.481172</ele>
        <time>2013-06-15T09:07:36Z</time>
      </trkpt>
      <trkpt lat="48.53124" lon="2.07732">
        <ele>140.736736</ele>
        <time>2013-06-15T09:07:41Z</time>
      </trkpt>
      <trkpt lat="48.53126" lon="2.0774">
        <ele>139.64475</ele>
        <time>2013-06-15T09:07:46Z</time>
      </trkpt>
      <trkpt lat="48.53129" lon="2.07748">
        <ele>138.552772</ele>
        <time>2013-06-15T09:07:51Z</time>
      </trkpt>
      <trkpt lat="48.53129" lon="2.07756">
        <ele>137.285716</ele>
        <time>2013-06-15T09:07:56Z</time>
      </trkpt>
      <trkpt lat="48.53129" lon="2.07766">
        <ele>135.380898</ele>
        <time>2013-06-15T09:08:01Z</time>
      </trkpt>
      <trkpt lat="48.5313" lon="2.07774">
        <ele>132.790304</ele>
        <time>2013-06-15T09:08:06Z</time>
      </trkpt>
      <trkpt lat="48.53131" lon="2.07782">
        <ele>132.272584</ele>
        <time>2013-06-15T09:08:11Z</time>
      </trkpt>
      <trkpt lat="48.53131" lon="2.07791">
        <ele>131.005552</ele>
        <time>2013-06-15T09:08:16Z</time>
      </trkpt>
      <trkpt lat="48.53131" lon="2.07799">
        <ele>130.487844</ele>
        <time>2013-06-15T09:08:21Z</time>
      </trkpt>
      <trkpt lat="48.53132" lon="2.07807">
        <ele>129.970141</ele>
        <time>2013-06-15T09:08:26Z</time>
      </trkpt>
      <trkpt lat="48.53132" lon="2.07815">
        <ele>128.703126</ele>
        <time>2013-06-15T09:08:31Z</time>
      </trkpt>
      <trkpt lat="48.53132" lon="2.07825">
        <ele>127.460131</ele>
        <time>2013-06-15T09:08:36Z</time>
      </trkpt>
      <trkpt lat="48.53132" lon="2.07833">
        <ele>126.193129</ele>
        <time>2013-06-15T09:08:41Z</time>
      </trkpt>
      <trkpt lat="48.53132" lon="2.07841">
        <ele>125.67545</ele>
        <time>2013-06-15T09:08:46Z</time>
      </trkpt>
      <trkpt lat="48.53131" lon="2.0785">
        <ele>125.094251</ele>
        <time>2013-06-15T09:08:51Z</time>
      </trkpt>
      <trkpt lat="48.53132" lon="2.07859">
        <ele>124.576584</ele>
        <time>2013-06-15T09:08:56Z</time>
      </trkpt>
      <trkpt lat="48.53132" lon="2.07867">
        <ele>123.309606</ele>
        <time>2013-06-15T09:09:01Z</time>
      </trkpt>
      <trkpt lat="48.53132" lon="2.07875">
        <ele>123.453725</ele>
        <time>2013-06-15T09:09:06Z</time>
      </trkpt>
      <trkpt lat="48.53131" lon="2.07883">
        <ele>122.848533</ele>
        <time>2013-06-15T09:09:11Z</time>
      </trkpt>
      <trkpt lat="48.53131" lon="2.07892">
        <ele>121.605593</ele>
        <time>2013-06-15T09:09:16Z</time>
      </trkpt>
      <trkpt lat="48.5313" lon="2.07901">
        <ele>121.000413</ele>
        <time>2013-06-15T09:09:21Z</time>
      </trkpt>
      <trkpt lat="48.53129" lon="2.07909">
        <ele>120.395238</ele>
        <time>2013-06-15T09:09:26Z</time>
      </trkpt>
      <trkpt lat="48.53129" lon="2.07917">
        <ele>119.790069</ele>
        <time>2013-06-15T09:09:31Z</time>
      </trkpt>
      <trkpt lat="48.53128" lon="2.07926">
        <ele>119.208933</ele>
        <time>2013-06-15T09:09:36Z</time>
      </trkpt>
      <trkpt lat="48.53127" lon="2.07934">
        <ele>118.603776</ele>
        <time>2013-06-15T09:09:41Z</time>
      </trkpt>
      <trkpt lat="48.53126" lon="2.07942">
        <ele>117.998626</ele>
        <time>2013-06-15T09:09:46Z</time>
      </trkpt>
      <trkpt lat="48.53126" lon="2.07951">
        <ele>117.393481</ele>
        <time>2013-06-15T09:09:51Z</time>
      </trkpt>
      <trkpt lat="48.53125" lon="2.0796">
        <ele>116.812372</ele>
        <time>2013-06-15T09:09:56Z</time>
      </trkpt>
      <trkpt lat="48.53122" lon="2.07967">
        <ele>115.34635</ele>
        <time>2013-06-15T09:10:01Z</time>
      </trkpt>
      <trkpt lat="48.53118" lon="2.07973">
        <ele>115.203885</ele>
        <time>2013-06-15T09:10:06Z</time>
      </trkpt>
      <trkpt lat="48.53114" lon="2.07979">
        <ele>114.288079</ele>
        <time>2013-06-15T09:10:11Z</time>
      </trkpt>
      <trkpt lat="48.53108" lon="2.0798">
        <ele>113.87442</ele>
        <time>2013-06-15T09:10:16Z</time>
      </trkpt>
      <trkpt lat="48.53103" lon="2.07978">
        <ele>113.50024</ele>
        <time>2013-06-15T09:10:21Z</time>
      </trkpt>
      <trkpt lat="48.53097" lon="2.07977">
        <ele>112.376752</ele>
        <time>2013-06-15T09:10:26Z</time>
      </trkpt>
      <trkpt lat="48.53091" lon="2.07978">
        <ele>111.963114</ele>
        <time>2013-06-15T09:10:31Z</time>
      </trkpt>
      <trkpt lat="48.53085" lon="2.07979">
        <ele>111.637016</ele>
        <time>2013-06-15T09:10:36Z</time>
      </trkpt>
      <trkpt lat="48.5308" lon="2.07981">
        <ele>111.996737</ele>
        <time>2013-06-15T09:10:41Z</time>
      </trkpt>
      <trkpt lat="48.53074" lon="2.07981">
        <ele>110.897306</ele>
        <time>2013-06-15T09:10:46Z</time>
      </trkpt>
      <trkpt lat="48.53068" lon="2.0798">
        <ele>111.184941</ele>
        <time>2013-06-15T09:10:51Z</time>
      </trkpt>
      <trkpt lat="48.53062" lon="2.07978">
        <ele>110.723273</ele>
        <time>2013-06-15T09:10:56Z</time>
      </trkpt>
      <trkpt lat="48.53057" lon="2.07975">
        <ele>111.736199</ele>
        <time>2013-06-15T09:11:01Z</time>
      </trkpt>
      <trkpt lat="48.53051" lon="2.07972">
        <ele>111.999823</ele>
        <time>2013-06-15T09:11:06Z</time>
      </trkpt>
      <trkpt lat="48.53045" lon="2.07969">
        <ele>112.263453</ele>
        <time>2013-06-15T09:11:11Z</time>
      </trkpt>
      <trkpt lat="48.5304" lon="2.07965">
        <ele>112.503059</ele>
        <time>2013-06-15T09:11:16Z</time>
      </trkpt>
      <trkpt lat="48.53033" lon="2.07961">
        <ele>112.655154</ele>
        <time>2013-06-15T09:11:22Z</time>
      </trkpt>
      <trkpt lat="48.53028" lon="2.07959">
        <ele>112.281049</ele>
        <time>2013-06-15T09:11:27Z</time>
      </trkpt>
      <trkpt lat="48.53022" lon="2.07957">
        <ele>111.157645</ele>
        <time>2013-06-15T09:11:32Z</time>
      </trkpt>
      <trkpt lat="48.53018" lon="2.07955">
        <ele>111.508826</ele>
        <time>2013-06-15T09:11:37Z</time>
      </trkpt>
      <trkpt lat="48.53013" lon="2.0795">
        <ele>111.086678</ele>
        <time>2013-06-15T09:11:42Z</time>
      </trkpt>
      <trkpt lat="48.53008" lon="2.07946">
        <ele>110.664537</ele>
        <time>2013-06-15T09:11:47Z</time>
      </trkpt>
      <trkpt lat="48.53003" lon="2.07943">
        <ele>110.26643</ele>
        <time>2013-06-15T09:11:52Z</time>
      </trkpt>
      <trkpt lat="48.52997" lon="2.07939">
        <ele>110.506093</ele>
        <time>2013-06-15T09:11:57Z</time>
      </trkpt>
      <trkpt lat="48.52993" lon="2.07936">
        <ele>110.195508</ele>
        <time>2013-06-15T09:12:02Z</time>
      </trkpt>
      <trkpt lat="48.52988" lon="2.07932">
        <ele>110.435183</ele>
        <time>2013-06-15T09:12:07Z</time>
      </trkpt>
      <trkpt lat="48.52981" lon="2.07929">
        <ele>109.949594</ele>
        <time>2013-06-15T09:12:12Z</time>
      </trkpt>
      <trkpt lat="48.52976" lon="2.07926">
        <ele>110.213312</ele>
        <time>2013-06-15T09:12:17Z</time>
      </trkpt>
      <trkpt lat="48.52969" lon="2.07924">
        <ele>109.751765</ele>
        <time>2013-06-15T09:12:22Z</time>
      </trkpt>
      <trkpt lat="48.52964" lon="2.07921">
        <ele>110.015498</ele>
        <time>2013-06-15T09:12:27Z</time>
      </trkpt>
      <trkpt lat="48.52957" lon="2.0792">
        <ele>110.215765</ele>
        <time>2013-06-15T09:12:32Z</time>
      </trkpt>
      <trkpt lat="48.5295" lon="2.07918">
        <ele>109.754242</ele>
        <time>2013-06-15T09:12:37Z</time>
      </trkpt>
      <trkpt lat="48.52944" lon="2.07918">
        <ele>110.06605</ele>
        <time>2013-06-15T09:12:42Z</time>
      </trkpt>
      <trkpt lat="48.52939" lon="2.07917">
        <ele>110.377864</ele>
        <time>2013-06-15T09:12:47Z</time>
      </trkpt>
      <trkpt lat="48.52932" lon="2.07917">
        <ele>109.94039</ele>
        <time>2013-06-15T09:12:52Z</time>
      </trkpt>
      <trkpt lat="48.52927" lon="2.07917">
        <ele>110.252217</ele>
        <time>2013-06-15T09:12:57Z</time>
      </trkpt>
      <trkpt lat="48.5292" lon="2.07915">
        <ele>111.201827</ele>
        <time>2013-06-15T09:13:02Z</time>
      </trkpt>
      <trkpt lat="48.52915" lon="2.07915">
        <ele>110.102573</ele>
        <time>2013-06-15T09:13:07Z</time>
      </trkpt>
      <trkpt lat="48.52908" lon="2.07915">
        <ele>111.076224</ele>
        <time>2013-06-15T09:13:12Z</time>
      </trkpt>
      <trkpt lat="48.52902" lon="2.07915">
        <ele>112.049884</ele>
        <time>2013-06-15T09:13:17Z</time>
      </trkpt>
      <trkpt lat="48.52895" lon="2.07913">
        <ele>112.250235</ele>
        <time>2013-06-15T09:13:22Z</time>
      </trkpt>
      <trkpt lat="48.52889" lon="2.07911">
        <ele>112.538079</ele>
        <time>2013-06-15T09:13:27Z</time>
      </trkpt>
      <trkpt lat="48.52882" lon="2.07911">
        <ele>112.762473</ele>
        <time>2013-06-15T09:13:32Z</time>
      </trkpt>
      <trkpt lat="48.52876" lon="2.07909">
        <ele>113.050331</ele>
        <time>2013-06-15T09:13:37Z</time>
      </trkpt>
      <trkpt lat="48.5287" lon="2.07909">
        <ele>113.362222</ele>
        <time>2013-06-15T09:13:42Z</time>
      </trkpt>
      <trkpt lat="48.52864" lon="2.07907">
        <ele>114.311903</ele>
        <time>2013-06-15T09:13:47Z</time>
      </trkpt>
      <trkpt lat="48.52858" lon="2.07905">
        <ele>114.575756</ele>
        <time>2013-06-15T09:13:52Z</time>
      </trkpt>
      <trkpt lat="48.52853" lon="2.07903">
        <ele>114.20183</ele>
        <time>2013-06-15T09:13:57Z</time>
      </trkpt>
      <trkpt lat="48.52848" lon="2.07901">
        <ele>114.489722</ele>
        <time>2013-06-15T09:14:02Z</time>
      </trkpt>
      <trkpt lat="48.52841" lon="2.079">
        <ele>114.028335</ele>
        <time>2013-06-15T09:14:07Z</time>
      </trkpt>
      <trkpt lat="48.52836" lon="2.07897">
        <ele>114.292216</ele>
        <time>2013-06-15T09:14:12Z</time>
      </trkpt>
      <trkpt lat="48.5283" lon="2.07895">
        <ele>114.580127</ele>
        <time>2013-06-15T09:14:17Z</time>
      </trkpt>
      <trkpt lat="48.52824" lon="2.07894">
        <ele>114.868046</ele>
        <time>2013-06-15T09:14:22Z</time>
      </trkpt>
      <trkpt lat="48.52818" lon="2.07892">
        <ele>115.155971</ele>
        <time>2013-06-15T09:14:27Z</time>
      </trkpt>
      <trkpt lat="48.52813" lon="2.0789">
        <ele>114.782086</ele>
        <time>2013-06-15T09:14:32Z</time>
      </trkpt>
      <trkpt lat="48.52808" lon="2.0789">
        <ele>115.094047</ele>
        <time>2013-06-15T09:14:37Z</time>
      </trkpt>
      <trkpt lat="48.52803" lon="2.07886">
        <ele>116.832503</ele>
        <time>2013-06-15T09:14:42Z</time>
      </trkpt>
      <trkpt lat="48.52797" lon="2.07883">
        <ele>117.09643</ele>
        <time>2013-06-15T09:14:47Z</time>
      </trkpt>
      <trkpt lat="48.52792" lon="2.07881">
        <ele>115.973288</ele>
        <time>2013-06-15T09:14:52Z</time>
      </trkpt>
      <trkpt lat="48.52787" lon="2.07878">
        <ele>116.986506</ele>
        <time>2013-06-15T09:14:57Z</time>
      </trkpt>
      <trkpt lat="48.52781" lon="2.07877">
        <ele>117.274474</ele>
        <time>2013-06-15T09:15:02Z</time>
      </trkpt>
      <trkpt lat="48.52775" lon="2.07874">
        <ele>116.789151</ele>
        <time>2013-06-15T09:15:07Z</time>
      </trkpt>
      <trkpt lat="48.52769" lon="2.07871">
        <ele>117.053112</ele>
        <time>2013-06-15T09:15:12Z</time>
      </trkpt>
      <trkpt lat="48.52763" lon="2.07869">
        <ele>117.341101</ele>
        <time>2013-06-15T09:15:17Z</time>
      </trkpt>
      <trkpt lat="48.52757" lon="2.07868">
        <ele>116.879823</ele>
        <time>2013-06-15T09:15:22Z</time>
      </trkpt>
      <trkpt lat="48.52751" lon="2.07865">
        <ele>117.143805</ele>
        <time>2013-06-15T09:15:27Z</time>
      </trkpt>
      <trkpt lat="48.52746" lon="2.07863">
        <ele>118.181088</ele>
        <time>2013-06-15T09:15:32Z</time>
      </trkpt>
      <trkpt lat="48.5274" lon="2.0786">
        <ele>117.69581</ele>
        <time>2013-06-15T09:15:37Z</time>
      </trkpt>
      <trkpt lat="48.52734" lon="2.07859">
        <ele>117.983833</ele>
        <time>2013-06-15T09:15:42Z</time>
      </trkpt>
      <trkpt lat="48.52728" lon="2.07857">
        <ele>117.522592</ele>
        <time>2013-06-15T09:15:47Z</time>
      </trkpt>
      <trkpt lat="48.52723" lon="2.07856">
        <ele>117.898071</ele>
        <time>2013-06-15T09:15:52Z</time>
      </trkpt>
      <trkpt lat="48.52721" lon="2.07855">
        <ele>118.472458</ele>
        <time>2013-06-15T09:15:57Z</time>
      </trkpt>
      <trkpt lat="48.52721" lon="2.07861">
        <ele>118.568539</ele>
        <time>2013-06-15T09:16:02Z</time>
      </trkpt>
      <trkpt lat="48.5272" lon="2.07866">
        <ele>119.326452</ele>
        <time>2013-06-15T09:16:07Z</time>
      </trkpt>
      <trkpt lat="48.52718" lon="2.07872">
        <ele>119.996926</ele>
        <time>2013-06-15T09:16:12Z</time>
      </trkpt>
      <trkpt lat="48.5272" lon="2.07878">
        <ele>120.204479</ele>
        <time>2013-06-15T09:16:17Z</time>
      </trkpt>
      <trkpt lat="48.52722" lon="2.07884">
        <ele>121.886553</ele>
        <time>2013-06-15T09:16:22Z</time>
      </trkpt>
      <trkpt lat="48.52724" lon="2.07889">
        <ele>122.157533</ele>
        <time>2013-06-15T09:16:27Z</time>
      </trkpt>
      <trkpt lat="48.52727" lon="2.07895">
        <ele>123.177787</ele>
        <time>2013-06-15T09:16:32Z</time>
      </trkpt>
      <trkpt lat="48.52731" lon="2.07898">
        <ele>124.149996</ele>
        <time>2013-06-15T09:16:37Z</time>
      </trkpt>
      <trkpt lat="48.52734" lon="2.07904">
        <ele>125.194283</ele>
        <time>2013-06-15T09:16:42Z</time>
      </trkpt>
      <trkpt lat="48.52736" lon="2.0791">
        <ele>125.465278</ele>
        <time>2013-06-15T09:16:47Z</time>
      </trkpt>
      <trkpt lat="48.52738" lon="2.07914">
        <ele>126.374076</ele>
        <time>2013-06-15T09:16:52Z</time>
      </trkpt>
      <trkpt lat="48.52739" lon="2.07921">
        <ele>126.581658</ele>
        <time>2013-06-15T09:16:57Z</time>
      </trkpt>
      <trkpt lat="48.52739" lon="2.07929">
        <ele>126.725826</ele>
        <time>2013-06-15T09:17:02Z</time>
      </trkpt>
      <trkpt lat="48.52739" lon="2.07939">
        <ele>127.643302</ele>
        <time>2013-06-15T09:17:07Z</time>
      </trkpt>
      <trkpt lat="48.52741" lon="2.07947">
        <ele>128.624202</ele>
        <time>2013-06-15T09:17:12Z</time>
      </trkpt>
      <trkpt lat="48.52744" lon="2.07955">
        <ele>129.692556</ele>
        <time>2013-06-15T09:17:17Z</time>
      </trkpt>
      <trkpt lat="48.52748" lon="2.07959">
        <ele>131.438094</ele>
        <time>2013-06-15T09:17:22Z</time>
      </trkpt>
      <trkpt lat="48.52751" lon="2.07967">
        <ele>131.844636</ele>
        <time>2013-06-15T09:17:27Z</time>
      </trkpt>
      <trkpt lat="48.52754" lon="2.0797">
        <ele>132.816876</ele>
        <time>2013-06-15T09:17:32Z</time>
      </trkpt>
      <trkpt lat="48.52758" lon="2.07974">
        <ele>134.562426</ele>
        <time>2013-06-15T09:17:37Z</time>
      </trkpt>
      <trkpt lat="48.52762" lon="2.07978">
        <ele>135.646159</ele>
        <time>2013-06-15T09:17:42Z</time>
      </trkpt>
      <trkpt lat="48.52767" lon="2.07983">
        <ele>136.068074</ele>
        <time>2013-06-15T09:17:47Z</time>
      </trkpt>
      <trkpt lat="48.52772" lon="2.07987">
        <ele>136.489996</ele>
        <time>2013-06-15T09:17:52Z</time>
      </trkpt>
      <trkpt lat="48.52777" lon="2.07991">
        <ele>137.573744</ele>
        <time>2013-06-15T09:17:57Z</time>
      </trkpt>
      <trkpt lat="48.52781" lon="2.07995">
        <ele>138.657498</ele>
        <time>2013-06-15T09:18:02Z</time>
      </trkpt>
      <trkpt lat="48.52783" lon="2.08001">
        <ele>138.928558</ele>
        <time>2013-06-15T09:18:07Z</time>
      </trkpt>
      <trkpt lat="48.52788" lon="2.08009">
        <ele>138.673336</ele>
        <time>2013-06-15T09:18:12Z</time>
      </trkpt>
      <trkpt lat="48.52791" lon="2.08016">
        <ele>139.717722</ele>
        <time>2013-06-15T09:18:17Z</time>
      </trkpt>
      <trkpt lat="48.52793" lon="2.08024">
        <ele>140.036875</ele>
        <time>2013-06-15T09:18:22Z</time>
      </trkpt>
      <trkpt lat="48.52795" lon="2.0803">
        <ele>140.969772</ele>
        <time>2013-06-15T09:18:27Z</time>
      </trkpt>
      <trkpt lat="48.52798" lon="2.08035">
        <ele>142.739413</ele>
        <time>2013-06-15T09:18:32Z</time>
      </trkpt>
      <trkpt lat="48.52801" lon="2.08041">
        <ele>144.421597</ele>
        <time>2013-06-15T09:18:37Z</time>
      </trkpt>
      <trkpt lat="48.52802" lon="2.08046">
        <ele>144.605225</ele>
        <time>2013-06-15T09:18:42Z</time>
      </trkpt>
      <trkpt lat="48.52805" lon="2.08053">
        <ele>145.649642</ele>
        <time>2013-06-15T09:18:47Z</time>
      </trkpt>
      <trkpt lat="48.52807" lon="2.08061">
        <ele>148.04174</ele>
        <time>2013-06-15T09:18:52Z</time>
      </trkpt>
      <trkpt lat="48.52809" lon="2.08068">
        <ele>148.336887</ele>
        <time>2013-06-15T09:18:57Z</time>
      </trkpt>
      <trkpt lat="48.52811" lon="2.08076">
        <ele>149.317901</ele>
        <time>2013-06-15T09:19:02Z</time>
      </trkpt>
      <trkpt lat="48.52813" lon="2.08084">
        <ele>148.887824</ele>
        <time>2013-06-15T09:19:07Z</time>
      </trkpt>
      <trkpt lat="48.52814" lon="2.0809">
        <ele>148.40966</ele>
        <time>2013-06-15T09:19:12Z</time>
      </trkpt>
      <trkpt lat="48.52818" lon="2.08097">
        <ele>145.22082</ele>
        <time>2013-06-15T09:19:17Z</time>
      </trkpt>
      <trkpt lat="48.52819" lon="2.08104">
        <ele>141.195237</ele>
        <time>2013-06-15T09:19:22Z</time>
      </trkpt>
      <trkpt lat="48.52822" lon="2.08112">
        <ele>140.103368</ele>
        <time>2013-06-15T09:19:27Z</time>
      </trkpt>
      <trkpt lat="48.52823" lon="2.08119">
        <ele>139.64927</ele>
        <time>2013-06-15T09:19:32Z</time>
      </trkpt>
      <trkpt lat="48.52824" lon="2.08126">
        <ele>139.107708</ele>
        <time>2013-06-15T09:19:37Z</time>
      </trkpt>
      <trkpt lat="48.52825" lon="2.08133">
        <ele>139.315433</ele>
        <time>2013-06-15T09:19:42Z</time>
      </trkpt>
      <trkpt lat="48.52826" lon="2.08142">
        <ele>138.821984</ele>
        <time>2013-06-15T09:19:47Z</time>
      </trkpt>
      <trkpt lat="48.52827" lon="2.08152">
        <ele>139.827109</ele>
        <time>2013-06-15T09:19:52Z</time>
      </trkpt>
      <trkpt lat="48.52828" lon="2.08161">
        <ele>138.671862</ele>
        <time>2013-06-15T09:19:57Z</time>
      </trkpt>
      <trkpt lat="48.5283" lon="2.08171">
        <ele>138.92772</ele>
        <time>2013-06-15T09:20:02Z</time>
      </trkpt>
      <trkpt lat="48.52829" lon="2.0818">
        <ele>138.346833</ele>
        <time>2013-06-15T09:20:07Z</time>
      </trkpt>
      <trkpt lat="48.5283" lon="2.08188">
        <ele>138.578649</ele>
        <time>2013-06-15T09:20:12Z</time>
      </trkpt>
      <trkpt lat="48.52831" lon="2.08198">
        <ele>138.834529</ele>
        <time>2013-06-15T09:20:17Z</time>
      </trkpt>
      <trkpt lat="48.52832" lon="2.08206">
        <ele>138.317074</ele>
        <time>2013-06-15T09:20:22Z</time>
      </trkpt>
      <trkpt lat="48.52833" lon="2.08214">
        <ele>137.887095</ele>
        <time>2013-06-15T09:20:27Z</time>
      </trkpt>
      <trkpt lat="48.52836" lon="2.08223">
        <ele>138.206407</ele>
        <time>2013-06-15T09:20:32Z</time>
      </trkpt>
      <trkpt lat="48.52838" lon="2.08231">
        <ele>138.525725</ele>
        <time>2013-06-15T09:20:37Z</time>
      </trkpt>
      <trkpt lat="48.5284" lon="2.0824">
        <ele>138.869114</ele>
        <time>2013-06-15T09:20:42Z</time>
      </trkpt>
      <trkpt lat="48.52842" lon="2.08249">
        <ele>138.439163</ele>
        <time>2013-06-15T09:20:47Z</time>
      </trkpt>
      <trkpt lat="48.52845" lon="2.08255">
        <ele>138.072626</ele>
        <time>2013-06-15T09:20:52Z</time>
      </trkpt>
      <trkpt lat="48.52846" lon="2.08265">
        <ele>138.328564</ele>
        <time>2013-06-15T09:20:57Z</time>
      </trkpt>
      <trkpt lat="48.52848" lon="2.08273">
        <ele>138.560442</ele>
        <time>2013-06-15T09:21:02Z</time>
      </trkpt>
      <trkpt lat="48.5285" lon="2.08281">
        <ele>138.879801</ele>
        <time>2013-06-15T09:21:07Z</time>
      </trkpt>
      <trkpt lat="48.52853" lon="2.08288">
        <ele>138.513288</ele>
        <time>2013-06-15T09:21:12Z</time>
      </trkpt>
      <trkpt lat="48.52857" lon="2.08294">
        <ele>138.871997</ele>
        <time>2013-06-15T09:21:17Z</time>
      </trkpt>
      <trkpt lat="48.5286" lon="2.08301">
        <ele>139.91659</ele>
        <time>2013-06-15T09:21:22Z</time>
      </trkpt>
      <trkpt lat="48.52863" lon="2.08309">
        <ele>139.574167</ele>
        <time>2013-06-15T09:21:27Z</time>
      </trkpt>
      <trkpt lat="48.52866" lon="2.08317">
        <ele>139.981037</ele>
        <time>2013-06-15T09:21:32Z</time>
      </trkpt>
      <trkpt lat="48.52869" lon="2.08324">
        <ele>140.276363</ele>
        <time>2013-06-15T09:21:37Z</time>
      </trkpt>
      <trkpt lat="48.52873" lon="2.08332">
        <ele>140.683249</ele>
        <time>2013-06-15T09:21:42Z</time>
      </trkpt>
      <trkpt lat="48.52875" lon="2.08339">
        <ele>140.978586</ele>
        <time>2013-06-15T09:21:47Z</time>
      </trkpt>
      <trkpt lat="48.52878" lon="2.08346">
        <ele>142.023216</ele>
        <time>2013-06-15T09:21:52Z</time>
      </trkpt>
      <trkpt lat="48.52882" lon="2.08356">
        <ele>142.454201</ele>
        <time>2013-06-15T09:21:58Z</time>
      </trkpt>
      <trkpt lat="48.52885" lon="2.08363">
        <ele>142.087751</ele>
        <time>2013-06-15T09:22:03Z</time>
      </trkpt>
      <trkpt lat="48.52888" lon="2.08371">
        <ele>143.15648</ele>
        <time>2013-06-15T09:22:08Z</time>
      </trkpt>
      <trkpt lat="48.5289" lon="2.08378">
        <ele>142.702557</ele>
        <time>2013-06-15T09:22:13Z</time>
      </trkpt>
      <trkpt lat="48.52891" lon="2.08387">
        <ele>142.958604</ele>
        <time>2013-06-15T09:22:18Z</time>
      </trkpt>
      <trkpt lat="48.5289" lon="2.08395">
        <ele>143.103091</ele>
        <time>2013-06-15T09:22:23Z</time>
      </trkpt>
      <trkpt lat="48.52891" lon="2.08404">
        <ele>142.585779</ele>
        <time>2013-06-15T09:22:28Z</time>
      </trkpt>
      <trkpt lat="48.52892" lon="2.08412">
        <ele>142.817764</ele>
        <time>2013-06-15T09:22:33Z</time>
      </trkpt>
      <trkpt lat="48.52893" lon="2.08421">
        <ele>143.073839</ele>
        <time>2013-06-15T09:22:38Z</time>
      </trkpt>
      <trkpt lat="48.52894" lon="2.08429">
        <ele>143.305836</ele>
        <time>2013-06-15T09:22:43Z</time>
      </trkpt>
      <trkpt lat="48.52895" lon="2.08438">
        <ele>142.788549</ele>
        <time>2013-06-15T09:22:48Z</time>
      </trkpt>
      <trkpt lat="48.52895" lon="2.08446">
        <ele>143.682361</ele>
        <time>2013-06-15T09:22:53Z</time>
      </trkpt>
      <trkpt lat="48.52896" lon="2.08455">
        <ele>143.189174</ele>
        <time>2013-06-15T09:22:58Z</time>
      </trkpt>
      <trkpt lat="48.52896" lon="2.08463">
        <ele>143.333708</ele>
        <time>2013-06-15T09:23:03Z</time>
      </trkpt>
      <trkpt lat="48.52895" lon="2.08473">
        <ele>143.502338</ele>
        <time>2013-06-15T09:23:08Z</time>
      </trkpt>
      <trkpt lat="48.52896" lon="2.08481">
        <ele>142.985081</ele>
        <time>2013-06-15T09:23:13Z</time>
      </trkpt>
      <trkpt lat="48.52896" lon="2.0849">
        <ele>143.903016</ele>
        <time>2013-06-15T09:23:18Z</time>
      </trkpt>
      <trkpt lat="48.52896" lon="2.08501">
        <ele>144.095762</ele>
        <time>2013-06-15T09:23:24Z</time>
      </trkpt>
      <trkpt lat="48.52896" lon="2.08509">
        <ele>144.240328</ele>
        <time>2013-06-15T09:23:29Z</time>
      </trkpt>
      <trkpt lat="48.52897" lon="2.08517">
        <ele>145.13419</ele>
        <time>2013-06-15T09:23:34Z</time>
      </trkpt>
      <trkpt lat="48.52896" lon="2.08526">
        <ele>145.278767</ele>
        <time>2013-06-15T09:23:39Z</time>
      </trkpt>
      <trkpt lat="48.52896" lon="2.08535">
        <ele>146.109251</ele>
        <time>2013-06-15T09:23:44Z</time>
      </trkpt>
      <trkpt lat="48.52895" lon="2.08543">
        <ele>145.50455</ele>
        <time>2013-06-15T09:23:49Z</time>
      </trkpt>
      <trkpt lat="48.52895" lon="2.08553">
        <ele>145.673244</ele>
        <time>2013-06-15T09:23:54Z</time>
      </trkpt>
      <trkpt lat="48.52894" lon="2.08562">
        <ele>146.50375</ele>
        <time>2013-06-15T09:23:59Z</time>
      </trkpt>
      <trkpt lat="48.52893" lon="2.0857">
        <ele>145.899068</ele>
        <time>2013-06-15T09:24:04Z</time>
      </trkpt>
      <trkpt lat="48.52893" lon="2.0858">
        <ele>146.067784</ele>
        <time>2013-06-15T09:24:09Z</time>
      </trkpt>
      <trkpt lat="48.52892" lon="2.08588">
        <ele>145.463115</ele>
        <time>2013-06-15T09:24:14Z</time>
      </trkpt>
      <trkpt lat="48.52893" lon="2.08593">
        <ele>146.308821</ele>
        <time>2013-06-15T09:24:19Z</time>
      </trkpt>
      <trkpt lat="48.52891" lon="2.08594">
        <ele>146.245439</ele>
        <time>2013-06-15T09:24:24Z</time>
      </trkpt>
      <trkpt lat="48.52891" lon="2.08604">
        <ele>146.414175</ele>
        <time>2013-06-15T09:24:29Z</time>
      </trkpt>
      <trkpt lat="48.5289" lon="2.08612">
        <ele>146.471326</ele>
        <time>2013-06-15T09:24:34Z</time>
      </trkpt>
      <trkpt lat="48.52889" lon="2.08621">
        <ele>147.30188</ele>
        <time>2013-06-15T09:24:39Z</time>
      </trkpt>
      <trkpt lat="48.52887" lon="2.08629">
        <ele>146.609754</ele>
        <time>2013-06-15T09:24:44Z</time>
      </trkpt>
      <trkpt lat="48.52884" lon="2.08639">
        <ele>146.603547</ele>
        <time>2013-06-15T09:24:49Z</time>
      </trkpt>
      <trkpt lat="48.52882" lon="2.08647">
        <ele>145.911435</ele>
        <time>2013-06-15T09:24:54Z</time>
      </trkpt>
      <trkpt lat="48.52879" lon="2.08655">
        <ele>145.881133</ele>
        <time>2013-06-15T09:24:59Z</time>
      </trkpt>
      <trkpt lat="48.52877" lon="2.08664">
        <ele>145.874951</ele>
        <time>2013-06-15T09:25:04Z</time>
      </trkpt>
      <trkpt lat="48.52875" lon="2.08671">
        <ele>145.158746</ele>
        <time>2013-06-15T09:25:09Z</time>
      </trkpt>
      <trkpt lat="48.52872" lon="2.08679">
        <ele>145.128465</ele>
        <time>2013-06-15T09:25:14Z</time>
      </trkpt>
      <trkpt lat="48.52869" lon="2.08688">
        <ele>145.122306</ele>
        <time>2013-06-15T09:25:19Z</time>
      </trkpt>
      <trkpt lat="48.52867" lon="2.08696">
        <ele>144.430233</ele>
        <time>2013-06-15T09:25:24Z</time>
      </trkpt>
      <trkpt lat="48.52865" lon="2.08704">
        <ele>144.399973</ele>
        <time>2013-06-15T09:25:29Z</time>
      </trkpt>
      <trkpt lat="48.52862" lon="2.08713">
        <ele>144.36972</ele>
        <time>2013-06-15T09:25:34Z</time>
      </trkpt>
      <trkpt lat="48.52859" lon="2.08722">
        <ele>144.363594</ele>
        <time>2013-06-15T09:25:39Z</time>
      </trkpt>
      <trkpt lat="48.52857" lon="2.0873">
        <ele>144.333355</ele>
        <time>2013-06-15T09:25:44Z</time>
      </trkpt>
      <trkpt lat="48.52853" lon="2.08737">
        <ele>144.94081</ele>
        <time>2013-06-15T09:25:49Z</time>
      </trkpt>
      <trkpt lat="48.52851" lon="2.08745">
        <ele>144.910585</ele>
        <time>2013-06-15T09:25:54Z</time>
      </trkpt>
      <trkpt lat="48.52848" lon="2.08753">
        <ele>144.880367</ele>
        <time>2013-06-15T09:25:59Z</time>
      </trkpt>
      <trkpt lat="48.52845" lon="2.08761">
        <ele>144.850155</ele>
        <time>2013-06-15T09:26:04Z</time>
      </trkpt>
      <trkpt lat="48.52843" lon="2.08769">
        <ele>144.819951</ele>
        <time>2013-06-15T09:26:09Z</time>
      </trkpt>
      <trkpt lat="48.52839" lon="2.08777">
        <ele>144.702278</ele>
        <time>2013-06-15T09:26:14Z</time>
      </trkpt>
      <trkpt lat="48.52836" lon="2.08783">
        <ele>144.647961</ele>
        <time>2013-06-15T09:26:19Z</time>
      </trkpt>
      <trkpt lat="48.52833" lon="2.08791">
        <ele>144.617777</ele>
        <time>2013-06-15T09:26:24Z</time>
      </trkpt>
      <trkpt lat="48.52831" lon="2.08799">
        <ele>144.5876</ele>
        <time>2013-06-15T09:26:29Z</time>
      </trkpt>
      <trkpt lat="48.52827" lon="2.08807">
        <ele>143.808147</ele>
        <time>2013-06-15T09:26:34Z</time>
      </trkpt>
      <trkpt lat="48.52825" lon="2.08815">
        <ele>143.777984</ele>
        <time>2013-06-15T09:26:39Z</time>
      </trkpt>
      <trkpt lat="48.52821" lon="2.08823">
        <ele>144.409639</ele>
        <time>2013-06-15T09:26:44Z</time>
      </trkpt>
      <trkpt lat="48.52817" lon="2.08831">
        <ele>144.29202</ele>
        <time>2013-06-15T09:26:49Z</time>
      </trkpt>
      <trkpt lat="48.52815" lon="2.08839">
        <ele>145.011159</ele>
        <time>2013-06-15T09:26:54Z</time>
      </trkpt>
      <trkpt lat="48.52813" lon="2.08846">
        <ele>144.95689</ele>
        <time>2013-06-15T09:26:59Z</time>
      </trkpt>
      <trkpt lat="48.52809" lon="2.08854">
        <ele>144.177481</ele>
        <time>2013-06-15T09:27:04Z</time>
      </trkpt>
      <trkpt lat="48.52807" lon="2.08862">
        <ele>144.147359</ele>
        <time>2013-06-15T09:27:09Z</time>
      </trkpt>
      <trkpt lat="48.52804" lon="2.0887">
        <ele>144.117244</ele>
        <time>2013-06-15T09:27:14Z</time>
      </trkpt>
      <trkpt lat="48.52801" lon="2.08877">
        <ele>144.062998</ele>
        <time>2013-06-15T09:27:19Z</time>
      </trkpt>
      <trkpt lat="48.52799" lon="2.08885">
        <ele>144.032896</ele>
        <time>2013-06-15T09:27:24Z</time>
      </trkpt>
      <trkpt lat="48.52795" lon="2.08893">
        <ele>143.253522</ele>
        <time>2013-06-15T09:27:29Z</time>
      </trkpt>
      <trkpt lat="48.52792" lon="2.08901">
        <ele>143.885249</ele>
        <time>2013-06-15T09:27:34Z</time>
      </trkpt>
      <trkpt lat="48.52789" lon="2.08907">
        <ele>143.831027</ele>
        <time>2013-06-15T09:27:39Z</time>
      </trkpt>
      <trkpt lat="48.52787" lon="2.08915">
        <ele>143.800952</ele>
        <time>2013-06-15T09:27:44Z</time>
      </trkpt>
      <trkpt lat="48.52784" lon="2.08923">
        <ele>143.770884</ele>
        <time>2013-06-15T09:27:49Z</time>
      </trkpt>
      <trkpt lat="48.52781" lon="2.0893">
        <ele>143.716679</ele>
        <time>2013-06-15T09:27:54Z</time>
      </trkpt>
      <trkpt lat="48.52779" lon="2.08938">
        <ele>143.024807</ele>
        <time>2013-06-15T09:27:59Z</time>
      </trkpt>
      <trkpt lat="48.52777" lon="2.08945">
        <ele>142.970613</ele>
        <time>2013-06-15T09:28:04Z</time>
      </trkpt>
      <trkpt lat="48.52774" lon="2.08951">
        <ele>142.916424</ele>
        <time>2013-06-15T09:28:09Z</time>
      </trkpt>
      <trkpt lat="48.52771" lon="2.08959">
        <ele>142.886387</ele>
        <time>2013-06-15T09:28:14Z</time>
      </trkpt>
      <trkpt lat="48.52768" lon="2.08967">
        <ele>142.856357</ele>
        <time>2013-06-15T09:28:19Z</time>
      </trkpt>
      <trkpt lat="48.52766" lon="2.08973">
        <ele>142.778036</ele>
        <time>2013-06-15T09:28:24Z</time>
      </trkpt>
      <trkpt lat="48.52763" lon="2.08981">
        <ele>142.748018</ele>
        <time>2013-06-15T09:28:29Z</time>
      </trkpt>
      <trkpt lat="48.5276" lon="2.08989">
        <ele>142.718007</ele>
        <time>2013-06-15T09:28:34Z</time>
      </trkpt>
      <trkpt lat="48.52757" lon="2.08997">
        <ele>142.600548</ele>
        <time>2013-06-15T09:28:39Z</time>
      </trkpt>
      <trkpt lat="48.52754" lon="2.09005">
        <ele>142.570551</ele>
        <time>2013-06-15T09:28:44Z</time>
      </trkpt>
      <trkpt lat="48.5275" lon="2.09013">
        <ele>143.202381</ele>
        <time>2013-06-15T09:28:49Z</time>
      </trkpt>
      <trkpt lat="48.52748" lon="2.09021">
        <ele>143.172399</ele>
        <time>2013-06-15T09:28:54Z</time>
      </trkpt>
      <trkpt lat="48.52745" lon="2.09029">
        <ele>143.142423</ele>
        <time>2013-06-15T09:28:59Z</time>
      </trkpt>
      <trkpt lat="48.52741" lon="2.09037">
        <ele>143.025003</ele>
        <time>2013-06-15T09:29:04Z</time>
      </trkpt>
      <trkpt lat="48.52738" lon="2.09045">
        <ele>142.995041</ele>
        <time>2013-06-15T09:29:09Z</time>
      </trkpt>
      <trkpt lat="48.52735" lon="2.09053">
        <ele>143.626909</ele>
        <time>2013-06-15T09:29:14Z</time>
      </trkpt>
      <trkpt lat="48.52732" lon="2.09059">
        <ele>143.572802</ele>
        <time>2013-06-15T09:29:19Z</time>
      </trkpt>
      <trkpt lat="48.5273" lon="2.09067">
        <ele>143.542861</ele>
        <time>2013-06-15T09:29:24Z</time>
      </trkpt>
      <trkpt lat="48.52727" lon="2.09074">
        <ele>143.488766</ele>
        <time>2013-06-15T09:29:29Z</time>
      </trkpt>
      <trkpt lat="48.52724" lon="2.09082">
        <ele>143.458838</ele>
        <time>2013-06-15T09:29:34Z</time>
      </trkpt>
      <trkpt lat="48.52721" lon="2.0909">
        <ele>142.679646</ele>
        <time>2013-06-15T09:29:39Z</time>
      </trkpt>
      <trkpt lat="48.52718" lon="2.09098">
        <ele>142.649732</ele>
        <time>2013-06-15T09:29:44Z</time>
      </trkpt>
      <trkpt lat="48.52715" lon="2.09105">
        <ele>143.257484</ele>
        <time>2013-06-15T09:29:49Z</time>
      </trkpt>
      <trkpt lat="48.52713" lon="2.09113">
        <ele>143.976852</ele>
        <time>2013-06-15T09:29:54Z</time>
      </trkpt>
      <trkpt lat="48.5271" lon="2.09121">
        <ele>144.608782</ele>
        <time>2013-06-15T09:29:59Z</time>
      </trkpt>
      <trkpt lat="48.52707" lon="2.09129">
        <ele>144.578895</ele>
        <time>2013-06-15T09:30:04Z</time>
      </trkpt>
      <trkpt lat="48.52705" lon="2.09137">
        <ele>143.887189</ele>
        <time>2013-06-15T09:30:09Z</time>
      </trkpt>
      <trkpt lat="48.52702" lon="2.09145">
        <ele>143.857316</ele>
        <time>2013-06-15T09:30:14Z</time>
      </trkpt>
      <trkpt lat="48.52699" lon="2.09153">
        <ele>143.078181</ele>
        <time>2013-06-15T09:30:19Z</time>
      </trkpt>
      <trkpt lat="48.52697" lon="2.09161">
        <ele>143.797589</ele>
        <time>2013-06-15T09:30:24Z</time>
      </trkpt>
      <trkpt lat="48.52694" lon="2.09168">
        <ele>144.40539</ele>
        <time>2013-06-15T09:30:29Z</time>
      </trkpt>
      <trkpt lat="48.52692" lon="2.09173">
        <ele>144.414638</ele>
        <time>2013-06-15T09:30:34Z</time>
      </trkpt>
      <trkpt lat="48.52693" lon="2.09178">
        <ele>143.849503</ele>
        <time>2013-06-15T09:30:39Z</time>
      </trkpt>
      <trkpt lat="48.52693" lon="2.09182">
        <ele>143.922022</ele>
        <time>2013-06-15T09:30:44Z</time>
      </trkpt>
      <trkpt lat="48.52693" lon="2.09188">
        <ele>144.767985</ele>
        <time>2013-06-15T09:30:49Z</time>
      </trkpt>
      <trkpt lat="48.52694" lon="2.09195">
        <ele>144.227031</ele>
        <time>2013-06-15T09:30:54Z</time>
      </trkpt>
      <trkpt lat="48.52695" lon="2.09203">
        <ele>144.459524</ele>
        <time>2013-06-15T09:30:59Z</time>
      </trkpt>
      <trkpt lat="48.52696" lon="2.0921">
        <ele>144.667846</ele>
        <time>2013-06-15T09:31:04Z</time>
      </trkpt>
      <trkpt lat="48.52696" lon="2.09216">
        <ele>144.788732</ele>
        <time>2013-06-15T09:31:09Z</time>
      </trkpt>
      <trkpt lat="48.52697" lon="2.09222">
        <ele>144.972884</ele>
        <time>2013-06-15T09:31:14Z</time>
      </trkpt>
      <trkpt lat="48.52698" lon="2.0923">
        <ele>145.867223</ele>
        <time>2013-06-15T09:31:19Z</time>
      </trkpt>
      <trkpt lat="48.52698" lon="2.09238">
        <ele>145.350474</ele>
        <time>2013-06-15T09:31:24Z</time>
      </trkpt>
      <trkpt lat="48.52698" lon="2.09244">
        <ele>145.447194</ele>
        <time>2013-06-15T09:31:29Z</time>
      </trkpt>
      <trkpt lat="48.52698" lon="2.0925">
        <ele>145.568099</ele>
        <time>2013-06-15T09:31:34Z</time>
      </trkpt>
      <trkpt lat="48.52696" lon="2.09258">
        <ele>145.625748</ele>
        <time>2013-06-15T09:31:39Z</time>
      </trkpt>
      <trkpt lat="48.52695" lon="2.09266">
        <ele>145.683403</ele>
        <time>2013-06-15T09:31:44Z</time>
      </trkpt>
      <trkpt lat="48.52694" lon="2.09275">
        <ele>145.741064</ele>
        <time>2013-06-15T09:31:49Z</time>
      </trkpt>
      <trkpt lat="48.52691" lon="2.09283">
        <ele>145.711291</ele>
        <time>2013-06-15T09:31:54Z</time>
      </trkpt>
      <trkpt lat="48.52688" lon="2.09291">
        <ele>145.681524</ele>
        <time>2013-06-15T09:31:59Z</time>
      </trkpt>
      <trkpt lat="48.52687" lon="2.09296">
        <ele>145.69083</ele>
        <time>2013-06-15T09:32:04Z</time>
      </trkpt>
      <trkpt lat="48.52684" lon="2.09304">
        <ele>145.661074</ele>
        <time>2013-06-15T09:32:09Z</time>
      </trkpt>
      <trkpt lat="48.52681" lon="2.09312">
        <ele>145.631326</ele>
        <time>2013-06-15T09:32:14Z</time>
      </trkpt>
      <trkpt lat="48.5268" lon="2.09319">
        <ele>144.915567</ele>
        <time>2013-06-15T09:32:19Z</time>
      </trkpt>
      <trkpt lat="48.52677" lon="2.09327">
        <ele>144.885831</ele>
        <time>2013-06-15T09:32:24Z</time>
      </trkpt>
      <trkpt lat="48.52675" lon="2.09335">
        <ele>145.605366</ele>
        <time>2013-06-15T09:32:29Z</time>
      </trkpt>
      <trkpt lat="48.52675" lon="2.09343">
        <ele>145.088688</ele>
        <time>2013-06-15T09:32:34Z</time>
      </trkpt>
      <trkpt lat="48.52678" lon="2.0935">
        <ele>146.13379</ele>
        <time>2013-06-15T09:32:39Z</time>
      </trkpt>
      <trkpt lat="48.52682" lon="2.09355">
        <ele>146.492877</ele>
        <time>2013-06-15T09:32:44Z</time>
      </trkpt>
      <trkpt lat="48.52686" lon="2.09362">
        <ele>146.876163</ele>
        <time>2013-06-15T09:32:49Z</time>
      </trkpt>
      <trkpt lat="48.52689" lon="2.09366">
        <ele>147.211066</ele>
        <time>2013-06-15T09:32:54Z</time>
      </trkpt>
      <trkpt lat="48.52693" lon="2.09373">
        <ele>147.594365</ele>
        <time>2013-06-15T09:32:59Z</time>
      </trkpt>
      <trkpt lat="48.52697" lon="2.09379">
        <ele>147.953473</ele>
        <time>2013-06-15T09:33:04Z</time>
      </trkpt>
      <trkpt lat="48.527" lon="2.09384">
        <ele>148.312587</ele>
        <time>2013-06-15T09:33:09Z</time>
      </trkpt>
      <trkpt lat="48.52705" lon="2.0939">
        <ele>148.009882</ele>
        <time>2013-06-15T09:33:14Z</time>
      </trkpt>
      <trkpt lat="48.52709" lon="2.09397">
        <ele>146.982113</ele>
        <time>2013-06-15T09:33:19Z</time>
      </trkpt>
      <trkpt lat="48.5271" lon="2.09404">
        <ele>146.528728</ele>
        <time>2013-06-15T09:33:24Z</time>
      </trkpt>
      <trkpt lat="48.52714" lon="2.09411">
        <ele>148.323156</ele>
        <time>2013-06-15T09:33:29Z</time>
      </trkpt>
      <trkpt lat="48.52718" lon="2.09418">
        <ele>147.295406</ele>
        <time>2013-06-15T09:33:34Z</time>
      </trkpt>
      <trkpt lat="48.52721" lon="2.09425">
        <ele>147.678755</ele>
        <time>2013-06-15T09:33:39Z</time>
      </trkpt>
      <trkpt lat="48.52725" lon="2.09432">
        <ele>148.723932</ele>
        <time>2013-06-15T09:33:44Z</time>
      </trkpt>
      <trkpt lat="48.52727" lon="2.0944">
        <ele>149.044046</ele>
        <time>2013-06-15T09:33:49Z</time>
      </trkpt>
      <trkpt lat="48.5273" lon="2.09447">
        <ele>150.089235</ele>
        <time>2013-06-15T09:33:54Z</time>
      </trkpt>
      <trkpt lat="48.52733" lon="2.09454">
        <ele>149.723338</ele>
        <time>2013-06-15T09:33:59Z</time>
      </trkpt>
      <trkpt lat="48.52737" lon="2.0946">
        <ele>150.106719</ele>
        <time>2013-06-15T09:34:04Z</time>
      </trkpt>
      <trkpt lat="48.5274" lon="2.09469">
        <ele>149.103221</ele>
        <time>2013-06-15T09:34:09Z</time>
      </trkpt>
      <trkpt lat="48.52744" lon="2.09476">
        <ele>149.486616</ele>
        <time>2013-06-15T09:34:14Z</time>
      </trkpt>
      <trkpt lat="48.52746" lon="2.09484">
        <ele>149.806771</ele>
        <time>2013-06-15T09:34:19Z</time>
      </trkpt>
      <trkpt lat="48.5275" lon="2.09491">
        <ele>150.190179</ele>
        <time>2013-06-15T09:34:24Z</time>
      </trkpt>
      <trkpt lat="48.52753" lon="2.09498">
        <ele>150.486138</ele>
        <time>2013-06-15T09:34:29Z</time>
      </trkpt>
      <trkpt lat="48.52756" lon="2.09502">
        <ele>150.821138</ele>
        <time>2013-06-15T09:34:34Z</time>
      </trkpt>
      <trkpt lat="48.52761" lon="2.09505">
        <ele>150.470116</ele>
        <time>2013-06-15T09:34:39Z</time>
      </trkpt>
      <trkpt lat="48.5276" lon="2.09507">
        <ele>149.769262</ele>
        <time>2013-06-15T09:34:44Z</time>
      </trkpt>
      <trkpt lat="48.52764" lon="2.09505">
        <ele>148.572126</ele>
        <time>2013-06-15T09:34:49Z</time>
      </trkpt>
      <trkpt lat="48.52766" lon="2.09504">
        <ele>147.973559</ele>
        <time>2013-06-15T09:34:54Z</time>
      </trkpt>
      <trkpt lat="48.52766" lon="2.09504">
        <ele>147.973559</ele>
        <time>2013-06-15T09:34:59Z</time>
      </trkpt>
      <trkpt lat="48.52765" lon="2.09504">
        <ele>147.224284</ele>
        <time>2013-06-15T09:35:04Z</time>
      </trkpt>
      <trkpt lat="48.52765" lon="2.09502">
        <ele>147.200074</ele>
        <time>2013-06-15T09:35:09Z</time>
      </trkpt>
      <trkpt lat="48.52765" lon="2.09502">
        <ele>147.200074</ele>
        <time>2013-06-15T09:35:14Z</time>
      </trkpt>
      <trkpt lat="48.52765" lon="2.09504">
        <ele>147.224284</ele>
        <time>2013-06-15T09:35:19Z</time>
      </trkpt>
      <trkpt lat="48.52764" lon="2.09505">
        <ele>147.161035</ele>
        <time>2013-06-15T09:35:24Z</time>
      </trkpt>
      <trkpt lat="48.52761" lon="2.09505">
        <ele>147.647933</ele>
        <time>2013-06-15T09:35:29Z</time>
      </trkpt>
      <trkpt lat="48.5276" lon="2.09505">
        <ele>147.560475</ele>
        <time>2013-06-15T09:35:34Z</time>
      </trkpt>
      <trkpt lat="48.5276" lon="2.09505">
        <ele>146.898658</ele>
        <time>2013-06-15T09:35:39Z</time>
      </trkpt>
      <trkpt lat="48.5276" lon="2.09505">
        <ele>146.898658</ele>
        <time>2013-06-15T09:35:44Z</time>
      </trkpt>
      <trkpt lat="48.5276" lon="2.09505">
        <ele>147.560475</ele>
        <time>2013-06-15T09:35:49Z</time>
      </trkpt>
      <trkpt lat="48.5276" lon="2.09505">
        <ele>147.560475</ele>
        <time>2013-06-15T09:35:54Z</time>
      </trkpt>
      <trkpt lat="48.5276" lon="2.09505">
        <ele>147.560475</ele>
        <time>2013-06-15T09:35:59Z</time>
      </trkpt>
      <trkpt lat="48.5276" lon="2.09505">
        <ele>147.560475</ele>
        <time>2013-06-15T09:36:04Z</time>
      </trkpt>
      <trkpt lat="48.5276" lon="2.09505">
        <ele>147.560475</ele>
        <time>2013-06-15T09:36:09Z</time>
      </trkpt>
      <trkpt lat="48.5276" lon="2.09505">
        <ele>147.560475</ele>
        <time>2013-06-15T09:36:14Z</time>
      </trkpt>
      <trkpt lat="48.5276" lon="2.09509">
        <ele>146.97129</ele>
        <time>2013-06-15T09:36:19Z</time>
      </trkpt>
      <trkpt lat="48.52761" lon="2.09514">
        <ele>147.155594</ele>
        <time>2013-06-15T09:36:24Z</time>
      </trkpt>
      <trkpt lat="48.52764" lon="2.0952">
        <ele>148.176634</ele>
        <time>2013-06-15T09:36:29Z</time>
      </trkpt>
      <trkpt lat="48.52767" lon="2.09523">
        <ele>148.399978</ele>
        <time>2013-06-15T09:36:34Z</time>
      </trkpt>
      <trkpt lat="48.5277" lon="2.09527">
        <ele>147.985722</ele>
        <time>2013-06-15T09:36:39Z</time>
      </trkpt>
      <trkpt lat="48.52774" lon="2.09531">
        <ele>148.320746</ele>
        <time>2013-06-15T09:36:44Z</time>
      </trkpt>
      <trkpt lat="48.52778" lon="2.09535">
        <ele>148.655773</ele>
        <time>2013-06-15T09:36:49Z</time>
      </trkpt>
      <trkpt lat="48.52781" lon="2.09541">
        <ele>149.01502</ele>
        <time>2013-06-15T09:36:54Z</time>
      </trkpt>
      <trkpt lat="48.52785" lon="2.09546">
        <ele>149.374271</ele>
        <time>2013-06-15T09:36:59Z</time>
      </trkpt>
      <trkpt lat="48.52789" lon="2.09551">
        <ele>149.709313</ele>
        <time>2013-06-15T09:37:04Z</time>
      </trkpt>
      <trkpt lat="48.52792" lon="2.09556">
        <ele>150.068574</ele>
        <time>2013-06-15T09:37:09Z</time>
      </trkpt>
      <trkpt lat="48.52796" lon="2.09562">
        <ele>149.678562</ele>
        <time>2013-06-15T09:37:14Z</time>
      </trkpt>
      <trkpt lat="48.52798" lon="2.09569">
        <ele>149.974584</ele>
        <time>2013-06-15T09:37:19Z</time>
      </trkpt>
      <trkpt lat="48.52802" lon="2.09574">
        <ele>149.67205</ele>
        <time>2013-06-15T09:37:24Z</time>
      </trkpt>
      <trkpt lat="48.52806" lon="2.09581">
        <ele>150.055552</ele>
        <time>2013-06-15T09:37:29Z</time>
      </trkpt>
      <trkpt lat="48.52808" lon="2.09588">
        <ele>150.351589</ele>
        <time>2013-06-15T09:37:34Z</time>
      </trkpt>
      <trkpt lat="48.52811" lon="2.09594">
        <ele>150.623411</ele>
        <time>2013-06-15T09:37:39Z</time>
      </trkpt>
      <trkpt lat="48.52814" lon="2.096">
        <ele>151.66874</ele>
        <time>2013-06-15T09:37:44Z</time>
      </trkpt>
      <trkpt lat="48.52817" lon="2.09606">
        <ele>151.278762</ele>
        <time>2013-06-15T09:37:49Z</time>
      </trkpt>
      <trkpt lat="48.5282" lon="2.09613">
        <ele>150.913011</ele>
        <time>2013-06-15T09:37:54Z</time>
      </trkpt>
      <trkpt lat="48.52823" lon="2.0962">
        <ele>151.958355</ele>
        <time>2013-06-15T09:37:59Z</time>
      </trkpt>
      <trkpt lat="48.52826" lon="2.09627">
        <ele>153.003706</ele>
        <time>2013-06-15T09:38:04Z</time>
      </trkpt>
      <trkpt lat="48.52829" lon="2.09632">
        <ele>152.613748</ele>
        <time>2013-06-15T09:38:09Z</time>
      </trkpt>
      <trkpt lat="48.52832" lon="2.09639">
        <ele>152.24802</ele>
        <time>2013-06-15T09:38:14Z</time>
      </trkpt>
      <trkpt lat="48.52835" lon="2.09646">
        <ele>153.293387</ele>
        <time>2013-06-15T09:38:19Z</time>
      </trkpt>
      <trkpt lat="48.52838" lon="2.09651">
        <ele>152.903444</ele>
        <time>2013-06-15T09:38:24Z</time>
      </trkpt>
      <trkpt lat="48.52839" lon="2.09656">
        <ele>152.31432</ele>
        <time>2013-06-15T09:38:29Z</time>
      </trkpt>
      <trkpt lat="48.52837" lon="2.09657">
        <ele>151.501785</ele>
        <time>2013-06-15T09:38:34Z</time>
      </trkpt>
      <trkpt lat="48.52839" lon="2.09656">
        <ele>152.31432</ele>
        <time>2013-06-15T09:38:39Z</time>
      </trkpt>
      <trkpt lat="48.52841" lon="2.09656">
        <ele>151.739993</ele>
        <time>2013-06-15T09:38:44Z</time>
      </trkpt>
      <trkpt lat="48.52841" lon="2.09656">
        <ele>151.739993</ele>
        <time>2013-06-15T09:38:49Z</time>
      </trkpt>
      <trkpt lat="48.52842" lon="2.09656">
        <ele>151.078188</ele>
        <time>2013-06-15T09:38:54Z</time>
      </trkpt>
      <trkpt lat="48.52841" lon="2.09656">
        <ele>151.739993</ele>
        <time>2013-06-15T09:38:59Z</time>
      </trkpt>
      <trkpt lat="48.52842" lon="2.09661">
        <ele>151.924383</ele>
        <time>2013-06-15T09:39:04Z</time>
      </trkpt>
      <trkpt lat="48.52845" lon="2.09668">
        <ele>152.220484</ele>
        <time>2013-06-15T09:39:09Z</time>
      </trkpt>
      <trkpt lat="48.52847" lon="2.09675">
        <ele>152.516591</ele>
        <time>2013-06-15T09:39:14Z</time>
      </trkpt>
      <trkpt lat="48.52849" lon="2.09682">
        <ele>152.812703</ele>
        <time>2013-06-15T09:39:19Z</time>
      </trkpt>
      <trkpt lat="48.5285" lon="2.0969">
        <ele>153.045569</ele>
        <time>2013-06-15T09:39:24Z</time>
      </trkpt>
      <trkpt lat="48.52852" lon="2.09697">
        <ele>154.003495</ele>
        <time>2013-06-15T09:39:29Z</time>
      </trkpt>
      <trkpt lat="48.52853" lon="2.09705">
        <ele>153.487087</ele>
        <time>2013-06-15T09:39:34Z</time>
      </trkpt>
      <trkpt lat="48.52851" lon="2.09714">
        <ele>153.569241</ele>
        <time>2013-06-15T09:39:39Z</time>
      </trkpt>
      <trkpt lat="48.52851" lon="2.09722">
        <ele>152.965364</ele>
        <time>2013-06-15T09:39:44Z</time>
      </trkpt>
      <trkpt lat="48.5285" lon="2.09732">
        <ele>153.135013</ele>
        <time>2013-06-15T09:39:49Z</time>
      </trkpt>
      <trkpt lat="48.52853" lon="2.09739">
        <ele>153.43116</ele>
        <time>2013-06-15T09:39:54Z</time>
      </trkpt>
      <trkpt lat="48.52854" lon="2.09748">
        <ele>153.688305</ele>
        <time>2013-06-15T09:39:59Z</time>
      </trkpt>
      <trkpt lat="48.52857" lon="2.09755">
        <ele>153.32266</ele>
        <time>2013-06-15T09:40:04Z</time>
      </trkpt>
      <trkpt lat="48.52862" lon="2.09759">
        <ele>153.745313</ele>
        <time>2013-06-15T09:40:09Z</time>
      </trkpt>
      <trkpt lat="48.52868" lon="2.09762">
        <ele>153.481931</ele>
        <time>2013-06-15T09:40:14Z</time>
      </trkpt>
      <trkpt lat="48.52873" lon="2.09767">
        <ele>153.904597</ele>
        <time>2013-06-15T09:40:19Z</time>
      </trkpt>
      <trkpt lat="48.52878" lon="2.09771">
        <ele>154.32727</ele>
        <time>2013-06-15T09:40:24Z</time>
      </trkpt>
      <trkpt lat="48.52883" lon="2.09774">
        <ele>154.063908</ele>
        <time>2013-06-15T09:40:29Z</time>
      </trkpt>
      <trkpt lat="48.52888" lon="2.09778">
        <ele>153.737304</ele>
        <time>2013-06-15T09:40:34Z</time>
      </trkpt>
      <trkpt lat="48.52893" lon="2.09782">
        <ele>154.159995</ele>
        <time>2013-06-15T09:40:39Z</time>
      </trkpt>
      <trkpt lat="48.52897" lon="2.09787">
        <ele>154.495199</ele>
        <time>2013-06-15T09:40:44Z</time>
      </trkpt>
      <trkpt lat="48.52902" lon="2.0979">
        <ele>154.893659</ele>
        <time>2013-06-15T09:40:49Z</time>
      </trkpt>
      <trkpt lat="48.52907" lon="2.09794">
        <ele>155.316367</ele>
        <time>2013-06-15T09:40:54Z</time>
      </trkpt>
      <trkpt lat="48.52912" lon="2.09797">
        <ele>155.714839</ele>
        <time>2013-06-15T09:40:59Z</time>
      </trkpt>
      <trkpt lat="48.52919" lon="2.09798">
        <ele>154.103688</ele>
        <time>2013-06-15T09:41:04Z</time>
      </trkpt>
      <trkpt lat="48.52924" lon="2.098">
        <ele>153.816135</ele>
        <time>2013-06-15T09:41:09Z</time>
      </trkpt>
      <trkpt lat="48.5293" lon="2.09802">
        <ele>153.528588</ele>
        <time>2013-06-15T09:41:14Z</time>
      </trkpt>
      <trkpt lat="48.52936" lon="2.09803">
        <ele>153.241048</ele>
        <time>2013-06-15T09:41:19Z</time>
      </trkpt>
      <trkpt lat="48.52942" lon="2.09806">
        <ele>152.977759</ele>
        <time>2013-06-15T09:41:24Z</time>
      </trkpt>
      <trkpt lat="48.52947" lon="2.09808">
        <ele>152.690232</ele>
        <time>2013-06-15T09:41:29Z</time>
      </trkpt>
      <trkpt lat="48.52953" lon="2.09812">
        <ele>152.451202</ele>
        <time>2013-06-15T09:41:34Z</time>
      </trkpt>
      <trkpt lat="48.52958" lon="2.09816">
        <ele>152.873969</ele>
        <time>2013-06-15T09:41:39Z</time>
      </trkpt>
      <trkpt lat="48.52964" lon="2.09821">
        <ele>152.634953</ele>
        <time>2013-06-15T09:41:44Z</time>
      </trkpt>
      <trkpt lat="48.52969" lon="2.09825">
        <ele>153.057733</ele>
        <time>2013-06-15T09:41:49Z</time>
      </trkpt>
      <trkpt lat="48.52974" lon="2.09829">
        <ele>153.48052</ele>
        <time>2013-06-15T09:41:54Z</time>
      </trkpt>
      <trkpt lat="48.52977" lon="2.09833">
        <ele>153.815799</ele>
        <time>2013-06-15T09:41:59Z</time>
      </trkpt>
      <trkpt lat="48.52982" lon="2.09839">
        <ele>154.262845</ele>
        <time>2013-06-15T09:42:04Z</time>
      </trkpt>
      <trkpt lat="48.52986" lon="2.09843">
        <ele>154.598134</ele>
        <time>2013-06-15T09:42:09Z</time>
      </trkpt>
      <trkpt lat="48.52991" lon="2.09849">
        <ele>155.045193</ele>
        <time>2013-06-15T09:42:14Z</time>
      </trkpt>
      <trkpt lat="48.52996" lon="2.09853">
        <ele>155.46801</ele>
        <time>2013-06-15T09:42:19Z</time>
      </trkpt>
      <trkpt lat="48.53" lon="2.09857">
        <ele>155.141531</ele>
        <time>2013-06-15T09:42:24Z</time>
      </trkpt>
      <trkpt lat="48.53005" lon="2.09859">
        <ele>154.766556</ele>
        <time>2013-06-15T09:42:29Z</time>
      </trkpt>
      <trkpt lat="48.53009" lon="2.09863">
        <ele>154.440087</ele>
        <time>2013-06-15T09:42:34Z</time>
      </trkpt>
      <trkpt lat="48.53012" lon="2.09867">
        <ele>154.0261</ele>
        <time>2013-06-15T09:42:39Z</time>
      </trkpt>
      <trkpt lat="48.53017" lon="2.09873">
        <ele>153.723892</ele>
        <time>2013-06-15T09:42:44Z</time>
      </trkpt>
      <trkpt lat="48.53021" lon="2.09878">
        <ele>154.083471</ele>
        <time>2013-06-15T09:42:49Z</time>
      </trkpt>
      <trkpt lat="48.53026" lon="2.09883">
        <ele>153.844547</ele>
        <time>2013-06-15T09:42:54Z</time>
      </trkpt>
      <trkpt lat="48.53031" lon="2.09888">
        <ele>153.542358</ele>
        <time>2013-06-15T09:42:59Z</time>
      </trkpt>
      <trkpt lat="48.53035" lon="2.09894">
        <ele>153.240175</ele>
        <time>2013-06-15T09:43:04Z</time>
      </trkpt>
      <trkpt lat="48.5304" lon="2.099">
        <ele>153.687305</ele>
        <time>2013-06-15T09:43:09Z</time>
      </trkpt>
      <trkpt lat="48.53044" lon="2.09905">
        <ele>153.385136</ele>
        <time>2013-06-15T09:43:14Z</time>
      </trkpt>
      <trkpt lat="48.53049" lon="2.09909">
        <ele>153.058717</ele>
        <time>2013-06-15T09:43:19Z</time>
      </trkpt>
      <trkpt lat="48.53054" lon="2.09915">
        <ele>153.505868</ele>
        <time>2013-06-15T09:43:24Z</time>
      </trkpt>
      <trkpt lat="48.53058" lon="2.09919">
        <ele>153.179461</ele>
        <time>2013-06-15T09:43:29Z</time>
      </trkpt>
      <trkpt lat="48.53064" lon="2.09925">
        <ele>152.964851</ele>
        <time>2013-06-15T09:43:34Z</time>
      </trkpt>
      <trkpt lat="48.53068" lon="2.09929">
        <ele>152.638456</ele>
        <time>2013-06-15T09:43:39Z</time>
      </trkpt>
      <trkpt lat="48.53073" lon="2.09935">
        <ele>153.085635</ele>
        <time>2013-06-15T09:43:44Z</time>
      </trkpt>
      <trkpt lat="48.53078" lon="2.09939">
        <ele>152.759252</ele>
        <time>2013-06-15T09:43:49Z</time>
      </trkpt>
      <trkpt lat="48.53083" lon="2.09945">
        <ele>153.206445</ele>
        <time>2013-06-15T09:43:54Z</time>
      </trkpt>
      <trkpt lat="48.53087" lon="2.09949">
        <ele>152.880073</ele>
        <time>2013-06-15T09:43:59Z</time>
      </trkpt>
      <trkpt lat="48.53093" lon="2.09953">
        <ele>152.641248</ele>
        <time>2013-06-15T09:44:04Z</time>
      </trkpt>
      <trkpt lat="48.53097" lon="2.09958">
        <ele>152.314888</ele>
        <time>2013-06-15T09:44:09Z</time>
      </trkpt>
      <trkpt lat="48.53102" lon="2.09963">
        <ele>152.762109</ele>
        <time>2013-06-15T09:44:14Z</time>
      </trkpt>
      <trkpt lat="48.53107" lon="2.09967">
        <ele>151.773991</ele>
        <time>2013-06-15T09:44:19Z</time>
      </trkpt>
      <trkpt lat="48.53112" lon="2.09972">
        <ele>152.196964</ele>
        <time>2013-06-15T09:44:24Z</time>
      </trkpt>
      <trkpt lat="48.53117" lon="2.09976">
        <ele>152.619943</ele>
        <time>2013-06-15T09:44:29Z</time>
      </trkpt>
      <trkpt lat="48.53122" lon="2.0998">
        <ele>151.631845</ele>
        <time>2013-06-15T09:44:34Z</time>
      </trkpt>
      <trkpt lat="48.53127" lon="2.09986">
        <ele>152.079101</ele>
        <time>2013-06-15T09:44:39Z</time>
      </trkpt>
      <trkpt lat="48.53132" lon="2.0999">
        <ele>151.091016</ele>
        <time>2013-06-15T09:44:44Z</time>
      </trkpt>
      <trkpt lat="48.53137" lon="2.09994">
        <ele>151.514022</ele>
        <time>2013-06-15T09:44:49Z</time>
      </trkpt>
      <trkpt lat="48.53143" lon="2.1">
        <ele>151.299535</ele>
        <time>2013-06-15T09:44:54Z</time>
      </trkpt>
      <trkpt lat="48.53147" lon="2.10004">
        <ele>150.973234</ele>
        <time>2013-06-15T09:44:59Z</time>
      </trkpt>
      <trkpt lat="48.53153" lon="2.1001">
        <ele>150.758763</ele>
        <time>2013-06-15T09:45:04Z</time>
      </trkpt>
      <trkpt lat="48.53157" lon="2.10014">
        <ele>150.432475</ele>
        <time>2013-06-15T09:45:09Z</time>
      </trkpt>
      <trkpt lat="48.53162" lon="2.10019">
        <ele>150.106192</ele>
        <time>2013-06-15T09:45:14Z</time>
      </trkpt>
      <trkpt lat="48.53167" lon="2.10023">
        <ele>150.529237</ele>
        <time>2013-06-15T09:45:19Z</time>
      </trkpt>
      <trkpt lat="48.5317" lon="2.10027">
        <ele>150.864726</ele>
        <time>2013-06-15T09:45:24Z</time>
      </trkpt>
      <trkpt lat="48.53175" lon="2.10033">
        <ele>151.312051</ele>
        <time>2013-06-15T09:45:29Z</time>
      </trkpt>
      <trkpt lat="48.5318" lon="2.1004">
        <ele>151.034331</ele>
        <time>2013-06-15T09:45:34Z</time>
      </trkpt>
      <trkpt lat="48.53183" lon="2.10045">
        <ele>150.644782</ele>
        <time>2013-06-15T09:45:39Z</time>
      </trkpt>
      <trkpt lat="48.53187" lon="2.10052">
        <ele>151.028834</ele>
        <time>2013-06-15T09:45:44Z</time>
      </trkpt>
      <trkpt lat="48.5319" lon="2.1006">
        <ele>150.68784</ele>
        <time>2013-06-15T09:45:49Z</time>
      </trkpt>
      <trkpt lat="48.53193" lon="2.10067">
        <ele>150.322581</ele>
        <time>2013-06-15T09:45:54Z</time>
      </trkpt>
      <trkpt lat="48.53196" lon="2.10074">
        <ele>150.706652</ele>
        <time>2013-06-15T09:45:59Z</time>
      </trkpt>
      <trkpt lat="48.532" lon="2.10081">
        <ele>151.090731</ele>
        <time>2013-06-15T09:46:04Z</time>
      </trkpt>
      <trkpt lat="48.53203" lon="2.10088">
        <ele>152.136572</ele>
        <time>2013-06-15T09:46:09Z</time>
      </trkpt>
      <trkpt lat="48.53206" lon="2.10095">
        <ele>152.433093</ele>
        <time>2013-06-15T09:46:14Z</time>
      </trkpt>
      <trkpt lat="48.53209" lon="2.10102">
        <ele>152.067863</ele>
        <time>2013-06-15T09:46:19Z</time>
      </trkpt>
      <trkpt lat="48.53212" lon="2.10109">
        <ele>152.451966</ele>
        <time>2013-06-15T09:46:24Z</time>
      </trkpt>
      <trkpt lat="48.53215" lon="2.10117">
        <ele>152.772782</ele>
        <time>2013-06-15T09:46:29Z</time>
      </trkpt>
      <trkpt lat="48.53216" lon="2.10125">
        <ele>152.344278</ele>
        <time>2013-06-15T09:46:34Z</time>
      </trkpt>
      <trkpt lat="48.5322" lon="2.10132">
        <ele>151.979072</ele>
        <time>2013-06-15T09:46:39Z</time>
      </trkpt>
      <trkpt lat="48.53223" lon="2.10139">
        <ele>151.613873</ele>
        <time>2013-06-15T09:46:44Z</time>
      </trkpt>
      <trkpt lat="48.53226" lon="2.10146">
        <ele>151.24868</ele>
        <time>2013-06-15T09:46:49Z</time>
      </trkpt>
      <trkpt lat="48.53229" lon="2.10151">
        <ele>151.608539</ele>
        <time>2013-06-15T09:46:54Z</time>
      </trkpt>
      <trkpt lat="48.53233" lon="2.10158">
        <ele>151.992686</ele>
        <time>2013-06-15T09:46:59Z</time>
      </trkpt>
      <trkpt lat="48.53237" lon="2.10164">
        <ele>151.690805</ele>
        <time>2013-06-15T09:47:04Z</time>
      </trkpt>
      <trkpt lat="48.53241" lon="2.10171">
        <ele>152.074966</ele>
        <time>2013-06-15T09:47:09Z</time>
      </trkpt>
      <trkpt lat="48.53246" lon="2.10176">
        <ele>151.773097</ele>
        <time>2013-06-15T09:47:14Z</time>
      </trkpt>
      <trkpt lat="48.53249" lon="2.10182">
        <ele>152.132985</ele>
        <time>2013-06-15T09:47:19Z</time>
      </trkpt>
      <trkpt lat="48.53247" lon="2.10189">
        <ele>152.079255</ele>
        <time>2013-06-15T09:47:24Z</time>
      </trkpt>
      <trkpt lat="48.53242" lon="2.10193">
        <ele>152.551126</ele>
        <time>2013-06-15T09:47:29Z</time>
      </trkpt>
      <trkpt lat="48.53237" lon="2.10196">
        <ele>152.273672</ele>
        <time>2013-06-15T09:47:34Z</time>
      </trkpt>
      <trkpt lat="48.53232" lon="2.102">
        <ele>152.745554</ele>
        <time>2013-06-15T09:47:39Z</time>
      </trkpt>
      <trkpt lat="48.53227" lon="2.10205">
        <ele>152.492402</ele>
        <time>2013-06-15T09:47:44Z</time>
      </trkpt>
      <trkpt lat="48.53223" lon="2.10209">
        <ele>152.964295</ele>
        <time>2013-06-15T09:47:49Z</time>
      </trkpt>
      <trkpt lat="48.53217" lon="2.10213">
        <ele>153.34862</ele>
        <time>2013-06-15T09:47:54Z</time>
      </trkpt>
      <trkpt lat="48.53212" lon="2.10218">
        <ele>153.844816</ele>
        <time>2013-06-15T09:47:59Z</time>
      </trkpt>
      <trkpt lat="48.53207" lon="2.10224">
        <ele>153.591692</ele>
        <time>2013-06-15T09:48:04Z</time>
      </trkpt>
      <trkpt lat="48.53201" lon="2.10227">
        <ele>153.976039</ele>
        <time>2013-06-15T09:48:09Z</time>
      </trkpt>
      <trkpt lat="48.53197" lon="2.10235">
        <ele>153.859083</ele>
        <time>2013-06-15T09:48:14Z</time>
      </trkpt>
      <trkpt lat="48.53198" lon="2.10245">
        <ele>154.116706</ele>
        <time>2013-06-15T09:48:19Z</time>
      </trkpt>
      <trkpt lat="48.53201" lon="2.10252">
        <ele>153.75156</ele>
        <time>2013-06-15T09:48:24Z</time>
      </trkpt>
      <trkpt lat="48.53205" lon="2.1026">
        <ele>153.410716</ele>
        <time>2013-06-15T09:48:29Z</time>
      </trkpt>
      <trkpt lat="48.53209" lon="2.10267">
        <ele>153.133156</ele>
        <time>2013-06-15T09:48:34Z</time>
      </trkpt>
      <trkpt lat="48.53213" lon="2.10274">
        <ele>153.517357</ele>
        <time>2013-06-15T09:48:39Z</time>
      </trkpt>
      <trkpt lat="48.53217" lon="2.10281">
        <ele>153.239811</ele>
        <time>2013-06-15T09:48:44Z</time>
      </trkpt>
      <trkpt lat="48.53221" lon="2.10288">
        <ele>153.624026</ele>
        <time>2013-06-15T09:48:49Z</time>
      </trkpt>
      <trkpt lat="48.53224" lon="2.10295">
        <ele>153.258919</ele>
        <time>2013-06-15T09:48:54Z</time>
      </trkpt>
      <trkpt lat="48.53228" lon="2.10303">
        <ele>153.005696</ele>
        <time>2013-06-15T09:48:59Z</time>
      </trkpt>
      <trkpt lat="48.53232" lon="2.1031">
        <ele>153.389932</ele>
        <time>2013-06-15T09:49:04Z</time>
      </trkpt>
      <trkpt lat="48.53235" lon="2.10317">
        <ele>153.774175</ele>
        <time>2013-06-15T09:49:09Z</time>
      </trkpt>
      <trkpt lat="48.53238" lon="2.10322">
        <ele>153.384791</ele>
        <time>2013-06-15T09:49:14Z</time>
      </trkpt>
      <trkpt lat="48.53243" lon="2.10329">
        <ele>153.107296</ele>
        <time>2013-06-15T09:49:19Z</time>
      </trkpt>
      <trkpt lat="48.53247" lon="2.10338">
        <ele>153.515863</ele>
        <time>2013-06-15T09:49:24Z</time>
      </trkpt>
      <trkpt lat="48.5325" lon="2.10343">
        <ele>153.126496</ele>
        <time>2013-06-15T09:49:29Z</time>
      </trkpt>
      <trkpt lat="48.53253" lon="2.1035">
        <ele>153.510771</ele>
        <time>2013-06-15T09:49:34Z</time>
      </trkpt>
      <trkpt lat="48.53257" lon="2.10357">
        <ele>153.895053</ele>
        <time>2013-06-15T09:49:39Z</time>
      </trkpt>
      <trkpt lat="48.53261" lon="2.10364">
        <ele>152.868262</ele>
        <time>2013-06-15T09:49:44Z</time>
      </trkpt>
      <trkpt lat="48.53264" lon="2.10371">
        <ele>153.252557</ele>
        <time>2013-06-15T09:49:49Z</time>
      </trkpt>
      <trkpt lat="48.53269" lon="2.10378">
        <ele>152.975113</ele>
        <time>2013-06-15T09:49:54Z</time>
      </trkpt>
      <trkpt lat="48.53272" lon="2.10385">
        <ele>152.610089</ele>
        <time>2013-06-15T09:49:59Z</time>
      </trkpt>
      <trkpt lat="48.53276" lon="2.10392">
        <ele>152.332659</ele>
        <time>2013-06-15T09:50:04Z</time>
      </trkpt>
      <trkpt lat="48.53281" lon="2.10399">
        <ele>152.055237</ele>
        <time>2013-06-15T09:50:09Z</time>
      </trkpt>
      <trkpt lat="48.53283" lon="2.10406">
        <ele>152.351976</ele>
        <time>2013-06-15T09:50:14Z</time>
      </trkpt>
      <trkpt lat="48.53287" lon="2.10414">
        <ele>152.760625</ele>
        <time>2013-06-15T09:50:19Z</time>
      </trkpt>
      <trkpt lat="48.53289" lon="2.10421">
        <ele>153.057376</ele>
        <time>2013-06-15T09:50:24Z</time>
      </trkpt>
      <trkpt lat="48.53291" lon="2.10429">
        <ele>152.62911</ele>
        <time>2013-06-15T09:50:29Z</time>
      </trkpt>
      <trkpt lat="48.53293" lon="2.10437">
        <ele>152.950187</ele>
        <time>2013-06-15T09:50:34Z</time>
      </trkpt>
      <trkpt lat="48.53297" lon="2.10444">
        <ele>153.334549</ele>
        <time>2013-06-15T09:50:39Z</time>
      </trkpt>
      <trkpt lat="48.533" lon="2.10452">
        <ele>152.993898</ele>
        <time>2013-06-15T09:50:44Z</time>
      </trkpt>
      <trkpt lat="48.53303" lon="2.10459">
        <ele>152.628936</ele>
        <time>2013-06-15T09:50:49Z</time>
      </trkpt>
      <trkpt lat="48.53305" lon="2.10467">
        <ele>152.95004</ele>
        <time>2013-06-15T09:50:54Z</time>
      </trkpt>
      <trkpt lat="48.53307" lon="2.10476">
        <ele>152.521812</ele>
        <time>2013-06-15T09:50:59Z</time>
      </trkpt>
      <trkpt lat="48.5331" lon="2.10484">
        <ele>152.84293</ele>
        <time>2013-06-15T09:51:04Z</time>
      </trkpt>
      <trkpt lat="48.53311" lon="2.10492">
        <ele>152.414716</ele>
        <time>2013-06-15T09:51:09Z</time>
      </trkpt>
      <trkpt lat="48.53313" lon="2.10502">
        <ele>153.421909</ele>
        <time>2013-06-15T09:51:14Z</time>
      </trkpt>
      <trkpt lat="48.53315" lon="2.1051">
        <ele>152.993709</ele>
        <time>2013-06-15T09:51:19Z</time>
      </trkpt>
      <trkpt lat="48.53317" lon="2.10518">
        <ele>152.565515</ele>
        <time>2013-06-15T09:51:24Z</time>
      </trkpt>
      <trkpt lat="48.53319" lon="2.10526">
        <ele>152.886666</ele>
        <time>2013-06-15T09:51:29Z</time>
      </trkpt>
      <trkpt lat="48.53321" lon="2.10535">
        <ele>152.458485</ele>
        <time>2013-06-15T09:51:34Z</time>
      </trkpt>
      <trkpt lat="48.53322" lon="2.10543">
        <ele>152.692049</ele>
        <time>2013-06-15T09:51:39Z</time>
      </trkpt>
      <trkpt lat="48.53324" lon="2.1055">
        <ele>152.239552</ele>
        <time>2013-06-15T09:51:44Z</time>
      </trkpt>
      <trkpt lat="48.53325" lon="2.10558">
        <ele>152.473127</ele>
        <time>2013-06-15T09:51:49Z</time>
      </trkpt>
      <trkpt lat="48.53326" lon="2.10566">
        <ele>152.706707</ele>
        <time>2013-06-15T09:51:54Z</time>
      </trkpt>
      <trkpt lat="48.53328" lon="2.10574">
        <ele>152.278556</ele>
        <time>2013-06-15T09:51:59Z</time>
      </trkpt>
      <trkpt lat="48.53329" lon="2.10582">
        <ele>152.512149</ele>
        <time>2013-06-15T09:52:04Z</time>
      </trkpt>
      <trkpt lat="48.5333" lon="2.1059">
        <ele>151.996408</ele>
        <time>2013-06-15T09:52:09Z</time>
      </trkpt>
      <trkpt lat="48.53331" lon="2.10599">
        <ele>152.230012</ele>
        <time>2013-06-15T09:52:14Z</time>
      </trkpt>
      <trkpt lat="48.53332" lon="2.10607">
        <ele>152.463623</ele>
        <time>2013-06-15T09:52:19Z</time>
      </trkpt>
      <trkpt lat="48.53332" lon="2.10615">
        <ele>151.947898</ele>
        <time>2013-06-15T09:52:24Z</time>
      </trkpt>
      <trkpt lat="48.53334" lon="2.10623">
        <ele>152.930862</ele>
        <time>2013-06-15T09:52:29Z</time>
      </trkpt>
      <trkpt lat="48.53335" lon="2.10631">
        <ele>152.415149</ele>
        <time>2013-06-15T09:52:34Z</time>
      </trkpt>
      <trkpt lat="48.53336" lon="2.10639">
        <ele>152.648783</ele>
        <time>2013-06-15T09:52:39Z</time>
      </trkpt>
      <trkpt lat="48.53337" lon="2.10646">
        <ele>152.858084</ele>
        <time>2013-06-15T09:52:44Z</time>
      </trkpt>
      <trkpt lat="48.53337" lon="2.10654">
        <ele>152.342387</ele>
        <time>2013-06-15T09:52:49Z</time>
      </trkpt>
      <trkpt lat="48.53338" lon="2.10663">
        <ele>152.576038</ele>
        <time>2013-06-15T09:52:54Z</time>
      </trkpt>
      <trkpt lat="48.5334" lon="2.10669">
        <ele>152.785353</ele>
        <time>2013-06-15T09:52:59Z</time>
      </trkpt>
      <trkpt lat="48.53341" lon="2.10678">
        <ele>153.019015</ele>
        <time>2013-06-15T09:53:04Z</time>
      </trkpt>
      <trkpt lat="48.53341" lon="2.10684">
        <ele>152.478997</ele>
        <time>2013-06-15T09:53:09Z</time>
      </trkpt>
      <trkpt lat="48.53342" lon="2.10693">
        <ele>152.71267</ele>
        <time>2013-06-15T09:53:14Z</time>
      </trkpt>
      <trkpt lat="48.53344" lon="2.10701">
        <ele>152.946348</ele>
        <time>2013-06-15T09:53:19Z</time>
      </trkpt>
      <trkpt lat="48.53345" lon="2.10708">
        <ele>153.155686</ele>
        <time>2013-06-15T09:53:24Z</time>
      </trkpt>
      <trkpt lat="48.53345" lon="2.10716">
        <ele>152.640033</ele>
        <time>2013-06-15T09:53:29Z</time>
      </trkpt>
      <trkpt lat="48.53346" lon="2.10724">
        <ele>152.873729</ele>
        <time>2013-06-15T09:53:34Z</time>
      </trkpt>
      <trkpt lat="48.53348" lon="2.10732">
        <ele>152.445696</ele>
        <time>2013-06-15T09:53:39Z</time>
      </trkpt>
      <trkpt lat="48.53349" lon="2.1074">
        <ele>152.679403</ele>
        <time>2013-06-15T09:53:44Z</time>
      </trkpt>
      <trkpt lat="48.5335" lon="2.10748">
        <ele>152.913117</ele>
        <time>2013-06-15T09:53:49Z</time>
      </trkpt>
      <trkpt lat="48.53351" lon="2.10757">
        <ele>153.146836</ele>
        <time>2013-06-15T09:53:54Z</time>
      </trkpt>
      <trkpt lat="48.53353" lon="2.10766">
        <ele>153.404914</ele>
        <time>2013-06-15T09:53:59Z</time>
      </trkpt>
      <trkpt lat="48.53354" lon="2.10774">
        <ele>152.976913</ele>
        <time>2013-06-15T09:54:04Z</time>
      </trkpt>
      <trkpt lat="48.53355" lon="2.10783">
        <ele>153.210651</ele>
        <time>2013-06-15T09:54:09Z</time>
      </trkpt>
      <trkpt lat="48.53357" lon="2.10791">
        <ele>153.444396</ele>
        <time>2013-06-15T09:54:14Z</time>
      </trkpt>
      <trkpt lat="48.53357" lon="2.108">
        <ele>152.953159</ele>
        <time>2013-06-15T09:54:19Z</time>
      </trkpt>
      <trkpt lat="48.53358" lon="2.10808">
        <ele>153.186916</ele>
        <time>2013-06-15T09:54:24Z</time>
      </trkpt>
      <trkpt lat="48.53361" lon="2.10818">
        <ele>153.53265</ele>
        <time>2013-06-15T09:54:29Z</time>
      </trkpt>
      <trkpt lat="48.53361" lon="2.10826">
        <ele>153.017075</ele>
        <time>2013-06-15T09:54:34Z</time>
      </trkpt>
      <trkpt lat="48.53362" lon="2.10836">
        <ele>153.275212</ele>
        <time>2013-06-15T09:54:39Z</time>
      </trkpt>
      <trkpt lat="48.53364" lon="2.10842">
        <ele>152.822901</ele>
        <time>2013-06-15T09:54:44Z</time>
      </trkpt>
      <trkpt lat="48.53364" lon="2.10852">
        <ele>152.993439</ele>
        <time>2013-06-15T09:54:49Z</time>
      </trkpt>
      <trkpt lat="48.53365" lon="2.1086">
        <ele>153.227233</ele>
        <time>2013-06-15T09:54:54Z</time>
      </trkpt>
      <trkpt lat="48.53367" lon="2.10868">
        <ele>152.799302</ele>
        <time>2013-06-15T09:54:59Z</time>
      </trkpt>
      <trkpt lat="48.53368" lon="2.10878">
        <ele>153.057475</ele>
        <time>2013-06-15T09:55:04Z</time>
      </trkpt>
      <trkpt lat="48.53369" lon="2.10886">
        <ele>153.291288</ele>
        <time>2013-06-15T09:55:09Z</time>
      </trkpt>
      <trkpt lat="48.5337" lon="2.10893">
        <ele>153.50074</ele>
        <time>2013-06-15T09:55:14Z</time>
      </trkpt>
      <trkpt lat="48.53371" lon="2.10901">
        <ele>152.323488</ele>
        <time>2013-06-15T09:55:19Z</time>
      </trkpt>
      <trkpt lat="48.53372" lon="2.10911">
        <ele>152.581688</ele>
        <time>2013-06-15T09:55:24Z</time>
      </trkpt>
      <trkpt lat="48.53375" lon="2.10917">
        <ele>152.87877</ele>
        <time>2013-06-15T09:55:29Z</time>
      </trkpt>
      <trkpt lat="48.53377" lon="2.10924">
        <ele>153.175857</ele>
        <time>2013-06-15T09:55:34Z</time>
      </trkpt>
      <trkpt lat="48.53378" lon="2.10934">
        <ele>152.023002</ele>
        <time>2013-06-15T09:55:39Z</time>
      </trkpt>
      <trkpt lat="48.5338" lon="2.10942">
        <ele>152.256856</ele>
        <time>2013-06-15T09:55:44Z</time>
      </trkpt>
      <trkpt lat="48.53381" lon="2.1095">
        <ele>152.490717</ele>
        <time>2013-06-15T09:55:49Z</time>
      </trkpt>
      <trkpt lat="48.53382" lon="2.10958">
        <ele>152.062855</ele>
        <time>2013-06-15T09:55:54Z</time>
      </trkpt>
      <trkpt lat="48.53384" lon="2.10967">
        <ele>152.296728</ele>
        <time>2013-06-15T09:55:59Z</time>
      </trkpt>
      <trkpt lat="48.53385" lon="2.10976">
        <ele>151.893255</ele>
        <time>2013-06-15T09:56:04Z</time>
      </trkpt>
      <trkpt lat="48.53387" lon="2.10984">
        <ele>152.876488</ele>
        <time>2013-06-15T09:56:09Z</time>
      </trkpt>
      <trkpt lat="48.53389" lon="2.10994">
        <ele>152.473031</ele>
        <time>2013-06-15T09:56:14Z</time>
      </trkpt>
      <trkpt lat="48.5339" lon="2.11002">
        <ele>152.70693</ele>
        <time>2013-06-15T09:56:19Z</time>
      </trkpt>
      <trkpt lat="48.53392" lon="2.11012">
        <ele>152.303489</ele>
        <time>2013-06-15T09:56:24Z</time>
      </trkpt>
      <trkpt lat="48.53393" lon="2.11021">
        <ele>152.561783</ele>
        <time>2013-06-15T09:56:29Z</time>
      </trkpt>
      <trkpt lat="48.53395" lon="2.11029">
        <ele>152.133974</ele>
        <time>2013-06-15T09:56:34Z</time>
      </trkpt>
      <trkpt lat="48.53396" lon="2.11039">
        <ele>152.392284</ele>
        <time>2013-06-15T09:56:39Z</time>
      </trkpt>
      <trkpt lat="48.53397" lon="2.11049">
        <ele>151.988874</ele>
        <time>2013-06-15T09:56:44Z</time>
      </trkpt>
      <trkpt lat="48.53399" lon="2.11057">
        <ele>152.222813</ele>
        <time>2013-06-15T09:56:49Z</time>
      </trkpt>
      <trkpt lat="48.534" lon="2.11066">
        <ele>151.819419</ele>
        <time>2013-06-15T09:56:54Z</time>
      </trkpt>
      <trkpt lat="48.53401" lon="2.11076">
        <ele>152.07776</ele>
        <time>2013-06-15T09:56:59Z</time>
      </trkpt>
      <trkpt lat="48.53403" lon="2.11084">
        <ele>151.649993</ele>
        <time>2013-06-15T09:57:04Z</time>
      </trkpt>
      <trkpt lat="48.53406" lon="2.11092">
        <ele>151.971581</ele>
        <time>2013-06-15T09:57:09Z</time>
      </trkpt>
      <trkpt lat="48.53407" lon="2.111">
        <ele>151.543827</ele>
        <time>2013-06-15T09:57:14Z</time>
      </trkpt>
      <trkpt lat="48.53409" lon="2.11109">
        <ele>151.777805</ele>
        <time>2013-06-15T09:57:19Z</time>
      </trkpt>
      <trkpt lat="48.5341" lon="2.11117">
        <ele>151.350063</ele>
        <time>2013-06-15T09:57:24Z</time>
      </trkpt>
      <trkpt lat="48.53411" lon="2.11124">
        <ele>151.559658</ele>
        <time>2013-06-15T09:57:29Z</time>
      </trkpt>
      <trkpt lat="48.53411" lon="2.11126">
        <ele>151.608447</ele>
        <time>2013-06-15T09:57:34Z</time>
      </trkpt>
      <trkpt lat="48.53413" lon="2.11133">
        <ele>152.567398</ele>
        <time>2013-06-15T09:57:39Z</time>
      </trkpt>
      <trkpt lat="48.53415" lon="2.11141">
        <ele>152.139675</ele>
        <time>2013-06-15T09:57:44Z</time>
      </trkpt>
      <trkpt lat="48.53416" lon="2.1115">
        <ele>152.373682</ele>
        <time>2013-06-15T09:57:49Z</time>
      </trkpt>
      <trkpt lat="48.53418" lon="2.11155">
        <ele>151.897176</ele>
        <time>2013-06-15T09:57:54Z</time>
      </trkpt>
      <trkpt lat="48.53419" lon="2.11163">
        <ele>152.131193</ele>
        <time>2013-06-15T09:57:59Z</time>
      </trkpt>
      <trkpt lat="48.5342" lon="2.1117">
        <ele>152.340817</ele>
        <time>2013-06-15T09:58:04Z</time>
      </trkpt>
      <trkpt lat="48.53422" lon="2.11177">
        <ele>151.888722</ele>
        <time>2013-06-15T09:58:09Z</time>
      </trkpt>
      <trkpt lat="48.53423" lon="2.1118">
        <ele>151.2758</ele>
        <time>2013-06-15T09:58:14Z</time>
      </trkpt>
      <trkpt lat="48.53424" lon="2.11186">
        <ele>151.485435</ele>
        <time>2013-06-15T09:58:19Z</time>
      </trkpt>
      <trkpt lat="48.53425" lon="2.11193">
        <ele>151.695073</ele>
        <time>2013-06-15T09:58:24Z</time>
      </trkpt>
      <trkpt lat="48.53427" lon="2.11202">
        <ele>151.267397</ele>
        <time>2013-06-15T09:58:29Z</time>
      </trkpt>
      <trkpt lat="48.53429" lon="2.11208">
        <ele>151.564674</ele>
        <time>2013-06-15T09:58:34Z</time>
      </trkpt>
      <trkpt lat="48.53431" lon="2.11217">
        <ele>151.886362</ele>
        <time>2013-06-15T09:58:39Z</time>
      </trkpt>
      <trkpt lat="48.53433" lon="2.11226">
        <ele>152.144832</ele>
        <time>2013-06-15T09:58:44Z</time>
      </trkpt>
      <trkpt lat="48.53436" lon="2.11234">
        <ele>151.804813</ele>
        <time>2013-06-15T09:58:49Z</time>
      </trkpt>
      <trkpt lat="48.53438" lon="2.11243">
        <ele>152.126522</ele>
        <time>2013-06-15T09:58:54Z</time>
      </trkpt>
      <trkpt lat="48.53441" lon="2.11251">
        <ele>151.786518</ele>
        <time>2013-06-15T09:58:59Z</time>
      </trkpt>
      <trkpt lat="48.53443" lon="2.11259">
        <ele>152.108241</ele>
        <time>2013-06-15T09:59:04Z</time>
      </trkpt>
      <trkpt lat="48.53447" lon="2.11267">
        <ele>151.768252</ele>
        <time>2013-06-15T09:59:09Z</time>
      </trkpt>
      <trkpt lat="48.53449" lon="2.11276">
        <ele>152.08999</ele>
        <time>2013-06-15T09:59:14Z</time>
      </trkpt>
      <trkpt lat="48.53451" lon="2.11284">
        <ele>151.662379</ele>
        <time>2013-06-15T09:59:19Z</time>
      </trkpt>
      <trkpt lat="48.53453" lon="2.11292">
        <ele>151.98413</ele>
        <time>2013-06-15T09:59:24Z</time>
      </trkpt>
      <trkpt lat="48.53456" lon="2.113">
        <ele>152.305888</ele>
        <time>2013-06-15T09:59:29Z</time>
      </trkpt>
      <trkpt lat="48.53459" lon="2.11307">
        <ele>151.941519</ele>
        <time>2013-06-15T09:59:34Z</time>
      </trkpt>
      <trkpt lat="48.53461" lon="2.11315">
        <ele>152.26329</ele>
        <time>2013-06-15T09:59:39Z</time>
      </trkpt>
      <trkpt lat="48.53463" lon="2.11324">
        <ele>152.585068</ele>
        <time>2013-06-15T09:59:44Z</time>
      </trkpt>
      <trkpt lat="48.53466" lon="2.11332">
        <ele>152.245136</ele>
        <time>2013-06-15T09:59:49Z</time>
      </trkpt>
      <trkpt lat="48.53469" lon="2.1134">
        <ele>152.566928</ele>
        <time>2013-06-15T09:59:54Z</time>
      </trkpt>
      <trkpt lat="48.53471" lon="2.1135">
        <ele>152.16379</ele>
        <time>2013-06-15T09:59:59Z</time>
      </trkpt>
      <trkpt lat="48.53472" lon="2.11358">
        <ele>152.397954</ele>
        <time>2013-06-15T10:00:04Z</time>
      </trkpt>
      <trkpt lat="48.53474" lon="2.11367">
        <ele>152.744189</ele>
        <time>2013-06-15T10:00:09Z</time>
      </trkpt>
      <trkpt lat="48.53476" lon="2.11376">
        <ele>152.316652</ele>
        <time>2013-06-15T10:00:14Z</time>
      </trkpt>
      <trkpt lat="48.53478" lon="2.11384">
        <ele>152.638479</ele>
        <time>2013-06-15T10:00:19Z</time>
      </trkpt>
      <trkpt lat="48.5348" lon="2.11392">
        <ele>152.210954</ele>
        <time>2013-06-15T10:00:24Z</time>
      </trkpt>
      <trkpt lat="48.53482" lon="2.11402">
        <ele>152.557221</ele>
        <time>2013-06-15T10:00:29Z</time>
      </trkpt>
      <trkpt lat="48.53484" lon="2.1141">
        <ele>153.540783</ele>
        <time>2013-06-15T10:00:34Z</time>
      </trkpt>
      <trkpt lat="48.53487" lon="2.11418">
        <ele>153.200924</ele>
        <time>2013-06-15T10:00:39Z</time>
      </trkpt>
      <trkpt lat="48.53489" lon="2.11428">
        <ele>154.208928</ele>
        <time>2013-06-15T10:00:44Z</time>
      </trkpt>
      <trkpt lat="48.53492" lon="2.11436">
        <ele>153.869085</ele>
        <time>2013-06-15T10:00:49Z</time>
      </trkpt>
      <trkpt lat="48.53494" lon="2.11444">
        <ele>153.441602</ele>
        <time>2013-06-15T10:00:54Z</time>
      </trkpt>
      <trkpt lat="48.53496" lon="2.11452">
        <ele>153.763485</ele>
        <time>2013-06-15T10:00:59Z</time>
      </trkpt>
      <trkpt lat="48.53498" lon="2.11462">
        <ele>154.109808</ele>
        <time>2013-06-15T10:01:04Z</time>
      </trkpt>
      <trkpt lat="48.535" lon="2.1147">
        <ele>153.682345</ele>
        <time>2013-06-15T10:01:09Z</time>
      </trkpt>
      <trkpt lat="48.53503" lon="2.11478">
        <ele>154.00425</ele>
        <time>2013-06-15T10:01:14Z</time>
      </trkpt>
      <trkpt lat="48.53505" lon="2.11488">
        <ele>154.350597</ele>
        <time>2013-06-15T10:01:19Z</time>
      </trkpt>
      <trkpt lat="48.53507" lon="2.11496">
        <ele>153.923155</ele>
        <time>2013-06-15T10:01:24Z</time>
      </trkpt>
      <trkpt lat="48.53508" lon="2.11504">
        <ele>154.15743</ele>
        <time>2013-06-15T10:01:29Z</time>
      </trkpt>
      <trkpt lat="48.5351" lon="2.11512">
        <ele>153.73</ele>
        <time>2013-06-15T10:01:34Z</time>
      </trkpt>
      <trkpt lat="48.53511" lon="2.11522">
        <ele>153.988727</ele>
        <time>2013-06-15T10:01:39Z</time>
      </trkpt>
      <trkpt lat="48.53512" lon="2.11532">
        <ele>154.247461</ele>
        <time>2013-06-15T10:01:44Z</time>
      </trkpt>
      <trkpt lat="48.53513" lon="2.1154">
        <ele>154.481761</ele>
        <time>2013-06-15T10:01:49Z</time>
      </trkpt>
      <trkpt lat="48.53513" lon="2.11549">
        <ele>155.40222</ele>
        <time>2013-06-15T10:01:54Z</time>
      </trkpt>
      <trkpt lat="48.53516" lon="2.11557">
        <ele>155.724186</ele>
        <time>2013-06-15T10:01:59Z</time>
      </trkpt>
      <trkpt lat="48.53518" lon="2.11566">
        <ele>155.296797</ele>
        <time>2013-06-15T10:02:04Z</time>
      </trkpt>
      <trkpt lat="48.53519" lon="2.11572">
        <ele>156.256039</ele>
        <time>2013-06-15T10:02:09Z</time>
      </trkpt>
      <trkpt lat="48.53521" lon="2.11581">
        <ele>157.239732</ele>
        <time>2013-06-15T10:02:14Z</time>
      </trkpt>
      <trkpt lat="48.53522" lon="2.11585">
        <ele>157.400727</ele>
        <time>2013-06-15T10:02:19Z</time>
      </trkpt>
      <trkpt lat="48.53523" lon="2.11591">
        <ele>157.610619</ele>
        <time>2013-06-15T10:02:24Z</time>
      </trkpt>
      <trkpt lat="48.53525" lon="2.116">
        <ele>157.183256</ele>
        <time>2013-06-15T10:02:29Z</time>
      </trkpt>
      <trkpt lat="48.53529" lon="2.11609">
        <ele>156.206299</ele>
        <time>2013-06-15T10:02:34Z</time>
      </trkpt>
      <trkpt lat="48.53531" lon="2.11619">
        <ele>155.803401</ele>
        <time>2013-06-15T10:02:39Z</time>
      </trkpt>
      <trkpt lat="48.53533" lon="2.11627">
        <ele>155.37606</ele>
        <time>2013-06-15T10:02:44Z</time>
      </trkpt>
      <trkpt lat="48.53535" lon="2.11635">
        <ele>155.69809</ele>
        <time>2013-06-15T10:02:49Z</time>
      </trkpt>
      <trkpt lat="48.53537" lon="2.11645">
        <ele>155.295215</ele>
        <time>2013-06-15T10:02:54Z</time>
      </trkpt>
      <trkpt lat="48.53539" lon="2.11653">
        <ele>155.617259</ele>
        <time>2013-06-15T10:02:59Z</time>
      </trkpt>
      <trkpt lat="48.53541" lon="2.11661">
        <ele>155.189945</ele>
        <time>2013-06-15T10:03:04Z</time>
      </trkpt>
      <trkpt lat="48.53543" lon="2.1167">
        <ele>155.512003</ele>
        <time>2013-06-15T10:03:09Z</time>
      </trkpt>
      <trkpt lat="48.53546" lon="2.11678">
        <ele>155.834067</ele>
        <time>2013-06-15T10:03:14Z</time>
      </trkpt>
      <trkpt lat="48.53547" lon="2.11686">
        <ele>156.068477</ele>
        <time>2013-06-15T10:03:19Z</time>
      </trkpt>
      <trkpt lat="48.53547" lon="2.11691">
        <ele>155.504608</ele>
        <time>2013-06-15T10:03:24Z</time>
      </trkpt>
      <trkpt lat="48.53549" lon="2.117">
        <ele>155.077324</ele>
        <time>2013-06-15T10:03:29Z</time>
      </trkpt>
      <trkpt lat="48.5355" lon="2.11708">
        <ele>153.900679</ele>
        <time>2013-06-15T10:03:34Z</time>
      </trkpt>
      <trkpt lat="48.53551" lon="2.11716">
        <ele>154.135111</ele>
        <time>2013-06-15T10:03:39Z</time>
      </trkpt>
      <trkpt lat="48.53553" lon="2.11726">
        <ele>154.394012</ele>
        <time>2013-06-15T10:03:44Z</time>
      </trkpt>
      <trkpt lat="48.53554" lon="2.11735">
        <ele>154.652921</ele>
        <time>2013-06-15T10:03:49Z</time>
      </trkpt>
      <trkpt lat="48.53555" lon="2.11743">
        <ele>154.887372</ele>
        <time>2013-06-15T10:03:54Z</time>
      </trkpt>
      <trkpt lat="48.53555" lon="2.11751">
        <ele>154.372463</ele>
        <time>2013-06-15T10:03:59Z</time>
      </trkpt>
      <trkpt lat="48.53556" lon="2.1176">
        <ele>154.606926</ele>
        <time>2013-06-15T10:04:04Z</time>
      </trkpt>
      <trkpt lat="48.53558" lon="2.11768">
        <ele>154.841395</ele>
        <time>2013-06-15T10:04:09Z</time>
      </trkpt>
      <trkpt lat="48.53558" lon="2.11777">
        <ele>154.350972</ele>
        <time>2013-06-15T10:04:14Z</time>
      </trkpt>
      <trkpt lat="48.53559" lon="2.11785">
        <ele>154.585454</ele>
        <time>2013-06-15T10:04:19Z</time>
      </trkpt>
      <trkpt lat="48.53561" lon="2.11795">
        <ele>154.182711</ele>
        <time>2013-06-15T10:04:24Z</time>
      </trkpt>
      <trkpt lat="48.53562" lon="2.11803">
        <ele>154.417205</ele>
        <time>2013-06-15T10:04:29Z</time>
      </trkpt>
      <trkpt lat="48.53563" lon="2.11811">
        <ele>154.651706</ele>
        <time>2013-06-15T10:04:34Z</time>
      </trkpt>
      <trkpt lat="48.53564" lon="2.1182">
        <ele>154.886213</ele>
        <time>2013-06-15T10:04:39Z</time>
      </trkpt>
      <trkpt lat="48.53566" lon="2.11828">
        <ele>154.459024</ele>
        <time>2013-06-15T10:04:44Z</time>
      </trkpt>
      <trkpt lat="48.53567" lon="2.11837">
        <ele>154.718019</ele>
        <time>2013-06-15T10:04:49Z</time>
      </trkpt>
      <trkpt lat="48.53568" lon="2.11847">
        <ele>154.227653</ele>
        <time>2013-06-15T10:04:54Z</time>
      </trkpt>
      <trkpt lat="48.53569" lon="2.11855">
        <ele>154.462186</ele>
        <time>2013-06-15T10:04:59Z</time>
      </trkpt>
      <trkpt lat="48.5357" lon="2.11865">
        <ele>154.721203</ele>
        <time>2013-06-15T10:05:04Z</time>
      </trkpt>
      <trkpt lat="48.53572" lon="2.11873">
        <ele>154.294048</ele>
        <time>2013-06-15T10:05:09Z</time>
      </trkpt>
      <trkpt lat="48.53572" lon="2.11881">
        <ele>153.77923</ele>
        <time>2013-06-15T10:05:14Z</time>
      </trkpt>
      <trkpt lat="48.53573" lon="2.11889">
        <ele>154.013788</ele>
        <time>2013-06-15T10:05:19Z</time>
      </trkpt>
      <trkpt lat="48.53574" lon="2.11897">
        <ele>154.248351</ele>
        <time>2013-06-15T10:05:24Z</time>
      </trkpt>
      <trkpt lat="48.53576" lon="2.11907">
        <ele>153.096335</ele>
        <time>2013-06-15T10:05:29Z</time>
      </trkpt>
      <trkpt lat="48.53577" lon="2.11915">
        <ele>153.330911</ele>
        <time>2013-06-15T10:05:34Z</time>
      </trkpt>
      <trkpt lat="48.53578" lon="2.11925">
        <ele>153.589978</ele>
        <time>2013-06-15T10:05:39Z</time>
      </trkpt>
      <trkpt lat="48.53578" lon="2.11933">
        <ele>153.075198</ele>
        <time>2013-06-15T10:05:44Z</time>
      </trkpt>
      <trkpt lat="48.53579" lon="2.11941">
        <ele>153.309792</ele>
        <time>2013-06-15T10:05:49Z</time>
      </trkpt>
      <trkpt lat="48.53581" lon="2.11949">
        <ele>153.544393</ele>
        <time>2013-06-15T10:05:54Z</time>
      </trkpt>
      <trkpt lat="48.53581" lon="2.11957">
        <ele>153.02963</ele>
        <time>2013-06-15T10:05:59Z</time>
      </trkpt>
      <trkpt lat="48.53582" lon="2.11965">
        <ele>153.264242</ele>
        <time>2013-06-15T10:06:04Z</time>
      </trkpt>
      <trkpt lat="48.53584" lon="2.11972">
        <ele>152.81267</ele>
        <time>2013-06-15T10:06:09Z</time>
      </trkpt>
      <trkpt lat="48.53585" lon="2.1198">
        <ele>152.297923</ele>
        <time>2013-06-15T10:06:14Z</time>
      </trkpt>
      <trkpt lat="48.53586" lon="2.11987">
        <ele>152.508059</ele>
        <time>2013-06-15T10:06:19Z</time>
      </trkpt>
      <trkpt lat="48.53587" lon="2.11997">
        <ele>152.10549</ele>
        <time>2013-06-15T10:06:24Z</time>
      </trkpt>
      <trkpt lat="48.53589" lon="2.12006">
        <ele>152.364626</ele>
        <time>2013-06-15T10:06:30Z</time>
      </trkpt>
      <trkpt lat="48.53591" lon="2.12016">
        <ele>152.711444</ele>
        <time>2013-06-15T10:06:35Z</time>
      </trkpt>
      <trkpt lat="48.53593" lon="2.12024">
        <ele>152.284403</ele>
        <time>2013-06-15T10:06:40Z</time>
      </trkpt>
      <trkpt lat="48.53596" lon="2.12034">
        <ele>151.96954</ele>
        <time>2013-06-15T10:06:45Z</time>
      </trkpt>
      <trkpt lat="48.53598" lon="2.12042">
        <ele>152.291884</ele>
        <time>2013-06-15T10:06:50Z</time>
      </trkpt>
      <trkpt lat="48.53601" lon="2.12052">
        <ele>151.227668</ele>
        <time>2013-06-15T10:06:55Z</time>
      </trkpt>
      <trkpt lat="48.53603" lon="2.1206">
        <ele>151.550027</ele>
        <time>2013-06-15T10:07:00Z</time>
      </trkpt>
      <trkpt lat="48.53605" lon="2.12069">
        <ele>151.896895</ele>
        <time>2013-06-15T10:07:05Z</time>
      </trkpt>
      <trkpt lat="48.53608" lon="2.12078">
        <ele>150.808201</ele>
        <time>2013-06-15T10:07:10Z</time>
      </trkpt>
      <trkpt lat="48.53611" lon="2.12087">
        <ele>150.493392</ele>
        <time>2013-06-15T10:07:15Z</time>
      </trkpt>
      <trkpt lat="48.53613" lon="2.12095">
        <ele>150.815781</ele>
        <time>2013-06-15T10:07:20Z</time>
      </trkpt>
      <trkpt lat="48.53616" lon="2.12104">
        <ele>150.476482</ele>
        <time>2013-06-15T10:07:25Z</time>
      </trkpt>
      <trkpt lat="48.53619" lon="2.12112">
        <ele>149.387818</ele>
        <time>2013-06-15T10:07:30Z</time>
      </trkpt>
      <trkpt lat="48.53621" lon="2.1212">
        <ele>149.710228</ele>
        <time>2013-06-15T10:07:35Z</time>
      </trkpt>
      <trkpt lat="48.53624" lon="2.12128">
        <ele>149.370952</ele>
        <time>2013-06-15T10:07:40Z</time>
      </trkpt>
      <trkpt lat="48.53627" lon="2.12137">
        <ele>149.693376</ele>
        <time>2013-06-15T10:07:45Z</time>
      </trkpt>
      <trkpt lat="48.53629" lon="2.12145">
        <ele>148.604739</ele>
        <time>2013-06-15T10:07:50Z</time>
      </trkpt>
      <trkpt lat="48.53631" lon="2.12153">
        <ele>148.927177</ele>
        <time>2013-06-15T10:07:55Z</time>
      </trkpt>
      <trkpt lat="48.53634" lon="2.12161">
        <ele>148.58793</ele>
        <time>2013-06-15T10:08:00Z</time>
      </trkpt>
      <trkpt lat="48.53638" lon="2.1217">
        <ele>148.248692</ele>
        <time>2013-06-15T10:08:05Z</time>
      </trkpt>
      <trkpt lat="48.53639" lon="2.12178">
        <ele>147.821774</ele>
        <time>2013-06-15T10:08:10Z</time>
      </trkpt>
      <trkpt lat="48.53642" lon="2.12185">
        <ele>147.458034</ele>
        <time>2013-06-15T10:08:15Z</time>
      </trkpt>
      <trkpt lat="48.53645" lon="2.12193">
        <ele>147.780506</ele>
        <time>2013-06-15T10:08:20Z</time>
      </trkpt>
      <trkpt lat="48.53648" lon="2.122">
        <ele>147.416778</ele>
        <time>2013-06-15T10:08:25Z</time>
      </trkpt>
      <trkpt lat="48.53651" lon="2.12208">
        <ele>147.077574</ele>
        <time>2013-06-15T10:08:30Z</time>
      </trkpt>
      <trkpt lat="48.53654" lon="2.12215">
        <ele>146.713859</ele>
        <time>2013-06-15T10:08:35Z</time>
      </trkpt>
      <trkpt lat="48.53657" lon="2.12223">
        <ele>146.37467</ele>
        <time>2013-06-15T10:08:40Z</time>
      </trkpt>
      <trkpt lat="48.53661" lon="2.1223">
        <ele>146.760346</ele>
        <time>2013-06-15T10:08:45Z</time>
      </trkpt>
      <trkpt lat="48.53664" lon="2.12237">
        <ele>146.39665</ele>
        <time>2013-06-15T10:08:50Z</time>
      </trkpt>
      <trkpt lat="48.53667" lon="2.12246">
        <ele>146.057482</ele>
        <time>2013-06-15T10:08:55Z</time>
      </trkpt>
      <trkpt lat="48.5367" lon="2.12254">
        <ele>145.718322</ele>
        <time>2013-06-15T10:09:00Z</time>
      </trkpt>
      <trkpt lat="48.53673" lon="2.12261">
        <ele>146.76571</ele>
        <time>2013-06-15T10:09:05Z</time>
      </trkpt>
      <trkpt lat="48.53677" lon="2.12269">
        <ele>145.76488</ele>
        <time>2013-06-15T10:09:10Z</time>
      </trkpt>
      <trkpt lat="48.5368" lon="2.12276">
        <ele>146.150597</ele>
        <time>2013-06-15T10:09:15Z</time>
      </trkpt>
      <trkpt lat="48.53683" lon="2.12284">
        <ele>145.811466</ele>
        <time>2013-06-15T10:09:20Z</time>
      </trkpt>
      <trkpt lat="48.53686" lon="2.12291">
        <ele>146.109499</ele>
        <time>2013-06-15T10:09:25Z</time>
      </trkpt>
      <trkpt lat="48.53689" lon="2.12299">
        <ele>145.770382</ele>
        <time>2013-06-15T10:09:30Z</time>
      </trkpt>
      <trkpt lat="48.53693" lon="2.12306">
        <ele>146.156126</ele>
        <time>2013-06-15T10:09:35Z</time>
      </trkpt>
      <trkpt lat="48.53696" lon="2.12313">
        <ele>145.130811</ele>
        <time>2013-06-15T10:09:40Z</time>
      </trkpt>
      <trkpt lat="48.537" lon="2.12321">
        <ele>145.541099</ele>
        <time>2013-06-15T10:09:45Z</time>
      </trkpt>
      <trkpt lat="48.53704" lon="2.1233">
        <ele>145.289715</ele>
        <time>2013-06-15T10:09:50Z</time>
      </trkpt>
      <trkpt lat="48.53707" lon="2.12338">
        <ele>144.950637</ele>
        <time>2013-06-15T10:09:55Z</time>
      </trkpt>
      <trkpt lat="48.53709" lon="2.12346">
        <ele>144.523862</ele>
        <time>2013-06-15T10:10:00Z</time>
      </trkpt>
      <trkpt lat="48.53712" lon="2.12355">
        <ele>144.184798</ele>
        <time>2013-06-15T10:10:05Z</time>
      </trkpt>
      <trkpt lat="48.53714" lon="2.12364">
        <ele>143.782572</ele>
        <time>2013-06-15T10:10:10Z</time>
      </trkpt>
      <trkpt lat="48.53716" lon="2.12372">
        <ele>144.105203</ele>
        <time>2013-06-15T10:10:15Z</time>
      </trkpt>
      <trkpt lat="48.53718" lon="2.12382">
        <ele>143.702993</ele>
        <time>2013-06-15T10:10:20Z</time>
      </trkpt>
      <trkpt lat="48.53721" lon="2.1239">
        <ele>144.025638</ele>
        <time>2013-06-15T10:10:25Z</time>
      </trkpt>
      <trkpt lat="48.53723" lon="2.124">
        <ele>142.961765</ele>
        <time>2013-06-15T10:10:30Z</time>
      </trkpt>
      <trkpt lat="48.53725" lon="2.12408">
        <ele>143.284425</ele>
        <time>2013-06-15T10:10:35Z</time>
      </trkpt>
      <trkpt lat="48.53727" lon="2.12416">
        <ele>143.519383</ele>
        <time>2013-06-15T10:10:40Z</time>
      </trkpt>
      <trkpt lat="48.53728" lon="2.12426">
        <ele>143.117213</ele>
        <time>2013-06-15T10:10:45Z</time>
      </trkpt>
      <trkpt lat="48.53731" lon="2.12434">
        <ele>142.778216</ele>
        <time>2013-06-15T10:10:50Z</time>
      </trkpt>
      <trkpt lat="48.53733" lon="2.12444">
        <ele>142.376062</ele>
        <time>2013-06-15T10:10:55Z</time>
      </trkpt>
      <trkpt lat="48.53735" lon="2.12452">
        <ele>141.949369</ele>
        <time>2013-06-15T10:11:00Z</time>
      </trkpt>
      <trkpt lat="48.53737" lon="2.12461">
        <ele>142.296618</ele>
        <time>2013-06-15T10:11:05Z</time>
      </trkpt>
      <trkpt lat="48.53739" lon="2.1247">
        <ele>141.86994</ele>
        <time>2013-06-15T10:11:10Z</time>
      </trkpt>
      <trkpt lat="48.53741" lon="2.12478">
        <ele>141.443268</ele>
        <time>2013-06-15T10:11:15Z</time>
      </trkpt>
      <trkpt lat="48.53743" lon="2.12487">
        <ele>141.790541</ele>
        <time>2013-06-15T10:11:20Z</time>
      </trkpt>
      <trkpt lat="48.53745" lon="2.12496">
        <ele>141.363883</ele>
        <time>2013-06-15T10:11:25Z</time>
      </trkpt>
      <trkpt lat="48.53746" lon="2.12504">
        <ele>141.598907</ele>
        <time>2013-06-15T10:11:30Z</time>
      </trkpt>
      <trkpt lat="48.53748" lon="2.12512">
        <ele>141.172261</ele>
        <time>2013-06-15T10:11:35Z</time>
      </trkpt>
      <trkpt lat="48.5375" lon="2.1252">
        <ele>142.156686</ele>
        <time>2013-06-15T10:11:40Z</time>
      </trkpt>
      <trkpt lat="48.53751" lon="2.12528">
        <ele>141.730053</ele>
        <time>2013-06-15T10:11:45Z</time>
      </trkpt>
      <trkpt lat="48.53753" lon="2.12537">
        <ele>141.303427</ele>
        <time>2013-06-15T10:11:50Z</time>
      </trkpt>
      <trkpt lat="48.53756" lon="2.12545">
        <ele>141.626197</ele>
        <time>2013-06-15T10:11:55Z</time>
      </trkpt>
      <trkpt lat="48.53757" lon="2.12554">
        <ele>141.224141</ele>
        <time>2013-06-15T10:12:00Z</time>
      </trkpt>
      <trkpt lat="48.5376" lon="2.12563">
        <ele>141.546925</ele>
        <time>2013-06-15T10:12:05Z</time>
      </trkpt>
      <trkpt lat="48.53762" lon="2.12571">
        <ele>141.120326</ele>
        <time>2013-06-15T10:12:10Z</time>
      </trkpt>
      <trkpt lat="48.53764" lon="2.12579">
        <ele>141.443124</ele>
        <time>2013-06-15T10:12:15Z</time>
      </trkpt>
      <trkpt lat="48.53766" lon="2.12587">
        <ele>141.016537</ele>
        <time>2013-06-15T10:12:20Z</time>
      </trkpt>
      <trkpt lat="48.53768" lon="2.12595">
        <ele>141.339348</ele>
        <time>2013-06-15T10:12:25Z</time>
      </trkpt>
      <trkpt lat="48.5377" lon="2.12604">
        <ele>140.912775</ele>
        <time>2013-06-15T10:12:30Z</time>
      </trkpt>
      <trkpt lat="48.53772" lon="2.12612">
        <ele>141.2356</ele>
        <time>2013-06-15T10:12:35Z</time>
      </trkpt>
      <trkpt lat="48.53774" lon="2.12622">
        <ele>140.833605</ele>
        <time>2013-06-15T10:12:40Z</time>
      </trkpt>
      <trkpt lat="48.53777" lon="2.1263">
        <ele>140.494773</ele>
        <time>2013-06-15T10:12:45Z</time>
      </trkpt>
      <trkpt lat="48.5378" lon="2.12637">
        <ele>140.793052</ele>
        <time>2013-06-15T10:12:50Z</time>
      </trkpt>
      <trkpt lat="48.53782" lon="2.12646">
        <ele>141.140473</ele>
        <time>2013-06-15T10:12:55Z</time>
      </trkpt>
      <trkpt lat="48.53785" lon="2.12654">
        <ele>140.801664</ele>
        <time>2013-06-15T10:13:00Z</time>
      </trkpt>
      <trkpt lat="48.53789" lon="2.12663">
        <ele>141.212256</ele>
        <time>2013-06-15T10:13:05Z</time>
      </trkpt>
      <trkpt lat="48.53793" lon="2.1267">
        <ele>140.936618</ele>
        <time>2013-06-15T10:13:10Z</time>
      </trkpt>
      <trkpt lat="48.53797" lon="2.12678">
        <ele>141.347226</ele>
        <time>2013-06-15T10:13:15Z</time>
      </trkpt>
      <trkpt lat="48.53801" lon="2.12685">
        <ele>141.071604</ele>
        <time>2013-06-15T10:13:20Z</time>
      </trkpt>
      <trkpt lat="48.53805" lon="2.12693">
        <ele>141.482229</ele>
        <time>2013-06-15T10:13:25Z</time>
      </trkpt>
      <trkpt lat="48.53808" lon="2.12701">
        <ele>141.143466</ele>
        <time>2013-06-15T10:13:30Z</time>
      </trkpt>
      <trkpt lat="48.5381" lon="2.12708">
        <ele>141.441802</ele>
        <time>2013-06-15T10:13:35Z</time>
      </trkpt>
      <trkpt lat="48.53813" lon="2.12717">
        <ele>141.764718</ele>
        <time>2013-06-15T10:13:40Z</time>
      </trkpt>
      <trkpt lat="48.53816" lon="2.12722">
        <ele>141.376823</ele>
        <time>2013-06-15T10:13:45Z</time>
      </trkpt>
      <trkpt lat="48.53817" lon="2.12728">
        <ele>142.312261</ele>
        <time>2013-06-15T10:13:50Z</time>
      </trkpt>
      <trkpt lat="48.53819" lon="2.12736">
        <ele>141.885798</ele>
        <time>2013-06-15T10:13:55Z</time>
      </trkpt>
      <trkpt lat="48.53822" lon="2.12744">
        <ele>142.208738</ele>
        <time>2013-06-15T10:14:00Z</time>
      </trkpt>
      <trkpt lat="48.53824" lon="2.12751">
        <ele>141.096043</ele>
        <time>2013-06-15T10:14:05Z</time>
      </trkpt>
      <trkpt lat="48.53826" lon="2.12759">
        <ele>141.418996</ele>
        <time>2013-06-15T10:14:10Z</time>
      </trkpt>
      <trkpt lat="48.53828" lon="2.12767">
        <ele>140.992558</ele>
        <time>2013-06-15T10:14:15Z</time>
      </trkpt>
      <trkpt lat="48.53831" lon="2.12774">
        <ele>140.629279</ele>
        <time>2013-06-15T10:14:20Z</time>
      </trkpt>
      <trkpt lat="48.53835" lon="2.12781">
        <ele>141.015405</ele>
        <time>2013-06-15T10:14:25Z</time>
      </trkpt>
      <trkpt lat="48.53837" lon="2.12789">
        <ele>141.338384</ele>
        <time>2013-06-15T10:14:30Z</time>
      </trkpt>
      <trkpt lat="48.5384" lon="2.12798">
        <ele>140.999709</ele>
        <time>2013-06-15T10:14:35Z</time>
      </trkpt>
      <trkpt lat="48.53844" lon="2.12806">
        <ele>140.661042</ele>
        <time>2013-06-15T10:14:40Z</time>
      </trkpt>
      <trkpt lat="48.53846" lon="2.12813">
        <ele>140.959455</ele>
        <time>2013-06-15T10:14:45Z</time>
      </trkpt>
      <trkpt lat="48.53849" lon="2.12821">
        <ele>140.620802</ele>
        <time>2013-06-15T10:14:50Z</time>
      </trkpt>
      <trkpt lat="48.53851" lon="2.12829">
        <ele>140.943816</ele>
        <time>2013-06-15T10:14:55Z</time>
      </trkpt>
      <trkpt lat="48.53851" lon="2.12836">
        <ele>141.728423</ele>
        <time>2013-06-15T10:15:00Z</time>
      </trkpt>
      <trkpt lat="48.53851" lon="2.12846">
        <ele>142.649957</ele>
        <time>2013-06-15T10:15:05Z</time>
      </trkpt>
      <trkpt lat="48.53851" lon="2.12852">
        <ele>144.183975</ele>
        <time>2013-06-15T10:15:10Z</time>
      </trkpt>
      <trkpt lat="48.53851" lon="2.12859">
        <ele>146.467397</ele>
        <time>2013-06-15T10:15:15Z</time>
      </trkpt>
      <trkpt lat="48.53852" lon="2.12868">
        <ele>146.72729</ele>
        <time>2013-06-15T10:15:20Z</time>
      </trkpt>
      <trkpt lat="48.53848" lon="2.12878">
        <ele>147.297886</ele>
        <time>2013-06-15T10:15:25Z</time>
      </trkpt>
      <trkpt lat="48.53845" lon="2.12887">
        <ele>147.294573</ele>
        <time>2013-06-15T10:15:30Z</time>
      </trkpt>
      <trkpt lat="48.53844" lon="2.12897">
        <ele>148.128408</ele>
        <time>2013-06-15T10:15:35Z</time>
      </trkpt>
      <trkpt lat="48.53844" lon="2.12907">
        <ele>149.736249</ele>
        <time>2013-06-15T10:15:40Z</time>
      </trkpt>
      <trkpt lat="48.53843" lon="2.12917">
        <ele>150.5701</ele>
        <time>2013-06-15T10:15:45Z</time>
      </trkpt>
      <trkpt lat="48.53841" lon="2.12925">
        <ele>151.29162</ele>
        <time>2013-06-15T10:15:50Z</time>
      </trkpt>
      <trkpt lat="48.53839" lon="2.12933">
        <ele>152.013146</ele>
        <time>2013-06-15T10:15:55Z</time>
      </trkpt>
      <trkpt lat="48.53841" lon="2.1294">
        <ele>150.151171</ele>
        <time>2013-06-15T10:16:00Z</time>
      </trkpt>
      <trkpt lat="48.53841" lon="2.12948">
        <ele>150.298786</ele>
        <time>2013-06-15T10:16:05Z</time>
      </trkpt>
      <trkpt lat="48.53841" lon="2.12956">
        <ele>151.195806</ele>
        <time>2013-06-15T10:16:10Z</time>
      </trkpt>
      <trkpt lat="48.5384" lon="2.12965">
        <ele>152.029697</ele>
        <time>2013-06-15T10:16:15Z</time>
      </trkpt>
      <trkpt lat="48.53841" lon="2.12975">
        <ele>151.540274</ele>
        <time>2013-06-15T10:16:20Z</time>
      </trkpt>
      <trkpt lat="48.53842" lon="2.12983">
        <ele>150.364592</ele>
        <time>2013-06-15T10:16:25Z</time>
      </trkpt>
      <trkpt lat="48.53842" lon="2.12989">
        <ele>149.051961</ele>
        <time>2013-06-15T10:16:30Z</time>
      </trkpt>
      <trkpt lat="48.53841" lon="2.12998">
        <ele>149.885878</ele>
        <time>2013-06-15T10:16:35Z</time>
      </trkpt>
      <trkpt lat="48.53838" lon="2.13006">
        <ele>149.858055</ele>
        <time>2013-06-15T10:16:40Z</time>
      </trkpt>
      <trkpt lat="48.53838" lon="2.13015">
        <ele>149.280927</ele>
        <time>2013-06-15T10:16:45Z</time>
      </trkpt>
      <trkpt lat="48.53837" lon="2.13024">
        <ele>150.090254</ele>
        <time>2013-06-15T10:16:50Z</time>
      </trkpt>
      <trkpt lat="48.53838" lon="2.13032">
        <ele>148.914606</ele>
        <time>2013-06-15T10:16:55Z</time>
      </trkpt>
      <trkpt lat="48.53838" lon="2.13039">
        <ele>149.78707</ele>
        <time>2013-06-15T10:17:00Z</time>
      </trkpt>
      <trkpt lat="48.5384" lon="2.13049">
        <ele>149.410061</ele>
        <time>2013-06-15T10:17:06Z</time>
      </trkpt>
      <trkpt lat="48.53841" lon="2.1306">
        <ele>148.283662</ele>
        <time>2013-06-15T10:17:11Z</time>
      </trkpt>
      <trkpt lat="48.5384" lon="2.13068">
        <ele>148.343621</ele>
        <time>2013-06-15T10:17:16Z</time>
      </trkpt>
      <trkpt lat="48.53839" lon="2.13077">
        <ele>147.741925</ele>
        <time>2013-06-15T10:17:21Z</time>
      </trkpt>
      <trkpt lat="48.53843" lon="2.13081">
        <ele>146.667938</ele>
        <time>2013-06-15T10:17:26Z</time>
      </trkpt>
      <trkpt lat="48.53845" lon="2.13084">
        <ele>146.892656</ele>
        <time>2013-06-15T10:17:31Z</time>
      </trkpt>
      <trkpt lat="48.53848" lon="2.13089">
        <ele>146.504955</ele>
        <time>2013-06-15T10:17:36Z</time>
      </trkpt>
      <trkpt lat="48.53851" lon="2.13099">
        <ele>147.602177</ele>
        <time>2013-06-15T10:17:41Z</time>
      </trkpt>
      <trkpt lat="48.53854" lon="2.13107">
        <ele>147.263729</ele>
        <time>2013-06-15T10:17:46Z</time>
      </trkpt>
      <trkpt lat="48.53858" lon="2.13117">
        <ele>146.94991</ele>
        <time>2013-06-15T10:17:51Z</time>
      </trkpt>
      <trkpt lat="48.53861" lon="2.13125">
        <ele>147.36088</ele>
        <time>2013-06-15T10:17:56Z</time>
      </trkpt>
      <trkpt lat="48.53864" lon="2.13133">
        <ele>147.684113</ele>
        <time>2013-06-15T10:18:01Z</time>
      </trkpt>
      <trkpt lat="48.53867" lon="2.13141">
        <ele>147.345696</ele>
        <time>2013-06-15T10:18:06Z</time>
      </trkpt>
      <trkpt lat="48.5387" lon="2.1315">
        <ele>148.418346</ele>
        <time>2013-06-15T10:18:11Z</time>
      </trkpt>
      <trkpt lat="48.53873" lon="2.13158">
        <ele>148.079944</ele>
        <time>2013-06-15T10:18:16Z</time>
      </trkpt>
      <trkpt lat="48.53875" lon="2.13165">
        <ele>148.378577</ele>
        <time>2013-06-15T10:18:21Z</time>
      </trkpt>
      <trkpt lat="48.53878" lon="2.13172">
        <ele>148.677216</ele>
        <time>2013-06-15T10:18:26Z</time>
      </trkpt>
      <trkpt lat="48.53881" lon="2.1318">
        <ele>149.088239</ele>
        <time>2013-06-15T10:18:31Z</time>
      </trkpt>
      <trkpt lat="48.53884" lon="2.13188">
        <ele>148.749865</ele>
        <time>2013-06-15T10:18:36Z</time>
      </trkpt>
      <trkpt lat="48.53887" lon="2.13196">
        <ele>149.822558</ele>
        <time>2013-06-15T10:18:41Z</time>
      </trkpt>
      <trkpt lat="48.5389" lon="2.13205">
        <ele>149.4842</ele>
        <time>2013-06-15T10:18:46Z</time>
      </trkpt>
      <trkpt lat="48.53893" lon="2.13213">
        <ele>149.145849</ele>
        <time>2013-06-15T10:18:51Z</time>
      </trkpt>
      <trkpt lat="48.53897" lon="2.13221">
        <ele>149.556912</ele>
        <time>2013-06-15T10:18:56Z</time>
      </trkpt>
      <trkpt lat="48.53899" lon="2.13229">
        <ele>149.880229</ele>
        <time>2013-06-15T10:19:01Z</time>
      </trkpt>
      <trkpt lat="48.53902" lon="2.13238">
        <ele>149.541901</ele>
        <time>2013-06-15T10:19:06Z</time>
      </trkpt>
      <trkpt lat="48.53905" lon="2.13245">
        <ele>150.590003</ele>
        <time>2013-06-15T10:19:11Z</time>
      </trkpt>
      <trkpt lat="48.53908" lon="2.13254">
        <ele>150.276327</ele>
        <time>2013-06-15T10:19:16Z</time>
      </trkpt>
      <trkpt lat="48.53911" lon="2.13261">
        <ele>150.575033</ele>
        <time>2013-06-15T10:19:21Z</time>
      </trkpt>
      <trkpt lat="48.53914" lon="2.13269">
        <ele>150.236735</ele>
        <time>2013-06-15T10:19:26Z</time>
      </trkpt>
      <trkpt lat="48.53917" lon="2.13279">
        <ele>151.334142</ele>
        <time>2013-06-15T10:19:31Z</time>
      </trkpt>
      <trkpt lat="48.53919" lon="2.13287">
        <ele>151.657509</ele>
        <time>2013-06-15T10:19:36Z</time>
      </trkpt>
      <trkpt lat="48.5392" lon="2.13294">
        <ele>151.868479</ele>
        <time>2013-06-15T10:19:41Z</time>
      </trkpt>
      <trkpt lat="48.5392" lon="2.13302">
        <ele>151.266928</ele>
        <time>2013-06-15T10:19:46Z</time>
      </trkpt>
      <trkpt lat="48.53921" lon="2.13312">
        <ele>150.116138</ele>
        <time>2013-06-15T10:19:51Z</time>
      </trkpt>
      <trkpt lat="48.53922" lon="2.13321">
        <ele>150.376414</ele>
        <time>2013-06-15T10:19:56Z</time>
      </trkpt>
      <trkpt lat="48.53922" lon="2.13329">
        <ele>150.524291</ele>
        <time>2013-06-15T10:20:01Z</time>
      </trkpt>
      <trkpt lat="48.53922" lon="2.13339">
        <ele>151.446229</ele>
        <time>2013-06-15T10:20:06Z</time>
      </trkpt>
      <trkpt lat="48.53923" lon="2.13348">
        <ele>150.957118</ele>
        <time>2013-06-15T10:20:11Z</time>
      </trkpt>
      <trkpt lat="48.53925" lon="2.13357">
        <ele>151.280536</ele>
        <time>2013-06-15T10:20:16Z</time>
      </trkpt>
      <trkpt lat="48.53927" lon="2.13365">
        <ele>151.603961</ele>
        <time>2013-06-15T10:20:21Z</time>
      </trkpt>
      <trkpt lat="48.53929" lon="2.13373">
        <ele>151.177982</ele>
        <time>2013-06-15T10:20:26Z</time>
      </trkpt>
      <trkpt lat="48.53932" lon="2.13381">
        <ele>151.50142</ele>
        <time>2013-06-15T10:20:31Z</time>
      </trkpt>
      <trkpt lat="48.53935" lon="2.13391">
        <ele>151.187872</ele>
        <time>2013-06-15T10:20:36Z</time>
      </trkpt>
      <trkpt lat="48.53937" lon="2.13399">
        <ele>151.511326</ele>
        <time>2013-06-15T10:20:41Z</time>
      </trkpt>
      <trkpt lat="48.53939" lon="2.13407">
        <ele>151.834786</ele>
        <time>2013-06-15T10:20:46Z</time>
      </trkpt>
      <trkpt lat="48.53943" lon="2.13416">
        <ele>151.496607</ele>
        <time>2013-06-15T10:20:51Z</time>
      </trkpt>
      <trkpt lat="48.53945" lon="2.13425">
        <ele>151.844739</ele>
        <time>2013-06-15T10:20:56Z</time>
      </trkpt>
      <trkpt lat="48.53948" lon="2.13433">
        <ele>151.506576</ele>
        <time>2013-06-15T10:21:01Z</time>
      </trkpt>
      <trkpt lat="48.5395" lon="2.13442">
        <ele>152.49171</ele>
        <time>2013-06-15T10:21:06Z</time>
      </trkpt>
      <trkpt lat="48.5395" lon="2.1345">
        <ele>151.978024</ele>
        <time>2013-06-15T10:21:11Z</time>
      </trkpt>
      <trkpt lat="48.53952" lon="2.13454">
        <ele>152.889187</ele>
        <time>2013-06-15T10:21:16Z</time>
      </trkpt>
      <trkpt lat="48.53955" lon="2.13462">
        <ele>152.551049</ele>
        <time>2013-06-15T10:21:21Z</time>
      </trkpt>
      <trkpt lat="48.53958" lon="2.1347">
        <ele>152.212918</ele>
        <time>2013-06-15T10:21:26Z</time>
      </trkpt>
      <trkpt lat="48.5396" lon="2.13479">
        <ele>152.536438</ele>
        <time>2013-06-15T10:21:31Z</time>
      </trkpt>
      <trkpt lat="48.53963" lon="2.13488">
        <ele>152.88463</ele>
        <time>2013-06-15T10:21:36Z</time>
      </trkpt>
      <trkpt lat="48.53966" lon="2.13496">
        <ele>152.546522</ele>
        <time>2013-06-15T10:21:41Z</time>
      </trkpt>
      <trkpt lat="48.53969" lon="2.13505">
        <ele>153.619478</ele>
        <time>2013-06-15T10:21:46Z</time>
      </trkpt>
      <trkpt lat="48.53971" lon="2.13514">
        <ele>153.967695</ele>
        <time>2013-06-15T10:21:51Z</time>
      </trkpt>
      <trkpt lat="48.53973" lon="2.13524">
        <ele>153.566505</ele>
        <time>2013-06-15T10:21:56Z</time>
      </trkpt>
      <trkpt lat="48.53977" lon="2.13532">
        <ele>153.977844</ele>
        <time>2013-06-15T10:22:01Z</time>
      </trkpt>
      <trkpt lat="48.5398" lon="2.1354">
        <ele>153.639776</ele>
        <time>2013-06-15T10:22:06Z</time>
      </trkpt>
      <trkpt lat="48.53982" lon="2.13549">
        <ele>153.963355</ele>
        <time>2013-06-15T10:22:11Z</time>
      </trkpt>
      <trkpt lat="48.53984" lon="2.13558">
        <ele>154.311613</ele>
        <time>2013-06-15T10:22:16Z</time>
      </trkpt>
      <trkpt lat="48.53988" lon="2.13566">
        <ele>153.973568</ele>
        <time>2013-06-15T10:22:21Z</time>
      </trkpt>
      <trkpt lat="48.5399" lon="2.13575">
        <ele>154.297169</ele>
        <time>2013-06-15T10:22:26Z</time>
      </trkpt>
      <trkpt lat="48.53992" lon="2.13583">
        <ele>153.87136</ele>
        <time>2013-06-15T10:22:31Z</time>
      </trkpt>
      <trkpt lat="48.53993" lon="2.13591">
        <ele>154.107194</ele>
        <time>2013-06-15T10:22:36Z</time>
      </trkpt>
      <trkpt lat="48.53995" lon="2.13598">
        <ele>154.406138</ele>
        <time>2013-06-15T10:22:41Z</time>
      </trkpt>
      <trkpt lat="48.53997" lon="2.13606">
        <ele>153.980346</ele>
        <time>2013-06-15T10:22:46Z</time>
      </trkpt>
      <trkpt lat="48.53999" lon="2.13613">
        <ele>154.2793</ele>
        <time>2013-06-15T10:22:51Z</time>
      </trkpt>
      <trkpt lat="48.54002" lon="2.1362">
        <ele>154.57826</ele>
        <time>2013-06-15T10:22:56Z</time>
      </trkpt>
      <trkpt lat="48.54004" lon="2.13627">
        <ele>154.877224</ele>
        <time>2013-06-15T10:23:01Z</time>
      </trkpt>
      <trkpt lat="48.54006" lon="2.13635">
        <ele>154.451456</ele>
        <time>2013-06-15T10:23:06Z</time>
      </trkpt>
      <trkpt lat="48.54008" lon="2.13642">
        <ele>154.750431</ele>
        <time>2013-06-15T10:23:11Z</time>
      </trkpt>
      <trkpt lat="48.5401" lon="2.1365">
        <ele>154.324675</ele>
        <time>2013-06-15T10:23:16Z</time>
      </trkpt>
      <trkpt lat="48.54013" lon="2.13658">
        <ele>154.648345</ele>
        <time>2013-06-15T10:23:21Z</time>
      </trkpt>
      <trkpt lat="48.54014" lon="2.13666">
        <ele>154.222603</ele>
        <time>2013-06-15T10:23:26Z</time>
      </trkpt>
      <trkpt lat="48.54017" lon="2.13673">
        <ele>154.5216</ele>
        <time>2013-06-15T10:23:31Z</time>
      </trkpt>
      <trkpt lat="48.54019" lon="2.13682">
        <ele>154.095869</ele>
        <time>2013-06-15T10:23:36Z</time>
      </trkpt>
      <trkpt lat="48.54021" lon="2.1369">
        <ele>154.419565</ele>
        <time>2013-06-15T10:23:41Z</time>
      </trkpt>
      <trkpt lat="48.54023" lon="2.13697">
        <ele>154.71858</ele>
        <time>2013-06-15T10:23:46Z</time>
      </trkpt>
      <trkpt lat="48.54025" lon="2.13706">
        <ele>154.317557</ele>
        <time>2013-06-15T10:23:51Z</time>
      </trkpt>
      <trkpt lat="48.54028" lon="2.13714">
        <ele>154.641273</ele>
        <time>2013-06-15T10:23:56Z</time>
      </trkpt>
      <trkpt lat="48.5403" lon="2.13724">
        <ele>154.989688</ele>
        <time>2013-06-15T10:24:01Z</time>
      </trkpt>
      <trkpt lat="48.54032" lon="2.13732">
        <ele>153.902365</ele>
        <time>2013-06-15T10:24:06Z</time>
      </trkpt>
      <trkpt lat="48.54035" lon="2.13742">
        <ele>154.250796</ele>
        <time>2013-06-15T10:24:11Z</time>
      </trkpt>
      <trkpt lat="48.54037" lon="2.13751">
        <ele>154.599237</ele>
        <time>2013-06-15T10:24:16Z</time>
      </trkpt>
      <trkpt lat="48.5404" lon="2.13761">
        <ele>154.286055</ele>
        <time>2013-06-15T10:24:21Z</time>
      </trkpt>
      <trkpt lat="48.54043" lon="2.13771">
        <ele>154.634514</ele>
        <time>2013-06-15T10:24:26Z</time>
      </trkpt>
      <trkpt lat="48.54044" lon="2.1378">
        <ele>154.233558</ele>
        <time>2013-06-15T10:24:31Z</time>
      </trkpt>
      <trkpt lat="48.54047" lon="2.1379">
        <ele>153.920404</ele>
        <time>2013-06-15T10:24:36Z</time>
      </trkpt>
      <trkpt lat="48.5405" lon="2.13798">
        <ele>154.244189</ele>
        <time>2013-06-15T10:24:41Z</time>
      </trkpt>
      <trkpt lat="48.54052" lon="2.13808">
        <ele>153.843258</ele>
        <time>2013-06-15T10:24:46Z</time>
      </trkpt>
      <trkpt lat="48.54055" lon="2.13817">
        <ele>153.530131</ele>
        <time>2013-06-15T10:24:51Z</time>
      </trkpt>
      <trkpt lat="48.54058" lon="2.13827">
        <ele>153.217014</ele>
        <time>2013-06-15T10:24:56Z</time>
      </trkpt>
      <trkpt lat="48.54059" lon="2.13836">
        <ele>153.477737</ele>
        <time>2013-06-15T10:25:01Z</time>
      </trkpt>
      <trkpt lat="48.54055" lon="2.13843">
        <ele>153.337873</ele>
        <time>2013-06-15T10:25:06Z</time>
      </trkpt>
      <trkpt lat="48.54048" lon="2.13847">
        <ele>153.634644</ele>
        <time>2013-06-15T10:25:11Z</time>
      </trkpt>
      <trkpt lat="48.54041" lon="2.13849">
        <ele>153.24509</ele>
        <time>2013-06-15T10:25:16Z</time>
      </trkpt>
      <trkpt lat="48.54035" lon="2.13853">
        <ele>152.880251</ele>
        <time>2013-06-15T10:25:21Z</time>
      </trkpt>
      <trkpt lat="48.54028" lon="2.13855">
        <ele>153.901768</ele>
        <time>2013-06-15T10:25:26Z</time>
      </trkpt>
      <trkpt lat="48.54022" lon="2.13859">
        <ele>153.536946</ele>
        <time>2013-06-15T10:25:31Z</time>
      </trkpt>
      <trkpt lat="48.54016" lon="2.13863">
        <ele>153.172134</ele>
        <time>2013-06-15T10:25:36Z</time>
      </trkpt>
      <trkpt lat="48.5401" lon="2.13868">
        <ele>153.581459</ele>
        <time>2013-06-15T10:25:41Z</time>
      </trkpt>
      <trkpt lat="48.54003" lon="2.13872">
        <ele>153.8783</ele>
        <time>2013-06-15T10:25:46Z</time>
      </trkpt>
      <trkpt lat="48.53997" lon="2.13874">
        <ele>152.827171</ele>
        <time>2013-06-15T10:25:51Z</time>
      </trkpt>
      <trkpt lat="48.53991" lon="2.13878">
        <ele>153.211812</ele>
        <time>2013-06-15T10:25:56Z</time>
      </trkpt>
      <trkpt lat="48.53985" lon="2.13881">
        <ele>152.822335</ele>
        <time>2013-06-15T10:26:01Z</time>
      </trkpt>
      <trkpt lat="48.53979" lon="2.13883">
        <ele>153.182282</ele>
        <time>2013-06-15T10:26:06Z</time>
      </trkpt>
      <trkpt lat="48.53972" lon="2.13887">
        <ele>152.817531</ele>
        <time>2013-06-15T10:26:11Z</time>
      </trkpt>
      <trkpt lat="48.53967" lon="2.13891">
        <ele>153.202204</ele>
        <time>2013-06-15T10:26:16Z</time>
      </trkpt>
      <trkpt lat="48.53961" lon="2.13895">
        <ele>153.586885</ele>
        <time>2013-06-15T10:26:21Z</time>
      </trkpt>
      <trkpt lat="48.53955" lon="2.13898">
        <ele>152.560519</ele>
        <time>2013-06-15T10:26:26Z</time>
      </trkpt>
      <trkpt lat="48.53949" lon="2.13902">
        <ele>152.945215</ele>
        <time>2013-06-15T10:26:31Z</time>
      </trkpt>
      <trkpt lat="48.53943" lon="2.13905">
        <ele>152.555795</ele>
        <time>2013-06-15T10:26:36Z</time>
      </trkpt>
      <trkpt lat="48.53937" lon="2.13909">
        <ele>152.940507</ele>
        <time>2013-06-15T10:26:41Z</time>
      </trkpt>
      <trkpt lat="48.53932" lon="2.13912">
        <ele>152.663583</ele>
        <time>2013-06-15T10:26:46Z</time>
      </trkpt>
      <trkpt lat="48.53925" lon="2.13916">
        <ele>152.2989</ele>
        <time>2013-06-15T10:26:51Z</time>
      </trkpt>
      <trkpt lat="48.5392" lon="2.13919">
        <ele>152.658921</ele>
        <time>2013-06-15T10:26:56Z</time>
      </trkpt>
      <trkpt lat="48.53913" lon="2.13921">
        <ele>152.269541</ele>
        <time>2013-06-15T10:27:01Z</time>
      </trkpt>
      <trkpt lat="48.53907" lon="2.13924">
        <ele>152.629576</ele>
        <time>2013-06-15T10:27:06Z</time>
      </trkpt>
      <trkpt lat="48.53901" lon="2.13927">
        <ele>152.264928</ele>
        <time>2013-06-15T10:27:11Z</time>
      </trkpt>
      <trkpt lat="48.53895" lon="2.13928">
        <ele>152.600263</ele>
        <time>2013-06-15T10:27:16Z</time>
      </trkpt>
      <trkpt lat="48.53889" lon="2.13931">
        <ele>152.210915</ele>
        <time>2013-06-15T10:27:21Z</time>
      </trkpt>
      <trkpt lat="48.53882" lon="2.13933">
        <ele>151.821575</ele>
        <time>2013-06-15T10:27:26Z</time>
      </trkpt>
      <trkpt lat="48.53877" lon="2.13936">
        <ele>152.181648</ele>
        <time>2013-06-15T10:27:31Z</time>
      </trkpt>
      <trkpt lat="48.5387" lon="2.13938">
        <ele>151.792325</ele>
        <time>2013-06-15T10:27:36Z</time>
      </trkpt>
      <trkpt lat="48.53864" lon="2.13941">
        <ele>152.152412</ele>
        <time>2013-06-15T10:27:41Z</time>
      </trkpt>
      <trkpt lat="48.53858" lon="2.13943">
        <ele>151.763105</ele>
        <time>2013-06-15T10:27:46Z</time>
      </trkpt>
      <trkpt lat="48.53852" lon="2.13946">
        <ele>151.373807</ele>
        <time>2013-06-15T10:27:51Z</time>
      </trkpt>
      <trkpt lat="48.53846" lon="2.13948">
        <ele>151.733917</ele>
        <time>2013-06-15T10:27:56Z</time>
      </trkpt>
      <trkpt lat="48.5384" lon="2.13949">
        <ele>151.319916</ele>
        <time>2013-06-15T10:28:01Z</time>
      </trkpt>
      <trkpt lat="48.53833" lon="2.13952">
        <ele>150.930641</ele>
        <time>2013-06-15T10:28:06Z</time>
      </trkpt>
      <trkpt lat="48.53826" lon="2.13954">
        <ele>151.203033</ele>
        <time>2013-06-15T10:28:11Z</time>
      </trkpt>
      <trkpt lat="48.5382" lon="2.13956">
        <ele>150.813777</ele>
        <time>2013-06-15T10:28:16Z</time>
      </trkpt>
      <trkpt lat="48.53814" lon="2.13959">
        <ele>151.173925</ele>
        <time>2013-06-15T10:28:21Z</time>
      </trkpt>
      <trkpt lat="48.53807" lon="2.13963">
        <ele>150.809405</ele>
        <time>2013-06-15T10:28:26Z</time>
      </trkpt>
      <trkpt lat="48.53801" lon="2.13965">
        <ele>150.420173</ele>
        <time>2013-06-15T10:28:31Z</time>
      </trkpt>
      <trkpt lat="48.53795" lon="2.13968">
        <ele>150.03095</ele>
        <time>2013-06-15T10:28:36Z</time>
      </trkpt>
      <trkpt lat="48.5379" lon="2.1397">
        <ele>149.729466</ele>
        <time>2013-06-15T10:28:41Z</time>
      </trkpt>
      <trkpt lat="48.53783" lon="2.13974">
        <ele>149.364979</ele>
        <time>2013-06-15T10:28:46Z</time>
      </trkpt>
      <trkpt lat="48.53778" lon="2.13976">
        <ele>149.063508</ele>
        <time>2013-06-15T10:28:51Z</time>
      </trkpt>
      <trkpt lat="48.53772" lon="2.1398">
        <ele>148.699038</ele>
        <time>2013-06-15T10:28:56Z</time>
      </trkpt>
      <trkpt lat="48.53766" lon="2.13984">
        <ele>149.083968</ele>
        <time>2013-06-15T10:29:01Z</time>
      </trkpt>
      <trkpt lat="48.5376" lon="2.13987">
        <ele>148.033126</ele>
        <time>2013-06-15T10:29:06Z</time>
      </trkpt>
      <trkpt lat="48.53754" lon="2.13989">
        <ele>148.393348</ele>
        <time>2013-06-15T10:29:11Z</time>
      </trkpt>
      <trkpt lat="48.53748" lon="2.13993">
        <ele>148.028912</ele>
        <time>2013-06-15T10:29:16Z</time>
      </trkpt>
      <trkpt lat="48.53743" lon="2.13997">
        <ele>147.752204</ele>
        <time>2013-06-15T10:29:21Z</time>
      </trkpt>
      <trkpt lat="48.53739" lon="2.14002">
        <ele>147.587946</ele>
        <time>2013-06-15T10:29:26Z</time>
      </trkpt>
      <trkpt lat="48.53736" lon="2.1401">
        <ele>147.560863</ele>
        <time>2013-06-15T10:29:31Z</time>
      </trkpt>
      <trkpt lat="48.53735" lon="2.14019">
        <ele>147.646231</ele>
        <time>2013-06-15T10:29:36Z</time>
      </trkpt>
      <trkpt lat="48.53733" lon="2.14029">
        <ele>147.731608</ele>
        <time>2013-06-15T10:29:41Z</time>
      </trkpt>
      <trkpt lat="48.53731" lon="2.14038">
        <ele>147.067605</ele>
        <time>2013-06-15T10:29:46Z</time>
      </trkpt>
      <trkpt lat="48.5373" lon="2.14048">
        <ele>147.152997</ele>
        <time>2013-06-15T10:29:51Z</time>
      </trkpt>
      <trkpt lat="48.53729" lon="2.14056">
        <ele>147.963053</ele>
        <time>2013-06-15T10:29:56Z</time>
      </trkpt>
      <trkpt lat="48.53727" lon="2.14065">
        <ele>148.04846</ele>
        <time>2013-06-15T10:30:01Z</time>
      </trkpt>
      <trkpt lat="48.53727" lon="2.14075">
        <ele>148.883262</ele>
        <time>2013-06-15T10:30:06Z</time>
      </trkpt>
      <trkpt lat="48.53725" lon="2.14084">
        <ele>148.968685</ele>
        <time>2013-06-15T10:30:11Z</time>
      </trkpt>
      <trkpt lat="48.53724" lon="2.14093">
        <ele>149.054116</ele>
        <time>2013-06-15T10:30:16Z</time>
      </trkpt>
      <trkpt lat="48.53723" lon="2.14103">
        <ele>148.477884</ele>
        <time>2013-06-15T10:30:21Z</time>
      </trkpt>
      <trkpt lat="48.53721" lon="2.14112">
        <ele>148.563331</ele>
        <time>2013-06-15T10:30:26Z</time>
      </trkpt>
      <trkpt lat="48.53721" lon="2.14122">
        <ele>148.7365</ele>
        <time>2013-06-15T10:30:31Z</time>
      </trkpt>
      <trkpt lat="48.53722" lon="2.14131">
        <ele>149.659063</ele>
        <time>2013-06-15T10:30:36Z</time>
      </trkpt>
      <trkpt lat="48.53721" lon="2.14141">
        <ele>149.832247</ele>
        <time>2013-06-15T10:30:41Z</time>
      </trkpt>
      <trkpt lat="48.53722" lon="2.14149">
        <ele>149.319027</ele>
        <time>2013-06-15T10:30:46Z</time>
      </trkpt>
      <trkpt lat="48.53722" lon="2.14158">
        <ele>150.241611</ele>
        <time>2013-06-15T10:30:51Z</time>
      </trkpt>
      <trkpt lat="48.53723" lon="2.14168">
        <ele>149.753147</ele>
        <time>2013-06-15T10:30:56Z</time>
      </trkpt>
      <trkpt lat="48.53722" lon="2.14177">
        <ele>149.176975</ele>
        <time>2013-06-15T10:31:01Z</time>
      </trkpt>
      <trkpt lat="48.53723" lon="2.14187">
        <ele>148.688527</ele>
        <time>2013-06-15T10:31:06Z</time>
      </trkpt>
      <trkpt lat="48.53725" lon="2.14196">
        <ele>149.037187</ele>
        <time>2013-06-15T10:31:11Z</time>
      </trkpt>
      <trkpt lat="48.53727" lon="2.14205">
        <ele>149.361109</ele>
        <time>2013-06-15T10:31:16Z</time>
      </trkpt>
      <trkpt lat="48.53729" lon="2.14214">
        <ele>148.211013</ele>
        <time>2013-06-15T10:31:21Z</time>
      </trkpt>
      <trkpt lat="48.53731" lon="2.14222">
        <ele>148.534948</ele>
        <time>2013-06-15T10:31:26Z</time>
      </trkpt>
      <trkpt lat="48.53733" lon="2.14232">
        <ele>148.134255</ele>
        <time>2013-06-15T10:31:31Z</time>
      </trkpt>
      <trkpt lat="48.53735" lon="2.1424">
        <ele>147.708817</ele>
        <time>2013-06-15T10:31:36Z</time>
      </trkpt>
      <trkpt lat="48.53736" lon="2.1425">
        <ele>147.308139</ele>
        <time>2013-06-15T10:31:41Z</time>
      </trkpt>
      <trkpt lat="48.53739" lon="2.14258">
        <ele>147.632103</ele>
        <time>2013-06-15T10:31:46Z</time>
      </trkpt>
      <trkpt lat="48.5374" lon="2.14268">
        <ele>147.231441</ele>
        <time>2013-06-15T10:31:51Z</time>
      </trkpt>
      <trkpt lat="48.53743" lon="2.14277">
        <ele>147.580176</ele>
        <time>2013-06-15T10:31:56Z</time>
      </trkpt>
      <trkpt lat="48.53745" lon="2.14287">
        <ele>147.92892</ele>
        <time>2013-06-15T10:32:01Z</time>
      </trkpt>
      <trkpt lat="48.53748" lon="2.14295">
        <ele>148.252914</ele>
        <time>2013-06-15T10:32:06Z</time>
      </trkpt>
      <trkpt lat="48.53749" lon="2.14305">
        <ele>147.852286</ele>
        <time>2013-06-15T10:32:11Z</time>
      </trkpt>
      <trkpt lat="48.53752" lon="2.14314">
        <ele>148.201055</ele>
        <time>2013-06-15T10:32:16Z</time>
      </trkpt>
      <trkpt lat="48.53755" lon="2.14324">
        <ele>148.637557</ele>
        <time>2013-06-15T10:32:21Z</time>
      </trkpt>
      <trkpt lat="48.53757" lon="2.14333">
        <ele>148.236955</ele>
        <time>2013-06-15T10:32:26Z</time>
      </trkpt>
      <trkpt lat="48.53759" lon="2.14343">
        <ele>148.585751</ele>
        <time>2013-06-15T10:32:31Z</time>
      </trkpt>
      <trkpt lat="48.53761" lon="2.14352">
        <ele>148.185166</ele>
        <time>2013-06-15T10:32:36Z</time>
      </trkpt>
      <trkpt lat="48.53764" lon="2.14361">
        <ele>148.509214</ele>
        <time>2013-06-15T10:32:41Z</time>
      </trkpt>
      <trkpt lat="48.53765" lon="2.1437">
        <ele>148.108644</ele>
        <time>2013-06-15T10:32:46Z</time>
      </trkpt>
      <trkpt lat="48.53768" lon="2.14379">
        <ele>147.771042</ele>
        <time>2013-06-15T10:32:51Z</time>
      </trkpt>
      <trkpt lat="48.53771" lon="2.14388">
        <ele>148.119881</ele>
        <time>2013-06-15T10:32:56Z</time>
      </trkpt>
      <trkpt lat="48.53774" lon="2.14398">
        <ele>147.807065</ele>
        <time>2013-06-15T10:33:01Z</time>
      </trkpt>
      <trkpt lat="48.53775" lon="2.14406">
        <ele>148.043421</ele>
        <time>2013-06-15T10:33:06Z</time>
      </trkpt>
      <trkpt lat="48.53778" lon="2.14414">
        <ele>147.705849</ele>
        <time>2013-06-15T10:33:11Z</time>
      </trkpt>
      <trkpt lat="48.53781" lon="2.14422">
        <ele>148.779341</ele>
        <time>2013-06-15T10:33:16Z</time>
      </trkpt>
      <trkpt lat="48.53783" lon="2.14431">
        <ele>149.103446</ele>
        <time>2013-06-15T10:33:21Z</time>
      </trkpt>
      <trkpt lat="48.53785" lon="2.14439">
        <ele>148.678166</ele>
        <time>2013-06-15T10:33:26Z</time>
      </trkpt>
      <trkpt lat="48.53788" lon="2.14448">
        <ele>148.3654</ele>
        <time>2013-06-15T10:33:31Z</time>
      </trkpt>
      <trkpt lat="48.53791" lon="2.14457">
        <ele>148.689527</ele>
        <time>2013-06-15T10:33:36Z</time>
      </trkpt>
      <trkpt lat="48.53792" lon="2.14465">
        <ele>147.514873</ele>
        <time>2013-06-15T10:33:41Z</time>
      </trkpt>
      <trkpt lat="48.53795" lon="2.14473">
        <ele>147.177353</ele>
        <time>2013-06-15T10:33:46Z</time>
      </trkpt>
      <trkpt lat="48.53798" lon="2.14481">
        <ele>148.250896</ele>
        <time>2013-06-15T10:33:51Z</time>
      </trkpt>
      <trkpt lat="48.538" lon="2.14491">
        <ele>148.599832</ele>
        <time>2013-06-15T10:33:56Z</time>
      </trkpt>
      <trkpt lat="48.53803" lon="2.14499">
        <ele>148.262336</ele>
        <time>2013-06-15T10:34:01Z</time>
      </trkpt>
      <trkpt lat="48.53806" lon="2.14507">
        <ele>148.586506</ele>
        <time>2013-06-15T10:34:06Z</time>
      </trkpt>
      <trkpt lat="48.53809" lon="2.14517">
        <ele>149.023204</ele>
        <time>2013-06-15T10:34:11Z</time>
      </trkpt>
      <trkpt lat="48.53812" lon="2.14525">
        <ele>149.34739</ele>
        <time>2013-06-15T10:34:16Z</time>
      </trkpt>
      <trkpt lat="48.53815" lon="2.14535">
        <ele>149.034711</ele>
        <time>2013-06-15T10:34:21Z</time>
      </trkpt>
      <trkpt lat="48.53818" lon="2.14543">
        <ele>148.697254</ele>
        <time>2013-06-15T10:34:26Z</time>
      </trkpt>
      <trkpt lat="48.53819" lon="2.14553">
        <ele>148.296852</ele>
        <time>2013-06-15T10:34:31Z</time>
      </trkpt>
      <trkpt lat="48.53822" lon="2.14561">
        <ele>149.370465</ele>
        <time>2013-06-15T10:34:36Z</time>
      </trkpt>
      <trkpt lat="48.53825" lon="2.14571">
        <ele>148.308424</ele>
        <time>2013-06-15T10:34:41Z</time>
      </trkpt>
      <trkpt lat="48.53827" lon="2.1458">
        <ele>147.908047</ele>
        <time>2013-06-15T10:34:46Z</time>
      </trkpt>
      <trkpt lat="48.53829" lon="2.1459">
        <ele>148.257077</ele>
        <time>2013-06-15T10:34:51Z</time>
      </trkpt>
      <trkpt lat="48.53831" lon="2.14598">
        <ele>147.831924</ele>
        <time>2013-06-15T10:34:56Z</time>
      </trkpt>
      <trkpt lat="48.53833" lon="2.14608">
        <ele>148.18097</ele>
        <time>2013-06-15T10:35:01Z</time>
      </trkpt>
      <trkpt lat="48.53836" lon="2.14617">
        <ele>148.530025</ele>
        <time>2013-06-15T10:35:06Z</time>
      </trkpt>
      <trkpt lat="48.53837" lon="2.14627">
        <ele>148.12969</ele>
        <time>2013-06-15T10:35:11Z</time>
      </trkpt>
      <trkpt lat="48.5384" lon="2.14636">
        <ele>148.478763</ele>
        <time>2013-06-15T10:35:16Z</time>
      </trkpt>
      <trkpt lat="48.53842" lon="2.14645">
        <ele>148.803046</ele>
        <time>2013-06-15T10:35:21Z</time>
      </trkpt>
      <trkpt lat="48.53843" lon="2.14654">
        <ele>149.064388</ele>
        <time>2013-06-15T10:35:26Z</time>
      </trkpt>
      <trkpt lat="48.53846" lon="2.14664">
        <ele>149.413486</ele>
        <time>2013-06-15T10:35:31Z</time>
      </trkpt>
      <trkpt lat="48.53843" lon="2.14668">
        <ele>150.061795</ele>
        <time>2013-06-15T10:35:36Z</time>
      </trkpt>
      <trkpt lat="48.53841" lon="2.14673">
        <ele>149.985508</ele>
        <time>2013-06-15T10:35:41Z</time>
      </trkpt>
      <trkpt lat="48.53839" lon="2.14677">
        <ele>150.633822</ele>
        <time>2013-06-15T10:35:46Z</time>
      </trkpt>
      <trkpt lat="48.53836" lon="2.14679">
        <ele>151.16959</ele>
        <time>2013-06-15T10:35:51Z</time>
      </trkpt>
      <trkpt lat="48.53834" lon="2.14686">
        <ele>151.205861</ele>
        <time>2013-06-15T10:35:56Z</time>
      </trkpt>
      <trkpt lat="48.53833" lon="2.14693">
        <ele>151.242136</ele>
        <time>2013-06-15T10:36:01Z</time>
      </trkpt>
      <trkpt lat="48.53831" lon="2.14698">
        <ele>150.504212</ele>
        <time>2013-06-15T10:36:06Z</time>
      </trkpt>
      <trkpt lat="48.53831" lon="2.14704">
        <ele>149.941779</ele>
        <time>2013-06-15T10:36:11Z</time>
      </trkpt>
      <trkpt lat="48.53829" lon="2.1471">
        <ele>150.63972</ele>
        <time>2013-06-15T10:36:16Z</time>
      </trkpt>
      <trkpt lat="48.53827" lon="2.14718">
        <ele>151.362472</ele>
        <time>2013-06-15T10:36:21Z</time>
      </trkpt>
      <trkpt lat="48.53828" lon="2.14725">
        <ele>150.824857</ele>
        <time>2013-06-15T10:36:26Z</time>
      </trkpt>
      <trkpt lat="48.53826" lon="2.14733">
        <ele>152.297018</ele>
        <time>2013-06-15T10:36:31Z</time>
      </trkpt>
      <trkpt lat="48.53824" lon="2.1474">
        <ele>152.994977</ele>
        <time>2013-06-15T10:36:36Z</time>
      </trkpt>
      <trkpt lat="48.53823" lon="2.14749">
        <ele>152.419253</ele>
        <time>2013-06-15T10:36:41Z</time>
      </trkpt>
      <trkpt lat="48.53823" lon="2.14757">
        <ele>153.229777</ele>
        <time>2013-06-15T10:36:46Z</time>
      </trkpt>
      <trkpt lat="48.53822" lon="2.14764">
        <ele>154.015493</ele>
        <time>2013-06-15T10:36:51Z</time>
      </trkpt>
      <trkpt lat="48.53821" lon="2.14775">
        <ele>153.464603</ele>
        <time>2013-06-15T10:36:56Z</time>
      </trkpt>
      <trkpt lat="48.53822" lon="2.14784">
        <ele>151.565596</ele>
        <time>2013-06-15T10:37:01Z</time>
      </trkpt>
      <trkpt lat="48.5382" lon="2.14793">
        <ele>151.626747</ele>
        <time>2013-06-15T10:37:06Z</time>
      </trkpt>
      <trkpt lat="48.53818" lon="2.14801">
        <ele>152.34956</ele>
        <time>2013-06-15T10:37:11Z</time>
      </trkpt>
      <trkpt lat="48.53817" lon="2.14807">
        <ele>151.724249</ele>
        <time>2013-06-15T10:37:16Z</time>
      </trkpt>
      <trkpt lat="48.53816" lon="2.14815">
        <ele>151.785417</ele>
        <time>2013-06-15T10:37:21Z</time>
      </trkpt>
      <trkpt lat="48.53814" lon="2.14825">
        <ele>153.282463</ele>
        <time>2013-06-15T10:37:26Z</time>
      </trkpt>
      <trkpt lat="48.53814" lon="2.14834">
        <ele>153.456206</ele>
        <time>2013-06-15T10:37:31Z</time>
      </trkpt>
      <trkpt lat="48.53814" lon="2.14845">
        <ele>153.654777</ele>
        <time>2013-06-15T10:37:36Z</time>
      </trkpt>
      <trkpt lat="48.53813" lon="2.14853">
        <ele>153.715972</ele>
        <time>2013-06-15T10:37:41Z</time>
      </trkpt>
      <trkpt lat="48.53812" lon="2.14861">
        <ele>153.864913</ele>
        <time>2013-06-15T10:37:46Z</time>
      </trkpt>
      <trkpt lat="48.53815" lon="2.14872">
        <ele>152.827939</ele>
        <time>2013-06-15T10:37:51Z</time>
      </trkpt>
      <trkpt lat="48.53816" lon="2.14882">
        <ele>151.678408</ele>
        <time>2013-06-15T10:37:56Z</time>
      </trkpt>
      <trkpt lat="48.53815" lon="2.1489">
        <ele>151.739628</ele>
        <time>2013-06-15T10:38:01Z</time>
      </trkpt>
      <trkpt lat="48.53816" lon="2.14898">
        <ele>151.976336</ele>
        <time>2013-06-15T10:38:06Z</time>
      </trkpt>
      <trkpt lat="48.53813" lon="2.14906">
        <ele>151.949826</ele>
        <time>2013-06-15T10:38:11Z</time>
      </trkpt>
      <trkpt lat="48.53813" lon="2.14914">
        <ele>152.098803</ele>
        <time>2013-06-15T10:38:16Z</time>
      </trkpt>
      <trkpt lat="48.53812" lon="2.14914">
        <ele>152.760459</ele>
        <time>2013-06-15T10:38:21Z</time>
      </trkpt>
      <trkpt lat="48.53812" lon="2.14911">
        <ele>153.372455</ele>
        <time>2013-06-15T10:38:26Z</time>
      </trkpt>
      <trkpt lat="48.5381" lon="2.14914">
        <ele>153.334375</ele>
        <time>2013-06-15T10:38:31Z</time>
      </trkpt>
      <trkpt lat="48.53808" lon="2.14914">
        <ele>153.158895</ele>
        <time>2013-06-15T10:38:36Z</time>
      </trkpt>
      <trkpt lat="48.53805" lon="2.14917">
        <ele>150.210972</ele>
        <time>2013-06-15T10:38:41Z</time>
      </trkpt>
      <trkpt lat="48.53803" lon="2.14918">
        <ele>150.060326</ele>
        <time>2013-06-15T10:38:46Z</time>
      </trkpt>
      <trkpt lat="48.53799" lon="2.14922">
        <ele>152.032052</ele>
        <time>2013-06-15T10:38:51Z</time>
      </trkpt>
      <trkpt lat="48.53797" lon="2.14922">
        <ele>151.856578</ele>
        <time>2013-06-15T10:38:56Z</time>
      </trkpt>
      <trkpt lat="48.53792" lon="2.14926">
        <ele>148.758022</ele>
        <time>2013-06-15T10:39:01Z</time>
      </trkpt>
      <trkpt lat="48.53789" lon="2.14934">
        <ele>147.32049</ele>
        <time>2013-06-15T10:39:06Z</time>
      </trkpt>
      <trkpt lat="48.53787" lon="2.14939">
        <ele>147.244352</ele>
        <time>2013-06-15T10:39:11Z</time>
      </trkpt>
      <trkpt lat="48.53785" lon="2.1494">
        <ele>145.770398</ele>
        <time>2013-06-15T10:39:16Z</time>
      </trkpt>
      <trkpt lat="48.53786" lon="2.14942">
        <ele>145.133573</ele>
        <time>2013-06-15T10:39:21Z</time>
      </trkpt>
      <trkpt lat="48.53786" lon="2.14942">
        <ele>145.133573</ele>
        <time>2013-06-15T10:39:26Z</time>
      </trkpt>
      <trkpt lat="48.53787" lon="2.14943">
        <ele>144.496747</ele>
        <time>2013-06-15T10:39:31Z</time>
      </trkpt>
      <trkpt lat="48.53787" lon="2.14943">
        <ele>144.496747</ele>
        <time>2013-06-15T10:39:36Z</time>
      </trkpt>
      <trkpt lat="48.53788" lon="2.14942">
        <ele>144.559648</ele>
        <time>2013-06-15T10:39:41Z</time>
      </trkpt>
      <trkpt lat="48.53788" lon="2.14942">
        <ele>144.559648</ele>
        <time>2013-06-15T10:39:46Z</time>
      </trkpt>
      <trkpt lat="48.53787" lon="2.14943">
        <ele>143.835088</ele>
        <time>2013-06-15T10:39:51Z</time>
      </trkpt>
      <trkpt lat="48.53787" lon="2.14943">
        <ele>143.835088</ele>
        <time>2013-06-15T10:39:56Z</time>
      </trkpt>
      <trkpt lat="48.53787" lon="2.14943">
        <ele>143.835088</ele>
        <time>2013-06-15T10:40:01Z</time>
      </trkpt>
      <trkpt lat="48.53787" lon="2.14943">
        <ele>144.496747</ele>
        <time>2013-06-15T10:40:06Z</time>
      </trkpt>
      <trkpt lat="48.53787" lon="2.14943">
        <ele>144.496747</ele>
        <time>2013-06-15T10:40:11Z</time>
      </trkpt>
      <trkpt lat="48.53787" lon="2.14942">
        <ele>143.810254</ele>
        <time>2013-06-15T10:40:16Z</time>
      </trkpt>
      <trkpt lat="48.53787" lon="2.14942">
        <ele>143.810254</ele>
        <time>2013-06-15T10:40:21Z</time>
      </trkpt>
      <trkpt lat="48.53786" lon="2.14942">
        <ele>143.72252</ele>
        <time>2013-06-15T10:40:26Z</time>
      </trkpt>
      <trkpt lat="48.53787" lon="2.14946">
        <ele>143.884755</ele>
        <time>2013-06-15T10:40:31Z</time>
      </trkpt>
      <trkpt lat="48.53787" lon="2.14949">
        <ele>144.596082</ele>
        <time>2013-06-15T10:40:36Z</time>
      </trkpt>
      <trkpt lat="48.53785" lon="2.14955">
        <ele>144.632521</ele>
        <time>2013-06-15T10:40:41Z</time>
      </trkpt>
      <trkpt lat="48.53784" lon="2.14962">
        <ele>144.007305</ele>
        <time>2013-06-15T10:40:46Z</time>
      </trkpt>
      <trkpt lat="48.53782" lon="2.14969">
        <ele>143.956018</ele>
        <time>2013-06-15T10:40:51Z</time>
      </trkpt>
      <trkpt lat="48.5378" lon="2.14977">
        <ele>144.017307</ele>
        <time>2013-06-15T10:40:56Z</time>
      </trkpt>
      <trkpt lat="48.5378" lon="2.14985">
        <ele>143.416942</ele>
        <time>2013-06-15T10:41:01Z</time>
      </trkpt>
      <trkpt lat="48.53777" lon="2.14992">
        <ele>143.365671</ele>
        <time>2013-06-15T10:41:06Z</time>
      </trkpt>
      <trkpt lat="48.53776" lon="2.14998">
        <ele>144.151529</ele>
        <time>2013-06-15T10:41:11Z</time>
      </trkpt>
      <trkpt lat="48.53777" lon="2.15">
        <ele>143.514709</ele>
        <time>2013-06-15T10:41:16Z</time>
      </trkpt>
      <trkpt lat="48.53776" lon="2.15002">
        <ele>144.226049</ele>
        <time>2013-06-15T10:41:21Z</time>
      </trkpt>
      <trkpt lat="48.53775" lon="2.15006">
        <ele>143.551179</ele>
        <time>2013-06-15T10:41:26Z</time>
      </trkpt>
      <trkpt lat="48.53773" lon="2.15013">
        <ele>144.249314</ele>
        <time>2013-06-15T10:41:31Z</time>
      </trkpt>
      <trkpt lat="48.53771" lon="2.15021">
        <ele>144.222905</ele>
        <time>2013-06-15T10:41:36Z</time>
      </trkpt>
      <trkpt lat="48.53769" lon="2.15029">
        <ele>144.945894</ele>
        <time>2013-06-15T10:41:41Z</time>
      </trkpt>
      <trkpt lat="48.53767" lon="2.15036">
        <ele>145.644045</ele>
        <time>2013-06-15T10:41:46Z</time>
      </trkpt>
      <trkpt lat="48.53764" lon="2.15044">
        <ele>144.955993</ele>
        <time>2013-06-15T10:41:51Z</time>
      </trkpt>
      <trkpt lat="48.53763" lon="2.15049">
        <ele>144.967647</ele>
        <time>2013-06-15T10:41:56Z</time>
      </trkpt>
      <trkpt lat="48.53762" lon="2.15059">
        <ele>145.053843</ele>
        <time>2013-06-15T10:42:01Z</time>
      </trkpt>
      <trkpt lat="48.5376" lon="2.15068">
        <ele>144.390657</ele>
        <time>2013-06-15T10:42:06Z</time>
      </trkpt>
      <trkpt lat="48.53756" lon="2.15076">
        <ele>143.614902</ele>
        <time>2013-06-15T10:42:11Z</time>
      </trkpt>
      <trkpt lat="48.53756" lon="2.15084">
        <ele>143.01461</ele>
        <time>2013-06-15T10:42:16Z</time>
      </trkpt>
      <trkpt lat="48.53755" lon="2.1509">
        <ele>143.114011</ele>
        <time>2013-06-15T10:42:21Z</time>
      </trkpt>
      <trkpt lat="48.53754" lon="2.1509">
        <ele>143.026284</ele>
        <time>2013-06-15T10:42:26Z</time>
      </trkpt>
      <trkpt lat="48.53754" lon="2.15091">
        <ele>143.051134</ele>
        <time>2013-06-15T10:42:31Z</time>
      </trkpt>
      <trkpt lat="48.53754" lon="2.15091">
        <ele>143.051134</ele>
        <time>2013-06-15T10:42:36Z</time>
      </trkpt>
      <trkpt lat="48.53754" lon="2.1509">
        <ele>143.026284</ele>
        <time>2013-06-15T10:42:41Z</time>
      </trkpt>
      <trkpt lat="48.53754" lon="2.1509">
        <ele>143.026284</ele>
        <time>2013-06-15T10:42:46Z</time>
      </trkpt>
      <trkpt lat="48.53754" lon="2.15091">
        <ele>143.051134</ele>
        <time>2013-06-15T10:42:51Z</time>
      </trkpt>
      <trkpt lat="48.53754" lon="2.15091">
        <ele>142.301745</ele>
        <time>2013-06-15T10:42:56Z</time>
      </trkpt>
      <trkpt lat="48.53754" lon="2.15091">
        <ele>142.301745</ele>
        <time>2013-06-15T10:43:01Z</time>
      </trkpt>
      <trkpt lat="48.53754" lon="2.15091">
        <ele>142.301745</ele>
        <time>2013-06-15T10:43:06Z</time>
      </trkpt>
      <trkpt lat="48.53754" lon="2.15091">
        <ele>142.301745</ele>
        <time>2013-06-15T10:43:11Z</time>
      </trkpt>
      <trkpt lat="48.53754" lon="2.15091">
        <ele>142.301745</ele>
        <time>2013-06-15T10:43:16Z</time>
      </trkpt>
      <trkpt lat="48.53754" lon="2.15091">
        <ele>142.301745</ele>
        <time>2013-06-15T10:43:21Z</time>
      </trkpt>
      <trkpt lat="48.53754" lon="2.15091">
        <ele>142.301745</ele>
        <time>2013-06-15T10:43:26Z</time>
      </trkpt>
      <trkpt lat="48.53754" lon="2.15091">
        <ele>142.301745</ele>
        <time>2013-06-15T10:43:31Z</time>
      </trkpt>
      <trkpt lat="48.53753" lon="2.15091">
        <ele>141.552355</ele>
        <time>2013-06-15T10:43:36Z</time>
      </trkpt>
      <trkpt lat="48.53753" lon="2.15091">
        <ele>141.552355</ele>
        <time>2013-06-15T10:43:41Z</time>
      </trkpt>
      <trkpt lat="48.53753" lon="2.15091">
        <ele>141.552355</ele>
        <time>2013-06-15T10:43:46Z</time>
      </trkpt>
      <trkpt lat="48.53753" lon="2.15091">
        <ele>141.552355</ele>
        <time>2013-06-15T10:43:51Z</time>
      </trkpt>
      <trkpt lat="48.53753" lon="2.15092">
        <ele>141.577206</ele>
        <time>2013-06-15T10:43:56Z</time>
      </trkpt>
      <trkpt lat="48.53753" lon="2.15092">
        <ele>141.577206</ele>
        <time>2013-06-15T10:44:01Z</time>
      </trkpt>
      <trkpt lat="48.53753" lon="2.15092">
        <ele>141.577206</ele>
        <time>2013-06-15T10:44:06Z</time>
      </trkpt>
      <trkpt lat="48.53752" lon="2.15092">
        <ele>140.827816</ele>
        <time>2013-06-15T10:44:11Z</time>
      </trkpt>
      <trkpt lat="48.53752" lon="2.15092">
        <ele>140.827816</ele>
        <time>2013-06-15T10:44:16Z</time>
      </trkpt>
      <trkpt lat="48.53752" lon="2.15092">
        <ele>140.827816</ele>
        <time>2013-06-15T10:44:21Z</time>
      </trkpt>
      <trkpt lat="48.53752" lon="2.15092">
        <ele>140.827816</ele>
        <time>2013-06-15T10:44:26Z</time>
      </trkpt>
      <trkpt lat="48.53752" lon="2.15092">
        <ele>140.827816</ele>
        <time>2013-06-15T10:44:31Z</time>
      </trkpt>
      <trkpt lat="48.53752" lon="2.15092">
        <ele>140.827816</ele>
        <time>2013-06-15T10:44:36Z</time>
      </trkpt>
      <trkpt lat="48.53752" lon="2.15092">
        <ele>140.827816</ele>
        <time>2013-06-15T10:44:41Z</time>
      </trkpt>
      <trkpt lat="48.53752" lon="2.15092">
        <ele>139.416764</ele>
        <time>2013-06-15T10:44:46Z</time>
      </trkpt>
      <trkpt lat="48.53752" lon="2.15092">
        <ele>139.416764</ele>
        <time>2013-06-15T10:44:51Z</time>
      </trkpt>
      <trkpt lat="48.53752" lon="2.15092">
        <ele>139.416764</ele>
        <time>2013-06-15T10:44:56Z</time>
      </trkpt>
      <trkpt lat="48.53752" lon="2.15094">
        <ele>139.441615</ele>
        <time>2013-06-15T10:45:01Z</time>
      </trkpt>
      <trkpt lat="48.53752" lon="2.15094">
        <ele>139.441615</ele>
        <time>2013-06-15T10:45:06Z</time>
      </trkpt>
      <trkpt lat="48.53752" lon="2.15094">
        <ele>139.441615</ele>
        <time>2013-06-15T10:45:11Z</time>
      </trkpt>
      <trkpt lat="48.53752" lon="2.15094">
        <ele>139.441615</ele>
        <time>2013-06-15T10:45:16Z</time>
      </trkpt>
      <trkpt lat="48.53752" lon="2.15094">
        <ele>139.441615</ele>
        <time>2013-06-15T10:45:21Z</time>
      </trkpt>
      <trkpt lat="48.53752" lon="2.15094">
        <ele>139.441615</ele>
        <time>2013-06-15T10:45:26Z</time>
      </trkpt>
      <trkpt lat="48.53752" lon="2.15094">
        <ele>139.441615</ele>
        <time>2013-06-15T10:45:31Z</time>
      </trkpt>
      <trkpt lat="48.53752" lon="2.15094">
        <ele>139.441615</ele>
        <time>2013-06-15T10:45:36Z</time>
      </trkpt>
      <trkpt lat="48.53752" lon="2.15094">
        <ele>139.441615</ele>
        <time>2013-06-15T10:45:41Z</time>
      </trkpt>
      <trkpt lat="48.53752" lon="2.15094">
        <ele>139.441615</ele>
        <time>2013-06-15T10:45:46Z</time>
      </trkpt>
      <trkpt lat="48.53752" lon="2.15094">
        <ele>139.441615</ele>
        <time>2013-06-15T10:45:51Z</time>
      </trkpt>
      <trkpt lat="48.53752" lon="2.15094">
        <ele>139.441615</ele>
        <time>2013-06-15T10:45:56Z</time>
      </trkpt>
      <trkpt lat="48.53752" lon="2.15094">
        <ele>139.441615</ele>
        <time>2013-06-15T10:46:01Z</time>
      </trkpt>
      <trkpt lat="48.53752" lon="2.15094">
        <ele>139.441615</ele>
        <time>2013-06-15T10:46:06Z</time>
      </trkpt>
      <trkpt lat="48.53752" lon="2.15094">
        <ele>139.441615</ele>
        <time>2013-06-15T10:46:11Z</time>
      </trkpt>
      <trkpt lat="48.53752" lon="2.15094">
        <ele>139.441615</ele>
        <time>2013-06-15T10:46:16Z</time>
      </trkpt>
      <trkpt lat="48.53752" lon="2.15094">
        <ele>139.441615</ele>
        <time>2013-06-15T10:46:21Z</time>
      </trkpt>
      <trkpt lat="48.53752" lon="2.15094">
        <ele>139.441615</ele>
        <time>2013-06-15T10:46:26Z</time>
      </trkpt>
      <trkpt lat="48.53752" lon="2.15094">
        <ele>139.441615</ele>
        <time>2013-06-15T10:46:31Z</time>
      </trkpt>
      <trkpt lat="48.53752" lon="2.15094">
        <ele>140.103278</ele>
        <time>2013-06-15T10:46:36Z</time>
      </trkpt>
      <trkpt lat="48.53752" lon="2.15094">
        <ele>140.103278</ele>
        <time>2013-06-15T10:46:41Z</time>
      </trkpt>
      <trkpt lat="48.53752" lon="2.15094">
        <ele>140.103278</ele>
        <time>2013-06-15T10:46:46Z</time>
      </trkpt>
      <trkpt lat="48.53752" lon="2.15094">
        <ele>140.103278</ele>
        <time>2013-06-15T10:46:51Z</time>
      </trkpt>
      <trkpt lat="48.53752" lon="2.15094">
        <ele>140.103278</ele>
        <time>2013-06-15T10:46:56Z</time>
      </trkpt>
      <trkpt lat="48.53752" lon="2.15094">
        <ele>140.103278</ele>
        <time>2013-06-15T10:47:01Z</time>
      </trkpt>
      <trkpt lat="48.53752" lon="2.15094">
        <ele>140.103278</ele>
        <time>2013-06-15T10:47:06Z</time>
      </trkpt>
      <trkpt lat="48.53752" lon="2.15094">
        <ele>140.103278</ele>
        <time>2013-06-15T10:47:11Z</time>
      </trkpt>
      <trkpt lat="48.53752" lon="2.15094">
        <ele>140.103278</ele>
        <time>2013-06-15T10:47:16Z</time>
      </trkpt>
      <trkpt lat="48.53752" lon="2.15094">
        <ele>140.103278</ele>
        <time>2013-06-15T10:47:21Z</time>
      </trkpt>
      <trkpt lat="48.53752" lon="2.15094">
        <ele>140.103278</ele>
        <time>2013-06-15T10:47:26Z</time>
      </trkpt>
      <trkpt lat="48.53752" lon="2.15094">
        <ele>140.103278</ele>
        <time>2013-06-15T10:47:31Z</time>
      </trkpt>
      <trkpt lat="48.53752" lon="2.15094">
        <ele>140.103278</ele>
        <time>2013-06-15T10:47:36Z</time>
      </trkpt>
      <trkpt lat="48.53752" lon="2.15094">
        <ele>140.103278</ele>
        <time>2013-06-15T10:47:41Z</time>
      </trkpt>
      <trkpt lat="48.53752" lon="2.15094">
        <ele>140.103278</ele>
        <time>2013-06-15T10:47:46Z</time>
      </trkpt>
      <trkpt lat="48.53752" lon="2.15094">
        <ele>140.103278</ele>
        <time>2013-06-15T10:47:51Z</time>
      </trkpt>
      <trkpt lat="48.53752" lon="2.15094">
        <ele>140.103278</ele>
        <time>2013-06-15T10:47:56Z</time>
      </trkpt>
      <trkpt lat="48.53752" lon="2.15094">
        <ele>140.103278</ele>
        <time>2013-06-15T10:48:01Z</time>
      </trkpt>
      <trkpt lat="48.53752" lon="2.15094">
        <ele>140.103278</ele>
        <time>2013-06-15T10:48:06Z</time>
      </trkpt>
      <trkpt lat="48.53752" lon="2.15094">
        <ele>140.103278</ele>
        <time>2013-06-15T10:48:11Z</time>
      </trkpt>
      <trkpt lat="48.53752" lon="2.15094">
        <ele>140.103278</ele>
        <time>2013-06-15T10:48:16Z</time>
      </trkpt>
      <trkpt lat="48.53752" lon="2.15094">
        <ele>140.103278</ele>
        <time>2013-06-15T10:48:21Z</time>
      </trkpt>
      <trkpt lat="48.53752" lon="2.15094">
        <ele>140.103278</ele>
        <time>2013-06-15T10:48:26Z</time>
      </trkpt>
      <trkpt lat="48.53752" lon="2.15094">
        <ele>140.103278</ele>
        <time>2013-06-15T10:48:31Z</time>
      </trkpt>
      <trkpt lat="48.53752" lon="2.15094">
        <ele>140.103278</ele>
        <time>2013-06-15T10:48:36Z</time>
      </trkpt>
      <trkpt lat="48.53752" lon="2.15094">
        <ele>140.103278</ele>
        <time>2013-06-15T10:48:41Z</time>
      </trkpt>
      <trkpt lat="48.53752" lon="2.15094">
        <ele>140.103278</ele>
        <time>2013-06-15T10:48:46Z</time>
      </trkpt>
      <trkpt lat="48.53752" lon="2.15094">
        <ele>140.103278</ele>
        <time>2013-06-15T10:48:51Z</time>
      </trkpt>
      <trkpt lat="48.53752" lon="2.15094">
        <ele>140.103278</ele>
        <time>2013-06-15T10:48:56Z</time>
      </trkpt>
      <trkpt lat="48.53752" lon="2.15094">
        <ele>140.103278</ele>
        <time>2013-06-15T10:49:01Z</time>
      </trkpt>
      <trkpt lat="48.53752" lon="2.15094">
        <ele>140.103278</ele>
        <time>2013-06-15T10:49:06Z</time>
      </trkpt>
      <trkpt lat="48.53752" lon="2.15094">
        <ele>140.103278</ele>
        <time>2013-06-15T10:49:11Z</time>
      </trkpt>
      <trkpt lat="48.53752" lon="2.15094">
        <ele>140.103278</ele>
        <time>2013-06-15T10:49:16Z</time>
      </trkpt>
      <trkpt lat="48.53752" lon="2.15094">
        <ele>140.103278</ele>
        <time>2013-06-15T10:49:21Z</time>
      </trkpt>
      <trkpt lat="48.53752" lon="2.15094">
        <ele>140.103278</ele>
        <time>2013-06-15T10:49:26Z</time>
      </trkpt>
      <trkpt lat="48.53752" lon="2.15094">
        <ele>140.103278</ele>
        <time>2013-06-15T10:49:31Z</time>
      </trkpt>
      <trkpt lat="48.53752" lon="2.15094">
        <ele>140.103278</ele>
        <time>2013-06-15T10:49:36Z</time>
      </trkpt>
      <trkpt lat="48.53752" lon="2.15094">
        <ele>140.103278</ele>
        <time>2013-06-15T10:49:41Z</time>
      </trkpt>
      <trkpt lat="48.53752" lon="2.15094">
        <ele>140.103278</ele>
        <time>2013-06-15T10:49:46Z</time>
      </trkpt>
      <trkpt lat="48.53752" lon="2.15094">
        <ele>140.103278</ele>
        <time>2013-06-15T10:49:51Z</time>
      </trkpt>
      <trkpt lat="48.53752" lon="2.15094">
        <ele>140.103278</ele>
        <time>2013-06-15T10:49:56Z</time>
      </trkpt>
      <trkpt lat="48.53752" lon="2.15094">
        <ele>140.103278</ele>
        <time>2013-06-15T10:50:01Z</time>
      </trkpt>
      <trkpt lat="48.53752" lon="2.15094">
        <ele>140.103278</ele>
        <time>2013-06-15T10:50:06Z</time>
      </trkpt>
      <trkpt lat="48.53752" lon="2.15094">
        <ele>140.103278</ele>
        <time>2013-06-15T10:50:11Z</time>
      </trkpt>
      <trkpt lat="48.53752" lon="2.15094">
        <ele>140.103278</ele>
        <time>2013-06-15T10:50:16Z</time>
      </trkpt>
      <trkpt lat="48.53752" lon="2.15094">
        <ele>140.103278</ele>
        <time>2013-06-15T10:50:21Z</time>
      </trkpt>
      <trkpt lat="48.53752" lon="2.15094">
        <ele>140.103278</ele>
        <time>2013-06-15T10:50:26Z</time>
      </trkpt>
      <trkpt lat="48.53752" lon="2.15094">
        <ele>140.103278</ele>
        <time>2013-06-15T10:50:31Z</time>
      </trkpt>
      <trkpt lat="48.53752" lon="2.15094">
        <ele>140.103278</ele>
        <time>2013-06-15T10:50:36Z</time>
      </trkpt>
      <trkpt lat="48.53752" lon="2.15094">
        <ele>140.103278</ele>
        <time>2013-06-15T10:50:41Z</time>
      </trkpt>
      <trkpt lat="48.53752" lon="2.15094">
        <ele>140.103278</ele>
        <time>2013-06-15T10:50:46Z</time>
      </trkpt>
      <trkpt lat="48.53752" lon="2.15094">
        <ele>140.103278</ele>
        <time>2013-06-15T10:50:51Z</time>
      </trkpt>
      <trkpt lat="48.53752" lon="2.15094">
        <ele>140.103278</ele>
        <time>2013-06-15T10:50:56Z</time>
      </trkpt>
      <trkpt lat="48.53752" lon="2.15094">
        <ele>140.103278</ele>
        <time>2013-06-15T10:51:01Z</time>
      </trkpt>
      <trkpt lat="48.53752" lon="2.15094">
        <ele>140.103278</ele>
        <time>2013-06-15T10:51:06Z</time>
      </trkpt>
      <trkpt lat="48.53752" lon="2.15094">
        <ele>140.103278</ele>
        <time>2013-06-15T10:51:11Z</time>
      </trkpt>
      <trkpt lat="48.53752" lon="2.15094">
        <ele>140.103278</ele>
        <time>2013-06-15T10:51:16Z</time>
      </trkpt>
      <trkpt lat="48.53752" lon="2.15094">
        <ele>140.103278</ele>
        <time>2013-06-15T10:51:21Z</time>
      </trkpt>
      <trkpt lat="48.53752" lon="2.15094">
        <ele>140.103278</ele>
        <time>2013-06-15T10:51:26Z</time>
      </trkpt>
      <trkpt lat="48.53752" lon="2.15094">
        <ele>140.103278</ele>
        <time>2013-06-15T10:51:31Z</time>
      </trkpt>
      <trkpt lat="48.53752" lon="2.15094">
        <ele>140.103278</ele>
        <time>2013-06-15T10:51:36Z</time>
      </trkpt>
      <trkpt lat="48.53752" lon="2.15094">
        <ele>140.103278</ele>
        <time>2013-06-15T10:51:41Z</time>
      </trkpt>
      <trkpt lat="48.53752" lon="2.15094">
        <ele>139.441615</ele>
        <time>2013-06-15T10:51:46Z</time>
      </trkpt>
      <trkpt lat="48.53752" lon="2.15094">
        <ele>139.441615</ele>
        <time>2013-06-15T10:51:51Z</time>
      </trkpt>
      <trkpt lat="48.53752" lon="2.15094">
        <ele>139.441615</ele>
        <time>2013-06-15T10:51:56Z</time>
      </trkpt>
      <trkpt lat="48.53752" lon="2.15094">
        <ele>139.441615</ele>
        <time>2013-06-15T10:52:01Z</time>
      </trkpt>
      <trkpt lat="48.53752" lon="2.15094">
        <ele>139.441615</ele>
        <time>2013-06-15T10:52:06Z</time>
      </trkpt>
      <trkpt lat="48.53752" lon="2.15094">
        <ele>139.441615</ele>
        <time>2013-06-15T10:52:11Z</time>
      </trkpt>
      <trkpt lat="48.53752" lon="2.15094">
        <ele>139.441615</ele>
        <time>2013-06-15T10:52:16Z</time>
      </trkpt>
      <trkpt lat="48.53752" lon="2.15094">
        <ele>139.441615</ele>
        <time>2013-06-15T10:52:21Z</time>
      </trkpt>
      <trkpt lat="48.53752" lon="2.15094">
        <ele>139.441615</ele>
        <time>2013-06-15T10:52:26Z</time>
      </trkpt>
      <trkpt lat="48.53752" lon="2.15094">
        <ele>139.441615</ele>
        <time>2013-06-15T10:52:31Z</time>
      </trkpt>
      <trkpt lat="48.53752" lon="2.15094">
        <ele>139.441615</ele>
        <time>2013-06-15T10:52:36Z</time>
      </trkpt>
      <trkpt lat="48.53752" lon="2.15094">
        <ele>139.441615</ele>
        <time>2013-06-15T10:52:41Z</time>
      </trkpt>
      <trkpt lat="48.53752" lon="2.15094">
        <ele>139.441615</ele>
        <time>2013-06-15T10:52:46Z</time>
      </trkpt>
      <trkpt lat="48.53752" lon="2.15094">
        <ele>139.441615</ele>
        <time>2013-06-15T10:52:51Z</time>
      </trkpt>
      <trkpt lat="48.53752" lon="2.15094">
        <ele>139.441615</ele>
        <time>2013-06-15T10:52:56Z</time>
      </trkpt>
      <trkpt lat="48.53752" lon="2.15094">
        <ele>139.441615</ele>
        <time>2013-06-15T10:53:01Z</time>
      </trkpt>
      <trkpt lat="48.53752" lon="2.15094">
        <ele>139.441615</ele>
        <time>2013-06-15T10:53:06Z</time>
      </trkpt>
      <trkpt lat="48.53752" lon="2.15094">
        <ele>139.441615</ele>
        <time>2013-06-15T10:53:11Z</time>
      </trkpt>
      <trkpt lat="48.53752" lon="2.15094">
        <ele>139.441615</ele>
        <time>2013-06-15T10:53:16Z</time>
      </trkpt>
      <trkpt lat="48.53752" lon="2.15094">
        <ele>139.441615</ele>
        <time>2013-06-15T10:53:21Z</time>
      </trkpt>
      <trkpt lat="48.53752" lon="2.15094">
        <ele>139.441615</ele>
        <time>2013-06-15T10:53:26Z</time>
      </trkpt>
      <trkpt lat="48.53752" lon="2.15094">
        <ele>139.441615</ele>
        <time>2013-06-15T10:53:31Z</time>
      </trkpt>
      <trkpt lat="48.53752" lon="2.15094">
        <ele>139.441615</ele>
        <time>2013-06-15T10:53:36Z</time>
      </trkpt>
      <trkpt lat="48.53752" lon="2.15094">
        <ele>139.441615</ele>
        <time>2013-06-15T10:53:41Z</time>
      </trkpt>
      <trkpt lat="48.53752" lon="2.15094">
        <ele>139.441615</ele>
        <time>2013-06-15T10:53:46Z</time>
      </trkpt>
      <trkpt lat="48.53752" lon="2.15094">
        <ele>139.441615</ele>
        <time>2013-06-15T10:53:51Z</time>
      </trkpt>
      <trkpt lat="48.53752" lon="2.15094">
        <ele>139.441615</ele>
        <time>2013-06-15T10:53:56Z</time>
      </trkpt>
      <trkpt lat="48.53752" lon="2.15094">
        <ele>139.441615</ele>
        <time>2013-06-15T10:54:01Z</time>
      </trkpt>
      <trkpt lat="48.53752" lon="2.15094">
        <ele>139.441615</ele>
        <time>2013-06-15T10:54:06Z</time>
      </trkpt>
      <trkpt lat="48.53752" lon="2.15094">
        <ele>139.441615</ele>
        <time>2013-06-15T10:54:11Z</time>
      </trkpt>
      <trkpt lat="48.53752" lon="2.15094">
        <ele>139.441615</ele>
        <time>2013-06-15T10:54:16Z</time>
      </trkpt>
      <trkpt lat="48.53752" lon="2.15094">
        <ele>139.441615</ele>
        <time>2013-06-15T10:54:21Z</time>
      </trkpt>
      <trkpt lat="48.53752" lon="2.15094">
        <ele>139.441615</ele>
        <time>2013-06-15T10:54:26Z</time>
      </trkpt>
      <trkpt lat="48.53752" lon="2.15094">
        <ele>139.441615</ele>
        <time>2013-06-15T10:54:31Z</time>
      </trkpt>
      <trkpt lat="48.53752" lon="2.15094">
        <ele>139.441615</ele>
        <time>2013-06-15T10:54:36Z</time>
      </trkpt>
      <trkpt lat="48.53753" lon="2.15094">
        <ele>140.191004</ele>
        <time>2013-06-15T10:54:41Z</time>
      </trkpt>
      <trkpt lat="48.53754" lon="2.15094">
        <ele>139.529342</ele>
        <time>2013-06-15T10:54:46Z</time>
      </trkpt>
      <trkpt lat="48.53754" lon="2.15094">
        <ele>140.278731</ele>
        <time>2013-06-15T10:54:51Z</time>
      </trkpt>
      <trkpt lat="48.53754" lon="2.15094">
        <ele>140.278731</ele>
        <time>2013-06-15T10:54:56Z</time>
      </trkpt>
      <trkpt lat="48.53754" lon="2.15094">
        <ele>140.278731</ele>
        <time>2013-06-15T10:55:01Z</time>
      </trkpt>
      <trkpt lat="48.53754" lon="2.15094">
        <ele>140.278731</ele>
        <time>2013-06-15T10:55:06Z</time>
      </trkpt>
      <trkpt lat="48.53754" lon="2.15094">
        <ele>140.278731</ele>
        <time>2013-06-15T10:55:11Z</time>
      </trkpt>
      <trkpt lat="48.53754" lon="2.15094">
        <ele>140.278731</ele>
        <time>2013-06-15T10:55:16Z</time>
      </trkpt>
      <trkpt lat="48.53754" lon="2.15094">
        <ele>140.278731</ele>
        <time>2013-06-15T10:55:21Z</time>
      </trkpt>
      <trkpt lat="48.53754" lon="2.15094">
        <ele>140.278731</ele>
        <time>2013-06-15T10:55:26Z</time>
      </trkpt>
      <trkpt lat="48.53754" lon="2.15094">
        <ele>140.278731</ele>
        <time>2013-06-15T10:55:31Z</time>
      </trkpt>
      <trkpt lat="48.53754" lon="2.15094">
        <ele>140.278731</ele>
        <time>2013-06-15T10:55:36Z</time>
      </trkpt>
      <trkpt lat="48.53754" lon="2.15094">
        <ele>140.278731</ele>
        <time>2013-06-15T10:55:41Z</time>
      </trkpt>
      <trkpt lat="48.53754" lon="2.15094">
        <ele>140.278731</ele>
        <time>2013-06-15T10:55:46Z</time>
      </trkpt>
      <trkpt lat="48.53754" lon="2.15094">
        <ele>140.278731</ele>
        <time>2013-06-15T10:55:51Z</time>
      </trkpt>
      <trkpt lat="48.53754" lon="2.15094">
        <ele>140.278731</ele>
        <time>2013-06-15T10:55:56Z</time>
      </trkpt>
      <trkpt lat="48.53754" lon="2.15094">
        <ele>140.278731</ele>
        <time>2013-06-15T10:56:01Z</time>
      </trkpt>
      <trkpt lat="48.53754" lon="2.15094">
        <ele>140.278731</ele>
        <time>2013-06-15T10:56:06Z</time>
      </trkpt>
      <trkpt lat="48.53754" lon="2.15094">
        <ele>140.278731</ele>
        <time>2013-06-15T10:56:11Z</time>
      </trkpt>
      <trkpt lat="48.53754" lon="2.15094">
        <ele>140.278731</ele>
        <time>2013-06-15T10:56:16Z</time>
      </trkpt>
      <trkpt lat="48.53754" lon="2.15094">
        <ele>140.278731</ele>
        <time>2013-06-15T10:56:21Z</time>
      </trkpt>
      <trkpt lat="48.53754" lon="2.15094">
        <ele>140.278731</ele>
        <time>2013-06-15T10:56:26Z</time>
      </trkpt>
      <trkpt lat="48.53754" lon="2.15094">
        <ele>140.278731</ele>
        <time>2013-06-15T10:56:31Z</time>
      </trkpt>
      <trkpt lat="48.53754" lon="2.15094">
        <ele>140.278731</ele>
        <time>2013-06-15T10:56:36Z</time>
      </trkpt>
      <trkpt lat="48.53754" lon="2.15094">
        <ele>140.278731</ele>
        <time>2013-06-15T10:56:41Z</time>
      </trkpt>
      <trkpt lat="48.53754" lon="2.15094">
        <ele>140.278731</ele>
        <time>2013-06-15T10:56:46Z</time>
      </trkpt>
      <trkpt lat="48.53754" lon="2.15094">
        <ele>140.278731</ele>
        <time>2013-06-15T10:56:51Z</time>
      </trkpt>
      <trkpt lat="48.53754" lon="2.15094">
        <ele>140.278731</ele>
        <time>2013-06-15T10:56:56Z</time>
      </trkpt>
      <trkpt lat="48.53754" lon="2.15094">
        <ele>140.278731</ele>
        <time>2013-06-15T10:57:01Z</time>
      </trkpt>
      <trkpt lat="48.53754" lon="2.15094">
        <ele>140.278731</ele>
        <time>2013-06-15T10:57:06Z</time>
      </trkpt>
      <trkpt lat="48.53754" lon="2.15094">
        <ele>140.278731</ele>
        <time>2013-06-15T10:57:11Z</time>
      </trkpt>
      <trkpt lat="48.53754" lon="2.15094">
        <ele>140.278731</ele>
        <time>2013-06-15T10:57:16Z</time>
      </trkpt>
      <trkpt lat="48.53754" lon="2.15094">
        <ele>140.278731</ele>
        <time>2013-06-15T10:57:21Z</time>
      </trkpt>
      <trkpt lat="48.53754" lon="2.15094">
        <ele>140.278731</ele>
        <time>2013-06-15T10:57:26Z</time>
      </trkpt>
      <trkpt lat="48.53754" lon="2.15094">
        <ele>140.278731</ele>
        <time>2013-06-15T10:57:31Z</time>
      </trkpt>
      <trkpt lat="48.53754" lon="2.15094">
        <ele>140.278731</ele>
        <time>2013-06-15T10:57:36Z</time>
      </trkpt>
      <trkpt lat="48.53754" lon="2.15094">
        <ele>140.278731</ele>
        <time>2013-06-15T10:57:41Z</time>
      </trkpt>
      <trkpt lat="48.53754" lon="2.15094">
        <ele>140.278731</ele>
        <time>2013-06-15T10:57:46Z</time>
      </trkpt>
      <trkpt lat="48.53754" lon="2.15094">
        <ele>140.278731</ele>
        <time>2013-06-15T10:57:51Z</time>
      </trkpt>
      <trkpt lat="48.53754" lon="2.15094">
        <ele>140.278731</ele>
        <time>2013-06-15T10:57:56Z</time>
      </trkpt>
      <trkpt lat="48.53754" lon="2.15094">
        <ele>140.278731</ele>
        <time>2013-06-15T10:58:01Z</time>
      </trkpt>
      <trkpt lat="48.53754" lon="2.15094">
        <ele>140.278731</ele>
        <time>2013-06-15T10:58:06Z</time>
      </trkpt>
      <trkpt lat="48.53754" lon="2.15094">
        <ele>140.278731</ele>
        <time>2013-06-15T10:58:11Z</time>
      </trkpt>
      <trkpt lat="48.53754" lon="2.15094">
        <ele>140.278731</ele>
        <time>2013-06-15T10:58:16Z</time>
      </trkpt>
      <trkpt lat="48.53754" lon="2.15094">
        <ele>140.278731</ele>
        <time>2013-06-15T10:58:21Z</time>
      </trkpt>
      <trkpt lat="48.53754" lon="2.15094">
        <ele>140.278731</ele>
        <time>2013-06-15T10:58:26Z</time>
      </trkpt>
      <trkpt lat="48.53754" lon="2.15094">
        <ele>140.278731</ele>
        <time>2013-06-15T10:58:31Z</time>
      </trkpt>
      <trkpt lat="48.53754" lon="2.15094">
        <ele>140.278731</ele>
        <time>2013-06-15T10:58:36Z</time>
      </trkpt>
      <trkpt lat="48.53754" lon="2.15094">
        <ele>140.278731</ele>
        <time>2013-06-15T10:58:41Z</time>
      </trkpt>
      <trkpt lat="48.53754" lon="2.15094">
        <ele>140.278731</ele>
        <time>2013-06-15T10:58:46Z</time>
      </trkpt>
      <trkpt lat="48.53754" lon="2.15094">
        <ele>140.278731</ele>
        <time>2013-06-15T10:58:51Z</time>
      </trkpt>
      <trkpt lat="48.53754" lon="2.15094">
        <ele>140.278731</ele>
        <time>2013-06-15T10:58:56Z</time>
      </trkpt>
      <trkpt lat="48.53754" lon="2.15094">
        <ele>140.278731</ele>
        <time>2013-06-15T10:59:01Z</time>
      </trkpt>
      <trkpt lat="48.53754" lon="2.15094">
        <ele>140.278731</ele>
        <time>2013-06-15T10:59:06Z</time>
      </trkpt>
      <trkpt lat="48.53754" lon="2.15094">
        <ele>140.278731</ele>
        <time>2013-06-15T10:59:11Z</time>
      </trkpt>
      <trkpt lat="48.53754" lon="2.15094">
        <ele>140.278731</ele>
        <time>2013-06-15T10:59:16Z</time>
      </trkpt>
      <trkpt lat="48.53754" lon="2.15094">
        <ele>140.278731</ele>
        <time>2013-06-15T10:59:21Z</time>
      </trkpt>
      <trkpt lat="48.53754" lon="2.15094">
        <ele>140.278731</ele>
        <time>2013-06-15T10:59:26Z</time>
      </trkpt>
      <trkpt lat="48.53754" lon="2.15094">
        <ele>140.278731</ele>
        <time>2013-06-15T10:59:31Z</time>
      </trkpt>
      <trkpt lat="48.53754" lon="2.15094">
        <ele>140.278731</ele>
        <time>2013-06-15T10:59:36Z</time>
      </trkpt>
      <trkpt lat="48.53754" lon="2.15094">
        <ele>140.278731</ele>
        <time>2013-06-15T10:59:41Z</time>
      </trkpt>
      <trkpt lat="48.53754" lon="2.15094">
        <ele>140.278731</ele>
        <time>2013-06-15T10:59:46Z</time>
      </trkpt>
      <trkpt lat="48.53754" lon="2.15094">
        <ele>140.278731</ele>
        <time>2013-06-15T10:59:51Z</time>
      </trkpt>
      <trkpt lat="48.53754" lon="2.15094">
        <ele>140.278731</ele>
        <time>2013-06-15T10:59:56Z</time>
      </trkpt>
      <trkpt lat="48.53754" lon="2.15094">
        <ele>140.278731</ele>
        <time>2013-06-15T11:00:01Z</time>
      </trkpt>
      <trkpt lat="48.53754" lon="2.15094">
        <ele>140.278731</ele>
        <time>2013-06-15T11:00:06Z</time>
      </trkpt>
      <trkpt lat="48.53754" lon="2.15094">
        <ele>140.278731</ele>
        <time>2013-06-15T11:00:11Z</time>
      </trkpt>
      <trkpt lat="48.53754" lon="2.15094">
        <ele>140.278731</ele>
        <time>2013-06-15T11:00:16Z</time>
      </trkpt>
      <trkpt lat="48.53754" lon="2.15094">
        <ele>140.278731</ele>
        <time>2013-06-15T11:00:21Z</time>
      </trkpt>
      <trkpt lat="48.53754" lon="2.15094">
        <ele>140.278731</ele>
        <time>2013-06-15T11:00:26Z</time>
      </trkpt>
      <trkpt lat="48.53754" lon="2.15094">
        <ele>140.278731</ele>
        <time>2013-06-15T11:00:31Z</time>
      </trkpt>
      <trkpt lat="48.53754" lon="2.15094">
        <ele>140.278731</ele>
        <time>2013-06-15T11:00:36Z</time>
      </trkpt>
      <trkpt lat="48.53754" lon="2.15094">
        <ele>140.278731</ele>
        <time>2013-06-15T11:00:41Z</time>
      </trkpt>
      <trkpt lat="48.53754" lon="2.15094">
        <ele>140.278731</ele>
        <time>2013-06-15T11:00:46Z</time>
      </trkpt>
      <trkpt lat="48.53754" lon="2.15094">
        <ele>140.278731</ele>
        <time>2013-06-15T11:00:51Z</time>
      </trkpt>
      <trkpt lat="48.53754" lon="2.15094">
        <ele>140.278731</ele>
        <time>2013-06-15T11:00:56Z</time>
      </trkpt>
      <trkpt lat="48.53754" lon="2.15094">
        <ele>140.278731</ele>
        <time>2013-06-15T11:01:01Z</time>
      </trkpt>
      <trkpt lat="48.53754" lon="2.15094">
        <ele>140.278731</ele>
        <time>2013-06-15T11:01:06Z</time>
      </trkpt>
      <trkpt lat="48.53754" lon="2.15094">
        <ele>140.278731</ele>
        <time>2013-06-15T11:01:11Z</time>
      </trkpt>
      <trkpt lat="48.53754" lon="2.15094">
        <ele>140.278731</ele>
        <time>2013-06-15T11:01:16Z</time>
      </trkpt>
      <trkpt lat="48.53754" lon="2.15094">
        <ele>140.278731</ele>
        <time>2013-06-15T11:01:21Z</time>
      </trkpt>
      <trkpt lat="48.53754" lon="2.15094">
        <ele>140.278731</ele>
        <time>2013-06-15T11:01:26Z</time>
      </trkpt>
      <trkpt lat="48.53754" lon="2.15094">
        <ele>140.278731</ele>
        <time>2013-06-15T11:01:31Z</time>
      </trkpt>
      <trkpt lat="48.53754" lon="2.15094">
        <ele>140.278731</ele>
        <time>2013-06-15T11:01:36Z</time>
      </trkpt>
      <trkpt lat="48.53754" lon="2.15094">
        <ele>140.278731</ele>
        <time>2013-06-15T11:01:41Z</time>
      </trkpt>
      <trkpt lat="48.53754" lon="2.15094">
        <ele>140.278731</ele>
        <time>2013-06-15T11:01:46Z</time>
      </trkpt>
      <trkpt lat="48.53754" lon="2.15092">
        <ele>140.25388</ele>
        <time>2013-06-15T11:01:51Z</time>
      </trkpt>
      <trkpt lat="48.53754" lon="2.15092">
        <ele>140.25388</ele>
        <time>2013-06-15T11:01:56Z</time>
      </trkpt>
      <trkpt lat="48.53754" lon="2.15094">
        <ele>140.278731</ele>
        <time>2013-06-15T11:02:01Z</time>
      </trkpt>
      <trkpt lat="48.53754" lon="2.15094">
        <ele>140.278731</ele>
        <time>2013-06-15T11:02:06Z</time>
      </trkpt>
      <trkpt lat="48.53754" lon="2.15094">
        <ele>140.278731</ele>
        <time>2013-06-15T11:02:11Z</time>
      </trkpt>
      <trkpt lat="48.53754" lon="2.15094">
        <ele>140.278731</ele>
        <time>2013-06-15T11:02:16Z</time>
      </trkpt>
      <trkpt lat="48.53754" lon="2.15094">
        <ele>140.278731</ele>
        <time>2013-06-15T11:02:21Z</time>
      </trkpt>
      <trkpt lat="48.53754" lon="2.15094">
        <ele>140.278731</ele>
        <time>2013-06-15T11:02:26Z</time>
      </trkpt>
      <trkpt lat="48.53754" lon="2.15094">
        <ele>140.278731</ele>
        <time>2013-06-15T11:02:31Z</time>
      </trkpt>
      <trkpt lat="48.53754" lon="2.15094">
        <ele>140.278731</ele>
        <time>2013-06-15T11:02:36Z</time>
      </trkpt>
      <trkpt lat="48.53754" lon="2.15094">
        <ele>140.278731</ele>
        <time>2013-06-15T11:02:41Z</time>
      </trkpt>
      <trkpt lat="48.53755" lon="2.15094">
        <ele>141.028121</ele>
        <time>2013-06-15T11:02:46Z</time>
      </trkpt>
      <trkpt lat="48.53756" lon="2.15094">
        <ele>141.115849</ele>
        <time>2013-06-15T11:02:51Z</time>
      </trkpt>
      <trkpt lat="48.53756" lon="2.15094">
        <ele>141.115849</ele>
        <time>2013-06-15T11:02:56Z</time>
      </trkpt>
      <trkpt lat="48.53756" lon="2.15094">
        <ele>141.115849</ele>
        <time>2013-06-15T11:03:01Z</time>
      </trkpt>
      <trkpt lat="48.53756" lon="2.15094">
        <ele>141.115849</ele>
        <time>2013-06-15T11:03:06Z</time>
      </trkpt>
      <trkpt lat="48.53756" lon="2.15094">
        <ele>141.115849</ele>
        <time>2013-06-15T11:03:11Z</time>
      </trkpt>
      <trkpt lat="48.53756" lon="2.15094">
        <ele>141.115849</ele>
        <time>2013-06-15T11:03:16Z</time>
      </trkpt>
      <trkpt lat="48.53756" lon="2.15094">
        <ele>141.115849</ele>
        <time>2013-06-15T11:03:21Z</time>
      </trkpt>
      <trkpt lat="48.53756" lon="2.15094">
        <ele>141.115849</ele>
        <time>2013-06-15T11:03:26Z</time>
      </trkpt>
      <trkpt lat="48.53756" lon="2.15094">
        <ele>141.115849</ele>
        <time>2013-06-15T11:03:31Z</time>
      </trkpt>
      <trkpt lat="48.53756" lon="2.15094">
        <ele>141.115849</ele>
        <time>2013-06-15T11:03:36Z</time>
      </trkpt>
      <trkpt lat="48.53756" lon="2.15094">
        <ele>141.115849</ele>
        <time>2013-06-15T11:03:41Z</time>
      </trkpt>
      <trkpt lat="48.53756" lon="2.15094">
        <ele>141.115849</ele>
        <time>2013-06-15T11:03:46Z</time>
      </trkpt>
      <trkpt lat="48.53756" lon="2.15094">
        <ele>141.115849</ele>
        <time>2013-06-15T11:03:51Z</time>
      </trkpt>
      <trkpt lat="48.53756" lon="2.15094">
        <ele>141.115849</ele>
        <time>2013-06-15T11:03:56Z</time>
      </trkpt>
      <trkpt lat="48.53756" lon="2.15094">
        <ele>141.115849</ele>
        <time>2013-06-15T11:04:01Z</time>
      </trkpt>
      <trkpt lat="48.53756" lon="2.15094">
        <ele>141.115849</ele>
        <time>2013-06-15T11:04:06Z</time>
      </trkpt>
      <trkpt lat="48.53756" lon="2.15094">
        <ele>141.115849</ele>
        <time>2013-06-15T11:04:11Z</time>
      </trkpt>
      <trkpt lat="48.53756" lon="2.15094">
        <ele>141.115849</ele>
        <time>2013-06-15T11:04:16Z</time>
      </trkpt>
      <trkpt lat="48.53756" lon="2.15094">
        <ele>141.115849</ele>
        <time>2013-06-15T11:04:21Z</time>
      </trkpt>
      <trkpt lat="48.53756" lon="2.15094">
        <ele>141.115849</ele>
        <time>2013-06-15T11:04:26Z</time>
      </trkpt>
      <trkpt lat="48.53756" lon="2.15094">
        <ele>141.115849</ele>
        <time>2013-06-15T11:04:31Z</time>
      </trkpt>
      <trkpt lat="48.53756" lon="2.15094">
        <ele>141.115849</ele>
        <time>2013-06-15T11:04:36Z</time>
      </trkpt>
      <trkpt lat="48.53756" lon="2.15094">
        <ele>141.115849</ele>
        <time>2013-06-15T11:04:41Z</time>
      </trkpt>
      <trkpt lat="48.53756" lon="2.15094">
        <ele>141.115849</ele>
        <time>2013-06-15T11:04:46Z</time>
      </trkpt>
      <trkpt lat="48.53756" lon="2.15094">
        <ele>141.115849</ele>
        <time>2013-06-15T11:04:51Z</time>
      </trkpt>
      <trkpt lat="48.53756" lon="2.15094">
        <ele>141.115849</ele>
        <time>2013-06-15T11:04:56Z</time>
      </trkpt>
      <trkpt lat="48.53756" lon="2.15094">
        <ele>141.115849</ele>
        <time>2013-06-15T11:05:01Z</time>
      </trkpt>
      <trkpt lat="48.53756" lon="2.15094">
        <ele>141.115849</ele>
        <time>2013-06-15T11:05:06Z</time>
      </trkpt>
      <trkpt lat="48.53756" lon="2.15094">
        <ele>141.115849</ele>
        <time>2013-06-15T11:05:11Z</time>
      </trkpt>
      <trkpt lat="48.53756" lon="2.15094">
        <ele>141.115849</ele>
        <time>2013-06-15T11:05:16Z</time>
      </trkpt>
      <trkpt lat="48.53756" lon="2.15094">
        <ele>141.115849</ele>
        <time>2013-06-15T11:05:21Z</time>
      </trkpt>
      <trkpt lat="48.53756" lon="2.15094">
        <ele>141.115849</ele>
        <time>2013-06-15T11:05:26Z</time>
      </trkpt>
      <trkpt lat="48.53756" lon="2.15094">
        <ele>141.115849</ele>
        <time>2013-06-15T11:05:31Z</time>
      </trkpt>
      <trkpt lat="48.53756" lon="2.15094">
        <ele>141.115849</ele>
        <time>2013-06-15T11:05:36Z</time>
      </trkpt>
      <trkpt lat="48.53756" lon="2.15094">
        <ele>141.115849</ele>
        <time>2013-06-15T11:05:41Z</time>
      </trkpt>
      <trkpt lat="48.53756" lon="2.15094">
        <ele>141.115849</ele>
        <time>2013-06-15T11:05:46Z</time>
      </trkpt>
      <trkpt lat="48.53756" lon="2.15094">
        <ele>141.115849</ele>
        <time>2013-06-15T11:05:51Z</time>
      </trkpt>
      <trkpt lat="48.53756" lon="2.15094">
        <ele>141.115849</ele>
        <time>2013-06-15T11:05:56Z</time>
      </trkpt>
      <trkpt lat="48.53756" lon="2.15094">
        <ele>141.115849</ele>
        <time>2013-06-15T11:06:01Z</time>
      </trkpt>
      <trkpt lat="48.53756" lon="2.15094">
        <ele>141.115849</ele>
        <time>2013-06-15T11:06:06Z</time>
      </trkpt>
      <trkpt lat="48.53756" lon="2.15094">
        <ele>141.115849</ele>
        <time>2013-06-15T11:06:11Z</time>
      </trkpt>
      <trkpt lat="48.53756" lon="2.15094">
        <ele>141.115849</ele>
        <time>2013-06-15T11:06:16Z</time>
      </trkpt>
      <trkpt lat="48.53756" lon="2.15094">
        <ele>141.115849</ele>
        <time>2013-06-15T11:06:21Z</time>
      </trkpt>
      <trkpt lat="48.53756" lon="2.15094">
        <ele>141.115849</ele>
        <time>2013-06-15T11:06:26Z</time>
      </trkpt>
      <trkpt lat="48.53756" lon="2.15094">
        <ele>141.115849</ele>
        <time>2013-06-15T11:06:31Z</time>
      </trkpt>
      <trkpt lat="48.53756" lon="2.15094">
        <ele>141.115849</ele>
        <time>2013-06-15T11:06:36Z</time>
      </trkpt>
      <trkpt lat="48.53756" lon="2.15094">
        <ele>141.115849</ele>
        <time>2013-06-15T11:06:41Z</time>
      </trkpt>
      <trkpt lat="48.53756" lon="2.15094">
        <ele>141.115849</ele>
        <time>2013-06-15T11:06:46Z</time>
      </trkpt>
      <trkpt lat="48.53756" lon="2.15094">
        <ele>141.115849</ele>
        <time>2013-06-15T11:06:51Z</time>
      </trkpt>
      <trkpt lat="48.53756" lon="2.15094">
        <ele>141.115849</ele>
        <time>2013-06-15T11:06:56Z</time>
      </trkpt>
      <trkpt lat="48.53756" lon="2.15094">
        <ele>141.115849</ele>
        <time>2013-06-15T11:07:01Z</time>
      </trkpt>
      <trkpt lat="48.53756" lon="2.15094">
        <ele>141.115849</ele>
        <time>2013-06-15T11:07:06Z</time>
      </trkpt>
      <trkpt lat="48.53756" lon="2.15094">
        <ele>141.115849</ele>
        <time>2013-06-15T11:07:11Z</time>
      </trkpt>
      <trkpt lat="48.53756" lon="2.15094">
        <ele>141.115849</ele>
        <time>2013-06-15T11:07:16Z</time>
      </trkpt>
      <trkpt lat="48.53756" lon="2.15094">
        <ele>141.115849</ele>
        <time>2013-06-15T11:07:21Z</time>
      </trkpt>
      <trkpt lat="48.53756" lon="2.15094">
        <ele>141.115849</ele>
        <time>2013-06-15T11:07:26Z</time>
      </trkpt>
      <trkpt lat="48.53756" lon="2.15094">
        <ele>141.115849</ele>
        <time>2013-06-15T11:07:31Z</time>
      </trkpt>
      <trkpt lat="48.53756" lon="2.15094">
        <ele>141.115849</ele>
        <time>2013-06-15T11:07:36Z</time>
      </trkpt>
      <trkpt lat="48.53756" lon="2.15094">
        <ele>141.115849</ele>
        <time>2013-06-15T11:07:41Z</time>
      </trkpt>
      <trkpt lat="48.53756" lon="2.15094">
        <ele>141.115849</ele>
        <time>2013-06-15T11:07:46Z</time>
      </trkpt>
      <trkpt lat="48.53756" lon="2.15094">
        <ele>141.115849</ele>
        <time>2013-06-15T11:07:51Z</time>
      </trkpt>
      <trkpt lat="48.53756" lon="2.15094">
        <ele>141.115849</ele>
        <time>2013-06-15T11:07:56Z</time>
      </trkpt>
      <trkpt lat="48.53756" lon="2.15094">
        <ele>141.115849</ele>
        <time>2013-06-15T11:08:01Z</time>
      </trkpt>
      <trkpt lat="48.53756" lon="2.15094">
        <ele>141.115849</ele>
        <time>2013-06-15T11:08:06Z</time>
      </trkpt>
      <trkpt lat="48.53756" lon="2.15094">
        <ele>141.115849</ele>
        <time>2013-06-15T11:08:11Z</time>
      </trkpt>
      <trkpt lat="48.53756" lon="2.15094">
        <ele>141.115849</ele>
        <time>2013-06-15T11:08:16Z</time>
      </trkpt>
      <trkpt lat="48.53756" lon="2.15094">
        <ele>141.777511</ele>
        <time>2013-06-15T11:08:21Z</time>
      </trkpt>
      <trkpt lat="48.53756" lon="2.15094">
        <ele>141.777511</ele>
        <time>2013-06-15T11:08:26Z</time>
      </trkpt>
      <trkpt lat="48.53756" lon="2.15094">
        <ele>141.777511</ele>
        <time>2013-06-15T11:08:31Z</time>
      </trkpt>
      <trkpt lat="48.53756" lon="2.15094">
        <ele>141.777511</ele>
        <time>2013-06-15T11:08:36Z</time>
      </trkpt>
      <trkpt lat="48.53756" lon="2.15094">
        <ele>141.777511</ele>
        <time>2013-06-15T11:08:41Z</time>
      </trkpt>
      <trkpt lat="48.53755" lon="2.15094">
        <ele>141.028121</ele>
        <time>2013-06-15T11:08:46Z</time>
      </trkpt>
      <trkpt lat="48.53755" lon="2.15094">
        <ele>141.028121</ele>
        <time>2013-06-15T11:08:51Z</time>
      </trkpt>
      <trkpt lat="48.53755" lon="2.15094">
        <ele>141.028121</ele>
        <time>2013-06-15T11:08:56Z</time>
      </trkpt>
      <trkpt lat="48.53755" lon="2.15094">
        <ele>141.028121</ele>
        <time>2013-06-15T11:09:01Z</time>
      </trkpt>
      <trkpt lat="48.53755" lon="2.15094">
        <ele>141.028121</ele>
        <time>2013-06-15T11:09:06Z</time>
      </trkpt>
      <trkpt lat="48.53755" lon="2.15094">
        <ele>141.028121</ele>
        <time>2013-06-15T11:09:11Z</time>
      </trkpt>
      <trkpt lat="48.53755" lon="2.15094">
        <ele>141.028121</ele>
        <time>2013-06-15T11:09:16Z</time>
      </trkpt>
      <trkpt lat="48.53755" lon="2.15094">
        <ele>141.028121</ele>
        <time>2013-06-15T11:09:21Z</time>
      </trkpt>
      <trkpt lat="48.53755" lon="2.15094">
        <ele>141.028121</ele>
        <time>2013-06-15T11:09:26Z</time>
      </trkpt>
      <trkpt lat="48.53755" lon="2.15094">
        <ele>141.028121</ele>
        <time>2013-06-15T11:09:31Z</time>
      </trkpt>
      <trkpt lat="48.53755" lon="2.15094">
        <ele>141.028121</ele>
        <time>2013-06-15T11:09:36Z</time>
      </trkpt>
      <trkpt lat="48.53755" lon="2.15094">
        <ele>141.028121</ele>
        <time>2013-06-15T11:09:41Z</time>
      </trkpt>
      <trkpt lat="48.53755" lon="2.15092">
        <ele>141.00327</ele>
        <time>2013-06-15T11:09:46Z</time>
      </trkpt>
      <trkpt lat="48.53755" lon="2.15092">
        <ele>141.00327</ele>
        <time>2013-06-15T11:09:51Z</time>
      </trkpt>
      <trkpt lat="48.53755" lon="2.15092">
        <ele>141.00327</ele>
        <time>2013-06-15T11:09:56Z</time>
      </trkpt>
      <trkpt lat="48.53755" lon="2.15092">
        <ele>141.00327</ele>
        <time>2013-06-15T11:10:01Z</time>
      </trkpt>
      <trkpt lat="48.53755" lon="2.15092">
        <ele>141.00327</ele>
        <time>2013-06-15T11:10:06Z</time>
      </trkpt>
      <trkpt lat="48.53755" lon="2.15092">
        <ele>141.00327</ele>
        <time>2013-06-15T11:10:11Z</time>
      </trkpt>
      <trkpt lat="48.53755" lon="2.15092">
        <ele>141.00327</ele>
        <time>2013-06-15T11:10:16Z</time>
      </trkpt>
      <trkpt lat="48.53755" lon="2.15092">
        <ele>141.00327</ele>
        <time>2013-06-15T11:10:21Z</time>
      </trkpt>
      <trkpt lat="48.53755" lon="2.15092">
        <ele>141.00327</ele>
        <time>2013-06-15T11:10:26Z</time>
      </trkpt>
      <trkpt lat="48.53756" lon="2.15094">
        <ele>140.366459</ele>
        <time>2013-06-15T11:10:31Z</time>
      </trkpt>
      <trkpt lat="48.53756" lon="2.15094">
        <ele>140.366459</ele>
        <time>2013-06-15T11:10:36Z</time>
      </trkpt>
      <trkpt lat="48.53756" lon="2.15094">
        <ele>140.366459</ele>
        <time>2013-06-15T11:10:41Z</time>
      </trkpt>
      <trkpt lat="48.53756" lon="2.15094">
        <ele>140.366459</ele>
        <time>2013-06-15T11:10:46Z</time>
      </trkpt>
      <trkpt lat="48.53756" lon="2.15094">
        <ele>140.366459</ele>
        <time>2013-06-15T11:10:51Z</time>
      </trkpt>
      <trkpt lat="48.53756" lon="2.15094">
        <ele>140.366459</ele>
        <time>2013-06-15T11:10:56Z</time>
      </trkpt>
      <trkpt lat="48.53756" lon="2.15094">
        <ele>140.366459</ele>
        <time>2013-06-15T11:11:01Z</time>
      </trkpt>
      <trkpt lat="48.53756" lon="2.15094">
        <ele>140.366459</ele>
        <time>2013-06-15T11:11:06Z</time>
      </trkpt>
      <trkpt lat="48.53756" lon="2.15094">
        <ele>140.366459</ele>
        <time>2013-06-15T11:11:11Z</time>
      </trkpt>
      <trkpt lat="48.53756" lon="2.15094">
        <ele>140.366459</ele>
        <time>2013-06-15T11:11:16Z</time>
      </trkpt>
      <trkpt lat="48.53756" lon="2.15094">
        <ele>140.366459</ele>
        <time>2013-06-15T11:11:21Z</time>
      </trkpt>
      <trkpt lat="48.53756" lon="2.15094">
        <ele>140.366459</ele>
        <time>2013-06-15T11:11:26Z</time>
      </trkpt>
      <trkpt lat="48.53756" lon="2.15094">
        <ele>140.366459</ele>
        <time>2013-06-15T11:11:31Z</time>
      </trkpt>
      <trkpt lat="48.53756" lon="2.15094">
        <ele>140.366459</ele>
        <time>2013-06-15T11:11:36Z</time>
      </trkpt>
      <trkpt lat="48.53756" lon="2.15094">
        <ele>140.366459</ele>
        <time>2013-06-15T11:11:41Z</time>
      </trkpt>
      <trkpt lat="48.53756" lon="2.15094">
        <ele>140.366459</ele>
        <time>2013-06-15T11:11:46Z</time>
      </trkpt>
      <trkpt lat="48.53756" lon="2.15094">
        <ele>141.115849</ele>
        <time>2013-06-15T11:11:51Z</time>
      </trkpt>
      <trkpt lat="48.53756" lon="2.15094">
        <ele>141.115849</ele>
        <time>2013-06-15T11:11:56Z</time>
      </trkpt>
      <trkpt lat="48.53756" lon="2.15094">
        <ele>141.115849</ele>
        <time>2013-06-15T11:12:01Z</time>
      </trkpt>
      <trkpt lat="48.53756" lon="2.15094">
        <ele>141.115849</ele>
        <time>2013-06-15T11:12:06Z</time>
      </trkpt>
      <trkpt lat="48.53756" lon="2.15094">
        <ele>141.115849</ele>
        <time>2013-06-15T11:12:11Z</time>
      </trkpt>
      <trkpt lat="48.53756" lon="2.15094">
        <ele>141.115849</ele>
        <time>2013-06-15T11:12:16Z</time>
      </trkpt>
      <trkpt lat="48.53756" lon="2.15094">
        <ele>141.115849</ele>
        <time>2013-06-15T11:12:21Z</time>
      </trkpt>
      <trkpt lat="48.53756" lon="2.15094">
        <ele>141.115849</ele>
        <time>2013-06-15T11:12:26Z</time>
      </trkpt>
      <trkpt lat="48.53756" lon="2.15094">
        <ele>141.777511</ele>
        <time>2013-06-15T11:12:31Z</time>
      </trkpt>
      <trkpt lat="48.53756" lon="2.15094">
        <ele>141.777511</ele>
        <time>2013-06-15T11:12:36Z</time>
      </trkpt>
      <trkpt lat="48.53756" lon="2.15094">
        <ele>141.777511</ele>
        <time>2013-06-15T11:12:41Z</time>
      </trkpt>
      <trkpt lat="48.53756" lon="2.15094">
        <ele>141.777511</ele>
        <time>2013-06-15T11:12:46Z</time>
      </trkpt>
      <trkpt lat="48.53756" lon="2.15094">
        <ele>141.777511</ele>
        <time>2013-06-15T11:12:51Z</time>
      </trkpt>
      <trkpt lat="48.53756" lon="2.15094">
        <ele>141.777511</ele>
        <time>2013-06-15T11:12:56Z</time>
      </trkpt>
      <trkpt lat="48.53756" lon="2.15094">
        <ele>141.777511</ele>
        <time>2013-06-15T11:13:01Z</time>
      </trkpt>
      <trkpt lat="48.53756" lon="2.15094">
        <ele>141.777511</ele>
        <time>2013-06-15T11:13:06Z</time>
      </trkpt>
      <trkpt lat="48.53756" lon="2.15094">
        <ele>141.777511</ele>
        <time>2013-06-15T11:13:11Z</time>
      </trkpt>
      <trkpt lat="48.53756" lon="2.15094">
        <ele>141.777511</ele>
        <time>2013-06-15T11:13:16Z</time>
      </trkpt>
      <trkpt lat="48.53756" lon="2.15094">
        <ele>141.777511</ele>
        <time>2013-06-15T11:13:21Z</time>
      </trkpt>
      <trkpt lat="48.53756" lon="2.15094">
        <ele>141.777511</ele>
        <time>2013-06-15T11:13:26Z</time>
      </trkpt>
      <trkpt lat="48.53756" lon="2.15094">
        <ele>141.777511</ele>
        <time>2013-06-15T11:13:31Z</time>
      </trkpt>
      <trkpt lat="48.53756" lon="2.15094">
        <ele>141.777511</ele>
        <time>2013-06-15T11:13:36Z</time>
      </trkpt>
      <trkpt lat="48.53756" lon="2.15094">
        <ele>141.777511</ele>
        <time>2013-06-15T11:13:41Z</time>
      </trkpt>
      <trkpt lat="48.53756" lon="2.15094">
        <ele>141.777511</ele>
        <time>2013-06-15T11:13:46Z</time>
      </trkpt>
      <trkpt lat="48.53756" lon="2.15094">
        <ele>141.777511</ele>
        <time>2013-06-15T11:13:51Z</time>
      </trkpt>
      <trkpt lat="48.53755" lon="2.15094">
        <ele>141.028121</ele>
        <time>2013-06-15T11:13:56Z</time>
      </trkpt>
      <trkpt lat="48.53755" lon="2.15094">
        <ele>141.028121</ele>
        <time>2013-06-15T11:14:01Z</time>
      </trkpt>
      <trkpt lat="48.53755" lon="2.15094">
        <ele>141.028121</ele>
        <time>2013-06-15T11:14:06Z</time>
      </trkpt>
      <trkpt lat="48.53755" lon="2.15094">
        <ele>141.028121</ele>
        <time>2013-06-15T11:14:11Z</time>
      </trkpt>
      <trkpt lat="48.53755" lon="2.15094">
        <ele>141.028121</ele>
        <time>2013-06-15T11:14:16Z</time>
      </trkpt>
      <trkpt lat="48.53755" lon="2.15094">
        <ele>141.028121</ele>
        <time>2013-06-15T11:14:21Z</time>
      </trkpt>
      <trkpt lat="48.53755" lon="2.15094">
        <ele>141.028121</ele>
        <time>2013-06-15T11:14:26Z</time>
      </trkpt>
      <trkpt lat="48.53755" lon="2.15094">
        <ele>141.028121</ele>
        <time>2013-06-15T11:14:31Z</time>
      </trkpt>
      <trkpt lat="48.53755" lon="2.15094">
        <ele>141.028121</ele>
        <time>2013-06-15T11:14:36Z</time>
      </trkpt>
      <trkpt lat="48.53755" lon="2.15094">
        <ele>141.028121</ele>
        <time>2013-06-15T11:14:41Z</time>
      </trkpt>
      <trkpt lat="48.53755" lon="2.15094">
        <ele>141.028121</ele>
        <time>2013-06-15T11:14:46Z</time>
      </trkpt>
      <trkpt lat="48.53755" lon="2.15094">
        <ele>141.028121</ele>
        <time>2013-06-15T11:14:51Z</time>
      </trkpt>
      <trkpt lat="48.53755" lon="2.15094">
        <ele>141.028121</ele>
        <time>2013-06-15T11:14:56Z</time>
      </trkpt>
      <trkpt lat="48.53755" lon="2.15094">
        <ele>141.028121</ele>
        <time>2013-06-15T11:15:01Z</time>
      </trkpt>
      <trkpt lat="48.53755" lon="2.15094">
        <ele>141.028121</ele>
        <time>2013-06-15T11:15:06Z</time>
      </trkpt>
      <trkpt lat="48.53755" lon="2.15094">
        <ele>141.028121</ele>
        <time>2013-06-15T11:15:11Z</time>
      </trkpt>
      <trkpt lat="48.53755" lon="2.15094">
        <ele>141.028121</ele>
        <time>2013-06-15T11:15:16Z</time>
      </trkpt>
      <trkpt lat="48.53755" lon="2.15094">
        <ele>141.028121</ele>
        <time>2013-06-15T11:15:21Z</time>
      </trkpt>
      <trkpt lat="48.53755" lon="2.15094">
        <ele>141.028121</ele>
        <time>2013-06-15T11:15:26Z</time>
      </trkpt>
      <trkpt lat="48.53755" lon="2.15094">
        <ele>141.028121</ele>
        <time>2013-06-15T11:15:31Z</time>
      </trkpt>
      <trkpt lat="48.53755" lon="2.15094">
        <ele>141.028121</ele>
        <time>2013-06-15T11:15:36Z</time>
      </trkpt>
      <trkpt lat="48.53755" lon="2.15094">
        <ele>141.028121</ele>
        <time>2013-06-15T11:15:41Z</time>
      </trkpt>
      <trkpt lat="48.53755" lon="2.15094">
        <ele>141.028121</ele>
        <time>2013-06-15T11:15:46Z</time>
      </trkpt>
      <trkpt lat="48.53755" lon="2.15094">
        <ele>141.028121</ele>
        <time>2013-06-15T11:15:51Z</time>
      </trkpt>
      <trkpt lat="48.53755" lon="2.15094">
        <ele>141.028121</ele>
        <time>2013-06-15T11:15:56Z</time>
      </trkpt>
      <trkpt lat="48.53755" lon="2.15094">
        <ele>141.028121</ele>
        <time>2013-06-15T11:16:01Z</time>
      </trkpt>
      <trkpt lat="48.53755" lon="2.15094">
        <ele>141.028121</ele>
        <time>2013-06-15T11:16:06Z</time>
      </trkpt>
      <trkpt lat="48.53755" lon="2.15094">
        <ele>141.028121</ele>
        <time>2013-06-15T11:16:11Z</time>
      </trkpt>
      <trkpt lat="48.53755" lon="2.15094">
        <ele>141.028121</ele>
        <time>2013-06-15T11:16:16Z</time>
      </trkpt>
      <trkpt lat="48.53755" lon="2.15094">
        <ele>141.028121</ele>
        <time>2013-06-15T11:16:21Z</time>
      </trkpt>
      <trkpt lat="48.53755" lon="2.15094">
        <ele>141.028121</ele>
        <time>2013-06-15T11:16:26Z</time>
      </trkpt>
      <trkpt lat="48.53755" lon="2.15094">
        <ele>141.028121</ele>
        <time>2013-06-15T11:16:31Z</time>
      </trkpt>
      <trkpt lat="48.53755" lon="2.15094">
        <ele>141.028121</ele>
        <time>2013-06-15T11:16:36Z</time>
      </trkpt>
      <trkpt lat="48.53755" lon="2.15094">
        <ele>141.028121</ele>
        <time>2013-06-15T11:16:41Z</time>
      </trkpt>
      <trkpt lat="48.53755" lon="2.15094">
        <ele>141.028121</ele>
        <time>2013-06-15T11:16:46Z</time>
      </trkpt>
      <trkpt lat="48.53755" lon="2.15094">
        <ele>141.028121</ele>
        <time>2013-06-15T11:16:51Z</time>
      </trkpt>
      <trkpt lat="48.53755" lon="2.15092">
        <ele>141.00327</ele>
        <time>2013-06-15T11:16:56Z</time>
      </trkpt>
      <trkpt lat="48.53755" lon="2.15092">
        <ele>141.00327</ele>
        <time>2013-06-15T11:17:01Z</time>
      </trkpt>
      <trkpt lat="48.53755" lon="2.15092">
        <ele>141.00327</ele>
        <time>2013-06-15T11:17:06Z</time>
      </trkpt>
      <trkpt lat="48.53755" lon="2.15092">
        <ele>141.00327</ele>
        <time>2013-06-15T11:17:11Z</time>
      </trkpt>
      <trkpt lat="48.53755" lon="2.15092">
        <ele>141.00327</ele>
        <time>2013-06-15T11:17:16Z</time>
      </trkpt>
      <trkpt lat="48.53755" lon="2.15092">
        <ele>141.00327</ele>
        <time>2013-06-15T11:17:21Z</time>
      </trkpt>
      <trkpt lat="48.53755" lon="2.15092">
        <ele>141.00327</ele>
        <time>2013-06-15T11:17:26Z</time>
      </trkpt>
      <trkpt lat="48.53755" lon="2.15092">
        <ele>141.00327</ele>
        <time>2013-06-15T11:17:31Z</time>
      </trkpt>
      <trkpt lat="48.53755" lon="2.15092">
        <ele>141.00327</ele>
        <time>2013-06-15T11:17:36Z</time>
      </trkpt>
      <trkpt lat="48.53755" lon="2.15092">
        <ele>141.00327</ele>
        <time>2013-06-15T11:17:41Z</time>
      </trkpt>
      <trkpt lat="48.53755" lon="2.15092">
        <ele>141.00327</ele>
        <time>2013-06-15T11:17:46Z</time>
      </trkpt>
      <trkpt lat="48.53755" lon="2.15092">
        <ele>141.00327</ele>
        <time>2013-06-15T11:17:51Z</time>
      </trkpt>
      <trkpt lat="48.53755" lon="2.15092">
        <ele>141.00327</ele>
        <time>2013-06-15T11:17:56Z</time>
      </trkpt>
      <trkpt lat="48.53755" lon="2.15092">
        <ele>141.00327</ele>
        <time>2013-06-15T11:18:01Z</time>
      </trkpt>
      <trkpt lat="48.53755" lon="2.15092">
        <ele>141.00327</ele>
        <time>2013-06-15T11:18:06Z</time>
      </trkpt>
      <trkpt lat="48.53755" lon="2.15092">
        <ele>141.00327</ele>
        <time>2013-06-15T11:18:11Z</time>
      </trkpt>
      <trkpt lat="48.53755" lon="2.15092">
        <ele>141.00327</ele>
        <time>2013-06-15T11:18:16Z</time>
      </trkpt>
      <trkpt lat="48.53755" lon="2.15092">
        <ele>141.00327</ele>
        <time>2013-06-15T11:18:21Z</time>
      </trkpt>
      <trkpt lat="48.53755" lon="2.15092">
        <ele>141.00327</ele>
        <time>2013-06-15T11:18:26Z</time>
      </trkpt>
      <trkpt lat="48.53755" lon="2.15092">
        <ele>141.00327</ele>
        <time>2013-06-15T11:18:31Z</time>
      </trkpt>
      <trkpt lat="48.53755" lon="2.15092">
        <ele>141.00327</ele>
        <time>2013-06-15T11:18:36Z</time>
      </trkpt>
      <trkpt lat="48.53755" lon="2.15092">
        <ele>141.00327</ele>
        <time>2013-06-15T11:18:41Z</time>
      </trkpt>
      <trkpt lat="48.53755" lon="2.15092">
        <ele>141.00327</ele>
        <time>2013-06-15T11:18:46Z</time>
      </trkpt>
      <trkpt lat="48.53755" lon="2.15092">
        <ele>141.00327</ele>
        <time>2013-06-15T11:18:51Z</time>
      </trkpt>
      <trkpt lat="48.53755" lon="2.15092">
        <ele>141.00327</ele>
        <time>2013-06-15T11:18:56Z</time>
      </trkpt>
      <trkpt lat="48.53755" lon="2.15092">
        <ele>141.00327</ele>
        <time>2013-06-15T11:19:01Z</time>
      </trkpt>
      <trkpt lat="48.53755" lon="2.15092">
        <ele>141.00327</ele>
        <time>2013-06-15T11:19:06Z</time>
      </trkpt>
      <trkpt lat="48.53755" lon="2.15092">
        <ele>141.00327</ele>
        <time>2013-06-15T11:19:11Z</time>
      </trkpt>
      <trkpt lat="48.53755" lon="2.15092">
        <ele>141.00327</ele>
        <time>2013-06-15T11:19:16Z</time>
      </trkpt>
      <trkpt lat="48.53755" lon="2.15092">
        <ele>141.00327</ele>
        <time>2013-06-15T11:19:21Z</time>
      </trkpt>
      <trkpt lat="48.53755" lon="2.15092">
        <ele>141.00327</ele>
        <time>2013-06-15T11:19:26Z</time>
      </trkpt>
      <trkpt lat="48.53755" lon="2.15092">
        <ele>141.00327</ele>
        <time>2013-06-15T11:19:31Z</time>
      </trkpt>
      <trkpt lat="48.53755" lon="2.15092">
        <ele>141.00327</ele>
        <time>2013-06-15T11:19:36Z</time>
      </trkpt>
      <trkpt lat="48.53755" lon="2.15092">
        <ele>141.00327</ele>
        <time>2013-06-15T11:19:41Z</time>
      </trkpt>
      <trkpt lat="48.53755" lon="2.15092">
        <ele>141.00327</ele>
        <time>2013-06-15T11:19:46Z</time>
      </trkpt>
      <trkpt lat="48.53754" lon="2.15092">
        <ele>141.664933</ele>
        <time>2013-06-15T11:19:51Z</time>
      </trkpt>
      <trkpt lat="48.53754" lon="2.15092">
        <ele>141.664933</ele>
        <time>2013-06-15T11:19:56Z</time>
      </trkpt>
      <trkpt lat="48.53754" lon="2.15092">
        <ele>141.664933</ele>
        <time>2013-06-15T11:20:01Z</time>
      </trkpt>
      <trkpt lat="48.53754" lon="2.15092">
        <ele>141.664933</ele>
        <time>2013-06-15T11:20:06Z</time>
      </trkpt>
      <trkpt lat="48.53754" lon="2.15092">
        <ele>141.664933</ele>
        <time>2013-06-15T11:20:11Z</time>
      </trkpt>
      <trkpt lat="48.53754" lon="2.15092">
        <ele>141.664933</ele>
        <time>2013-06-15T11:20:16Z</time>
      </trkpt>
      <trkpt lat="48.53754" lon="2.15092">
        <ele>141.664933</ele>
        <time>2013-06-15T11:20:21Z</time>
      </trkpt>
      <trkpt lat="48.53754" lon="2.15092">
        <ele>141.664933</ele>
        <time>2013-06-15T11:20:26Z</time>
      </trkpt>
      <trkpt lat="48.53754" lon="2.15092">
        <ele>141.664933</ele>
        <time>2013-06-15T11:20:31Z</time>
      </trkpt>
      <trkpt lat="48.53755" lon="2.15092">
        <ele>141.00327</ele>
        <time>2013-06-15T11:20:36Z</time>
      </trkpt>
      <trkpt lat="48.53755" lon="2.15092">
        <ele>141.00327</ele>
        <time>2013-06-15T11:20:41Z</time>
      </trkpt>
      <trkpt lat="48.53755" lon="2.15092">
        <ele>141.00327</ele>
        <time>2013-06-15T11:20:46Z</time>
      </trkpt>
      <trkpt lat="48.53755" lon="2.15092">
        <ele>141.00327</ele>
        <time>2013-06-15T11:20:51Z</time>
      </trkpt>
      <trkpt lat="48.53755" lon="2.15092">
        <ele>141.00327</ele>
        <time>2013-06-15T11:20:56Z</time>
      </trkpt>
      <trkpt lat="48.53755" lon="2.15092">
        <ele>141.00327</ele>
        <time>2013-06-15T11:21:01Z</time>
      </trkpt>
      <trkpt lat="48.53755" lon="2.15092">
        <ele>141.00327</ele>
        <time>2013-06-15T11:21:06Z</time>
      </trkpt>
      <trkpt lat="48.53755" lon="2.15092">
        <ele>141.00327</ele>
        <time>2013-06-15T11:21:11Z</time>
      </trkpt>
      <trkpt lat="48.53755" lon="2.15092">
        <ele>141.00327</ele>
        <time>2013-06-15T11:21:16Z</time>
      </trkpt>
      <trkpt lat="48.53755" lon="2.15092">
        <ele>141.00327</ele>
        <time>2013-06-15T11:21:21Z</time>
      </trkpt>
      <trkpt lat="48.53755" lon="2.15092">
        <ele>141.00327</ele>
        <time>2013-06-15T11:21:26Z</time>
      </trkpt>
      <trkpt lat="48.53755" lon="2.15092">
        <ele>141.00327</ele>
        <time>2013-06-15T11:21:31Z</time>
      </trkpt>
      <trkpt lat="48.53755" lon="2.15092">
        <ele>141.00327</ele>
        <time>2013-06-15T11:21:36Z</time>
      </trkpt>
      <trkpt lat="48.53755" lon="2.15092">
        <ele>141.00327</ele>
        <time>2013-06-15T11:21:41Z</time>
      </trkpt>
      <trkpt lat="48.53755" lon="2.15092">
        <ele>141.00327</ele>
        <time>2013-06-15T11:21:46Z</time>
      </trkpt>
      <trkpt lat="48.53755" lon="2.15092">
        <ele>141.00327</ele>
        <time>2013-06-15T11:21:51Z</time>
      </trkpt>
      <trkpt lat="48.53755" lon="2.15092">
        <ele>141.00327</ele>
        <time>2013-06-15T11:21:56Z</time>
      </trkpt>
      <trkpt lat="48.53755" lon="2.15092">
        <ele>141.00327</ele>
        <time>2013-06-15T11:22:01Z</time>
      </trkpt>
      <trkpt lat="48.53755" lon="2.15092">
        <ele>141.00327</ele>
        <time>2013-06-15T11:22:06Z</time>
      </trkpt>
      <trkpt lat="48.53755" lon="2.15092">
        <ele>141.00327</ele>
        <time>2013-06-15T11:22:11Z</time>
      </trkpt>
      <trkpt lat="48.53755" lon="2.15092">
        <ele>141.00327</ele>
        <time>2013-06-15T11:22:16Z</time>
      </trkpt>
      <trkpt lat="48.53755" lon="2.15092">
        <ele>141.00327</ele>
        <time>2013-06-15T11:22:21Z</time>
      </trkpt>
      <trkpt lat="48.53755" lon="2.15092">
        <ele>141.00327</ele>
        <time>2013-06-15T11:22:26Z</time>
      </trkpt>
      <trkpt lat="48.53755" lon="2.15092">
        <ele>141.00327</ele>
        <time>2013-06-15T11:22:31Z</time>
      </trkpt>
      <trkpt lat="48.53755" lon="2.15092">
        <ele>141.00327</ele>
        <time>2013-06-15T11:22:36Z</time>
      </trkpt>
      <trkpt lat="48.53755" lon="2.15092">
        <ele>141.00327</ele>
        <time>2013-06-15T11:22:41Z</time>
      </trkpt>
      <trkpt lat="48.53755" lon="2.15092">
        <ele>141.00327</ele>
        <time>2013-06-15T11:22:46Z</time>
      </trkpt>
      <trkpt lat="48.53755" lon="2.15092">
        <ele>141.00327</ele>
        <time>2013-06-15T11:22:51Z</time>
      </trkpt>
      <trkpt lat="48.53755" lon="2.15092">
        <ele>141.00327</ele>
        <time>2013-06-15T11:22:56Z</time>
      </trkpt>
      <trkpt lat="48.53755" lon="2.15092">
        <ele>141.00327</ele>
        <time>2013-06-15T11:23:01Z</time>
      </trkpt>
      <trkpt lat="48.53755" lon="2.15092">
        <ele>141.00327</ele>
        <time>2013-06-15T11:23:06Z</time>
      </trkpt>
      <trkpt lat="48.53755" lon="2.15092">
        <ele>141.00327</ele>
        <time>2013-06-15T11:23:11Z</time>
      </trkpt>
      <trkpt lat="48.53755" lon="2.15092">
        <ele>141.00327</ele>
        <time>2013-06-15T11:23:16Z</time>
      </trkpt>
      <trkpt lat="48.53755" lon="2.15092">
        <ele>141.00327</ele>
        <time>2013-06-15T11:23:21Z</time>
      </trkpt>
      <trkpt lat="48.53755" lon="2.15092">
        <ele>141.00327</ele>
        <time>2013-06-15T11:23:26Z</time>
      </trkpt>
      <trkpt lat="48.53755" lon="2.15092">
        <ele>141.00327</ele>
        <time>2013-06-15T11:23:31Z</time>
      </trkpt>
      <trkpt lat="48.53755" lon="2.15092">
        <ele>141.00327</ele>
        <time>2013-06-15T11:23:36Z</time>
      </trkpt>
      <trkpt lat="48.53755" lon="2.15092">
        <ele>141.00327</ele>
        <time>2013-06-15T11:23:41Z</time>
      </trkpt>
      <trkpt lat="48.53755" lon="2.15092">
        <ele>141.00327</ele>
        <time>2013-06-15T11:23:46Z</time>
      </trkpt>
      <trkpt lat="48.53755" lon="2.15092">
        <ele>141.00327</ele>
        <time>2013-06-15T11:23:51Z</time>
      </trkpt>
      <trkpt lat="48.53755" lon="2.15092">
        <ele>141.00327</ele>
        <time>2013-06-15T11:23:56Z</time>
      </trkpt>
      <trkpt lat="48.53755" lon="2.15092">
        <ele>141.00327</ele>
        <time>2013-06-15T11:24:01Z</time>
      </trkpt>
      <trkpt lat="48.53755" lon="2.15092">
        <ele>141.00327</ele>
        <time>2013-06-15T11:24:06Z</time>
      </trkpt>
      <trkpt lat="48.53755" lon="2.15092">
        <ele>141.00327</ele>
        <time>2013-06-15T11:24:11Z</time>
      </trkpt>
      <trkpt lat="48.53755" lon="2.15092">
        <ele>141.00327</ele>
        <time>2013-06-15T11:24:16Z</time>
      </trkpt>
      <trkpt lat="48.53755" lon="2.15092">
        <ele>141.00327</ele>
        <time>2013-06-15T11:24:21Z</time>
      </trkpt>
      <trkpt lat="48.53755" lon="2.15092">
        <ele>141.00327</ele>
        <time>2013-06-15T11:24:26Z</time>
      </trkpt>
      <trkpt lat="48.53755" lon="2.15092">
        <ele>141.00327</ele>
        <time>2013-06-15T11:24:31Z</time>
      </trkpt>
      <trkpt lat="48.53755" lon="2.15092">
        <ele>141.00327</ele>
        <time>2013-06-15T11:24:36Z</time>
      </trkpt>
      <trkpt lat="48.53755" lon="2.15092">
        <ele>141.00327</ele>
        <time>2013-06-15T11:24:41Z</time>
      </trkpt>
      <trkpt lat="48.53755" lon="2.15092">
        <ele>141.00327</ele>
        <time>2013-06-15T11:24:46Z</time>
      </trkpt>
      <trkpt lat="48.53755" lon="2.15092">
        <ele>141.00327</ele>
        <time>2013-06-15T11:24:51Z</time>
      </trkpt>
      <trkpt lat="48.53755" lon="2.15092">
        <ele>141.00327</ele>
        <time>2013-06-15T11:24:56Z</time>
      </trkpt>
      <trkpt lat="48.53755" lon="2.15092">
        <ele>141.00327</ele>
        <time>2013-06-15T11:25:01Z</time>
      </trkpt>
      <trkpt lat="48.53755" lon="2.15092">
        <ele>141.00327</ele>
        <time>2013-06-15T11:25:06Z</time>
      </trkpt>
      <trkpt lat="48.53755" lon="2.15092">
        <ele>141.00327</ele>
        <time>2013-06-15T11:25:11Z</time>
      </trkpt>
      <trkpt lat="48.53755" lon="2.15092">
        <ele>141.00327</ele>
        <time>2013-06-15T11:25:16Z</time>
      </trkpt>
      <trkpt lat="48.53755" lon="2.15092">
        <ele>141.00327</ele>
        <time>2013-06-15T11:25:21Z</time>
      </trkpt>
      <trkpt lat="48.53755" lon="2.15092">
        <ele>141.00327</ele>
        <time>2013-06-15T11:25:26Z</time>
      </trkpt>
      <trkpt lat="48.53755" lon="2.15092">
        <ele>141.00327</ele>
        <time>2013-06-15T11:25:31Z</time>
      </trkpt>
      <trkpt lat="48.53755" lon="2.15092">
        <ele>141.00327</ele>
        <time>2013-06-15T11:25:36Z</time>
      </trkpt>
      <trkpt lat="48.53755" lon="2.15092">
        <ele>141.00327</ele>
        <time>2013-06-15T11:25:41Z</time>
      </trkpt>
      <trkpt lat="48.53755" lon="2.15092">
        <ele>141.00327</ele>
        <time>2013-06-15T11:25:46Z</time>
      </trkpt>
      <trkpt lat="48.53755" lon="2.15092">
        <ele>141.00327</ele>
        <time>2013-06-15T11:25:51Z</time>
      </trkpt>
      <trkpt lat="48.53755" lon="2.15092">
        <ele>141.00327</ele>
        <time>2013-06-15T11:25:56Z</time>
      </trkpt>
      <trkpt lat="48.53755" lon="2.15092">
        <ele>141.00327</ele>
        <time>2013-06-15T11:26:01Z</time>
      </trkpt>
      <trkpt lat="48.53755" lon="2.15092">
        <ele>141.00327</ele>
        <time>2013-06-15T11:26:06Z</time>
      </trkpt>
      <trkpt lat="48.53755" lon="2.15092">
        <ele>141.00327</ele>
        <time>2013-06-15T11:26:11Z</time>
      </trkpt>
      <trkpt lat="48.53755" lon="2.15092">
        <ele>141.00327</ele>
        <time>2013-06-15T11:26:16Z</time>
      </trkpt>
      <trkpt lat="48.53755" lon="2.15092">
        <ele>141.00327</ele>
        <time>2013-06-15T11:26:21Z</time>
      </trkpt>
      <trkpt lat="48.53755" lon="2.15092">
        <ele>141.00327</ele>
        <time>2013-06-15T11:26:26Z</time>
      </trkpt>
      <trkpt lat="48.53755" lon="2.15092">
        <ele>141.00327</ele>
        <time>2013-06-15T11:26:31Z</time>
      </trkpt>
      <trkpt lat="48.53755" lon="2.15092">
        <ele>141.00327</ele>
        <time>2013-06-15T11:26:36Z</time>
      </trkpt>
      <trkpt lat="48.53755" lon="2.15092">
        <ele>141.00327</ele>
        <time>2013-06-15T11:26:41Z</time>
      </trkpt>
      <trkpt lat="48.53755" lon="2.15092">
        <ele>141.00327</ele>
        <time>2013-06-15T11:26:46Z</time>
      </trkpt>
      <trkpt lat="48.53755" lon="2.15092">
        <ele>141.00327</ele>
        <time>2013-06-15T11:26:51Z</time>
      </trkpt>
      <trkpt lat="48.53755" lon="2.15092">
        <ele>141.00327</ele>
        <time>2013-06-15T11:26:56Z</time>
      </trkpt>
      <trkpt lat="48.53755" lon="2.15092">
        <ele>141.00327</ele>
        <time>2013-06-15T11:27:01Z</time>
      </trkpt>
      <trkpt lat="48.53755" lon="2.15092">
        <ele>141.00327</ele>
        <time>2013-06-15T11:27:06Z</time>
      </trkpt>
      <trkpt lat="48.53755" lon="2.15092">
        <ele>141.00327</ele>
        <time>2013-06-15T11:27:11Z</time>
      </trkpt>
      <trkpt lat="48.53755" lon="2.15092">
        <ele>141.00327</ele>
        <time>2013-06-15T11:27:16Z</time>
      </trkpt>
      <trkpt lat="48.53755" lon="2.15092">
        <ele>141.00327</ele>
        <time>2013-06-15T11:27:21Z</time>
      </trkpt>
      <trkpt lat="48.53755" lon="2.15092">
        <ele>141.00327</ele>
        <time>2013-06-15T11:27:26Z</time>
      </trkpt>
      <trkpt lat="48.53755" lon="2.15092">
        <ele>141.00327</ele>
        <time>2013-06-15T11:27:31Z</time>
      </trkpt>
      <trkpt lat="48.53755" lon="2.15092">
        <ele>141.00327</ele>
        <time>2013-06-15T11:27:36Z</time>
      </trkpt>
      <trkpt lat="48.53755" lon="2.15092">
        <ele>141.00327</ele>
        <time>2013-06-15T11:27:41Z</time>
      </trkpt>
      <trkpt lat="48.53755" lon="2.15092">
        <ele>141.00327</ele>
        <time>2013-06-15T11:27:46Z</time>
      </trkpt>
      <trkpt lat="48.53755" lon="2.15092">
        <ele>141.00327</ele>
        <time>2013-06-15T11:27:51Z</time>
      </trkpt>
      <trkpt lat="48.53755" lon="2.15092">
        <ele>141.00327</ele>
        <time>2013-06-15T11:27:56Z</time>
      </trkpt>
      <trkpt lat="48.53755" lon="2.15092">
        <ele>141.00327</ele>
        <time>2013-06-15T11:28:01Z</time>
      </trkpt>
      <trkpt lat="48.53755" lon="2.15092">
        <ele>141.00327</ele>
        <time>2013-06-15T11:28:06Z</time>
      </trkpt>
      <trkpt lat="48.53755" lon="2.15092">
        <ele>141.00327</ele>
        <time>2013-06-15T11:28:11Z</time>
      </trkpt>
      <trkpt lat="48.53755" lon="2.15092">
        <ele>141.00327</ele>
        <time>2013-06-15T11:28:16Z</time>
      </trkpt>
      <trkpt lat="48.53755" lon="2.15092">
        <ele>141.00327</ele>
        <time>2013-06-15T11:28:21Z</time>
      </trkpt>
      <trkpt lat="48.53755" lon="2.15092">
        <ele>141.00327</ele>
        <time>2013-06-15T11:28:26Z</time>
      </trkpt>
      <trkpt lat="48.53755" lon="2.15092">
        <ele>141.00327</ele>
        <time>2013-06-15T11:28:31Z</time>
      </trkpt>
      <trkpt lat="48.53755" lon="2.15092">
        <ele>141.00327</ele>
        <time>2013-06-15T11:28:36Z</time>
      </trkpt>
      <trkpt lat="48.53755" lon="2.15092">
        <ele>141.00327</ele>
        <time>2013-06-15T11:28:41Z</time>
      </trkpt>
      <trkpt lat="48.53755" lon="2.15092">
        <ele>141.00327</ele>
        <time>2013-06-15T11:28:46Z</time>
      </trkpt>
      <trkpt lat="48.53755" lon="2.15092">
        <ele>141.00327</ele>
        <time>2013-06-15T11:28:51Z</time>
      </trkpt>
      <trkpt lat="48.53755" lon="2.15092">
        <ele>141.00327</ele>
        <time>2013-06-15T11:28:56Z</time>
      </trkpt>
      <trkpt lat="48.53755" lon="2.15092">
        <ele>141.00327</ele>
        <time>2013-06-15T11:29:01Z</time>
      </trkpt>
      <trkpt lat="48.53755" lon="2.15092">
        <ele>141.00327</ele>
        <time>2013-06-15T11:29:06Z</time>
      </trkpt>
      <trkpt lat="48.53755" lon="2.15092">
        <ele>141.00327</ele>
        <time>2013-06-15T11:29:11Z</time>
      </trkpt>
      <trkpt lat="48.53754" lon="2.15092">
        <ele>140.25388</ele>
        <time>2013-06-15T11:29:16Z</time>
      </trkpt>
      <trkpt lat="48.53754" lon="2.15092">
        <ele>140.25388</ele>
        <time>2013-06-15T11:29:21Z</time>
      </trkpt>
      <trkpt lat="48.53754" lon="2.15092">
        <ele>140.25388</ele>
        <time>2013-06-15T11:29:26Z</time>
      </trkpt>
      <trkpt lat="48.53754" lon="2.15092">
        <ele>140.25388</ele>
        <time>2013-06-15T11:29:31Z</time>
      </trkpt>
      <trkpt lat="48.53754" lon="2.15092">
        <ele>140.25388</ele>
        <time>2013-06-15T11:29:36Z</time>
      </trkpt>
      <trkpt lat="48.53754" lon="2.15092">
        <ele>140.25388</ele>
        <time>2013-06-15T11:29:41Z</time>
      </trkpt>
      <trkpt lat="48.53754" lon="2.15092">
        <ele>140.25388</ele>
        <time>2013-06-15T11:29:46Z</time>
      </trkpt>
      <trkpt lat="48.53754" lon="2.15092">
        <ele>140.25388</ele>
        <time>2013-06-15T11:29:51Z</time>
      </trkpt>
      <trkpt lat="48.53754" lon="2.15092">
        <ele>140.25388</ele>
        <time>2013-06-15T11:29:56Z</time>
      </trkpt>
      <trkpt lat="48.53754" lon="2.15092">
        <ele>140.25388</ele>
        <time>2013-06-15T11:30:01Z</time>
      </trkpt>
      <trkpt lat="48.53754" lon="2.15092">
        <ele>140.25388</ele>
        <time>2013-06-15T11:30:06Z</time>
      </trkpt>
      <trkpt lat="48.53754" lon="2.15092">
        <ele>140.25388</ele>
        <time>2013-06-15T11:30:11Z</time>
      </trkpt>
      <trkpt lat="48.53754" lon="2.15092">
        <ele>140.25388</ele>
        <time>2013-06-15T11:30:16Z</time>
      </trkpt>
      <trkpt lat="48.53754" lon="2.15092">
        <ele>140.25388</ele>
        <time>2013-06-15T11:30:21Z</time>
      </trkpt>
      <trkpt lat="48.53754" lon="2.15092">
        <ele>140.25388</ele>
        <time>2013-06-15T11:30:26Z</time>
      </trkpt>
      <trkpt lat="48.53754" lon="2.15092">
        <ele>140.25388</ele>
        <time>2013-06-15T11:30:31Z</time>
      </trkpt>
      <trkpt lat="48.53754" lon="2.15092">
        <ele>140.25388</ele>
        <time>2013-06-15T11:30:36Z</time>
      </trkpt>
      <trkpt lat="48.53754" lon="2.15092">
        <ele>140.25388</ele>
        <time>2013-06-15T11:30:41Z</time>
      </trkpt>
      <trkpt lat="48.53754" lon="2.15092">
        <ele>140.25388</ele>
        <time>2013-06-15T11:30:46Z</time>
      </trkpt>
      <trkpt lat="48.53754" lon="2.15092">
        <ele>140.25388</ele>
        <time>2013-06-15T11:30:51Z</time>
      </trkpt>
      <trkpt lat="48.53754" lon="2.15092">
        <ele>140.25388</ele>
        <time>2013-06-15T11:30:56Z</time>
      </trkpt>
      <trkpt lat="48.53754" lon="2.15092">
        <ele>140.25388</ele>
        <time>2013-06-15T11:31:01Z</time>
      </trkpt>
      <trkpt lat="48.53754" lon="2.15092">
        <ele>140.25388</ele>
        <time>2013-06-15T11:31:06Z</time>
      </trkpt>
      <trkpt lat="48.53754" lon="2.15092">
        <ele>140.25388</ele>
        <time>2013-06-15T11:31:11Z</time>
      </trkpt>
      <trkpt lat="48.53754" lon="2.15092">
        <ele>140.25388</ele>
        <time>2013-06-15T11:31:16Z</time>
      </trkpt>
      <trkpt lat="48.53754" lon="2.15092">
        <ele>140.25388</ele>
        <time>2013-06-15T11:31:21Z</time>
      </trkpt>
      <trkpt lat="48.53754" lon="2.15092">
        <ele>140.25388</ele>
        <time>2013-06-15T11:31:26Z</time>
      </trkpt>
      <trkpt lat="48.53754" lon="2.15092">
        <ele>140.25388</ele>
        <time>2013-06-15T11:31:31Z</time>
      </trkpt>
      <trkpt lat="48.53754" lon="2.15092">
        <ele>140.25388</ele>
        <time>2013-06-15T11:31:36Z</time>
      </trkpt>
      <trkpt lat="48.53754" lon="2.15092">
        <ele>140.25388</ele>
        <time>2013-06-15T11:31:41Z</time>
      </trkpt>
      <trkpt lat="48.53754" lon="2.15092">
        <ele>140.25388</ele>
        <time>2013-06-15T11:31:46Z</time>
      </trkpt>
      <trkpt lat="48.53754" lon="2.15092">
        <ele>140.25388</ele>
        <time>2013-06-15T11:31:51Z</time>
      </trkpt>
      <trkpt lat="48.53754" lon="2.15092">
        <ele>140.25388</ele>
        <time>2013-06-15T11:31:56Z</time>
      </trkpt>
      <trkpt lat="48.53754" lon="2.15092">
        <ele>140.25388</ele>
        <time>2013-06-15T11:32:01Z</time>
      </trkpt>
      <trkpt lat="48.53754" lon="2.15092">
        <ele>140.25388</ele>
        <time>2013-06-15T11:32:06Z</time>
      </trkpt>
      <trkpt lat="48.53754" lon="2.15092">
        <ele>140.25388</ele>
        <time>2013-06-15T11:32:11Z</time>
      </trkpt>
      <trkpt lat="48.53754" lon="2.15092">
        <ele>140.25388</ele>
        <time>2013-06-15T11:32:16Z</time>
      </trkpt>
      <trkpt lat="48.53754" lon="2.15092">
        <ele>140.25388</ele>
        <time>2013-06-15T11:32:21Z</time>
      </trkpt>
      <trkpt lat="48.53754" lon="2.15092">
        <ele>140.25388</ele>
        <time>2013-06-15T11:32:26Z</time>
      </trkpt>
      <trkpt lat="48.53754" lon="2.15092">
        <ele>140.25388</ele>
        <time>2013-06-15T11:32:31Z</time>
      </trkpt>
      <trkpt lat="48.53754" lon="2.15092">
        <ele>140.25388</ele>
        <time>2013-06-15T11:32:36Z</time>
      </trkpt>
      <trkpt lat="48.53754" lon="2.15094">
        <ele>140.278731</ele>
        <time>2013-06-15T11:32:41Z</time>
      </trkpt>
      <trkpt lat="48.53754" lon="2.15094">
        <ele>140.278731</ele>
        <time>2013-06-15T11:32:46Z</time>
      </trkpt>
      <trkpt lat="48.53754" lon="2.15094">
        <ele>140.278731</ele>
        <time>2013-06-15T11:32:51Z</time>
      </trkpt>
      <trkpt lat="48.53754" lon="2.15094">
        <ele>140.278731</ele>
        <time>2013-06-15T11:32:56Z</time>
      </trkpt>
      <trkpt lat="48.53754" lon="2.15094">
        <ele>140.278731</ele>
        <time>2013-06-15T11:33:01Z</time>
      </trkpt>
      <trkpt lat="48.53754" lon="2.15094">
        <ele>140.278731</ele>
        <time>2013-06-15T11:33:06Z</time>
      </trkpt>
      <trkpt lat="48.53754" lon="2.15094">
        <ele>140.278731</ele>
        <time>2013-06-15T11:33:11Z</time>
      </trkpt>
      <trkpt lat="48.53754" lon="2.15094">
        <ele>140.278731</ele>
        <time>2013-06-15T11:33:16Z</time>
      </trkpt>
      <trkpt lat="48.53754" lon="2.15094">
        <ele>140.278731</ele>
        <time>2013-06-15T11:33:21Z</time>
      </trkpt>
      <trkpt lat="48.53754" lon="2.15094">
        <ele>140.278731</ele>
        <time>2013-06-15T11:33:26Z</time>
      </trkpt>
      <trkpt lat="48.53754" lon="2.15094">
        <ele>140.278731</ele>
        <time>2013-06-15T11:33:31Z</time>
      </trkpt>
      <trkpt lat="48.53754" lon="2.15094">
        <ele>140.278731</ele>
        <time>2013-06-15T11:33:36Z</time>
      </trkpt>
      <trkpt lat="48.53754" lon="2.15094">
        <ele>140.278731</ele>
        <time>2013-06-15T11:33:41Z</time>
      </trkpt>
      <trkpt lat="48.53754" lon="2.15094">
        <ele>140.278731</ele>
        <time>2013-06-15T11:33:46Z</time>
      </trkpt>
      <trkpt lat="48.53754" lon="2.15094">
        <ele>140.278731</ele>
        <time>2013-06-15T11:33:51Z</time>
      </trkpt>
      <trkpt lat="48.53754" lon="2.15094">
        <ele>140.278731</ele>
        <time>2013-06-15T11:33:56Z</time>
      </trkpt>
      <trkpt lat="48.53754" lon="2.15094">
        <ele>140.278731</ele>
        <time>2013-06-15T11:34:01Z</time>
      </trkpt>
      <trkpt lat="48.53754" lon="2.15094">
        <ele>140.278731</ele>
        <time>2013-06-15T11:34:06Z</time>
      </trkpt>
      <trkpt lat="48.53754" lon="2.15094">
        <ele>140.278731</ele>
        <time>2013-06-15T11:34:11Z</time>
      </trkpt>
      <trkpt lat="48.53754" lon="2.15094">
        <ele>140.278731</ele>
        <time>2013-06-15T11:34:16Z</time>
      </trkpt>
      <trkpt lat="48.53754" lon="2.15094">
        <ele>140.278731</ele>
        <time>2013-06-15T11:34:21Z</time>
      </trkpt>
      <trkpt lat="48.53754" lon="2.15094">
        <ele>140.278731</ele>
        <time>2013-06-15T11:34:26Z</time>
      </trkpt>
      <trkpt lat="48.53754" lon="2.15094">
        <ele>140.278731</ele>
        <time>2013-06-15T11:34:31Z</time>
      </trkpt>
      <trkpt lat="48.53754" lon="2.15094">
        <ele>140.278731</ele>
        <time>2013-06-15T11:34:36Z</time>
      </trkpt>
      <trkpt lat="48.53754" lon="2.15094">
        <ele>140.278731</ele>
        <time>2013-06-15T11:34:41Z</time>
      </trkpt>
      <trkpt lat="48.53754" lon="2.15094">
        <ele>140.278731</ele>
        <time>2013-06-15T11:34:46Z</time>
      </trkpt>
      <trkpt lat="48.53754" lon="2.15094">
        <ele>140.278731</ele>
        <time>2013-06-15T11:34:51Z</time>
      </trkpt>
      <trkpt lat="48.53754" lon="2.15094">
        <ele>140.278731</ele>
        <time>2013-06-15T11:34:56Z</time>
      </trkpt>
      <trkpt lat="48.53754" lon="2.15094">
        <ele>140.278731</ele>
        <time>2013-06-15T11:35:01Z</time>
      </trkpt>
      <trkpt lat="48.53754" lon="2.15094">
        <ele>140.278731</ele>
        <time>2013-06-15T11:35:06Z</time>
      </trkpt>
      <trkpt lat="48.53754" lon="2.15094">
        <ele>140.278731</ele>
        <time>2013-06-15T11:35:11Z</time>
      </trkpt>
      <trkpt lat="48.53754" lon="2.15094">
        <ele>140.278731</ele>
        <time>2013-06-15T11:35:16Z</time>
      </trkpt>
      <trkpt lat="48.53754" lon="2.15094">
        <ele>140.278731</ele>
        <time>2013-06-15T11:35:21Z</time>
      </trkpt>
      <trkpt lat="48.53754" lon="2.15094">
        <ele>140.278731</ele>
        <time>2013-06-15T11:35:26Z</time>
      </trkpt>
      <trkpt lat="48.53754" lon="2.15094">
        <ele>140.278731</ele>
        <time>2013-06-15T11:35:31Z</time>
      </trkpt>
      <trkpt lat="48.53754" lon="2.15094">
        <ele>140.278731</ele>
        <time>2013-06-15T11:35:36Z</time>
      </trkpt>
      <trkpt lat="48.53754" lon="2.15094">
        <ele>140.278731</ele>
        <time>2013-06-15T11:35:41Z</time>
      </trkpt>
      <trkpt lat="48.53754" lon="2.15094">
        <ele>140.278731</ele>
        <time>2013-06-15T11:35:46Z</time>
      </trkpt>
      <trkpt lat="48.53754" lon="2.15094">
        <ele>140.278731</ele>
        <time>2013-06-15T11:35:51Z</time>
      </trkpt>
      <trkpt lat="48.53754" lon="2.15094">
        <ele>140.278731</ele>
        <time>2013-06-15T11:35:56Z</time>
      </trkpt>
      <trkpt lat="48.53754" lon="2.15094">
        <ele>140.278731</ele>
        <time>2013-06-15T11:36:01Z</time>
      </trkpt>
      <trkpt lat="48.53754" lon="2.15094">
        <ele>140.278731</ele>
        <time>2013-06-15T11:36:06Z</time>
      </trkpt>
      <trkpt lat="48.53754" lon="2.15094">
        <ele>140.278731</ele>
        <time>2013-06-15T11:36:11Z</time>
      </trkpt>
      <trkpt lat="48.53754" lon="2.15094">
        <ele>140.278731</ele>
        <time>2013-06-15T11:36:16Z</time>
      </trkpt>
      <trkpt lat="48.53754" lon="2.15094">
        <ele>140.278731</ele>
        <time>2013-06-15T11:36:21Z</time>
      </trkpt>
      <trkpt lat="48.53754" lon="2.15094">
        <ele>140.278731</ele>
        <time>2013-06-15T11:36:26Z</time>
      </trkpt>
      <trkpt lat="48.53754" lon="2.15094">
        <ele>140.278731</ele>
        <time>2013-06-15T11:36:31Z</time>
      </trkpt>
      <trkpt lat="48.53754" lon="2.15094">
        <ele>140.278731</ele>
        <time>2013-06-15T11:36:36Z</time>
      </trkpt>
      <trkpt lat="48.53754" lon="2.15094">
        <ele>140.278731</ele>
        <time>2013-06-15T11:36:41Z</time>
      </trkpt>
      <trkpt lat="48.53754" lon="2.15094">
        <ele>140.278731</ele>
        <time>2013-06-15T11:36:46Z</time>
      </trkpt>
      <trkpt lat="48.53754" lon="2.15094">
        <ele>140.278731</ele>
        <time>2013-06-15T11:36:51Z</time>
      </trkpt>
      <trkpt lat="48.53754" lon="2.15094">
        <ele>140.278731</ele>
        <time>2013-06-15T11:36:56Z</time>
      </trkpt>
      <trkpt lat="48.53754" lon="2.15094">
        <ele>140.278731</ele>
        <time>2013-06-15T11:37:01Z</time>
      </trkpt>
      <trkpt lat="48.53754" lon="2.15094">
        <ele>140.278731</ele>
        <time>2013-06-15T11:37:06Z</time>
      </trkpt>
      <trkpt lat="48.53754" lon="2.15094">
        <ele>140.278731</ele>
        <time>2013-06-15T11:37:11Z</time>
      </trkpt>
      <trkpt lat="48.53754" lon="2.15094">
        <ele>140.278731</ele>
        <time>2013-06-15T11:37:16Z</time>
      </trkpt>
      <trkpt lat="48.53754" lon="2.15094">
        <ele>140.278731</ele>
        <time>2013-06-15T11:37:21Z</time>
      </trkpt>
      <trkpt lat="48.53754" lon="2.15094">
        <ele>140.278731</ele>
        <time>2013-06-15T11:37:26Z</time>
      </trkpt>
      <trkpt lat="48.53754" lon="2.15094">
        <ele>140.278731</ele>
        <time>2013-06-15T11:37:31Z</time>
      </trkpt>
      <trkpt lat="48.53754" lon="2.15094">
        <ele>140.278731</ele>
        <time>2013-06-15T11:37:36Z</time>
      </trkpt>
      <trkpt lat="48.53754" lon="2.15094">
        <ele>140.278731</ele>
        <time>2013-06-15T11:37:41Z</time>
      </trkpt>
      <trkpt lat="48.53754" lon="2.15094">
        <ele>140.278731</ele>
        <time>2013-06-15T11:37:46Z</time>
      </trkpt>
      <trkpt lat="48.53754" lon="2.15094">
        <ele>140.278731</ele>
        <time>2013-06-15T11:37:51Z</time>
      </trkpt>
      <trkpt lat="48.53754" lon="2.15094">
        <ele>140.278731</ele>
        <time>2013-06-15T11:37:56Z</time>
      </trkpt>
      <trkpt lat="48.53754" lon="2.15094">
        <ele>140.278731</ele>
        <time>2013-06-15T11:38:01Z</time>
      </trkpt>
      <trkpt lat="48.53754" lon="2.15094">
        <ele>140.278731</ele>
        <time>2013-06-15T11:38:06Z</time>
      </trkpt>
      <trkpt lat="48.53754" lon="2.15094">
        <ele>140.278731</ele>
        <time>2013-06-15T11:38:11Z</time>
      </trkpt>
      <trkpt lat="48.53754" lon="2.15094">
        <ele>140.278731</ele>
        <time>2013-06-15T11:38:16Z</time>
      </trkpt>
      <trkpt lat="48.53754" lon="2.15094">
        <ele>140.278731</ele>
        <time>2013-06-15T11:38:21Z</time>
      </trkpt>
      <trkpt lat="48.53754" lon="2.15094">
        <ele>140.278731</ele>
        <time>2013-06-15T11:38:26Z</time>
      </trkpt>
      <trkpt lat="48.53754" lon="2.15094">
        <ele>140.278731</ele>
        <time>2013-06-15T11:38:31Z</time>
      </trkpt>
      <trkpt lat="48.53754" lon="2.15094">
        <ele>140.278731</ele>
        <time>2013-06-15T11:38:36Z</time>
      </trkpt>
      <trkpt lat="48.53754" lon="2.15094">
        <ele>140.278731</ele>
        <time>2013-06-15T11:38:41Z</time>
      </trkpt>
      <trkpt lat="48.53754" lon="2.15094">
        <ele>140.278731</ele>
        <time>2013-06-15T11:38:46Z</time>
      </trkpt>
      <trkpt lat="48.53754" lon="2.15092">
        <ele>140.25388</ele>
        <time>2013-06-15T11:38:51Z</time>
      </trkpt>
      <trkpt lat="48.53754" lon="2.15092">
        <ele>140.25388</ele>
        <time>2013-06-15T11:38:56Z</time>
      </trkpt>
      <trkpt lat="48.53754" lon="2.15092">
        <ele>140.25388</ele>
        <time>2013-06-15T11:39:01Z</time>
      </trkpt>
      <trkpt lat="48.53754" lon="2.15092">
        <ele>140.25388</ele>
        <time>2013-06-15T11:39:06Z</time>
      </trkpt>
      <trkpt lat="48.53754" lon="2.15092">
        <ele>139.504491</ele>
        <time>2013-06-15T11:39:11Z</time>
      </trkpt>
      <trkpt lat="48.53754" lon="2.15092">
        <ele>139.504491</ele>
        <time>2013-06-15T11:39:16Z</time>
      </trkpt>
      <trkpt lat="48.53754" lon="2.15092">
        <ele>139.504491</ele>
        <time>2013-06-15T11:39:21Z</time>
      </trkpt>
      <trkpt lat="48.53754" lon="2.15092">
        <ele>139.504491</ele>
        <time>2013-06-15T11:39:26Z</time>
      </trkpt>
      <trkpt lat="48.53754" lon="2.15092">
        <ele>139.504491</ele>
        <time>2013-06-15T11:39:31Z</time>
      </trkpt>
      <trkpt lat="48.53754" lon="2.15092">
        <ele>139.504491</ele>
        <time>2013-06-15T11:39:36Z</time>
      </trkpt>
      <trkpt lat="48.53754" lon="2.15092">
        <ele>139.504491</ele>
        <time>2013-06-15T11:39:41Z</time>
      </trkpt>
      <trkpt lat="48.53754" lon="2.15092">
        <ele>139.504491</ele>
        <time>2013-06-15T11:39:46Z</time>
      </trkpt>
      <trkpt lat="48.53754" lon="2.15092">
        <ele>139.504491</ele>
        <time>2013-06-15T11:39:51Z</time>
      </trkpt>
      <trkpt lat="48.53754" lon="2.15092">
        <ele>139.504491</ele>
        <time>2013-06-15T11:39:56Z</time>
      </trkpt>
      <trkpt lat="48.53754" lon="2.15092">
        <ele>139.504491</ele>
        <time>2013-06-15T11:40:01Z</time>
      </trkpt>
      <trkpt lat="48.53754" lon="2.15092">
        <ele>139.504491</ele>
        <time>2013-06-15T11:40:06Z</time>
      </trkpt>
      <trkpt lat="48.53754" lon="2.15092">
        <ele>139.504491</ele>
        <time>2013-06-15T11:40:11Z</time>
      </trkpt>
      <trkpt lat="48.53754" lon="2.15092">
        <ele>139.504491</ele>
        <time>2013-06-15T11:40:16Z</time>
      </trkpt>
      <trkpt lat="48.53754" lon="2.15092">
        <ele>139.504491</ele>
        <time>2013-06-15T11:40:21Z</time>
      </trkpt>
      <trkpt lat="48.53754" lon="2.15092">
        <ele>139.504491</ele>
        <time>2013-06-15T11:40:26Z</time>
      </trkpt>
      <trkpt lat="48.53754" lon="2.15092">
        <ele>139.504491</ele>
        <time>2013-06-15T11:40:31Z</time>
      </trkpt>
      <trkpt lat="48.53754" lon="2.15092">
        <ele>139.504491</ele>
        <time>2013-06-15T11:40:36Z</time>
      </trkpt>
      <trkpt lat="48.53754" lon="2.15092">
        <ele>139.504491</ele>
        <time>2013-06-15T11:40:41Z</time>
      </trkpt>
      <trkpt lat="48.53754" lon="2.15092">
        <ele>139.504491</ele>
        <time>2013-06-15T11:40:46Z</time>
      </trkpt>
      <trkpt lat="48.53754" lon="2.15092">
        <ele>139.504491</ele>
        <time>2013-06-15T11:40:51Z</time>
      </trkpt>
      <trkpt lat="48.53754" lon="2.15092">
        <ele>139.504491</ele>
        <time>2013-06-15T11:40:56Z</time>
      </trkpt>
      <trkpt lat="48.53754" lon="2.15092">
        <ele>139.504491</ele>
        <time>2013-06-15T11:41:01Z</time>
      </trkpt>
      <trkpt lat="48.53754" lon="2.15092">
        <ele>139.504491</ele>
        <time>2013-06-15T11:41:06Z</time>
      </trkpt>
      <trkpt lat="48.53754" lon="2.15092">
        <ele>139.504491</ele>
        <time>2013-06-15T11:41:11Z</time>
      </trkpt>
      <trkpt lat="48.53754" lon="2.15092">
        <ele>139.504491</ele>
        <time>2013-06-15T11:41:16Z</time>
      </trkpt>
      <trkpt lat="48.53754" lon="2.15092">
        <ele>139.504491</ele>
        <time>2013-06-15T11:41:21Z</time>
      </trkpt>
      <trkpt lat="48.53754" lon="2.15092">
        <ele>139.504491</ele>
        <time>2013-06-15T11:41:26Z</time>
      </trkpt>
      <trkpt lat="48.53754" lon="2.15092">
        <ele>139.504491</ele>
        <time>2013-06-15T11:41:31Z</time>
      </trkpt>
      <trkpt lat="48.53754" lon="2.15092">
        <ele>139.504491</ele>
        <time>2013-06-15T11:41:36Z</time>
      </trkpt>
      <trkpt lat="48.53754" lon="2.15092">
        <ele>139.504491</ele>
        <time>2013-06-15T11:41:41Z</time>
      </trkpt>
      <trkpt lat="48.53754" lon="2.15092">
        <ele>139.504491</ele>
        <time>2013-06-15T11:41:46Z</time>
      </trkpt>
      <trkpt lat="48.53754" lon="2.15092">
        <ele>139.504491</ele>
        <time>2013-06-15T11:41:51Z</time>
      </trkpt>
      <trkpt lat="48.53754" lon="2.15092">
        <ele>139.504491</ele>
        <time>2013-06-15T11:41:56Z</time>
      </trkpt>
      <trkpt lat="48.53754" lon="2.15092">
        <ele>139.504491</ele>
        <time>2013-06-15T11:42:01Z</time>
      </trkpt>
      <trkpt lat="48.53754" lon="2.15092">
        <ele>139.504491</ele>
        <time>2013-06-15T11:42:06Z</time>
      </trkpt>
      <trkpt lat="48.53754" lon="2.15092">
        <ele>139.504491</ele>
        <time>2013-06-15T11:42:11Z</time>
      </trkpt>
      <trkpt lat="48.53754" lon="2.15092">
        <ele>139.504491</ele>
        <time>2013-06-15T11:42:16Z</time>
      </trkpt>
      <trkpt lat="48.53754" lon="2.15092">
        <ele>139.504491</ele>
        <time>2013-06-15T11:42:21Z</time>
      </trkpt>
      <trkpt lat="48.53754" lon="2.15092">
        <ele>139.504491</ele>
        <time>2013-06-15T11:42:26Z</time>
      </trkpt>
      <trkpt lat="48.53754" lon="2.15092">
        <ele>139.504491</ele>
        <time>2013-06-15T11:42:31Z</time>
      </trkpt>
      <trkpt lat="48.53754" lon="2.15092">
        <ele>139.504491</ele>
        <time>2013-06-15T11:42:36Z</time>
      </trkpt>
      <trkpt lat="48.53754" lon="2.15092">
        <ele>139.504491</ele>
        <time>2013-06-15T11:42:41Z</time>
      </trkpt>
      <trkpt lat="48.53754" lon="2.15092">
        <ele>139.504491</ele>
        <time>2013-06-15T11:42:46Z</time>
      </trkpt>
      <trkpt lat="48.53754" lon="2.15092">
        <ele>139.504491</ele>
        <time>2013-06-15T11:42:51Z</time>
      </trkpt>
      <trkpt lat="48.53754" lon="2.15092">
        <ele>139.504491</ele>
        <time>2013-06-15T11:42:56Z</time>
      </trkpt>
      <trkpt lat="48.53754" lon="2.15092">
        <ele>139.504491</ele>
        <time>2013-06-15T11:43:01Z</time>
      </trkpt>
      <trkpt lat="48.53754" lon="2.15091">
        <ele>138.817977</ele>
        <time>2013-06-15T11:43:06Z</time>
      </trkpt>
      <trkpt lat="48.53754" lon="2.15091">
        <ele>139.47964</ele>
        <time>2013-06-15T11:43:11Z</time>
      </trkpt>
      <trkpt lat="48.53754" lon="2.15091">
        <ele>139.47964</ele>
        <time>2013-06-15T11:43:16Z</time>
      </trkpt>
      <trkpt lat="48.53754" lon="2.15091">
        <ele>140.22903</ele>
        <time>2013-06-15T11:43:21Z</time>
      </trkpt>
      <trkpt lat="48.53755" lon="2.15091">
        <ele>140.978419</ele>
        <time>2013-06-15T11:43:26Z</time>
      </trkpt>
      <trkpt lat="48.53756" lon="2.15091">
        <ele>141.727809</ele>
        <time>2013-06-15T11:43:31Z</time>
      </trkpt>
      <trkpt lat="48.53754" lon="2.1509">
        <ele>142.276894</ele>
        <time>2013-06-15T11:43:36Z</time>
      </trkpt>
      <trkpt lat="48.53754" lon="2.15092">
        <ele>142.326595</ele>
        <time>2013-06-15T11:43:41Z</time>
      </trkpt>
      <trkpt lat="48.53754" lon="2.15091">
        <ele>141.640082</ele>
        <time>2013-06-15T11:43:46Z</time>
      </trkpt>
      <trkpt lat="48.53754" lon="2.15091">
        <ele>141.640082</ele>
        <time>2013-06-15T11:43:51Z</time>
      </trkpt>
      <trkpt lat="48.53754" lon="2.1509">
        <ele>141.615231</ele>
        <time>2013-06-15T11:43:56Z</time>
      </trkpt>
      <trkpt lat="48.53754" lon="2.1509">
        <ele>141.615231</ele>
        <time>2013-06-15T11:44:01Z</time>
      </trkpt>
      <trkpt lat="48.53754" lon="2.1509">
        <ele>142.276894</ele>
        <time>2013-06-15T11:44:06Z</time>
      </trkpt>
      <trkpt lat="48.53753" lon="2.15089">
        <ele>142.938557</ele>
        <time>2013-06-15T11:44:11Z</time>
      </trkpt>
      <trkpt lat="48.53754" lon="2.15089">
        <ele>143.687946</ele>
        <time>2013-06-15T11:44:16Z</time>
      </trkpt>
      <trkpt lat="48.53754" lon="2.15088">
        <ele>143.663096</ele>
        <time>2013-06-15T11:44:21Z</time>
      </trkpt>
      <trkpt lat="48.53754" lon="2.15088">
        <ele>143.663096</ele>
        <time>2013-06-15T11:44:26Z</time>
      </trkpt>
      <trkpt lat="48.53754" lon="2.15088">
        <ele>143.663096</ele>
        <time>2013-06-15T11:44:31Z</time>
      </trkpt>
      <trkpt lat="48.53754" lon="2.15088">
        <ele>143.663096</ele>
        <time>2013-06-15T11:44:36Z</time>
      </trkpt>
      <trkpt lat="48.53754" lon="2.15088">
        <ele>143.663096</ele>
        <time>2013-06-15T11:44:41Z</time>
      </trkpt>
      <trkpt lat="48.53754" lon="2.15088">
        <ele>143.663096</ele>
        <time>2013-06-15T11:44:46Z</time>
      </trkpt>
      <trkpt lat="48.53754" lon="2.15088">
        <ele>143.663096</ele>
        <time>2013-06-15T11:44:51Z</time>
      </trkpt>
      <trkpt lat="48.53754" lon="2.15088">
        <ele>143.663096</ele>
        <time>2013-06-15T11:44:56Z</time>
      </trkpt>
      <trkpt lat="48.53754" lon="2.15088">
        <ele>143.663096</ele>
        <time>2013-06-15T11:45:01Z</time>
      </trkpt>
      <trkpt lat="48.53754" lon="2.15088">
        <ele>143.663096</ele>
        <time>2013-06-15T11:45:06Z</time>
      </trkpt>
      <trkpt lat="48.53754" lon="2.15088">
        <ele>143.663096</ele>
        <time>2013-06-15T11:45:11Z</time>
      </trkpt>
      <trkpt lat="48.53754" lon="2.15089">
        <ele>143.687946</ele>
        <time>2013-06-15T11:45:16Z</time>
      </trkpt>
      <trkpt lat="48.53754" lon="2.15088">
        <ele>143.663096</ele>
        <time>2013-06-15T11:45:21Z</time>
      </trkpt>
      <trkpt lat="48.53754" lon="2.15088">
        <ele>143.001433</ele>
        <time>2013-06-15T11:45:26Z</time>
      </trkpt>
      <trkpt lat="48.53755" lon="2.1509">
        <ele>142.364621</ele>
        <time>2013-06-15T11:45:31Z</time>
      </trkpt>
      <trkpt lat="48.53756" lon="2.15094">
        <ele>141.777511</ele>
        <time>2013-06-15T11:45:36Z</time>
      </trkpt>
      <trkpt lat="48.53756" lon="2.15096">
        <ele>142.576603</ele>
        <time>2013-06-15T11:45:41Z</time>
      </trkpt>
      <trkpt lat="48.53759" lon="2.15098">
        <ele>143.526301</ele>
        <time>2013-06-15T11:45:46Z</time>
      </trkpt>
      <trkpt lat="48.53758" lon="2.15103">
        <ele>144.28737</ele>
        <time>2013-06-15T11:45:51Z</time>
      </trkpt>
      <trkpt lat="48.53758" lon="2.1511">
        <ele>144.411633</ele>
        <time>2013-06-15T11:45:56Z</time>
      </trkpt>
      <trkpt lat="48.53755" lon="2.15117">
        <ele>145.022107</ele>
        <time>2013-06-15T11:46:01Z</time>
      </trkpt>
      <trkpt lat="48.53755" lon="2.15122">
        <ele>145.870913</ele>
        <time>2013-06-15T11:46:06Z</time>
      </trkpt>
      <trkpt lat="48.53753" lon="2.15127">
        <ele>145.794877</ele>
        <time>2013-06-15T11:46:11Z</time>
      </trkpt>
      <trkpt lat="48.5375" lon="2.15134">
        <ele>144.332649</ele>
        <time>2013-06-15T11:46:16Z</time>
      </trkpt>
      <trkpt lat="48.5375" lon="2.15138">
        <ele>147.229321</ele>
        <time>2013-06-15T11:46:21Z</time>
      </trkpt>
      <trkpt lat="48.53749" lon="2.15139">
        <ele>147.166452</ele>
        <time>2013-06-15T11:46:26Z</time>
      </trkpt>
      <trkpt lat="48.53751" lon="2.15138">
        <ele>146.567658</ele>
        <time>2013-06-15T11:46:31Z</time>
      </trkpt>
      <trkpt lat="48.53753" lon="2.15142">
        <ele>145.406629</ele>
        <time>2013-06-15T11:46:36Z</time>
      </trkpt>
      <trkpt lat="48.53756" lon="2.15146">
        <ele>146.406044</ele>
        <time>2013-06-15T11:46:41Z</time>
      </trkpt>
      <trkpt lat="48.53758" lon="2.15149">
        <ele>147.292877</ele>
        <time>2013-06-15T11:46:46Z</time>
      </trkpt>
      <trkpt lat="48.5376" lon="2.15149">
        <ele>146.718944</ele>
        <time>2013-06-15T11:46:51Z</time>
      </trkpt>
      <trkpt lat="48.53763" lon="2.15149">
        <ele>146.894402</ele>
        <time>2013-06-15T11:46:56Z</time>
      </trkpt>
      <trkpt lat="48.53764" lon="2.15151">
        <ele>147.75638</ele>
        <time>2013-06-15T11:47:01Z</time>
      </trkpt>
      <trkpt lat="48.53765" lon="2.15155">
        <ele>148.580344</ele>
        <time>2013-06-15T11:47:06Z</time>
      </trkpt>
      <trkpt lat="48.53769" lon="2.15156">
        <ele>148.868394</ele>
        <time>2013-06-15T11:47:11Z</time>
      </trkpt>
      <trkpt lat="48.53769" lon="2.1516">
        <ele>148.942969</ele>
        <time>2013-06-15T11:47:16Z</time>
      </trkpt>
      <trkpt lat="48.53765" lon="2.15164">
        <ele>150.165407</ele>
        <time>2013-06-15T11:47:21Z</time>
      </trkpt>
      <trkpt lat="48.53763" lon="2.1517">
        <ele>150.177115</ele>
        <time>2013-06-15T11:47:26Z</time>
      </trkpt>
      <trkpt lat="48.53761" lon="2.15178">
        <ele>149.489157</ele>
        <time>2013-06-15T11:47:31Z</time>
      </trkpt>
      <trkpt lat="48.53759" lon="2.15184">
        <ele>150.187395</ele>
        <time>2013-06-15T11:47:36Z</time>
      </trkpt>
      <trkpt lat="48.53758" lon="2.15194">
        <ele>149.61204</ele>
        <time>2013-06-15T11:47:41Z</time>
      </trkpt>
      <trkpt lat="48.53762" lon="2.15203">
        <ele>148.638217</ele>
        <time>2013-06-15T11:47:46Z</time>
      </trkpt>
      <trkpt lat="48.53763" lon="2.15212">
        <ele>148.875132</ele>
        <time>2013-06-15T11:47:51Z</time>
      </trkpt>
      <trkpt lat="48.53761" lon="2.15218">
        <ele>149.573389</ele>
        <time>2013-06-15T11:47:56Z</time>
      </trkpt>
      <trkpt lat="48.5376" lon="2.15225">
        <ele>148.948328</ele>
        <time>2013-06-15T11:48:01Z</time>
      </trkpt>
      <trkpt lat="48.53758" lon="2.15228">
        <ele>149.571993</ele>
        <time>2013-06-15T11:48:06Z</time>
      </trkpt>
      <trkpt lat="48.53757" lon="2.15232">
        <ele>149.558865</ele>
        <time>2013-06-15T11:48:11Z</time>
      </trkpt>
      <trkpt lat="48.53755" lon="2.15236">
        <ele>148.046959</ele>
        <time>2013-06-15T11:48:16Z</time>
      </trkpt>
      <trkpt lat="48.53751" lon="2.1524">
        <ele>147.196718</ele>
        <time>2013-06-15T11:48:21Z</time>
      </trkpt>
      <trkpt lat="48.53749" lon="2.15244">
        <ele>147.845258</ele>
        <time>2013-06-15T11:48:26Z</time>
      </trkpt>
      <trkpt lat="48.53747" lon="2.15249">
        <ele>146.358229</ele>
        <time>2013-06-15T11:48:31Z</time>
      </trkpt>
      <trkpt lat="48.53744" lon="2.15258">
        <ele>144.945813</ele>
        <time>2013-06-15T11:48:36Z</time>
      </trkpt>
      <trkpt lat="48.53744" lon="2.15265">
        <ele>143.659114</ele>
        <time>2013-06-15T11:48:41Z</time>
      </trkpt>
      <trkpt lat="48.53745" lon="2.15273">
        <ele>143.14668</ele>
        <time>2013-06-15T11:48:46Z</time>
      </trkpt>
      <trkpt lat="48.53743" lon="2.15276">
        <ele>142.35931</ele>
        <time>2013-06-15T11:48:51Z</time>
      </trkpt>
      <trkpt lat="48.5374" lon="2.15275">
        <ele>140.747937</ele>
        <time>2013-06-15T11:48:56Z</time>
      </trkpt>
      <trkpt lat="48.53736" lon="2.15276">
        <ele>140.509637</ele>
        <time>2013-06-15T11:49:01Z</time>
      </trkpt>
      <trkpt lat="48.53734" lon="2.15276">
        <ele>141.083578</ele>
        <time>2013-06-15T11:49:06Z</time>
      </trkpt>
      <trkpt lat="48.53732" lon="2.15272">
        <ele>140.833517</ele>
        <time>2013-06-15T11:49:11Z</time>
      </trkpt>
      <trkpt lat="48.53729" lon="2.15266">
        <ele>139.8092</ele>
        <time>2013-06-15T11:49:16Z</time>
      </trkpt>
      <trkpt lat="48.53729" lon="2.15258">
        <ele>138.910589</ele>
        <time>2013-06-15T11:49:21Z</time>
      </trkpt>
      <trkpt lat="48.53729" lon="2.15253">
        <ele>138.149444</ele>
        <time>2013-06-15T11:49:26Z</time>
      </trkpt>
      <trkpt lat="48.5373" lon="2.15246">
        <ele>136.614046</ele>
        <time>2013-06-15T11:49:32Z</time>
      </trkpt>
      <trkpt lat="48.53731" lon="2.15242">
        <ele>137.37655</ele>
        <time>2013-06-15T11:49:37Z</time>
      </trkpt>
      <trkpt lat="48.53734" lon="2.15242">
        <ele>136.140942</ele>
        <time>2013-06-15T11:49:42Z</time>
      </trkpt>
      <trkpt lat="48.53737" lon="2.15244">
        <ele>134.268541</ele>
        <time>2013-06-15T11:49:47Z</time>
      </trkpt>
      <trkpt lat="48.53739" lon="2.15245">
        <ele>135.130521</ele>
        <time>2013-06-15T11:49:52Z</time>
      </trkpt>
      <trkpt lat="48.53739" lon="2.15244">
        <ele>136.516704</ele>
        <time>2013-06-15T11:49:57Z</time>
      </trkpt>
      <trkpt lat="48.53738" lon="2.15244">
        <ele>136.42898</ele>
        <time>2013-06-15T11:50:02Z</time>
      </trkpt>
      <trkpt lat="48.53736" lon="2.15239">
        <ele>136.928316</ele>
        <time>2013-06-15T11:50:07Z</time>
      </trkpt>
      <trkpt lat="48.53736" lon="2.15235">
        <ele>136.853713</ele>
        <time>2013-06-15T11:50:12Z</time>
      </trkpt>
      <trkpt lat="48.53735" lon="2.15233">
        <ele>138.127307</ele>
        <time>2013-06-15T11:50:17Z</time>
      </trkpt>
      <trkpt lat="48.53735" lon="2.15228">
        <ele>138.802094</ele>
        <time>2013-06-15T11:50:22Z</time>
      </trkpt>
      <trkpt lat="48.53735" lon="2.15223">
        <ele>139.364293</ele>
        <time>2013-06-15T11:50:27Z</time>
      </trkpt>
      <trkpt lat="48.53734" lon="2.15219">
        <ele>139.95136</ele>
        <time>2013-06-15T11:50:32Z</time>
      </trkpt>
      <trkpt lat="48.53736" lon="2.15211">
        <ele>139.889891</ele>
        <time>2013-06-15T11:50:37Z</time>
      </trkpt>
      <trkpt lat="48.53737" lon="2.15205">
        <ele>141.289209</ele>
        <time>2013-06-15T11:50:42Z</time>
      </trkpt>
      <trkpt lat="48.53738" lon="2.152">
        <ele>143.350194</ele>
        <time>2013-06-15T11:50:47Z</time>
      </trkpt>
      <trkpt lat="48.53738" lon="2.15194">
        <ele>145.411182</ele>
        <time>2013-06-15T11:50:52Z</time>
      </trkpt>
      <trkpt lat="48.53739" lon="2.1519">
        <ele>146.085982</ele>
        <time>2013-06-15T11:50:57Z</time>
      </trkpt>
      <trkpt lat="48.53739" lon="2.15189">
        <ele>144.650067</ele>
        <time>2013-06-15T11:51:02Z</time>
      </trkpt>
      <trkpt lat="48.53739" lon="2.15189">
        <ele>144.650067</ele>
        <time>2013-06-15T11:51:07Z</time>
      </trkpt>
      <trkpt lat="48.53738" lon="2.15182">
        <ele>145.187422</ele>
        <time>2013-06-15T11:51:12Z</time>
      </trkpt>
      <trkpt lat="48.53739" lon="2.15173">
        <ele>144.351732</ele>
        <time>2013-06-15T11:51:17Z</time>
      </trkpt>
      <trkpt lat="48.53738" lon="2.15169">
        <ele>144.189428</ele>
        <time>2013-06-15T11:51:22Z</time>
      </trkpt>
      <trkpt lat="48.53738" lon="2.15167">
        <ele>144.164569</ele>
        <time>2013-06-15T11:51:27Z</time>
      </trkpt>
      <trkpt lat="48.53737" lon="2.15166">
        <ele>144.051986</ele>
        <time>2013-06-15T11:51:32Z</time>
      </trkpt>
      <trkpt lat="48.53737" lon="2.15162">
        <ele>145.38846</ele>
        <time>2013-06-15T11:51:37Z</time>
      </trkpt>
      <trkpt lat="48.53737" lon="2.15156">
        <ele>148.11113</ele>
        <time>2013-06-15T11:51:42Z</time>
      </trkpt>
      <trkpt lat="48.53738" lon="2.15151">
        <ele>147.350033</ele>
        <time>2013-06-15T11:51:47Z</time>
      </trkpt>
      <trkpt lat="48.53738" lon="2.15144">
        <ele>147.225746</ele>
        <time>2013-06-15T11:51:52Z</time>
      </trkpt>
      <trkpt lat="48.53738" lon="2.1514">
        <ele>147.900563</ele>
        <time>2013-06-15T11:51:57Z</time>
      </trkpt>
      <trkpt lat="48.53738" lon="2.15133">
        <ele>149.848999</ele>
        <time>2013-06-15T11:52:02Z</time>
      </trkpt>
      <trkpt lat="48.53738" lon="2.15128">
        <ele>149.749578</ele>
        <time>2013-06-15T11:52:07Z</time>
      </trkpt>
      <trkpt lat="48.53739" lon="2.15121">
        <ele>150.374692</ele>
        <time>2013-06-15T11:52:12Z</time>
      </trkpt>
      <trkpt lat="48.53741" lon="2.15114">
        <ele>149.676481</ele>
        <time>2013-06-15T11:52:17Z</time>
      </trkpt>
      <trkpt lat="48.53742" lon="2.15108">
        <ele>146.817834</ele>
        <time>2013-06-15T11:52:22Z</time>
      </trkpt>
      <trkpt lat="48.53742" lon="2.15108">
        <ele>146.817834</ele>
        <time>2013-06-15T11:52:27Z</time>
      </trkpt>
      <trkpt lat="48.53742" lon="2.15108">
        <ele>146.817834</ele>
        <time>2013-06-15T11:52:32Z</time>
      </trkpt>
      <trkpt lat="48.53742" lon="2.15108">
        <ele>146.817834</ele>
        <time>2013-06-15T11:52:37Z</time>
      </trkpt>
      <trkpt lat="48.53742" lon="2.15107">
        <ele>145.381929</ele>
        <time>2013-06-15T11:52:42Z</time>
      </trkpt>
      <trkpt lat="48.53742" lon="2.15107">
        <ele>145.381929</ele>
        <time>2013-06-15T11:52:47Z</time>
      </trkpt>
      <trkpt lat="48.53742" lon="2.15107">
        <ele>145.381929</ele>
        <time>2013-06-15T11:52:52Z</time>
      </trkpt>
      <trkpt lat="48.53742" lon="2.15107">
        <ele>145.381929</ele>
        <time>2013-06-15T11:52:57Z</time>
      </trkpt>
      <trkpt lat="48.53742" lon="2.15107">
        <ele>145.381929</ele>
        <time>2013-06-15T11:53:02Z</time>
      </trkpt>
      <trkpt lat="48.53744" lon="2.15105">
        <ele>144.033748</ele>
        <time>2013-06-15T11:53:07Z</time>
      </trkpt>
      <trkpt lat="48.53744" lon="2.15104">
        <ele>142.597843</ele>
        <time>2013-06-15T11:53:12Z</time>
      </trkpt>
      <trkpt lat="48.53745" lon="2.15101">
        <ele>141.886475</ele>
        <time>2013-06-15T11:53:17Z</time>
      </trkpt>
      <trkpt lat="48.53744" lon="2.15103">
        <ele>141.911327</ele>
        <time>2013-06-15T11:53:22Z</time>
      </trkpt>
      <trkpt lat="48.53741" lon="2.15103">
        <ele>141.648154</ele>
        <time>2013-06-15T11:53:27Z</time>
      </trkpt>
      <trkpt lat="48.53738" lon="2.151">
        <ele>141.423003</ele>
        <time>2013-06-15T11:53:32Z</time>
      </trkpt>
      <trkpt lat="48.53736" lon="2.15098">
        <ele>141.222706</ele>
        <time>2013-06-15T11:53:37Z</time>
      </trkpt>
      <trkpt lat="48.53732" lon="2.15098">
        <ele>139.548487</ele>
        <time>2013-06-15T11:53:42Z</time>
      </trkpt>
      <trkpt lat="48.53729" lon="2.15098">
        <ele>139.373044</ele>
        <time>2013-06-15T11:53:47Z</time>
      </trkpt>
      <trkpt lat="48.53726" lon="2.15095">
        <ele>139.06018</ele>
        <time>2013-06-15T11:53:52Z</time>
      </trkpt>
      <trkpt lat="48.53724" lon="2.15094">
        <ele>138.947609</ele>
        <time>2013-06-15T11:53:57Z</time>
      </trkpt>
      <trkpt lat="48.53724" lon="2.1509">
        <ele>140.284108</ele>
        <time>2013-06-15T11:54:02Z</time>
      </trkpt>
      <trkpt lat="48.53725" lon="2.1509">
        <ele>138.873055</ele>
        <time>2013-06-15T11:54:07Z</time>
      </trkpt>
      <trkpt lat="48.53725" lon="2.15093">
        <ele>137.511705</ele>
        <time>2013-06-15T11:54:12Z</time>
      </trkpt>
      <trkpt lat="48.53725" lon="2.15094">
        <ele>137.536556</ele>
        <time>2013-06-15T11:54:17Z</time>
      </trkpt>
      <trkpt lat="48.53723" lon="2.15095">
        <ele>137.473687</ele>
        <time>2013-06-15T11:54:22Z</time>
      </trkpt>
      <trkpt lat="48.53722" lon="2.15092">
        <ele>140.158371</ele>
        <time>2013-06-15T11:54:27Z</time>
      </trkpt>
      <trkpt lat="48.53721" lon="2.15091">
        <ele>142.20624</ele>
        <time>2013-06-15T11:54:32Z</time>
      </trkpt>
      <trkpt lat="48.53721" lon="2.15091">
        <ele>142.20624</ele>
        <time>2013-06-15T11:54:37Z</time>
      </trkpt>
      <trkpt lat="48.5372" lon="2.15091">
        <ele>142.867907</ele>
        <time>2013-06-15T11:54:42Z</time>
      </trkpt>
      <trkpt lat="48.5372" lon="2.15091">
        <ele>142.867907</ele>
        <time>2013-06-15T11:54:47Z</time>
      </trkpt>
      <trkpt lat="48.5372" lon="2.15089">
        <ele>142.843056</ele>
        <time>2013-06-15T11:54:52Z</time>
      </trkpt>
      <trkpt lat="48.5372" lon="2.15089">
        <ele>142.843056</ele>
        <time>2013-06-15T11:54:57Z</time>
      </trkpt>
      <trkpt lat="48.5372" lon="2.15089">
        <ele>142.843056</ele>
        <time>2013-06-15T11:55:02Z</time>
      </trkpt>
      <trkpt lat="48.5372" lon="2.15089">
        <ele>142.843056</ele>
        <time>2013-06-15T11:55:07Z</time>
      </trkpt>
      <trkpt lat="48.5372" lon="2.15093">
        <ele>143.579276</ele>
        <time>2013-06-15T11:55:12Z</time>
      </trkpt>
      <trkpt lat="48.53719" lon="2.15102">
        <ele>142.979001</ele>
        <time>2013-06-15T11:55:17Z</time>
      </trkpt>
      <trkpt lat="48.53718" lon="2.15108">
        <ele>143.764931</ele>
        <time>2013-06-15T11:55:22Z</time>
      </trkpt>
      <trkpt lat="48.53717" lon="2.15116">
        <ele>143.164666</ele>
        <time>2013-06-15T11:55:27Z</time>
      </trkpt>
      <trkpt lat="48.53717" lon="2.15123">
        <ele>143.288938</ele>
        <time>2013-06-15T11:55:32Z</time>
      </trkpt>
      <trkpt lat="48.53717" lon="2.15129">
        <ele>143.388358</ele>
        <time>2013-06-15T11:55:37Z</time>
      </trkpt>
      <trkpt lat="48.53715" lon="2.15137">
        <ele>142.700389</ele>
        <time>2013-06-15T11:55:42Z</time>
      </trkpt>
      <trkpt lat="48.53713" lon="2.15145">
        <ele>142.012427</ele>
        <time>2013-06-15T11:55:47Z</time>
      </trkpt>
      <trkpt lat="48.53713" lon="2.15152">
        <ele>142.136715</ele>
        <time>2013-06-15T11:55:52Z</time>
      </trkpt>
      <trkpt lat="48.53712" lon="2.15158">
        <ele>142.922675</ele>
        <time>2013-06-15T11:55:57Z</time>
      </trkpt>
      <trkpt lat="48.53712" lon="2.15168">
        <ele>141.685637</ele>
        <time>2013-06-15T11:56:02Z</time>
      </trkpt>
      <trkpt lat="48.53712" lon="2.15173">
        <ele>141.785078</ele>
        <time>2013-06-15T11:56:07Z</time>
      </trkpt>
      <trkpt lat="48.53709" lon="2.1518">
        <ele>140.322896</ele>
        <time>2013-06-15T11:56:12Z</time>
      </trkpt>
      <trkpt lat="48.53707" lon="2.15188">
        <ele>142.457071</ele>
        <time>2013-06-15T11:56:17Z</time>
      </trkpt>
      <trkpt lat="48.53706" lon="2.15195">
        <ele>143.243053</ele>
        <time>2013-06-15T11:56:22Z</time>
      </trkpt>
      <trkpt lat="48.53704" lon="2.15201">
        <ele>142.53027</ele>
        <time>2013-06-15T11:56:27Z</time>
      </trkpt>
      <trkpt lat="48.53704" lon="2.15208">
        <ele>142.654591</ele>
        <time>2013-06-15T11:56:32Z</time>
      </trkpt>
      <trkpt lat="48.53703" lon="2.15215">
        <ele>142.6912</ele>
        <time>2013-06-15T11:56:37Z</time>
      </trkpt>
      <trkpt lat="48.53703" lon="2.15223">
        <ele>142.840395</ele>
        <time>2013-06-15T11:56:42Z</time>
      </trkpt>
      <trkpt lat="48.53703" lon="2.15231">
        <ele>142.327927</ele>
        <time>2013-06-15T11:56:47Z</time>
      </trkpt>
      <trkpt lat="48.53703" lon="2.15241">
        <ele>141.752617</ele>
        <time>2013-06-15T11:56:52Z</time>
      </trkpt>
      <trkpt lat="48.53702" lon="2.1525">
        <ele>141.177316</ele>
        <time>2013-06-15T11:56:57Z</time>
      </trkpt>
      <trkpt lat="48.53699" lon="2.15255">
        <ele>139.690313</ele>
        <time>2013-06-15T11:57:02Z</time>
      </trkpt>
      <trkpt lat="48.53699" lon="2.15257">
        <ele>138.9658</ele>
        <time>2013-06-15T11:57:07Z</time>
      </trkpt>
      <trkpt lat="48.53697" lon="2.15258">
        <ele>137.491904</ele>
        <time>2013-06-15T11:57:12Z</time>
      </trkpt>
      <trkpt lat="48.53696" lon="2.15259">
        <ele>137.42906</ele>
        <time>2013-06-15T11:57:17Z</time>
      </trkpt>
      <trkpt lat="48.53696" lon="2.15259">
        <ele>137.42906</ele>
        <time>2013-06-15T11:57:22Z</time>
      </trkpt>
      <trkpt lat="48.53695" lon="2.15263">
        <ele>137.415959</ele>
        <time>2013-06-15T11:57:27Z</time>
      </trkpt>
      <trkpt lat="48.53691" lon="2.15267">
        <ele>137.976817</ele>
        <time>2013-06-15T11:57:32Z</time>
      </trkpt>
      <trkpt lat="48.53691" lon="2.15269">
        <ele>138.001689</ele>
        <time>2013-06-15T11:57:37Z</time>
      </trkpt>
      <trkpt lat="48.53689" lon="2.15273">
        <ele>137.90088</ele>
        <time>2013-06-15T11:57:42Z</time>
      </trkpt>
      <trkpt lat="48.53683" lon="2.15275">
        <ele>136.850399</ele>
        <time>2013-06-15T11:57:47Z</time>
      </trkpt>
      <trkpt lat="48.53679" lon="2.15279">
        <ele>137.323559</ele>
        <time>2013-06-15T11:57:52Z</time>
      </trkpt>
      <trkpt lat="48.53676" lon="2.15283">
        <ele>138.633813</ele>
        <time>2013-06-15T11:57:57Z</time>
      </trkpt>
      <trkpt lat="48.53674" lon="2.15285">
        <ele>139.257524</ele>
        <time>2013-06-15T11:58:02Z</time>
      </trkpt>
      <trkpt lat="48.5367" lon="2.15289">
        <ele>139.069022</ele>
        <time>2013-06-15T11:58:07Z</time>
      </trkpt>
      <trkpt lat="48.53667" lon="2.15292">
        <ele>139.60503</ele>
        <time>2013-06-15T11:58:12Z</time>
      </trkpt>
      <trkpt lat="48.53664" lon="2.15297">
        <ele>139.529117</ele>
        <time>2013-06-15T11:58:17Z</time>
      </trkpt>
      <trkpt lat="48.53659" lon="2.15304">
        <ele>139.302674</ele>
        <time>2013-06-15T11:58:22Z</time>
      </trkpt>
      <trkpt lat="48.53652" lon="2.15312">
        <ele>140.424466</ele>
        <time>2013-06-15T11:58:27Z</time>
      </trkpt>
      <trkpt lat="48.53641" lon="2.15319">
        <ele>139.784416</ele>
        <time>2013-06-15T11:58:32Z</time>
      </trkpt>
      <trkpt lat="48.53633" lon="2.15322">
        <ele>139.307976</ele>
        <time>2013-06-15T11:58:37Z</time>
      </trkpt>
      <trkpt lat="48.53626" lon="2.15323">
        <ele>139.556046</ele>
        <time>2013-06-15T11:58:42Z</time>
      </trkpt>
      <trkpt lat="48.53624" lon="2.15316">
        <ele>140.667318</ele>
        <time>2013-06-15T11:58:47Z</time>
      </trkpt>
      <trkpt lat="48.53617" lon="2.15313">
        <ele>140.840768</ele>
        <time>2013-06-15T11:58:52Z</time>
      </trkpt>
      <trkpt lat="48.53613" lon="2.1531">
        <ele>141.277306</ele>
        <time>2013-06-15T11:58:57Z</time>
      </trkpt>
      <trkpt lat="48.53609" lon="2.15308">
        <ele>141.651031</ele>
        <time>2013-06-15T11:59:02Z</time>
      </trkpt>
      <trkpt lat="48.53605" lon="2.15303">
        <ele>141.950132</ele>
        <time>2013-06-15T11:59:07Z</time>
      </trkpt>
      <trkpt lat="48.53601" lon="2.15297">
        <ele>142.33693</ele>
        <time>2013-06-15T11:59:12Z</time>
      </trkpt>
      <trkpt lat="48.53596" lon="2.15294">
        <ele>141.93642</ele>
        <time>2013-06-15T11:59:17Z</time>
      </trkpt>
      <trkpt lat="48.5359" lon="2.15291">
        <ele>141.448229</ele>
        <time>2013-06-15T11:59:22Z</time>
      </trkpt>
      <trkpt lat="48.53584" lon="2.15288">
        <ele>141.709416</ele>
        <time>2013-06-15T11:59:27Z</time>
      </trkpt>
      <trkpt lat="48.53579" lon="2.15285">
        <ele>141.970611</ele>
        <time>2013-06-15T11:59:32Z</time>
      </trkpt>
      <trkpt lat="48.53572" lon="2.15284">
        <ele>142.918371</ele>
        <time>2013-06-15T11:59:37Z</time>
      </trkpt>
      <trkpt lat="48.53569" lon="2.15277">
        <ele>142.530956</ele>
        <time>2013-06-15T11:59:42Z</time>
      </trkpt>
      <trkpt lat="48.53567" lon="2.15273">
        <ele>143.030341</ele>
        <time>2013-06-15T11:59:47Z</time>
      </trkpt>
      <trkpt lat="48.53564" lon="2.15267">
        <ele>143.417176</ele>
        <time>2013-06-15T11:59:52Z</time>
      </trkpt>
      <trkpt lat="48.5356" lon="2.15263">
        <ele>143.079519</ele>
        <time>2013-06-15T11:59:57Z</time>
      </trkpt>
      <trkpt lat="48.53555" lon="2.15253">
        <ele>143.965759</ele>
        <time>2013-06-15T12:00:02Z</time>
      </trkpt>
      <trkpt lat="48.53551" lon="2.15246">
        <ele>142.829007</ele>
        <time>2013-06-15T12:00:07Z</time>
      </trkpt>
      <trkpt lat="48.53544" lon="2.15243">
        <ele>143.002573</ele>
        <time>2013-06-15T12:00:12Z</time>
      </trkpt>
      <trkpt lat="48.53537" lon="2.15239">
        <ele>141.740226</ele>
        <time>2013-06-15T12:00:17Z</time>
      </trkpt>
      <trkpt lat="48.53534" lon="2.15233">
        <ele>142.127094</ele>
        <time>2013-06-15T12:00:22Z</time>
      </trkpt>
      <trkpt lat="48.53532" lon="2.15224">
        <ele>142.527038</ele>
        <time>2013-06-15T12:00:27Z</time>
      </trkpt>
      <trkpt lat="48.53525" lon="2.15219">
        <ele>142.675768</ele>
        <time>2013-06-15T12:00:33Z</time>
      </trkpt>
      <trkpt lat="48.53521" lon="2.15214">
        <ele>142.31329</ele>
        <time>2013-06-15T12:00:38Z</time>
      </trkpt>
      <trkpt lat="48.53516" lon="2.1521">
        <ele>141.888014</ele>
        <time>2013-06-15T12:00:43Z</time>
      </trkpt>
      <trkpt lat="48.53511" lon="2.15205">
        <ele>142.124438</ele>
        <time>2013-06-15T12:00:48Z</time>
      </trkpt>
      <trkpt lat="48.53504" lon="2.15202">
        <ele>142.298069</ele>
        <time>2013-06-15T12:00:53Z</time>
      </trkpt>
      <trkpt lat="48.53499" lon="2.15193">
        <ele>141.773358</ele>
        <time>2013-06-15T12:00:58Z</time>
      </trkpt>
      <trkpt lat="48.53493" lon="2.15186">
        <ele>139.137969</ele>
        <time>2013-06-15T12:01:03Z</time>
      </trkpt>
      <trkpt lat="48.5349" lon="2.15184">
        <ele>138.850118</ele>
        <time>2013-06-15T12:01:08Z</time>
      </trkpt>
      <trkpt lat="48.53487" lon="2.15184">
        <ele>138.674794</ele>
        <time>2013-06-15T12:01:13Z</time>
      </trkpt>
      <trkpt lat="48.53487" lon="2.15185">
        <ele>137.288601</ele>
        <time>2013-06-15T12:01:18Z</time>
      </trkpt>
      <trkpt lat="48.53491" lon="2.15184">
        <ele>136.115669</ele>
        <time>2013-06-15T12:01:23Z</time>
      </trkpt>
      <trkpt lat="48.53493" lon="2.15178">
        <ele>136.828379</ele>
        <time>2013-06-15T12:01:28Z</time>
      </trkpt>
      <trkpt lat="48.53489" lon="2.15175">
        <ele>137.926723</ele>
        <time>2013-06-15T12:01:33Z</time>
      </trkpt>
      <trkpt lat="48.53487" lon="2.15173">
        <ele>137.726538</ele>
        <time>2013-06-15T12:01:38Z</time>
      </trkpt>
      <trkpt lat="48.53484" lon="2.15168">
        <ele>137.45177</ele>
        <time>2013-06-15T12:01:43Z</time>
      </trkpt>
      <trkpt lat="48.53481" lon="2.15161">
        <ele>137.813844</ele>
        <time>2013-06-15T12:01:48Z</time>
      </trkpt>
      <trkpt lat="48.53478" lon="2.15154">
        <ele>138.175924</ele>
        <time>2013-06-15T12:01:54Z</time>
      </trkpt>
      <trkpt lat="48.53476" lon="2.15146">
        <ele>139.262508</ele>
        <time>2013-06-15T12:01:59Z</time>
      </trkpt>
      <trkpt lat="48.53472" lon="2.15141">
        <ele>138.924959</ele>
        <time>2013-06-15T12:02:04Z</time>
      </trkpt>
      <trkpt lat="48.53471" lon="2.15131">
        <ele>137.227386</ele>
        <time>2013-06-15T12:02:09Z</time>
      </trkpt>
      <trkpt lat="48.53468" lon="2.15121">
        <ele>138.289135</ele>
        <time>2013-06-15T12:02:14Z</time>
      </trkpt>
      <trkpt lat="48.53466" lon="2.15114">
        <ele>137.989546</ele>
        <time>2013-06-15T12:02:19Z</time>
      </trkpt>
      <trkpt lat="48.53464" lon="2.15109">
        <ele>137.714816</ele>
        <time>2013-06-15T12:02:24Z</time>
      </trkpt>
      <trkpt lat="48.53462" lon="2.151">
        <ele>138.889094</ele>
        <time>2013-06-15T12:02:29Z</time>
      </trkpt>
      <trkpt lat="48.53461" lon="2.15092">
        <ele>138.652322</ele>
        <time>2013-06-15T12:02:34Z</time>
      </trkpt>
      <trkpt lat="48.5346" lon="2.15084">
        <ele>137.004499</ele>
        <time>2013-06-15T12:02:39Z</time>
      </trkpt>
      <trkpt lat="48.53458" lon="2.15083">
        <ele>136.142638</ele>
        <time>2013-06-15T12:02:44Z</time>
      </trkpt>
      <trkpt lat="48.53456" lon="2.15079">
        <ele>134.48172</ele>
        <time>2013-06-15T12:02:49Z</time>
      </trkpt>
      <trkpt lat="48.53455" lon="2.15072">
        <ele>135.01917</ele>
        <time>2013-06-15T12:02:54Z</time>
      </trkpt>
      <trkpt lat="48.53454" lon="2.15066">
        <ele>136.243175</ele>
        <time>2013-06-15T12:02:59Z</time>
      </trkpt>
      <trkpt lat="48.53454" lon="2.15063">
        <ele>135.444121</ele>
        <time>2013-06-15T12:03:04Z</time>
      </trkpt>
      <trkpt lat="48.53452" lon="2.15061">
        <ele>135.30677</ele>
        <time>2013-06-15T12:03:09Z</time>
      </trkpt>
      <trkpt lat="48.53449" lon="2.15057">
        <ele>135.718623</ele>
        <time>2013-06-15T12:03:14Z</time>
      </trkpt>
      <trkpt lat="48.53448" lon="2.15054">
        <ele>135.581275</ele>
        <time>2013-06-15T12:03:19Z</time>
      </trkpt>
      <trkpt lat="48.53445" lon="2.15048">
        <ele>138.128696</ele>
        <time>2013-06-15T12:03:24Z</time>
      </trkpt>
      <trkpt lat="48.53443" lon="2.15044">
        <ele>137.878854</ele>
        <time>2013-06-15T12:03:29Z</time>
      </trkpt>
      <trkpt lat="48.53441" lon="2.15038">
        <ele>138.353521</ele>
        <time>2013-06-15T12:03:34Z</time>
      </trkpt>
      <trkpt lat="48.53439" lon="2.15036">
        <ele>137.466826</ele>
        <time>2013-06-15T12:03:39Z</time>
      </trkpt>
      <trkpt lat="48.53438" lon="2.1503">
        <ele>136.530441</ele>
        <time>2013-06-15T12:03:44Z</time>
      </trkpt>
      <trkpt lat="48.53437" lon="2.15025">
        <ele>135.681708</ele>
        <time>2013-06-15T12:03:49Z</time>
      </trkpt>
      <trkpt lat="48.53435" lon="2.15015">
        <ele>136.081855</ele>
        <time>2013-06-15T12:03:54Z</time>
      </trkpt>
      <trkpt lat="48.53435" lon="2.15013">
        <ele>135.282815</ele>
        <time>2013-06-15T12:03:59Z</time>
      </trkpt>
      <trkpt lat="48.53434" lon="2.15006">
        <ele>132.248837</ele>
        <time>2013-06-15T12:04:04Z</time>
      </trkpt>
      <trkpt lat="48.53433" lon="2.15">
        <ele>130.650763</ele>
        <time>2013-06-15T12:04:09Z</time>
      </trkpt>
      <trkpt lat="48.5343" lon="2.14994">
        <ele>128.940204</ele>
        <time>2013-06-15T12:04:14Z</time>
      </trkpt>
      <trkpt lat="48.53428" lon="2.14987">
        <ele>125.818591</ele>
        <time>2013-06-15T12:04:19Z</time>
      </trkpt>
      <trkpt lat="48.53425" lon="2.14985">
        <ele>124.869107</ele>
        <time>2013-06-15T12:04:24Z</time>
      </trkpt>
      <trkpt lat="48.53422" lon="2.14981">
        <ele>123.869945</ele>
        <time>2013-06-15T12:04:29Z</time>
      </trkpt>
      <trkpt lat="48.53418" lon="2.14976">
        <ele>124.918713</ele>
        <time>2013-06-15T12:04:34Z</time>
      </trkpt>
      <trkpt lat="48.53415" lon="2.14973">
        <ele>123.195047</ele>
        <time>2013-06-15T12:04:39Z</time>
      </trkpt>
      <trkpt lat="48.53412" lon="2.14969">
        <ele>120.784838</ele>
        <time>2013-06-15T12:04:44Z</time>
      </trkpt>
      <trkpt lat="48.53408" lon="2.14966">
        <ele>119.061178</ele>
        <time>2013-06-15T12:04:49Z</time>
      </trkpt>
      <trkpt lat="48.53402" lon="2.14963">
        <ele>115.089474</ele>
        <time>2013-06-15T12:04:54Z</time>
      </trkpt>
      <trkpt lat="48.53397" lon="2.14959">
        <ele>113.253346</ele>
        <time>2013-06-15T12:04:59Z</time>
      </trkpt>
      <trkpt lat="48.53393" lon="2.14957">
        <ele>112.216247</ele>
        <time>2013-06-15T12:05:04Z</time>
      </trkpt>
      <trkpt lat="48.53391" lon="2.14953">
        <ele>111.304751</ele>
        <time>2013-06-15T12:05:09Z</time>
      </trkpt>
      <trkpt lat="48.53388" lon="2.14952">
        <ele>111.017004</ele>
        <time>2013-06-15T12:05:14Z</time>
      </trkpt>
      <trkpt lat="48.53384" lon="2.14949">
        <ele>110.704424</ele>
        <time>2013-06-15T12:05:19Z</time>
      </trkpt>
      <trkpt lat="48.53379" lon="2.14947">
        <ele>107.506933</ele>
        <time>2013-06-15T12:05:24Z</time>
      </trkpt>
      <trkpt lat="48.53375" lon="2.14947">
        <ele>107.244032</ele>
        <time>2013-06-15T12:05:29Z</time>
      </trkpt>
      <trkpt lat="48.53371" lon="2.14944">
        <ele>105.520403</ele>
        <time>2013-06-15T12:05:34Z</time>
      </trkpt>
      <trkpt lat="48.53368" lon="2.1494">
        <ele>104.521288</ele>
        <time>2013-06-15T12:05:39Z</time>
      </trkpt>
      <trkpt lat="48.53365" lon="2.14943">
        <ele>102.897007</ele>
        <time>2013-06-15T12:05:44Z</time>
      </trkpt>
      <trkpt lat="48.53357" lon="2.14945">
        <ele>101.009843</ele>
        <time>2013-06-15T12:05:49Z</time>
      </trkpt>
      <trkpt lat="48.53349" lon="2.14945">
        <ele>96.912615</ele>
        <time>2013-06-15T12:05:54Z</time>
      </trkpt>
      <trkpt lat="48.53342" lon="2.14946">
        <ele>94.338921</ele>
        <time>2013-06-15T12:05:59Z</time>
      </trkpt>
      <trkpt lat="48.53339" lon="2.14946">
        <ele>93.41433</ele>
        <time>2013-06-15T12:06:04Z</time>
      </trkpt>
      <trkpt lat="48.53333" lon="2.14945">
        <ele>91.540318</ele>
        <time>2013-06-15T12:06:09Z</time>
      </trkpt>
      <trkpt lat="48.53328" lon="2.14944">
        <ele>91.93917</ele>
        <time>2013-06-15T12:06:14Z</time>
      </trkpt>
      <trkpt lat="48.53324" lon="2.14943">
        <ele>90.902131</ele>
        <time>2013-06-15T12:06:19Z</time>
      </trkpt>
      <trkpt lat="48.53321" lon="2.14942">
        <ele>89.290995</ele>
        <time>2013-06-15T12:06:24Z</time>
      </trkpt>
      <trkpt lat="48.53315" lon="2.14943">
        <ele>90.288796</ele>
        <time>2013-06-15T12:06:29Z</time>
      </trkpt>
      <trkpt lat="48.53309" lon="2.14946">
        <ele>90.674555</ele>
        <time>2013-06-15T12:06:34Z</time>
      </trkpt>
      <trkpt lat="48.53308" lon="2.14948">
        <ele>91.361113</ele>
        <time>2013-06-15T12:06:39Z</time>
      </trkpt>
      <trkpt lat="48.53306" lon="2.14945">
        <ele>91.136207</ele>
        <time>2013-06-15T12:06:44Z</time>
      </trkpt>
      <trkpt lat="48.53303" lon="2.14941">
        <ele>91.548191</ele>
        <time>2013-06-15T12:06:49Z</time>
      </trkpt>
      <trkpt lat="48.53299" lon="2.14935">
        <ele>91.186005</ele>
        <time>2013-06-15T12:06:54Z</time>
      </trkpt>
      <trkpt lat="48.53295" lon="2.1493">
        <ele>90.823825</ele>
        <time>2013-06-15T12:06:59Z</time>
      </trkpt>
      <trkpt lat="48.53292" lon="2.14924">
        <ele>90.46165</ele>
        <time>2013-06-15T12:07:04Z</time>
      </trkpt>
      <trkpt lat="48.53288" lon="2.14918">
        <ele>90.09948</ele>
        <time>2013-06-15T12:07:09Z</time>
      </trkpt>
      <trkpt lat="48.53284" lon="2.14913">
        <ele>88.98798</ele>
        <time>2013-06-15T12:07:14Z</time>
      </trkpt>
      <trkpt lat="48.53279" lon="2.14907">
        <ele>89.287547</ele>
        <time>2013-06-15T12:07:19Z</time>
      </trkpt>
      <trkpt lat="48.53276" lon="2.14902">
        <ele>88.925394</ele>
        <time>2013-06-15T12:07:24Z</time>
      </trkpt>
      <trkpt lat="48.53272" lon="2.14897">
        <ele>88.588077</ele>
        <time>2013-06-15T12:07:29Z</time>
      </trkpt>
      <trkpt lat="48.53268" lon="2.14895">
        <ele>88.275595</ele>
        <time>2013-06-15T12:07:34Z</time>
      </trkpt>
      <trkpt lat="48.53264" lon="2.14901">
        <ele>86.725871</ele>
        <time>2013-06-15T12:07:39Z</time>
      </trkpt>
      <trkpt lat="48.53259" lon="2.14905">
        <ele>86.449945</ele>
        <time>2013-06-15T12:07:44Z</time>
      </trkpt>
      <trkpt lat="48.53257" lon="2.14906">
        <ele>84.888509</ele>
        <time>2013-06-15T12:07:49Z</time>
      </trkpt>
      <trkpt lat="48.53254" lon="2.1491">
        <ele>84.787798</ele>
        <time>2013-06-15T12:07:54Z</time>
      </trkpt>
      <trkpt lat="48.53249" lon="2.14916">
        <ele>83.87499</ele>
        <time>2013-06-15T12:07:59Z</time>
      </trkpt>
      <trkpt lat="48.53246" lon="2.14921">
        <ele>83.711518</ele>
        <time>2013-06-15T12:08:04Z</time>
      </trkpt>
      <trkpt lat="48.53241" lon="2.14926">
        <ele>84.209783</ele>
        <time>2013-06-15T12:08:09Z</time>
      </trkpt>
      <trkpt lat="48.53238" lon="2.14931">
        <ele>83.384592</ele>
        <time>2013-06-15T12:08:14Z</time>
      </trkpt>
      <trkpt lat="48.53233" lon="2.14937">
        <ele>83.133539</ele>
        <time>2013-06-15T12:08:19Z</time>
      </trkpt>
      <trkpt lat="48.53229" lon="2.14943">
        <ele>82.994926</ele>
        <time>2013-06-15T12:08:24Z</time>
      </trkpt>
      <trkpt lat="48.53225" lon="2.1495">
        <ele>82.85632</ele>
        <time>2013-06-15T12:08:29Z</time>
      </trkpt>
      <trkpt lat="48.5322" lon="2.14955">
        <ele>81.943554</ele>
        <time>2013-06-15T12:08:34Z</time>
      </trkpt>
      <trkpt lat="48.53216" lon="2.1496">
        <ele>82.441857</ele>
        <time>2013-06-15T12:08:39Z</time>
      </trkpt>
      <trkpt lat="48.53212" lon="2.14964">
        <ele>80.842531</ele>
        <time>2013-06-15T12:08:44Z</time>
      </trkpt>
      <trkpt lat="48.53207" lon="2.14968">
        <ele>81.316006</ele>
        <time>2013-06-15T12:08:49Z</time>
      </trkpt>
      <trkpt lat="48.53203" lon="2.14975">
        <ele>81.17743</ele>
        <time>2013-06-15T12:08:54Z</time>
      </trkpt>
      <trkpt lat="48.53199" lon="2.1498">
        <ele>80.264695</ele>
        <time>2013-06-15T12:08:59Z</time>
      </trkpt>
      <trkpt lat="48.53194" lon="2.14985">
        <ele>80.763027</ele>
        <time>2013-06-15T12:09:04Z</time>
      </trkpt>
      <trkpt lat="48.5319" lon="2.14991">
        <ele>79.850304</ele>
        <time>2013-06-15T12:09:09Z</time>
      </trkpt>
      <trkpt lat="48.53185" lon="2.14997">
        <ele>80.373492</ele>
        <time>2013-06-15T12:09:14Z</time>
      </trkpt>
      <trkpt lat="48.53181" lon="2.15001">
        <ele>80.185263</ele>
        <time>2013-06-15T12:09:19Z</time>
      </trkpt>
      <trkpt lat="48.53175" lon="2.15001">
        <ele>79.747339</ele>
        <time>2013-06-15T12:09:24Z</time>
      </trkpt>
      <trkpt lat="48.53171" lon="2.14996">
        <ele>80.071798</ele>
        <time>2013-06-15T12:09:29Z</time>
      </trkpt>
      <trkpt lat="48.53167" lon="2.14991">
        <ele>79.709681</ele>
        <time>2013-06-15T12:09:34Z</time>
      </trkpt>
      <trkpt lat="48.53162" lon="2.14987">
        <ele>79.28483</ele>
        <time>2013-06-15T12:09:39Z</time>
      </trkpt>
      <trkpt lat="48.53158" lon="2.14981">
        <ele>78.922724</ele>
        <time>2013-06-15T12:09:44Z</time>
      </trkpt>
      <trkpt lat="48.53154" lon="2.14977">
        <ele>78.585464</ele>
        <time>2013-06-15T12:09:49Z</time>
      </trkpt>
      <trkpt lat="48.53152" lon="2.14974">
        <ele>79.109946</ele>
        <time>2013-06-15T12:09:54Z</time>
      </trkpt>
      <trkpt lat="48.53152" lon="2.14974">
        <ele>79.109946</ele>
        <time>2013-06-15T12:09:59Z</time>
      </trkpt>
      <trkpt lat="48.53151" lon="2.14974">
        <ele>79.022368</ele>
        <time>2013-06-15T12:10:04Z</time>
      </trkpt>
      <trkpt lat="48.53148" lon="2.1497">
        <ele>79.434435</ele>
        <time>2013-06-15T12:10:09Z</time>
      </trkpt>
      <trkpt lat="48.53145" lon="2.14964">
        <ele>79.821666</ele>
        <time>2013-06-15T12:10:14Z</time>
      </trkpt>
      <trkpt lat="48.53141" lon="2.14959">
        <ele>80.121326</ele>
        <time>2013-06-15T12:10:19Z</time>
      </trkpt>
      <trkpt lat="48.53137" lon="2.14952">
        <ele>79.734411</ele>
        <time>2013-06-15T12:10:24Z</time>
      </trkpt>
      <trkpt lat="48.53134" lon="2.14946">
        <ele>80.121657</ele>
        <time>2013-06-15T12:10:29Z</time>
      </trkpt>
      <trkpt lat="48.53129" lon="2.14939">
        <ele>80.396499</ele>
        <time>2013-06-15T12:10:34Z</time>
      </trkpt>
      <trkpt lat="48.53126" lon="2.14934">
        <ele>80.034439</ele>
        <time>2013-06-15T12:10:39Z</time>
      </trkpt>
      <trkpt lat="48.53122" lon="2.14927">
        <ele>79.647549</ele>
        <time>2013-06-15T12:10:44Z</time>
      </trkpt>
      <trkpt lat="48.53118" lon="2.14921">
        <ele>79.947246</ele>
        <time>2013-06-15T12:10:49Z</time>
      </trkpt>
      <trkpt lat="48.53115" lon="2.14914">
        <ele>79.647938</ele>
        <time>2013-06-15T12:10:54Z</time>
      </trkpt>
      <trkpt lat="48.53112" lon="2.14907">
        <ele>79.261067</ele>
        <time>2013-06-15T12:10:59Z</time>
      </trkpt>
      <trkpt lat="48.53108" lon="2.149">
        <ele>79.623518</ele>
        <time>2013-06-15T12:11:04Z</time>
      </trkpt>
      <trkpt lat="48.53105" lon="2.14893">
        <ele>79.985975</ele>
        <time>2013-06-15T12:11:09Z</time>
      </trkpt>
      <trkpt lat="48.53102" lon="2.14887">
        <ele>80.348437</ele>
        <time>2013-06-15T12:11:14Z</time>
      </trkpt>
      <trkpt lat="48.53099" lon="2.1488">
        <ele>80.710906</ele>
        <time>2013-06-15T12:11:19Z</time>
      </trkpt>
      <trkpt lat="48.53096" lon="2.14873">
        <ele>81.07338</ele>
        <time>2013-06-15T12:11:24Z</time>
      </trkpt>
      <trkpt lat="48.53094" lon="2.14866">
        <ele>80.774111</ele>
        <time>2013-06-15T12:11:29Z</time>
      </trkpt>
      <trkpt lat="48.53091" lon="2.1486">
        <ele>81.161424</ele>
        <time>2013-06-15T12:11:34Z</time>
      </trkpt>
      <trkpt lat="48.53088" lon="2.14853">
        <ele>81.523915</ele>
        <time>2013-06-15T12:11:39Z</time>
      </trkpt>
      <trkpt lat="48.53084" lon="2.14849">
        <ele>82.597815</ele>
        <time>2013-06-15T12:11:44Z</time>
      </trkpt>
      <trkpt lat="48.5308" lon="2.14843">
        <ele>83.646895</ele>
        <time>2013-06-15T12:11:49Z</time>
      </trkpt>
      <trkpt lat="48.53075" lon="2.14839">
        <ele>83.222181</ele>
        <time>2013-06-15T12:11:54Z</time>
      </trkpt>
      <trkpt lat="48.53071" lon="2.14838">
        <ele>83.596435</ele>
        <time>2013-06-15T12:11:59Z</time>
      </trkpt>
      <trkpt lat="48.53065" lon="2.14836">
        <ele>84.632446</ele>
        <time>2013-06-15T12:12:04Z</time>
      </trkpt>
      <trkpt lat="48.5306" lon="2.14834">
        <ele>84.257399</ele>
        <time>2013-06-15T12:12:09Z</time>
      </trkpt>
      <trkpt lat="48.53057" lon="2.14838">
        <ele>83.407454</ele>
        <time>2013-06-15T12:12:14Z</time>
      </trkpt>
      <trkpt lat="48.53058" lon="2.1484">
        <ele>79.948397</ele>
        <time>2013-06-15T12:12:19Z</time>
      </trkpt>
      <trkpt lat="48.5306" lon="2.14846">
        <ele>78.062435</ele>
        <time>2013-06-15T12:12:24Z</time>
      </trkpt>
      <trkpt lat="48.53062" lon="2.14852">
        <ele>76.950613</ele>
        <time>2013-06-15T12:12:29Z</time>
      </trkpt>
      <trkpt lat="48.53067" lon="2.14855">
        <ele>75.190117</ele>
        <time>2013-06-15T12:12:34Z</time>
      </trkpt>
      <trkpt lat="48.53071" lon="2.14856">
        <ele>74.791036</ele>
        <time>2013-06-15T12:12:39Z</time>
      </trkpt>
      <trkpt lat="48.53074" lon="2.14856">
        <ele>74.966152</ele>
        <time>2013-06-15T12:12:44Z</time>
      </trkpt>
      <trkpt lat="48.53074" lon="2.14856">
        <ele>74.966152</ele>
        <time>2013-06-15T12:12:49Z</time>
      </trkpt>
      <trkpt lat="48.53074" lon="2.14856">
        <ele>74.966152</ele>
        <time>2013-06-15T12:12:54Z</time>
      </trkpt>
      <trkpt lat="48.53074" lon="2.14856">
        <ele>73.555089</ele>
        <time>2013-06-15T12:12:59Z</time>
      </trkpt>
      <trkpt lat="48.53075" lon="2.14854">
        <ele>75.028884</ele>
        <time>2013-06-15T12:13:04Z</time>
      </trkpt>
      <trkpt lat="48.53075" lon="2.14853">
        <ele>75.004058</ele>
        <time>2013-06-15T12:13:09Z</time>
      </trkpt>
      <trkpt lat="48.53075" lon="2.14853">
        <ele>75.004058</ele>
        <time>2013-06-15T12:13:14Z</time>
      </trkpt>
      <trkpt lat="48.53076" lon="2.14853">
        <ele>75.753369</ele>
        <time>2013-06-15T12:13:19Z</time>
      </trkpt>
      <trkpt lat="48.53076" lon="2.14853">
        <ele>75.753369</ele>
        <time>2013-06-15T12:13:24Z</time>
      </trkpt>
      <trkpt lat="48.53075" lon="2.14853">
        <ele>76.415121</ele>
        <time>2013-06-15T12:13:29Z</time>
      </trkpt>
      <trkpt lat="48.53075" lon="2.14854">
        <ele>76.439948</ele>
        <time>2013-06-15T12:13:34Z</time>
      </trkpt>
      <trkpt lat="48.53073" lon="2.14853">
        <ele>76.989315</ele>
        <time>2013-06-15T12:13:39Z</time>
      </trkpt>
      <trkpt lat="48.53071" lon="2.14849">
        <ele>76.73972</ele>
        <time>2013-06-15T12:13:44Z</time>
      </trkpt>
      <trkpt lat="48.53071" lon="2.14849">
        <ele>76.73972</ele>
        <time>2013-06-15T12:13:49Z</time>
      </trkpt>
      <trkpt lat="48.53071" lon="2.14849">
        <ele>76.73972</ele>
        <time>2013-06-15T12:13:54Z</time>
      </trkpt>
      <trkpt lat="48.53071" lon="2.14849">
        <ele>76.73972</ele>
        <time>2013-06-15T12:13:59Z</time>
      </trkpt>
      <trkpt lat="48.53071" lon="2.14849">
        <ele>76.73972</ele>
        <time>2013-06-15T12:14:04Z</time>
      </trkpt>
      <trkpt lat="48.53071" lon="2.14849">
        <ele>76.73972</ele>
        <time>2013-06-15T12:14:09Z</time>
      </trkpt>
      <trkpt lat="48.53071" lon="2.14849">
        <ele>76.73972</ele>
        <time>2013-06-15T12:14:14Z</time>
      </trkpt>
      <trkpt lat="48.53071" lon="2.14849">
        <ele>76.73972</ele>
        <time>2013-06-15T12:14:19Z</time>
      </trkpt>
      <trkpt lat="48.53071" lon="2.14849">
        <ele>76.73972</ele>
        <time>2013-06-15T12:14:24Z</time>
      </trkpt>
      <trkpt lat="48.53071" lon="2.14849">
        <ele>76.73972</ele>
        <time>2013-06-15T12:14:29Z</time>
      </trkpt>
      <trkpt lat="48.53071" lon="2.14849">
        <ele>76.73972</ele>
        <time>2013-06-15T12:14:34Z</time>
      </trkpt>
      <trkpt lat="48.53071" lon="2.14849">
        <ele>76.73972</ele>
        <time>2013-06-15T12:14:39Z</time>
      </trkpt>
      <trkpt lat="48.53071" lon="2.14849">
        <ele>76.73972</ele>
        <time>2013-06-15T12:14:44Z</time>
      </trkpt>
      <trkpt lat="48.53071" lon="2.14849">
        <ele>76.73972</ele>
        <time>2013-06-15T12:14:49Z</time>
      </trkpt>
      <trkpt lat="48.53071" lon="2.14849">
        <ele>76.73972</ele>
        <time>2013-06-15T12:14:54Z</time>
      </trkpt>
      <trkpt lat="48.53071" lon="2.14849">
        <ele>76.73972</ele>
        <time>2013-06-15T12:14:59Z</time>
      </trkpt>
      <trkpt lat="48.53071" lon="2.14849">
        <ele>76.73972</ele>
        <time>2013-06-15T12:15:04Z</time>
      </trkpt>
      <trkpt lat="48.53071" lon="2.14849">
        <ele>76.73972</ele>
        <time>2013-06-15T12:15:09Z</time>
      </trkpt>
      <trkpt lat="48.53071" lon="2.14849">
        <ele>76.73972</ele>
        <time>2013-06-15T12:15:14Z</time>
      </trkpt>
      <trkpt lat="48.53071" lon="2.14849">
        <ele>76.73972</ele>
        <time>2013-06-15T12:15:19Z</time>
      </trkpt>
      <trkpt lat="48.53071" lon="2.14849">
        <ele>76.73972</ele>
        <time>2013-06-15T12:15:24Z</time>
      </trkpt>
      <trkpt lat="48.53071" lon="2.14849">
        <ele>76.73972</ele>
        <time>2013-06-15T12:15:29Z</time>
      </trkpt>
      <trkpt lat="48.53071" lon="2.14849">
        <ele>76.73972</ele>
        <time>2013-06-15T12:15:34Z</time>
      </trkpt>
      <trkpt lat="48.53071" lon="2.14849">
        <ele>76.73972</ele>
        <time>2013-06-15T12:15:39Z</time>
      </trkpt>
      <trkpt lat="48.53071" lon="2.14849">
        <ele>76.73972</ele>
        <time>2013-06-15T12:15:44Z</time>
      </trkpt>
      <trkpt lat="48.53071" lon="2.14849">
        <ele>76.73972</ele>
        <time>2013-06-15T12:15:49Z</time>
      </trkpt>
      <trkpt lat="48.53071" lon="2.14849">
        <ele>76.73972</ele>
        <time>2013-06-15T12:15:54Z</time>
      </trkpt>
      <trkpt lat="48.53071" lon="2.14849">
        <ele>76.73972</ele>
        <time>2013-06-15T12:15:59Z</time>
      </trkpt>
      <trkpt lat="48.53071" lon="2.14849">
        <ele>76.73972</ele>
        <time>2013-06-15T12:16:04Z</time>
      </trkpt>
      <trkpt lat="48.53071" lon="2.14849">
        <ele>76.73972</ele>
        <time>2013-06-15T12:16:09Z</time>
      </trkpt>
      <trkpt lat="48.53071" lon="2.14849">
        <ele>76.73972</ele>
        <time>2013-06-15T12:16:14Z</time>
      </trkpt>
      <trkpt lat="48.53071" lon="2.14849">
        <ele>76.73972</ele>
        <time>2013-06-15T12:16:19Z</time>
      </trkpt>
      <trkpt lat="48.53071" lon="2.14849">
        <ele>76.73972</ele>
        <time>2013-06-15T12:16:24Z</time>
      </trkpt>
      <trkpt lat="48.53071" lon="2.14849">
        <ele>76.73972</ele>
        <time>2013-06-15T12:16:29Z</time>
      </trkpt>
      <trkpt lat="48.53071" lon="2.14849">
        <ele>76.73972</ele>
        <time>2013-06-15T12:16:34Z</time>
      </trkpt>
      <trkpt lat="48.53071" lon="2.1485">
        <ele>76.764546</ele>
        <time>2013-06-15T12:16:39Z</time>
      </trkpt>
      <trkpt lat="48.53071" lon="2.1485">
        <ele>76.764546</ele>
        <time>2013-06-15T12:16:44Z</time>
      </trkpt>
      <trkpt lat="48.5307" lon="2.14851">
        <ele>76.040062</ele>
        <time>2013-06-15T12:16:49Z</time>
      </trkpt>
      <trkpt lat="48.5307" lon="2.14851">
        <ele>76.040062</ele>
        <time>2013-06-15T12:16:54Z</time>
      </trkpt>
      <trkpt lat="48.5307" lon="2.14851">
        <ele>76.040062</ele>
        <time>2013-06-15T12:16:59Z</time>
      </trkpt>
      <trkpt lat="48.5307" lon="2.14851">
        <ele>76.040062</ele>
        <time>2013-06-15T12:17:04Z</time>
      </trkpt>
      <trkpt lat="48.5307" lon="2.14851">
        <ele>76.040062</ele>
        <time>2013-06-15T12:17:09Z</time>
      </trkpt>
      <trkpt lat="48.5307" lon="2.14851">
        <ele>76.040062</ele>
        <time>2013-06-15T12:17:14Z</time>
      </trkpt>
      <trkpt lat="48.5307" lon="2.14851">
        <ele>76.040062</ele>
        <time>2013-06-15T12:17:19Z</time>
      </trkpt>
      <trkpt lat="48.5307" lon="2.14851">
        <ele>76.040062</ele>
        <time>2013-06-15T12:17:24Z</time>
      </trkpt>
      <trkpt lat="48.5307" lon="2.14851">
        <ele>76.040062</ele>
        <time>2013-06-15T12:17:29Z</time>
      </trkpt>
      <trkpt lat="48.5307" lon="2.14851">
        <ele>76.040062</ele>
        <time>2013-06-15T12:17:34Z</time>
      </trkpt>
      <trkpt lat="48.5307" lon="2.14851">
        <ele>76.040062</ele>
        <time>2013-06-15T12:17:39Z</time>
      </trkpt>
      <trkpt lat="48.5307" lon="2.14851">
        <ele>76.040062</ele>
        <time>2013-06-15T12:17:44Z</time>
      </trkpt>
      <trkpt lat="48.5307" lon="2.14851">
        <ele>76.040062</ele>
        <time>2013-06-15T12:17:49Z</time>
      </trkpt>
      <trkpt lat="48.5307" lon="2.14851">
        <ele>76.040062</ele>
        <time>2013-06-15T12:17:54Z</time>
      </trkpt>
      <trkpt lat="48.5307" lon="2.14851">
        <ele>76.040062</ele>
        <time>2013-06-15T12:17:59Z</time>
      </trkpt>
      <trkpt lat="48.5307" lon="2.14851">
        <ele>76.040062</ele>
        <time>2013-06-15T12:18:04Z</time>
      </trkpt>
      <trkpt lat="48.5307" lon="2.14851">
        <ele>76.040062</ele>
        <time>2013-06-15T12:18:09Z</time>
      </trkpt>
      <trkpt lat="48.5307" lon="2.14851">
        <ele>76.040062</ele>
        <time>2013-06-15T12:18:14Z</time>
      </trkpt>
      <trkpt lat="48.5307" lon="2.14851">
        <ele>76.040062</ele>
        <time>2013-06-15T12:18:19Z</time>
      </trkpt>
      <trkpt lat="48.5307" lon="2.14851">
        <ele>76.040062</ele>
        <time>2013-06-15T12:18:24Z</time>
      </trkpt>
      <trkpt lat="48.53071" lon="2.14851">
        <ele>76.789373</ele>
        <time>2013-06-15T12:18:29Z</time>
      </trkpt>
      <trkpt lat="48.53071" lon="2.14851">
        <ele>76.789373</ele>
        <time>2013-06-15T12:18:34Z</time>
      </trkpt>
      <trkpt lat="48.53071" lon="2.14851">
        <ele>76.789373</ele>
        <time>2013-06-15T12:18:39Z</time>
      </trkpt>
      <trkpt lat="48.53071" lon="2.14851">
        <ele>76.789373</ele>
        <time>2013-06-15T12:18:44Z</time>
      </trkpt>
      <trkpt lat="48.53071" lon="2.14851">
        <ele>76.789373</ele>
        <time>2013-06-15T12:18:49Z</time>
      </trkpt>
      <trkpt lat="48.53071" lon="2.14851">
        <ele>76.789373</ele>
        <time>2013-06-15T12:18:54Z</time>
      </trkpt>
      <trkpt lat="48.53071" lon="2.14851">
        <ele>76.789373</ele>
        <time>2013-06-15T12:18:59Z</time>
      </trkpt>
      <trkpt lat="48.53071" lon="2.14851">
        <ele>76.789373</ele>
        <time>2013-06-15T12:19:04Z</time>
      </trkpt>
      <trkpt lat="48.53071" lon="2.14851">
        <ele>76.789373</ele>
        <time>2013-06-15T12:19:09Z</time>
      </trkpt>
      <trkpt lat="48.53071" lon="2.14851">
        <ele>76.789373</ele>
        <time>2013-06-15T12:19:14Z</time>
      </trkpt>
      <trkpt lat="48.53071" lon="2.14851">
        <ele>76.789373</ele>
        <time>2013-06-15T12:19:19Z</time>
      </trkpt>
      <trkpt lat="48.53071" lon="2.14851">
        <ele>76.789373</ele>
        <time>2013-06-15T12:19:24Z</time>
      </trkpt>
      <trkpt lat="48.53071" lon="2.14851">
        <ele>76.789373</ele>
        <time>2013-06-15T12:19:29Z</time>
      </trkpt>
      <trkpt lat="48.53071" lon="2.14851">
        <ele>76.789373</ele>
        <time>2013-06-15T12:19:34Z</time>
      </trkpt>
      <trkpt lat="48.53071" lon="2.14851">
        <ele>76.789373</ele>
        <time>2013-06-15T12:19:39Z</time>
      </trkpt>
      <trkpt lat="48.53071" lon="2.14851">
        <ele>76.789373</ele>
        <time>2013-06-15T12:19:44Z</time>
      </trkpt>
      <trkpt lat="48.53071" lon="2.14851">
        <ele>76.789373</ele>
        <time>2013-06-15T12:19:49Z</time>
      </trkpt>
      <trkpt lat="48.53071" lon="2.14851">
        <ele>76.789373</ele>
        <time>2013-06-15T12:19:54Z</time>
      </trkpt>
      <trkpt lat="48.53071" lon="2.14851">
        <ele>76.789373</ele>
        <time>2013-06-15T12:19:59Z</time>
      </trkpt>
      <trkpt lat="48.53071" lon="2.14851">
        <ele>76.789373</ele>
        <time>2013-06-15T12:20:04Z</time>
      </trkpt>
      <trkpt lat="48.53071" lon="2.14851">
        <ele>76.789373</ele>
        <time>2013-06-15T12:20:09Z</time>
      </trkpt>
      <trkpt lat="48.53071" lon="2.14851">
        <ele>76.789373</ele>
        <time>2013-06-15T12:20:14Z</time>
      </trkpt>
      <trkpt lat="48.53071" lon="2.14851">
        <ele>76.789373</ele>
        <time>2013-06-15T12:20:19Z</time>
      </trkpt>
      <trkpt lat="48.53071" lon="2.14851">
        <ele>76.789373</ele>
        <time>2013-06-15T12:20:24Z</time>
      </trkpt>
      <trkpt lat="48.53071" lon="2.14851">
        <ele>76.789373</ele>
        <time>2013-06-15T12:20:29Z</time>
      </trkpt>
      <trkpt lat="48.53071" lon="2.14851">
        <ele>76.789373</ele>
        <time>2013-06-15T12:20:34Z</time>
      </trkpt>
      <trkpt lat="48.53071" lon="2.14851">
        <ele>76.789373</ele>
        <time>2013-06-15T12:20:39Z</time>
      </trkpt>
      <trkpt lat="48.53071" lon="2.14851">
        <ele>76.789373</ele>
        <time>2013-06-15T12:20:44Z</time>
      </trkpt>
      <trkpt lat="48.53071" lon="2.14851">
        <ele>76.789373</ele>
        <time>2013-06-15T12:20:49Z</time>
      </trkpt>
      <trkpt lat="48.53071" lon="2.14851">
        <ele>76.789373</ele>
        <time>2013-06-15T12:20:54Z</time>
      </trkpt>
      <trkpt lat="48.53071" lon="2.14851">
        <ele>76.789373</ele>
        <time>2013-06-15T12:20:59Z</time>
      </trkpt>
      <trkpt lat="48.53071" lon="2.14851">
        <ele>76.789373</ele>
        <time>2013-06-15T12:21:04Z</time>
      </trkpt>
      <trkpt lat="48.53071" lon="2.14851">
        <ele>76.789373</ele>
        <time>2013-06-15T12:21:09Z</time>
      </trkpt>
      <trkpt lat="48.53071" lon="2.14851">
        <ele>76.789373</ele>
        <time>2013-06-15T12:21:14Z</time>
      </trkpt>
      <trkpt lat="48.5307" lon="2.14851">
        <ele>76.040062</ele>
        <time>2013-06-15T12:21:19Z</time>
      </trkpt>
      <trkpt lat="48.5307" lon="2.14851">
        <ele>76.040062</ele>
        <time>2013-06-15T12:21:24Z</time>
      </trkpt>
      <trkpt lat="48.5307" lon="2.14851">
        <ele>76.040062</ele>
        <time>2013-06-15T12:21:29Z</time>
      </trkpt>
      <trkpt lat="48.5307" lon="2.14851">
        <ele>76.040062</ele>
        <time>2013-06-15T12:21:34Z</time>
      </trkpt>
      <trkpt lat="48.5307" lon="2.14851">
        <ele>76.040062</ele>
        <time>2013-06-15T12:21:39Z</time>
      </trkpt>
      <trkpt lat="48.5307" lon="2.14851">
        <ele>76.040062</ele>
        <time>2013-06-15T12:21:44Z</time>
      </trkpt>
      <trkpt lat="48.5307" lon="2.14851">
        <ele>76.040062</ele>
        <time>2013-06-15T12:21:49Z</time>
      </trkpt>
      <trkpt lat="48.5307" lon="2.14851">
        <ele>76.040062</ele>
        <time>2013-06-15T12:21:54Z</time>
      </trkpt>
      <trkpt lat="48.5307" lon="2.14851">
        <ele>76.040062</ele>
        <time>2013-06-15T12:21:59Z</time>
      </trkpt>
      <trkpt lat="48.5307" lon="2.14851">
        <ele>76.040062</ele>
        <time>2013-06-15T12:22:04Z</time>
      </trkpt>
      <trkpt lat="48.5307" lon="2.14851">
        <ele>76.040062</ele>
        <time>2013-06-15T12:22:09Z</time>
      </trkpt>
      <trkpt lat="48.5307" lon="2.14851">
        <ele>76.040062</ele>
        <time>2013-06-15T12:22:14Z</time>
      </trkpt>
      <trkpt lat="48.5307" lon="2.14851">
        <ele>76.040062</ele>
        <time>2013-06-15T12:22:19Z</time>
      </trkpt>
      <trkpt lat="48.5307" lon="2.14851">
        <ele>76.040062</ele>
        <time>2013-06-15T12:22:24Z</time>
      </trkpt>
      <trkpt lat="48.5307" lon="2.14851">
        <ele>76.040062</ele>
        <time>2013-06-15T12:22:29Z</time>
      </trkpt>
      <trkpt lat="48.5307" lon="2.14851">
        <ele>76.040062</ele>
        <time>2013-06-15T12:22:34Z</time>
      </trkpt>
      <trkpt lat="48.5307" lon="2.14851">
        <ele>76.040062</ele>
        <time>2013-06-15T12:22:39Z</time>
      </trkpt>
      <trkpt lat="48.5307" lon="2.14851">
        <ele>76.040062</ele>
        <time>2013-06-15T12:22:44Z</time>
      </trkpt>
      <trkpt lat="48.5307" lon="2.14851">
        <ele>76.040062</ele>
        <time>2013-06-15T12:22:49Z</time>
      </trkpt>
      <trkpt lat="48.5307" lon="2.14851">
        <ele>76.040062</ele>
        <time>2013-06-15T12:22:54Z</time>
      </trkpt>
      <trkpt lat="48.5307" lon="2.14851">
        <ele>76.040062</ele>
        <time>2013-06-15T12:22:59Z</time>
      </trkpt>
      <trkpt lat="48.5307" lon="2.14851">
        <ele>76.040062</ele>
        <time>2013-06-15T12:23:04Z</time>
      </trkpt>
      <trkpt lat="48.53071" lon="2.14851">
        <ele>75.378309</ele>
        <time>2013-06-15T12:23:09Z</time>
      </trkpt>
      <trkpt lat="48.53071" lon="2.14851">
        <ele>75.378309</ele>
        <time>2013-06-15T12:23:14Z</time>
      </trkpt>
      <trkpt lat="48.53071" lon="2.14851">
        <ele>75.378309</ele>
        <time>2013-06-15T12:23:19Z</time>
      </trkpt>
      <trkpt lat="48.53071" lon="2.14851">
        <ele>75.378309</ele>
        <time>2013-06-15T12:23:24Z</time>
      </trkpt>
      <trkpt lat="48.53071" lon="2.14851">
        <ele>75.378309</ele>
        <time>2013-06-15T12:23:29Z</time>
      </trkpt>
      <trkpt lat="48.53071" lon="2.14851">
        <ele>75.378309</ele>
        <time>2013-06-15T12:23:34Z</time>
      </trkpt>
      <trkpt lat="48.53071" lon="2.14851">
        <ele>75.378309</ele>
        <time>2013-06-15T12:23:39Z</time>
      </trkpt>
      <trkpt lat="48.53071" lon="2.14851">
        <ele>75.378309</ele>
        <time>2013-06-15T12:23:44Z</time>
      </trkpt>
      <trkpt lat="48.53071" lon="2.14851">
        <ele>75.378309</ele>
        <time>2013-06-15T12:23:49Z</time>
      </trkpt>
      <trkpt lat="48.53071" lon="2.14851">
        <ele>75.378309</ele>
        <time>2013-06-15T12:23:54Z</time>
      </trkpt>
      <trkpt lat="48.53071" lon="2.14851">
        <ele>75.378309</ele>
        <time>2013-06-15T12:23:59Z</time>
      </trkpt>
      <trkpt lat="48.53071" lon="2.14851">
        <ele>75.378309</ele>
        <time>2013-06-15T12:24:04Z</time>
      </trkpt>
      <trkpt lat="48.53071" lon="2.14851">
        <ele>75.378309</ele>
        <time>2013-06-15T12:24:09Z</time>
      </trkpt>
      <trkpt lat="48.53071" lon="2.14851">
        <ele>75.378309</ele>
        <time>2013-06-15T12:24:14Z</time>
      </trkpt>
      <trkpt lat="48.53071" lon="2.14851">
        <ele>75.378309</ele>
        <time>2013-06-15T12:24:19Z</time>
      </trkpt>
      <trkpt lat="48.53071" lon="2.14851">
        <ele>75.378309</ele>
        <time>2013-06-15T12:24:24Z</time>
      </trkpt>
      <trkpt lat="48.53071" lon="2.14851">
        <ele>75.378309</ele>
        <time>2013-06-15T12:24:29Z</time>
      </trkpt>
      <trkpt lat="48.53071" lon="2.14851">
        <ele>75.378309</ele>
        <time>2013-06-15T12:24:34Z</time>
      </trkpt>
      <trkpt lat="48.53071" lon="2.14851">
        <ele>75.378309</ele>
        <time>2013-06-15T12:24:39Z</time>
      </trkpt>
      <trkpt lat="48.53071" lon="2.14851">
        <ele>75.378309</ele>
        <time>2013-06-15T12:24:44Z</time>
      </trkpt>
      <trkpt lat="48.53071" lon="2.14851">
        <ele>75.378309</ele>
        <time>2013-06-15T12:24:49Z</time>
      </trkpt>
      <trkpt lat="48.53071" lon="2.14851">
        <ele>75.378309</ele>
        <time>2013-06-15T12:24:54Z</time>
      </trkpt>
      <trkpt lat="48.53071" lon="2.14851">
        <ele>75.378309</ele>
        <time>2013-06-15T12:24:59Z</time>
      </trkpt>
      <trkpt lat="48.53071" lon="2.14851">
        <ele>75.378309</ele>
        <time>2013-06-15T12:25:04Z</time>
      </trkpt>
      <trkpt lat="48.53071" lon="2.14851">
        <ele>75.378309</ele>
        <time>2013-06-15T12:25:09Z</time>
      </trkpt>
      <trkpt lat="48.53071" lon="2.14851">
        <ele>75.378309</ele>
        <time>2013-06-15T12:25:14Z</time>
      </trkpt>
      <trkpt lat="48.53071" lon="2.14853">
        <ele>75.403135</ele>
        <time>2013-06-15T12:25:19Z</time>
      </trkpt>
      <trkpt lat="48.53071" lon="2.14853">
        <ele>75.403135</ele>
        <time>2013-06-15T12:25:24Z</time>
      </trkpt>
      <trkpt lat="48.53071" lon="2.14853">
        <ele>75.403135</ele>
        <time>2013-06-15T12:25:29Z</time>
      </trkpt>
      <trkpt lat="48.53071" lon="2.14853">
        <ele>75.403135</ele>
        <time>2013-06-15T12:25:34Z</time>
      </trkpt>
      <trkpt lat="48.53071" lon="2.14853">
        <ele>75.403135</ele>
        <time>2013-06-15T12:25:39Z</time>
      </trkpt>
      <trkpt lat="48.53071" lon="2.14853">
        <ele>75.403135</ele>
        <time>2013-06-15T12:25:44Z</time>
      </trkpt>
      <trkpt lat="48.53071" lon="2.14853">
        <ele>75.403135</ele>
        <time>2013-06-15T12:25:49Z</time>
      </trkpt>
      <trkpt lat="48.53071" lon="2.14853">
        <ele>75.403135</ele>
        <time>2013-06-15T12:25:54Z</time>
      </trkpt>
      <trkpt lat="48.53071" lon="2.14853">
        <ele>75.403135</ele>
        <time>2013-06-15T12:25:59Z</time>
      </trkpt>
      <trkpt lat="48.53071" lon="2.14853">
        <ele>75.403135</ele>
        <time>2013-06-15T12:26:04Z</time>
      </trkpt>
      <trkpt lat="48.53071" lon="2.14853">
        <ele>75.403135</ele>
        <time>2013-06-15T12:26:09Z</time>
      </trkpt>
      <trkpt lat="48.53071" lon="2.14853">
        <ele>75.403135</ele>
        <time>2013-06-15T12:26:14Z</time>
      </trkpt>
      <trkpt lat="48.53071" lon="2.14853">
        <ele>75.403135</ele>
        <time>2013-06-15T12:26:19Z</time>
      </trkpt>
      <trkpt lat="48.53071" lon="2.14853">
        <ele>75.403135</ele>
        <time>2013-06-15T12:26:24Z</time>
      </trkpt>
      <trkpt lat="48.53071" lon="2.14853">
        <ele>75.403135</ele>
        <time>2013-06-15T12:26:29Z</time>
      </trkpt>
      <trkpt lat="48.53071" lon="2.14853">
        <ele>75.403135</ele>
        <time>2013-06-15T12:26:34Z</time>
      </trkpt>
      <trkpt lat="48.53071" lon="2.14853">
        <ele>75.403135</ele>
        <time>2013-06-15T12:26:39Z</time>
      </trkpt>
      <trkpt lat="48.53071" lon="2.14853">
        <ele>75.403135</ele>
        <time>2013-06-15T12:26:44Z</time>
      </trkpt>
      <trkpt lat="48.53071" lon="2.14853">
        <ele>75.403135</ele>
        <time>2013-06-15T12:26:49Z</time>
      </trkpt>
      <trkpt lat="48.53071" lon="2.14853">
        <ele>75.403135</ele>
        <time>2013-06-15T12:26:54Z</time>
      </trkpt>
      <trkpt lat="48.53071" lon="2.14853">
        <ele>75.403135</ele>
        <time>2013-06-15T12:26:59Z</time>
      </trkpt>
      <trkpt lat="48.53071" lon="2.14853">
        <ele>75.403135</ele>
        <time>2013-06-15T12:27:04Z</time>
      </trkpt>
      <trkpt lat="48.53071" lon="2.14853">
        <ele>75.403135</ele>
        <time>2013-06-15T12:27:09Z</time>
      </trkpt>
      <trkpt lat="48.53071" lon="2.14853">
        <ele>75.403135</ele>
        <time>2013-06-15T12:27:14Z</time>
      </trkpt>
      <trkpt lat="48.53071" lon="2.14853">
        <ele>75.403135</ele>
        <time>2013-06-15T12:27:19Z</time>
      </trkpt>
      <trkpt lat="48.53071" lon="2.14853">
        <ele>75.403135</ele>
        <time>2013-06-15T12:27:24Z</time>
      </trkpt>
      <trkpt lat="48.53071" lon="2.14853">
        <ele>75.403135</ele>
        <time>2013-06-15T12:27:29Z</time>
      </trkpt>
      <trkpt lat="48.53071" lon="2.14853">
        <ele>75.403135</ele>
        <time>2013-06-15T12:27:34Z</time>
      </trkpt>
      <trkpt lat="48.53071" lon="2.14853">
        <ele>75.403135</ele>
        <time>2013-06-15T12:27:39Z</time>
      </trkpt>
      <trkpt lat="48.53071" lon="2.14853">
        <ele>75.403135</ele>
        <time>2013-06-15T12:27:44Z</time>
      </trkpt>
      <trkpt lat="48.53071" lon="2.14853">
        <ele>75.403135</ele>
        <time>2013-06-15T12:27:49Z</time>
      </trkpt>
      <trkpt lat="48.53071" lon="2.14853">
        <ele>75.403135</ele>
        <time>2013-06-15T12:27:54Z</time>
      </trkpt>
      <trkpt lat="48.53071" lon="2.14853">
        <ele>75.403135</ele>
        <time>2013-06-15T12:27:59Z</time>
      </trkpt>
      <trkpt lat="48.53071" lon="2.14853">
        <ele>75.403135</ele>
        <time>2013-06-15T12:28:04Z</time>
      </trkpt>
      <trkpt lat="48.53071" lon="2.14853">
        <ele>75.403135</ele>
        <time>2013-06-15T12:28:09Z</time>
      </trkpt>
      <trkpt lat="48.53071" lon="2.14853">
        <ele>75.403135</ele>
        <time>2013-06-15T12:28:14Z</time>
      </trkpt>
      <trkpt lat="48.53071" lon="2.14853">
        <ele>75.403135</ele>
        <time>2013-06-15T12:28:19Z</time>
      </trkpt>
      <trkpt lat="48.53071" lon="2.14853">
        <ele>75.403135</ele>
        <time>2013-06-15T12:28:24Z</time>
      </trkpt>
      <trkpt lat="48.53071" lon="2.14853">
        <ele>75.403135</ele>
        <time>2013-06-15T12:28:29Z</time>
      </trkpt>
      <trkpt lat="48.53071" lon="2.14853">
        <ele>75.403135</ele>
        <time>2013-06-15T12:28:34Z</time>
      </trkpt>
      <trkpt lat="48.53071" lon="2.14853">
        <ele>75.403135</ele>
        <time>2013-06-15T12:28:39Z</time>
      </trkpt>
      <trkpt lat="48.53071" lon="2.14853">
        <ele>75.403135</ele>
        <time>2013-06-15T12:28:44Z</time>
      </trkpt>
      <trkpt lat="48.53071" lon="2.14853">
        <ele>75.403135</ele>
        <time>2013-06-15T12:28:49Z</time>
      </trkpt>
      <trkpt lat="48.53071" lon="2.14853">
        <ele>75.403135</ele>
        <time>2013-06-15T12:28:54Z</time>
      </trkpt>
      <trkpt lat="48.53071" lon="2.14853">
        <ele>75.403135</ele>
        <time>2013-06-15T12:28:59Z</time>
      </trkpt>
      <trkpt lat="48.53071" lon="2.14853">
        <ele>75.403135</ele>
        <time>2013-06-15T12:29:04Z</time>
      </trkpt>
      <trkpt lat="48.53071" lon="2.14853">
        <ele>75.403135</ele>
        <time>2013-06-15T12:29:09Z</time>
      </trkpt>
      <trkpt lat="48.53071" lon="2.14853">
        <ele>75.403135</ele>
        <time>2013-06-15T12:29:14Z</time>
      </trkpt>
      <trkpt lat="48.53071" lon="2.14853">
        <ele>75.403135</ele>
        <time>2013-06-15T12:29:19Z</time>
      </trkpt>
      <trkpt lat="48.53071" lon="2.14853">
        <ele>75.403135</ele>
        <time>2013-06-15T12:29:24Z</time>
      </trkpt>
      <trkpt lat="48.53071" lon="2.14853">
        <ele>75.403135</ele>
        <time>2013-06-15T12:29:29Z</time>
      </trkpt>
      <trkpt lat="48.53071" lon="2.14853">
        <ele>75.403135</ele>
        <time>2013-06-15T12:29:34Z</time>
      </trkpt>
      <trkpt lat="48.53071" lon="2.14853">
        <ele>75.403135</ele>
        <time>2013-06-15T12:29:39Z</time>
      </trkpt>
      <trkpt lat="48.53071" lon="2.14853">
        <ele>75.403135</ele>
        <time>2013-06-15T12:29:44Z</time>
      </trkpt>
      <trkpt lat="48.53071" lon="2.14853">
        <ele>75.403135</ele>
        <time>2013-06-15T12:29:49Z</time>
      </trkpt>
      <trkpt lat="48.53071" lon="2.14853">
        <ele>75.403135</ele>
        <time>2013-06-15T12:29:54Z</time>
      </trkpt>
      <trkpt lat="48.53071" lon="2.14853">
        <ele>75.403135</ele>
        <time>2013-06-15T12:29:59Z</time>
      </trkpt>
      <trkpt lat="48.53071" lon="2.14853">
        <ele>75.403135</ele>
        <time>2013-06-15T12:30:04Z</time>
      </trkpt>
      <trkpt lat="48.53071" lon="2.14853">
        <ele>75.403135</ele>
        <time>2013-06-15T12:30:09Z</time>
      </trkpt>
      <trkpt lat="48.53071" lon="2.14853">
        <ele>75.403135</ele>
        <time>2013-06-15T12:30:14Z</time>
      </trkpt>
      <trkpt lat="48.53071" lon="2.14853">
        <ele>75.403135</ele>
        <time>2013-06-15T12:30:19Z</time>
      </trkpt>
      <trkpt lat="48.53071" lon="2.14853">
        <ele>75.403135</ele>
        <time>2013-06-15T12:30:24Z</time>
      </trkpt>
      <trkpt lat="48.53071" lon="2.14853">
        <ele>75.403135</ele>
        <time>2013-06-15T12:30:29Z</time>
      </trkpt>
      <trkpt lat="48.53071" lon="2.14853">
        <ele>75.403135</ele>
        <time>2013-06-15T12:30:34Z</time>
      </trkpt>
      <trkpt lat="48.53071" lon="2.14853">
        <ele>75.403135</ele>
        <time>2013-06-15T12:30:39Z</time>
      </trkpt>
      <trkpt lat="48.53071" lon="2.14853">
        <ele>75.403135</ele>
        <time>2013-06-15T12:30:44Z</time>
      </trkpt>
      <trkpt lat="48.53071" lon="2.14853">
        <ele>75.403135</ele>
        <time>2013-06-15T12:30:49Z</time>
      </trkpt>
      <trkpt lat="48.53071" lon="2.14853">
        <ele>75.403135</ele>
        <time>2013-06-15T12:30:54Z</time>
      </trkpt>
      <trkpt lat="48.53071" lon="2.14853">
        <ele>75.403135</ele>
        <time>2013-06-15T12:30:59Z</time>
      </trkpt>
      <trkpt lat="48.53071" lon="2.14853">
        <ele>75.403135</ele>
        <time>2013-06-15T12:31:04Z</time>
      </trkpt>
      <trkpt lat="48.53071" lon="2.14853">
        <ele>75.403135</ele>
        <time>2013-06-15T12:31:09Z</time>
      </trkpt>
      <trkpt lat="48.53071" lon="2.14853">
        <ele>75.403135</ele>
        <time>2013-06-15T12:31:14Z</time>
      </trkpt>
      <trkpt lat="48.53071" lon="2.14853">
        <ele>75.403135</ele>
        <time>2013-06-15T12:31:19Z</time>
      </trkpt>
      <trkpt lat="48.53071" lon="2.14853">
        <ele>75.403135</ele>
        <time>2013-06-15T12:31:24Z</time>
      </trkpt>
      <trkpt lat="48.53071" lon="2.14853">
        <ele>75.403135</ele>
        <time>2013-06-15T12:31:29Z</time>
      </trkpt>
      <trkpt lat="48.53071" lon="2.14853">
        <ele>75.403135</ele>
        <time>2013-06-15T12:31:34Z</time>
      </trkpt>
      <trkpt lat="48.53071" lon="2.14853">
        <ele>75.403135</ele>
        <time>2013-06-15T12:31:39Z</time>
      </trkpt>
      <trkpt lat="48.53071" lon="2.14853">
        <ele>75.403135</ele>
        <time>2013-06-15T12:31:44Z</time>
      </trkpt>
      <trkpt lat="48.53071" lon="2.14853">
        <ele>75.403135</ele>
        <time>2013-06-15T12:31:49Z</time>
      </trkpt>
      <trkpt lat="48.53071" lon="2.14853">
        <ele>75.403135</ele>
        <time>2013-06-15T12:31:54Z</time>
      </trkpt>
      <trkpt lat="48.53071" lon="2.14853">
        <ele>75.403135</ele>
        <time>2013-06-15T12:31:59Z</time>
      </trkpt>
      <trkpt lat="48.53071" lon="2.14853">
        <ele>75.403135</ele>
        <time>2013-06-15T12:32:04Z</time>
      </trkpt>
      <trkpt lat="48.53071" lon="2.14853">
        <ele>75.403135</ele>
        <time>2013-06-15T12:32:09Z</time>
      </trkpt>
      <trkpt lat="48.53071" lon="2.14853">
        <ele>75.403135</ele>
        <time>2013-06-15T12:32:14Z</time>
      </trkpt>
      <trkpt lat="48.53071" lon="2.14853">
        <ele>75.403135</ele>
        <time>2013-06-15T12:32:19Z</time>
      </trkpt>
      <trkpt lat="48.53071" lon="2.14853">
        <ele>75.403135</ele>
        <time>2013-06-15T12:32:24Z</time>
      </trkpt>
      <trkpt lat="48.53071" lon="2.14853">
        <ele>75.403135</ele>
        <time>2013-06-15T12:32:29Z</time>
      </trkpt>
      <trkpt lat="48.53071" lon="2.14853">
        <ele>75.403135</ele>
        <time>2013-06-15T12:32:34Z</time>
      </trkpt>
      <trkpt lat="48.53071" lon="2.14853">
        <ele>75.403135</ele>
        <time>2013-06-15T12:32:39Z</time>
      </trkpt>
      <trkpt lat="48.53071" lon="2.14853">
        <ele>75.403135</ele>
        <time>2013-06-15T12:32:44Z</time>
      </trkpt>
      <trkpt lat="48.53071" lon="2.14853">
        <ele>75.403135</ele>
        <time>2013-06-15T12:32:49Z</time>
      </trkpt>
      <trkpt lat="48.53071" lon="2.14853">
        <ele>75.403135</ele>
        <time>2013-06-15T12:32:54Z</time>
      </trkpt>
      <trkpt lat="48.53071" lon="2.14853">
        <ele>75.403135</ele>
        <time>2013-06-15T12:32:59Z</time>
      </trkpt>
      <trkpt lat="48.53071" lon="2.14853">
        <ele>75.403135</ele>
        <time>2013-06-15T12:33:04Z</time>
      </trkpt>
      <trkpt lat="48.53071" lon="2.14853">
        <ele>75.403135</ele>
        <time>2013-06-15T12:33:09Z</time>
      </trkpt>
      <trkpt lat="48.53071" lon="2.14853">
        <ele>75.403135</ele>
        <time>2013-06-15T12:33:14Z</time>
      </trkpt>
      <trkpt lat="48.53071" lon="2.14853">
        <ele>75.403135</ele>
        <time>2013-06-15T12:33:19Z</time>
      </trkpt>
      <trkpt lat="48.53071" lon="2.14853">
        <ele>75.403135</ele>
        <time>2013-06-15T12:33:24Z</time>
      </trkpt>
      <trkpt lat="48.53071" lon="2.14853">
        <ele>75.403135</ele>
        <time>2013-06-15T12:33:29Z</time>
      </trkpt>
      <trkpt lat="48.53071" lon="2.14853">
        <ele>75.403135</ele>
        <time>2013-06-15T12:33:34Z</time>
      </trkpt>
      <trkpt lat="48.53071" lon="2.14853">
        <ele>75.403135</ele>
        <time>2013-06-15T12:33:39Z</time>
      </trkpt>
      <trkpt lat="48.53071" lon="2.14853">
        <ele>75.403135</ele>
        <time>2013-06-15T12:33:44Z</time>
      </trkpt>
      <trkpt lat="48.53071" lon="2.14853">
        <ele>75.403135</ele>
        <time>2013-06-15T12:33:49Z</time>
      </trkpt>
      <trkpt lat="48.53071" lon="2.14853">
        <ele>75.403135</ele>
        <time>2013-06-15T12:33:54Z</time>
      </trkpt>
      <trkpt lat="48.53071" lon="2.14853">
        <ele>75.403135</ele>
        <time>2013-06-15T12:33:59Z</time>
      </trkpt>
      <trkpt lat="48.53071" lon="2.14853">
        <ele>75.403135</ele>
        <time>2013-06-15T12:34:04Z</time>
      </trkpt>
      <trkpt lat="48.53071" lon="2.14853">
        <ele>75.403135</ele>
        <time>2013-06-15T12:34:09Z</time>
      </trkpt>
      <trkpt lat="48.53071" lon="2.14853">
        <ele>75.403135</ele>
        <time>2013-06-15T12:34:14Z</time>
      </trkpt>
      <trkpt lat="48.53071" lon="2.14853">
        <ele>75.403135</ele>
        <time>2013-06-15T12:34:19Z</time>
      </trkpt>
      <trkpt lat="48.53071" lon="2.14853">
        <ele>75.403135</ele>
        <time>2013-06-15T12:34:24Z</time>
      </trkpt>
      <trkpt lat="48.53071" lon="2.14853">
        <ele>75.403135</ele>
        <time>2013-06-15T12:34:29Z</time>
      </trkpt>
      <trkpt lat="48.53071" lon="2.14853">
        <ele>75.403135</ele>
        <time>2013-06-15T12:34:34Z</time>
      </trkpt>
      <trkpt lat="48.53071" lon="2.14853">
        <ele>75.403135</ele>
        <time>2013-06-15T12:34:39Z</time>
      </trkpt>
      <trkpt lat="48.53071" lon="2.14853">
        <ele>75.403135</ele>
        <time>2013-06-15T12:34:44Z</time>
      </trkpt>
      <trkpt lat="48.53071" lon="2.14853">
        <ele>75.403135</ele>
        <time>2013-06-15T12:34:49Z</time>
      </trkpt>
      <trkpt lat="48.53071" lon="2.14853">
        <ele>75.403135</ele>
        <time>2013-06-15T12:34:54Z</time>
      </trkpt>
      <trkpt lat="48.53071" lon="2.14853">
        <ele>75.403135</ele>
        <time>2013-06-15T12:34:59Z</time>
      </trkpt>
      <trkpt lat="48.53071" lon="2.14853">
        <ele>75.403135</ele>
        <time>2013-06-15T12:35:04Z</time>
      </trkpt>
      <trkpt lat="48.53071" lon="2.14853">
        <ele>75.403135</ele>
        <time>2013-06-15T12:35:09Z</time>
      </trkpt>
      <trkpt lat="48.53071" lon="2.14853">
        <ele>75.403135</ele>
        <time>2013-06-15T12:35:14Z</time>
      </trkpt>
      <trkpt lat="48.53071" lon="2.14853">
        <ele>75.403135</ele>
        <time>2013-06-15T12:35:19Z</time>
      </trkpt>
      <trkpt lat="48.53071" lon="2.14853">
        <ele>75.403135</ele>
        <time>2013-06-15T12:35:24Z</time>
      </trkpt>
      <trkpt lat="48.53071" lon="2.14853">
        <ele>75.403135</ele>
        <time>2013-06-15T12:35:29Z</time>
      </trkpt>
      <trkpt lat="48.53071" lon="2.14853">
        <ele>75.403135</ele>
        <time>2013-06-15T12:35:34Z</time>
      </trkpt>
      <trkpt lat="48.53071" lon="2.14853">
        <ele>75.403135</ele>
        <time>2013-06-15T12:35:39Z</time>
      </trkpt>
      <trkpt lat="48.53071" lon="2.14853">
        <ele>75.403135</ele>
        <time>2013-06-15T12:35:44Z</time>
      </trkpt>
      <trkpt lat="48.53071" lon="2.14853">
        <ele>75.403135</ele>
        <time>2013-06-15T12:35:49Z</time>
      </trkpt>
      <trkpt lat="48.53071" lon="2.14853">
        <ele>75.403135</ele>
        <time>2013-06-15T12:35:54Z</time>
      </trkpt>
      <trkpt lat="48.53071" lon="2.14853">
        <ele>75.403135</ele>
        <time>2013-06-15T12:35:59Z</time>
      </trkpt>
      <trkpt lat="48.53071" lon="2.14853">
        <ele>75.403135</ele>
        <time>2013-06-15T12:36:04Z</time>
      </trkpt>
      <trkpt lat="48.53071" lon="2.14853">
        <ele>75.403135</ele>
        <time>2013-06-15T12:36:09Z</time>
      </trkpt>
      <trkpt lat="48.53071" lon="2.14853">
        <ele>75.403135</ele>
        <time>2013-06-15T12:36:14Z</time>
      </trkpt>
      <trkpt lat="48.53071" lon="2.14853">
        <ele>75.403135</ele>
        <time>2013-06-15T12:36:19Z</time>
      </trkpt>
      <trkpt lat="48.53071" lon="2.14853">
        <ele>75.403135</ele>
        <time>2013-06-15T12:36:24Z</time>
      </trkpt>
      <trkpt lat="48.53071" lon="2.14853">
        <ele>75.403135</ele>
        <time>2013-06-15T12:36:29Z</time>
      </trkpt>
      <trkpt lat="48.53071" lon="2.14853">
        <ele>75.403135</ele>
        <time>2013-06-15T12:36:34Z</time>
      </trkpt>
      <trkpt lat="48.53071" lon="2.14853">
        <ele>75.403135</ele>
        <time>2013-06-15T12:36:39Z</time>
      </trkpt>
      <trkpt lat="48.53071" lon="2.14853">
        <ele>75.403135</ele>
        <time>2013-06-15T12:36:44Z</time>
      </trkpt>
      <trkpt lat="48.53071" lon="2.14853">
        <ele>75.403135</ele>
        <time>2013-06-15T12:36:49Z</time>
      </trkpt>
      <trkpt lat="48.53071" lon="2.14853">
        <ele>75.403135</ele>
        <time>2013-06-15T12:36:54Z</time>
      </trkpt>
      <trkpt lat="48.53071" lon="2.14853">
        <ele>75.403135</ele>
        <time>2013-06-15T12:36:59Z</time>
      </trkpt>
      <trkpt lat="48.53071" lon="2.14853">
        <ele>75.403135</ele>
        <time>2013-06-15T12:37:04Z</time>
      </trkpt>
      <trkpt lat="48.53071" lon="2.14853">
        <ele>75.403135</ele>
        <time>2013-06-15T12:37:09Z</time>
      </trkpt>
      <trkpt lat="48.53071" lon="2.14853">
        <ele>75.403135</ele>
        <time>2013-06-15T12:37:14Z</time>
      </trkpt>
      <trkpt lat="48.53071" lon="2.14853">
        <ele>75.403135</ele>
        <time>2013-06-15T12:37:19Z</time>
      </trkpt>
      <trkpt lat="48.53071" lon="2.14853">
        <ele>75.403135</ele>
        <time>2013-06-15T12:37:24Z</time>
      </trkpt>
      <trkpt lat="48.53071" lon="2.14853">
        <ele>75.403135</ele>
        <time>2013-06-15T12:37:29Z</time>
      </trkpt>
      <trkpt lat="48.53071" lon="2.14853">
        <ele>75.403135</ele>
        <time>2013-06-15T12:37:34Z</time>
      </trkpt>
      <trkpt lat="48.53071" lon="2.14853">
        <ele>75.403135</ele>
        <time>2013-06-15T12:37:39Z</time>
      </trkpt>
      <trkpt lat="48.53071" lon="2.14853">
        <ele>75.403135</ele>
        <time>2013-06-15T12:37:44Z</time>
      </trkpt>
      <trkpt lat="48.53071" lon="2.14853">
        <ele>75.403135</ele>
        <time>2013-06-15T12:37:49Z</time>
      </trkpt>
      <trkpt lat="48.53071" lon="2.14853">
        <ele>75.403135</ele>
        <time>2013-06-15T12:37:54Z</time>
      </trkpt>
      <trkpt lat="48.53071" lon="2.14853">
        <ele>75.403135</ele>
        <time>2013-06-15T12:37:59Z</time>
      </trkpt>
      <trkpt lat="48.53071" lon="2.14851">
        <ele>75.378309</ele>
        <time>2013-06-15T12:38:04Z</time>
      </trkpt>
      <trkpt lat="48.53071" lon="2.14851">
        <ele>75.378309</ele>
        <time>2013-06-15T12:38:09Z</time>
      </trkpt>
      <trkpt lat="48.53071" lon="2.14851">
        <ele>75.378309</ele>
        <time>2013-06-15T12:38:14Z</time>
      </trkpt>
      <trkpt lat="48.53071" lon="2.14851">
        <ele>75.378309</ele>
        <time>2013-06-15T12:38:19Z</time>
      </trkpt>
      <trkpt lat="48.53071" lon="2.14851">
        <ele>75.378309</ele>
        <time>2013-06-15T12:38:24Z</time>
      </trkpt>
      <trkpt lat="48.53071" lon="2.14851">
        <ele>75.378309</ele>
        <time>2013-06-15T12:38:29Z</time>
      </trkpt>
      <trkpt lat="48.53071" lon="2.14851">
        <ele>75.378309</ele>
        <time>2013-06-15T12:38:34Z</time>
      </trkpt>
      <trkpt lat="48.53071" lon="2.14851">
        <ele>75.378309</ele>
        <time>2013-06-15T12:38:39Z</time>
      </trkpt>
      <trkpt lat="48.53071" lon="2.14851">
        <ele>75.378309</ele>
        <time>2013-06-15T12:38:44Z</time>
      </trkpt>
      <trkpt lat="48.53071" lon="2.14851">
        <ele>75.378309</ele>
        <time>2013-06-15T12:38:49Z</time>
      </trkpt>
      <trkpt lat="48.53071" lon="2.14851">
        <ele>75.378309</ele>
        <time>2013-06-15T12:38:54Z</time>
      </trkpt>
      <trkpt lat="48.53071" lon="2.14851">
        <ele>75.378309</ele>
        <time>2013-06-15T12:38:59Z</time>
      </trkpt>
      <trkpt lat="48.53071" lon="2.14851">
        <ele>75.378309</ele>
        <time>2013-06-15T12:39:04Z</time>
      </trkpt>
      <trkpt lat="48.53071" lon="2.14851">
        <ele>75.378309</ele>
        <time>2013-06-15T12:39:09Z</time>
      </trkpt>
      <trkpt lat="48.53071" lon="2.14851">
        <ele>75.378309</ele>
        <time>2013-06-15T12:39:14Z</time>
      </trkpt>
      <trkpt lat="48.53071" lon="2.14851">
        <ele>75.378309</ele>
        <time>2013-06-15T12:39:19Z</time>
      </trkpt>
      <trkpt lat="48.53071" lon="2.14851">
        <ele>75.378309</ele>
        <time>2013-06-15T12:39:24Z</time>
      </trkpt>
      <trkpt lat="48.53071" lon="2.14851">
        <ele>75.378309</ele>
        <time>2013-06-15T12:39:29Z</time>
      </trkpt>
      <trkpt lat="48.53071" lon="2.14851">
        <ele>75.378309</ele>
        <time>2013-06-15T12:39:34Z</time>
      </trkpt>
      <trkpt lat="48.53071" lon="2.14851">
        <ele>75.378309</ele>
        <time>2013-06-15T12:39:39Z</time>
      </trkpt>
      <trkpt lat="48.53071" lon="2.14851">
        <ele>75.378309</ele>
        <time>2013-06-15T12:39:44Z</time>
      </trkpt>
      <trkpt lat="48.53071" lon="2.14851">
        <ele>75.378309</ele>
        <time>2013-06-15T12:39:49Z</time>
      </trkpt>
      <trkpt lat="48.53071" lon="2.14851">
        <ele>75.378309</ele>
        <time>2013-06-15T12:39:54Z</time>
      </trkpt>
      <trkpt lat="48.53071" lon="2.14851">
        <ele>75.378309</ele>
        <time>2013-06-15T12:39:59Z</time>
      </trkpt>
      <trkpt lat="48.53071" lon="2.14851">
        <ele>75.378309</ele>
        <time>2013-06-15T12:40:04Z</time>
      </trkpt>
      <trkpt lat="48.53071" lon="2.14851">
        <ele>75.378309</ele>
        <time>2013-06-15T12:40:09Z</time>
      </trkpt>
      <trkpt lat="48.53071" lon="2.14851">
        <ele>75.378309</ele>
        <time>2013-06-15T12:40:14Z</time>
      </trkpt>
      <trkpt lat="48.53071" lon="2.14851">
        <ele>75.378309</ele>
        <time>2013-06-15T12:40:19Z</time>
      </trkpt>
      <trkpt lat="48.5307" lon="2.14851">
        <ele>76.040062</ele>
        <time>2013-06-15T12:40:24Z</time>
      </trkpt>
      <trkpt lat="48.5307" lon="2.14851">
        <ele>76.040062</ele>
        <time>2013-06-15T12:40:29Z</time>
      </trkpt>
      <trkpt lat="48.5307" lon="2.14851">
        <ele>76.040062</ele>
        <time>2013-06-15T12:40:34Z</time>
      </trkpt>
      <trkpt lat="48.5307" lon="2.14851">
        <ele>76.040062</ele>
        <time>2013-06-15T12:40:39Z</time>
      </trkpt>
      <trkpt lat="48.5307" lon="2.14851">
        <ele>76.040062</ele>
        <time>2013-06-15T12:40:44Z</time>
      </trkpt>
      <trkpt lat="48.5307" lon="2.14851">
        <ele>76.040062</ele>
        <time>2013-06-15T12:40:49Z</time>
      </trkpt>
      <trkpt lat="48.5307" lon="2.14851">
        <ele>76.040062</ele>
        <time>2013-06-15T12:40:54Z</time>
      </trkpt>
      <trkpt lat="48.5307" lon="2.14851">
        <ele>76.040062</ele>
        <time>2013-06-15T12:40:59Z</time>
      </trkpt>
      <trkpt lat="48.5307" lon="2.14851">
        <ele>76.040062</ele>
        <time>2013-06-15T12:41:04Z</time>
      </trkpt>
      <trkpt lat="48.5307" lon="2.14851">
        <ele>76.040062</ele>
        <time>2013-06-15T12:41:09Z</time>
      </trkpt>
      <trkpt lat="48.5307" lon="2.14853">
        <ele>76.064889</ele>
        <time>2013-06-15T12:41:14Z</time>
      </trkpt>
      <trkpt lat="48.5307" lon="2.14853">
        <ele>76.064889</ele>
        <time>2013-06-15T12:41:19Z</time>
      </trkpt>
      <trkpt lat="48.53071" lon="2.14851">
        <ele>75.378309</ele>
        <time>2013-06-15T12:41:24Z</time>
      </trkpt>
      <trkpt lat="48.53071" lon="2.14851">
        <ele>76.12762</ele>
        <time>2013-06-15T12:41:29Z</time>
      </trkpt>
      <trkpt lat="48.53071" lon="2.14851">
        <ele>76.12762</ele>
        <time>2013-06-15T12:41:34Z</time>
      </trkpt>
      <trkpt lat="48.53071" lon="2.14851">
        <ele>76.12762</ele>
        <time>2013-06-15T12:41:39Z</time>
      </trkpt>
      <trkpt lat="48.53071" lon="2.14851">
        <ele>76.12762</ele>
        <time>2013-06-15T12:41:44Z</time>
      </trkpt>
      <trkpt lat="48.53071" lon="2.14851">
        <ele>76.12762</ele>
        <time>2013-06-15T12:41:49Z</time>
      </trkpt>
      <trkpt lat="48.53071" lon="2.14851">
        <ele>76.12762</ele>
        <time>2013-06-15T12:41:54Z</time>
      </trkpt>
      <trkpt lat="48.53071" lon="2.14851">
        <ele>76.12762</ele>
        <time>2013-06-15T12:41:59Z</time>
      </trkpt>
      <trkpt lat="48.53071" lon="2.14851">
        <ele>76.12762</ele>
        <time>2013-06-15T12:42:04Z</time>
      </trkpt>
      <trkpt lat="48.53071" lon="2.1485">
        <ele>76.764546</ele>
        <time>2013-06-15T12:42:09Z</time>
      </trkpt>
      <trkpt lat="48.53071" lon="2.1485">
        <ele>76.764546</ele>
        <time>2013-06-15T12:42:14Z</time>
      </trkpt>
      <trkpt lat="48.53071" lon="2.1485">
        <ele>76.764546</ele>
        <time>2013-06-15T12:42:19Z</time>
      </trkpt>
      <trkpt lat="48.53071" lon="2.1485">
        <ele>76.764546</ele>
        <time>2013-06-15T12:42:24Z</time>
      </trkpt>
      <trkpt lat="48.53071" lon="2.1485">
        <ele>76.764546</ele>
        <time>2013-06-15T12:42:29Z</time>
      </trkpt>
      <trkpt lat="48.53071" lon="2.1485">
        <ele>76.764546</ele>
        <time>2013-06-15T12:42:34Z</time>
      </trkpt>
      <trkpt lat="48.53071" lon="2.1485">
        <ele>76.764546</ele>
        <time>2013-06-15T12:42:39Z</time>
      </trkpt>
      <trkpt lat="48.53071" lon="2.1485">
        <ele>76.764546</ele>
        <time>2013-06-15T12:42:44Z</time>
      </trkpt>
      <trkpt lat="48.53071" lon="2.1485">
        <ele>76.764546</ele>
        <time>2013-06-15T12:42:49Z</time>
      </trkpt>
      <trkpt lat="48.53071" lon="2.1485">
        <ele>76.764546</ele>
        <time>2013-06-15T12:42:54Z</time>
      </trkpt>
      <trkpt lat="48.53071" lon="2.1485">
        <ele>76.764546</ele>
        <time>2013-06-15T12:42:59Z</time>
      </trkpt>
      <trkpt lat="48.53071" lon="2.1485">
        <ele>76.764546</ele>
        <time>2013-06-15T12:43:04Z</time>
      </trkpt>
      <trkpt lat="48.53071" lon="2.1485">
        <ele>76.764546</ele>
        <time>2013-06-15T12:43:09Z</time>
      </trkpt>
      <trkpt lat="48.53071" lon="2.1485">
        <ele>76.764546</ele>
        <time>2013-06-15T12:43:14Z</time>
      </trkpt>
      <trkpt lat="48.53071" lon="2.1485">
        <ele>76.764546</ele>
        <time>2013-06-15T12:43:19Z</time>
      </trkpt>
      <trkpt lat="48.53071" lon="2.1485">
        <ele>76.764546</ele>
        <time>2013-06-15T12:43:24Z</time>
      </trkpt>
      <trkpt lat="48.53071" lon="2.1485">
        <ele>76.764546</ele>
        <time>2013-06-15T12:43:29Z</time>
      </trkpt>
      <trkpt lat="48.53069" lon="2.14851">
        <ele>76.701815</ele>
        <time>2013-06-15T12:43:34Z</time>
      </trkpt>
      <trkpt lat="48.53069" lon="2.14853">
        <ele>75.977331</ele>
        <time>2013-06-15T12:43:39Z</time>
      </trkpt>
      <trkpt lat="48.53064" lon="2.14851">
        <ele>76.351588</ele>
        <time>2013-06-15T12:43:44Z</time>
      </trkpt>
      <trkpt lat="48.53061" lon="2.14852">
        <ele>76.863057</ele>
        <time>2013-06-15T12:43:49Z</time>
      </trkpt>
      <trkpt lat="48.53057" lon="2.14852">
        <ele>76.600393</ele>
        <time>2013-06-15T12:43:54Z</time>
      </trkpt>
      <trkpt lat="48.53053" lon="2.14852">
        <ele>77.748795</ele>
        <time>2013-06-15T12:43:59Z</time>
      </trkpt>
      <trkpt lat="48.53049" lon="2.1485">
        <ele>78.123065</ele>
        <time>2013-06-15T12:44:04Z</time>
      </trkpt>
      <trkpt lat="48.53045" lon="2.14849">
        <ele>77.835583</ele>
        <time>2013-06-15T12:44:09Z</time>
      </trkpt>
      <trkpt lat="48.53041" lon="2.14846">
        <ele>78.934343</ele>
        <time>2013-06-15T12:44:14Z</time>
      </trkpt>
      <trkpt lat="48.53036" lon="2.14844">
        <ele>78.559317</ele>
        <time>2013-06-15T12:44:19Z</time>
      </trkpt>
      <trkpt lat="48.53032" lon="2.14843">
        <ele>78.933604</ele>
        <time>2013-06-15T12:44:24Z</time>
      </trkpt>
      <trkpt lat="48.53027" lon="2.1484">
        <ele>79.283068</ele>
        <time>2013-06-15T12:44:29Z</time>
      </trkpt>
      <trkpt lat="48.53024" lon="2.14836">
        <ele>78.945954</ele>
        <time>2013-06-15T12:44:34Z</time>
      </trkpt>
      <trkpt lat="48.53022" lon="2.1483">
        <ele>79.420869</ele>
        <time>2013-06-15T12:44:39Z</time>
      </trkpt>
      <trkpt lat="48.53019" lon="2.14827">
        <ele>79.85789</ele>
        <time>2013-06-15T12:44:44Z</time>
      </trkpt>
      <trkpt lat="48.53014" lon="2.14827">
        <ele>79.507713</ele>
        <time>2013-06-15T12:44:49Z</time>
      </trkpt>
      <trkpt lat="48.53008" lon="2.1483">
        <ele>79.20719</ele>
        <time>2013-06-15T12:44:54Z</time>
      </trkpt>
      <trkpt lat="48.53003" lon="2.14832">
        <ele>79.568434</ele>
        <time>2013-06-15T12:44:59Z</time>
      </trkpt>
      <trkpt lat="48.52998" lon="2.14833">
        <ele>79.9924</ele>
        <time>2013-06-15T12:45:04Z</time>
      </trkpt>
      <trkpt lat="48.52992" lon="2.14833">
        <ele>80.304007</ele>
        <time>2013-06-15T12:45:09Z</time>
      </trkpt>
      <trkpt lat="48.52987" lon="2.14833">
        <ele>79.953856</ele>
        <time>2013-06-15T12:45:14Z</time>
      </trkpt>
      <trkpt lat="48.52983" lon="2.14831">
        <ele>80.328186</ele>
        <time>2013-06-15T12:45:19Z</time>
      </trkpt>
      <trkpt lat="48.52978" lon="2.14831">
        <ele>79.978045</ele>
        <time>2013-06-15T12:45:24Z</time>
      </trkpt>
      <trkpt lat="48.52974" lon="2.14831">
        <ele>79.715442</ele>
        <time>2013-06-15T12:45:29Z</time>
      </trkpt>
      <trkpt lat="48.5297" lon="2.14827">
        <ele>80.789435</ele>
        <time>2013-06-15T12:45:34Z</time>
      </trkpt>
      <trkpt lat="48.52966" lon="2.14827">
        <ele>81.188604</ele>
        <time>2013-06-15T12:45:39Z</time>
      </trkpt>
      <trkpt lat="48.52961" lon="2.14824">
        <ele>81.53813</ele>
        <time>2013-06-15T12:45:44Z</time>
      </trkpt>
      <trkpt lat="48.52956" lon="2.14822">
        <ele>81.163186</ele>
        <time>2013-06-15T12:45:49Z</time>
      </trkpt>
      <trkpt lat="48.52951" lon="2.14819">
        <ele>80.763424</ele>
        <time>2013-06-15T12:45:54Z</time>
      </trkpt>
      <trkpt lat="48.52947" lon="2.14816">
        <ele>81.112964</ele>
        <time>2013-06-15T12:45:59Z</time>
      </trkpt>
      <trkpt lat="48.52943" lon="2.14812">
        <ele>82.186982</ele>
        <time>2013-06-15T12:46:04Z</time>
      </trkpt>
      <trkpt lat="48.52939" lon="2.1481">
        <ele>83.310649</ele>
        <time>2013-06-15T12:46:09Z</time>
      </trkpt>
      <trkpt lat="48.52935" lon="2.14808">
        <ele>82.249135</ele>
        <time>2013-06-15T12:46:14Z</time>
      </trkpt>
      <trkpt lat="48.52929" lon="2.14805">
        <ele>82.51117</ele>
        <time>2013-06-15T12:46:19Z</time>
      </trkpt>
      <trkpt lat="48.52924" lon="2.14802">
        <ele>82.111439</ele>
        <time>2013-06-15T12:46:24Z</time>
      </trkpt>
      <trkpt lat="48.5292" lon="2.14799">
        <ele>83.2103</ele>
        <time>2013-06-15T12:46:29Z</time>
      </trkpt>
      <trkpt lat="48.52916" lon="2.14792">
        <ele>82.823636</ele>
        <time>2013-06-15T12:46:34Z</time>
      </trkpt>
      <trkpt lat="48.52913" lon="2.14786">
        <ele>83.211091</ele>
        <time>2013-06-15T12:46:39Z</time>
      </trkpt>
      <trkpt lat="48.52911" lon="2.14779">
        <ele>84.323025</ele>
        <time>2013-06-15T12:46:44Z</time>
      </trkpt>
      <trkpt lat="48.52907" lon="2.14772">
        <ele>83.936379</ele>
        <time>2013-06-15T12:46:49Z</time>
      </trkpt>
      <trkpt lat="48.52904" lon="2.14766">
        <ele>83.54974</ele>
        <time>2013-06-15T12:46:54Z</time>
      </trkpt>
      <trkpt lat="48.529" lon="2.14759">
        <ele>83.163108</ele>
        <time>2013-06-15T12:46:59Z</time>
      </trkpt>
      <trkpt lat="48.52896" lon="2.14753">
        <ele>82.801299</ele>
        <time>2013-06-15T12:47:04Z</time>
      </trkpt>
      <trkpt lat="48.52894" lon="2.14746">
        <ele>82.502193</ele>
        <time>2013-06-15T12:47:09Z</time>
      </trkpt>
      <trkpt lat="48.52891" lon="2.14739">
        <ele>82.864869</ele>
        <time>2013-06-15T12:47:14Z</time>
      </trkpt>
      <trkpt lat="48.52888" lon="2.14734">
        <ele>83.252365</ele>
        <time>2013-06-15T12:47:19Z</time>
      </trkpt>
      <trkpt lat="48.52884" lon="2.14727">
        <ele>82.865764</ele>
        <time>2013-06-15T12:47:24Z</time>
      </trkpt>
      <trkpt lat="48.5288" lon="2.14721">
        <ele>83.915048</ele>
        <time>2013-06-15T12:47:29Z</time>
      </trkpt>
      <trkpt lat="48.52877" lon="2.14717">
        <ele>82.916304</ele>
        <time>2013-06-15T12:47:34Z</time>
      </trkpt>
      <trkpt lat="48.52878" lon="2.14713">
        <ele>83.591157</ele>
        <time>2013-06-15T12:47:39Z</time>
      </trkpt>
      <trkpt lat="48.52874" lon="2.14707">
        <ele>84.640453</ele>
        <time>2013-06-15T12:47:44Z</time>
      </trkpt>
      <trkpt lat="48.5287" lon="2.147">
        <ele>84.253876</ele>
        <time>2013-06-15T12:47:49Z</time>
      </trkpt>
      <trkpt lat="48.52867" lon="2.14694">
        <ele>84.616593</ele>
        <time>2013-06-15T12:47:54Z</time>
      </trkpt>
      <trkpt lat="48.52864" lon="2.14687">
        <ele>83.568249</ele>
        <time>2013-06-15T12:47:59Z</time>
      </trkpt>
      <trkpt lat="48.52864" lon="2.14679">
        <ele>83.419401</ele>
        <time>2013-06-15T12:48:04Z</time>
      </trkpt>
      <trkpt lat="48.52867" lon="2.14672">
        <ele>83.470379</ele>
        <time>2013-06-15T12:48:09Z</time>
      </trkpt>
      <trkpt lat="48.5287" lon="2.14665">
        <ele>83.521361</ele>
        <time>2013-06-15T12:48:14Z</time>
      </trkpt>
      <trkpt lat="48.52873" lon="2.14659">
        <ele>84.321636</ele>
        <time>2013-06-15T12:48:19Z</time>
      </trkpt>
      <trkpt lat="48.52877" lon="2.14653">
        <ele>85.89601</ele>
        <time>2013-06-15T12:48:24Z</time>
      </trkpt>
      <trkpt lat="48.52879" lon="2.14649">
        <ele>85.996616</ele>
        <time>2013-06-15T12:48:29Z</time>
      </trkpt>
      <trkpt lat="48.52883" lon="2.14644">
        <ele>86.82171</ele>
        <time>2013-06-15T12:48:34Z</time>
      </trkpt>
      <trkpt lat="48.52885" lon="2.14639">
        <ele>86.14823</ele>
        <time>2013-06-15T12:48:39Z</time>
      </trkpt>
      <trkpt lat="48.52888" lon="2.14635">
        <ele>85.587067</ele>
        <time>2013-06-15T12:48:44Z</time>
      </trkpt>
      <trkpt lat="48.52892" lon="2.14631">
        <ele>85.11342</ele>
        <time>2013-06-15T12:48:49Z</time>
      </trkpt>
      <trkpt lat="48.52898" lon="2.14628">
        <ele>86.163161</ele>
        <time>2013-06-15T12:48:54Z</time>
      </trkpt>
      <trkpt lat="48.52904" lon="2.14629">
        <ele>85.851445</ele>
        <time>2013-06-15T12:48:59Z</time>
      </trkpt>
      <trkpt lat="48.5291" lon="2.1463">
        <ele>86.313828</ele>
        <time>2013-06-15T12:49:04Z</time>
      </trkpt>
      <trkpt lat="48.52917" lon="2.14631">
        <ele>86.751418</ele>
        <time>2013-06-15T12:49:09Z</time>
      </trkpt>
      <trkpt lat="48.52922" lon="2.14633">
        <ele>86.489326</ele>
        <time>2013-06-15T12:49:14Z</time>
      </trkpt>
      <trkpt lat="48.52927" lon="2.14638">
        <ele>86.913816</ele>
        <time>2013-06-15T12:49:19Z</time>
      </trkpt>
      <trkpt lat="48.52932" lon="2.14643">
        <ele>88.024888</ele>
        <time>2013-06-15T12:49:24Z</time>
      </trkpt>
      <trkpt lat="48.52934" lon="2.14649">
        <ele>88.299147</ele>
        <time>2013-06-15T12:49:29Z</time>
      </trkpt>
      <trkpt lat="48.52938" lon="2.14652">
        <ele>89.360621</ele>
        <time>2013-06-15T12:49:34Z</time>
      </trkpt>
      <trkpt lat="48.52943" lon="2.14655">
        <ele>90.4221</ele>
        <time>2013-06-15T12:49:39Z</time>
      </trkpt>
      <trkpt lat="48.52948" lon="2.14657">
        <ele>90.821813</ele>
        <time>2013-06-15T12:49:44Z</time>
      </trkpt>
      <trkpt lat="48.52953" lon="2.14662">
        <ele>91.246336</ele>
        <time>2013-06-15T12:49:49Z</time>
      </trkpt>
      <trkpt lat="48.52958" lon="2.14666">
        <ele>91.670866</ele>
        <time>2013-06-15T12:49:54Z</time>
      </trkpt>
      <trkpt lat="48.52962" lon="2.14669">
        <ele>92.732364</ele>
        <time>2013-06-15T12:49:59Z</time>
      </trkpt>
      <trkpt lat="48.52968" lon="2.14673">
        <ele>92.495139</ele>
        <time>2013-06-15T12:50:04Z</time>
      </trkpt>
      <trkpt lat="48.52973" lon="2.14677">
        <ele>93.668987</ele>
        <time>2013-06-15T12:50:09Z</time>
      </trkpt>
      <trkpt lat="48.5298" lon="2.1468">
        <ele>92.745204</ele>
        <time>2013-06-15T12:50:14Z</time>
      </trkpt>
      <trkpt lat="48.52983" lon="2.14683">
        <ele>93.057423</ele>
        <time>2013-06-15T12:50:19Z</time>
      </trkpt>
      <trkpt lat="48.52987" lon="2.14687">
        <ele>93.394454</ele>
        <time>2013-06-15T12:50:24Z</time>
      </trkpt>
      <trkpt lat="48.52994" lon="2.14692">
        <ele>91.833736</ele>
        <time>2013-06-15T12:50:29Z</time>
      </trkpt>
      <trkpt lat="48.53001" lon="2.14698">
        <ele>90.9596</ele>
        <time>2013-06-15T12:50:34Z</time>
      </trkpt>
      <trkpt lat="48.53006" lon="2.14702">
        <ele>91.384189</ele>
        <time>2013-06-15T12:50:39Z</time>
      </trkpt>
      <trkpt lat="48.53011" lon="2.14702">
        <ele>92.48366</ele>
        <time>2013-06-15T12:50:44Z</time>
      </trkpt>
      <trkpt lat="48.53013" lon="2.14705">
        <ele>91.209756</ele>
        <time>2013-06-15T12:50:49Z</time>
      </trkpt>
      <trkpt lat="48.53018" lon="2.14706">
        <ele>91.58474</ele>
        <time>2013-06-15T12:50:54Z</time>
      </trkpt>
      <trkpt lat="48.53023" lon="2.14711">
        <ele>92.009349</ele>
        <time>2013-06-15T12:50:59Z</time>
      </trkpt>
      <trkpt lat="48.53025" lon="2.14709">
        <ele>91.410324</ele>
        <time>2013-06-15T12:51:04Z</time>
      </trkpt>
      <trkpt lat="48.53023" lon="2.14705">
        <ele>91.910108</ele>
        <time>2013-06-15T12:51:09Z</time>
      </trkpt>
      <trkpt lat="48.53021" lon="2.14704">
        <ele>91.797753</ele>
        <time>2013-06-15T12:51:14Z</time>
      </trkpt>
      <trkpt lat="48.53021" lon="2.14707">
        <ele>92.509133</ele>
        <time>2013-06-15T12:51:19Z</time>
      </trkpt>
      <trkpt lat="48.53023" lon="2.14709">
        <ele>93.395603</ele>
        <time>2013-06-15T12:51:24Z</time>
      </trkpt>
      <trkpt lat="48.53023" lon="2.14709">
        <ele>92.733844</ele>
        <time>2013-06-15T12:51:29Z</time>
      </trkpt>
      <trkpt lat="48.53027" lon="2.14707">
        <ele>92.946861</ele>
        <time>2013-06-15T12:51:34Z</time>
      </trkpt>
      <trkpt lat="48.5303" lon="2.14706">
        <ele>93.097144</ele>
        <time>2013-06-15T12:51:39Z</time>
      </trkpt>
      <trkpt lat="48.53027" lon="2.14705">
        <ele>92.922051</ele>
        <time>2013-06-15T12:51:44Z</time>
      </trkpt>
      <trkpt lat="48.53026" lon="2.14705">
        <ele>93.58381</ele>
        <time>2013-06-15T12:51:49Z</time>
      </trkpt>
      <trkpt lat="48.53027" lon="2.14705">
        <ele>92.922051</ele>
        <time>2013-06-15T12:51:54Z</time>
      </trkpt>
      <trkpt lat="48.53027" lon="2.14705">
        <ele>92.922051</ele>
        <time>2013-06-15T12:51:59Z</time>
      </trkpt>
      <trkpt lat="48.53027" lon="2.14705">
        <ele>92.922051</ele>
        <time>2013-06-15T12:52:04Z</time>
      </trkpt>
      <trkpt lat="48.53026" lon="2.14707">
        <ele>92.859315</ele>
        <time>2013-06-15T12:52:09Z</time>
      </trkpt>
      <trkpt lat="48.53023" lon="2.14705">
        <ele>93.321173</ele>
        <time>2013-06-15T12:52:14Z</time>
      </trkpt>
      <trkpt lat="48.5302" lon="2.14702">
        <ele>94.507529</ele>
        <time>2013-06-15T12:52:19Z</time>
      </trkpt>
      <trkpt lat="48.53018" lon="2.14697">
        <ele>94.233204</ele>
        <time>2013-06-15T12:52:24Z</time>
      </trkpt>
      <trkpt lat="48.53014" lon="2.14693">
        <ele>94.645452</ele>
        <time>2013-06-15T12:52:29Z</time>
      </trkpt>
      <trkpt lat="48.53011" lon="2.14691">
        <ele>95.107319</ele>
        <time>2013-06-15T12:52:34Z</time>
      </trkpt>
      <trkpt lat="48.53011" lon="2.1469">
        <ele>94.333207</ele>
        <time>2013-06-15T12:52:39Z</time>
      </trkpt>
      <trkpt lat="48.53006" lon="2.14688">
        <ele>93.958233</ele>
        <time>2013-06-15T12:52:44Z</time>
      </trkpt>
      <trkpt lat="48.53001" lon="2.14685">
        <ele>93.558456</ele>
        <time>2013-06-15T12:52:49Z</time>
      </trkpt>
      <trkpt lat="48.52997" lon="2.14682">
        <ele>93.246223</ele>
        <time>2013-06-15T12:52:54Z</time>
      </trkpt>
      <trkpt lat="48.52994" lon="2.14678">
        <ele>93.658489</ele>
        <time>2013-06-15T12:52:59Z</time>
      </trkpt>
      <trkpt lat="48.52989" lon="2.14675">
        <ele>94.008027</ele>
        <time>2013-06-15T12:53:04Z</time>
      </trkpt>
      <trkpt lat="48.52984" lon="2.14672">
        <ele>93.608269</ele>
        <time>2013-06-15T12:53:09Z</time>
      </trkpt>
      <trkpt lat="48.5298" lon="2.14668">
        <ele>93.933012</ele>
        <time>2013-06-15T12:53:14Z</time>
      </trkpt>
      <trkpt lat="48.52975" lon="2.14665">
        <ele>93.533265</ele>
        <time>2013-06-15T12:53:19Z</time>
      </trkpt>
      <trkpt lat="48.5297" lon="2.14661">
        <ele>93.108718</ele>
        <time>2013-06-15T12:53:24Z</time>
      </trkpt>
      <trkpt lat="48.52964" lon="2.14657">
        <ele>91.93488</ele>
        <time>2013-06-15T12:53:29Z</time>
      </trkpt>
      <trkpt lat="48.52959" lon="2.14654">
        <ele>91.535151</ele>
        <time>2013-06-15T12:53:34Z</time>
      </trkpt>
      <trkpt lat="48.52954" lon="2.1465">
        <ele>91.110624</ele>
        <time>2013-06-15T12:53:39Z</time>
      </trkpt>
      <trkpt lat="48.52949" lon="2.14647">
        <ele>90.710907</ele>
        <time>2013-06-15T12:53:44Z</time>
      </trkpt>
      <trkpt lat="48.52945" lon="2.14642">
        <ele>91.035689</ele>
        <time>2013-06-15T12:53:49Z</time>
      </trkpt>
      <trkpt lat="48.52941" lon="2.14641">
        <ele>90.74831</ele>
        <time>2013-06-15T12:53:54Z</time>
      </trkpt>
      <trkpt lat="48.52936" lon="2.14639">
        <ele>91.784477</ele>
        <time>2013-06-15T12:53:59Z</time>
      </trkpt>
      <trkpt lat="48.52931" lon="2.14636">
        <ele>91.38478</ele>
        <time>2013-06-15T12:54:04Z</time>
      </trkpt>
      <trkpt lat="48.52925" lon="2.14632">
        <ele>91.62206</ele>
        <time>2013-06-15T12:54:09Z</time>
      </trkpt>
      <trkpt lat="48.52919" lon="2.14629">
        <ele>91.134856</ele>
        <time>2013-06-15T12:54:14Z</time>
      </trkpt>
      <trkpt lat="48.52911" lon="2.14627">
        <ele>90.584944</ele>
        <time>2013-06-15T12:54:19Z</time>
      </trkpt>
      <trkpt lat="48.52906" lon="2.14627">
        <ele>90.234877</ele>
        <time>2013-06-15T12:54:24Z</time>
      </trkpt>
      <trkpt lat="48.52901" lon="2.14627">
        <ele>89.884814</ele>
        <time>2013-06-15T12:54:29Z</time>
      </trkpt>
      <trkpt lat="48.52897" lon="2.14623">
        <ele>88.798577</ele>
        <time>2013-06-15T12:54:34Z</time>
      </trkpt>
      <trkpt lat="48.52896" lon="2.14617">
        <ele>89.361151</ele>
        <time>2013-06-15T12:54:39Z</time>
      </trkpt>
      <trkpt lat="48.52899" lon="2.14611">
        <ele>89.412179</ele>
        <time>2013-06-15T12:54:44Z</time>
      </trkpt>
      <trkpt lat="48.52902" lon="2.14604">
        <ele>90.212504</ele>
        <time>2013-06-15T12:54:49Z</time>
      </trkpt>
      <trkpt lat="48.52904" lon="2.14599">
        <ele>90.950118</ele>
        <time>2013-06-15T12:54:54Z</time>
      </trkpt>
      <trkpt lat="48.52907" lon="2.14591">
        <ele>90.976364</ele>
        <time>2013-06-15T12:54:59Z</time>
      </trkpt>
      <trkpt lat="48.52909" lon="2.14584">
        <ele>91.027413</ele>
        <time>2013-06-15T12:55:04Z</time>
      </trkpt>
      <trkpt lat="48.52912" lon="2.14577">
        <ele>91.078467</ele>
        <time>2013-06-15T12:55:09Z</time>
      </trkpt>
      <trkpt lat="48.52914" lon="2.14571">
        <ele>90.380234</ele>
        <time>2013-06-15T12:55:14Z</time>
      </trkpt>
      <trkpt lat="48.52917" lon="2.14564">
        <ele>90.431298</ele>
        <time>2013-06-15T12:55:19Z</time>
      </trkpt>
      <trkpt lat="48.5292" lon="2.14557">
        <ele>91.231661</ele>
        <time>2013-06-15T12:55:24Z</time>
      </trkpt>
      <trkpt lat="48.52923" lon="2.14549">
        <ele>91.257944</ele>
        <time>2013-06-15T12:55:29Z</time>
      </trkpt>
      <trkpt lat="48.52926" lon="2.14543">
        <ele>92.058319</ele>
        <time>2013-06-15T12:55:34Z</time>
      </trkpt>
      <trkpt lat="48.52929" lon="2.14536">
        <ele>92.109405</ele>
        <time>2013-06-15T12:55:39Z</time>
      </trkpt>
      <trkpt lat="48.52932" lon="2.14528">
        <ele>91.473935</ele>
        <time>2013-06-15T12:55:44Z</time>
      </trkpt>
      <trkpt lat="48.52935" lon="2.14521">
        <ele>92.9361</ele>
        <time>2013-06-15T12:55:49Z</time>
      </trkpt>
      <trkpt lat="48.52937" lon="2.14515">
        <ele>92.987203</ele>
        <time>2013-06-15T12:55:54Z</time>
      </trkpt>
      <trkpt lat="48.52941" lon="2.14508">
        <ele>93.787607</ele>
        <time>2013-06-15T12:55:59Z</time>
      </trkpt>
      <trkpt lat="48.52943" lon="2.145">
        <ele>93.813934</ele>
        <time>2013-06-15T12:56:04Z</time>
      </trkpt>
      <trkpt lat="48.52946" lon="2.14493">
        <ele>93.865054</ele>
        <time>2013-06-15T12:56:09Z</time>
      </trkpt>
      <trkpt lat="48.52949" lon="2.14487">
        <ele>94.665475</ele>
        <time>2013-06-15T12:56:14Z</time>
      </trkpt>
      <trkpt lat="48.52953" lon="2.1448">
        <ele>94.054835</ele>
        <time>2013-06-15T12:56:19Z</time>
      </trkpt>
      <trkpt lat="48.52956" lon="2.14473">
        <ele>95.604566</ele>
        <time>2013-06-15T12:56:24Z</time>
      </trkpt>
      <trkpt lat="48.52959" lon="2.14467">
        <ele>95.655707</ele>
        <time>2013-06-15T12:56:29Z</time>
      </trkpt>
      <trkpt lat="48.52962" lon="2.14461">
        <ele>95.731636</ele>
        <time>2013-06-15T12:56:34Z</time>
      </trkpt>
      <trkpt lat="48.52963" lon="2.14459">
        <ele>95.769602</ele>
        <time>2013-06-15T12:56:39Z</time>
      </trkpt>
      <trkpt lat="48.52966" lon="2.14457">
        <ele>95.91988</ele>
        <time>2013-06-15T12:56:44Z</time>
      </trkpt>
      <trkpt lat="48.52967" lon="2.14456">
        <ele>95.982629</ele>
        <time>2013-06-15T12:56:49Z</time>
      </trkpt>
      <trkpt lat="48.52967" lon="2.14456">
        <ele>95.982629</ele>
        <time>2013-06-15T12:56:54Z</time>
      </trkpt>
      <trkpt lat="48.52966" lon="2.14456">
        <ele>95.23333</ele>
        <time>2013-06-15T12:56:59Z</time>
      </trkpt>
      <trkpt lat="48.52966" lon="2.14456">
        <ele>95.23333</ele>
        <time>2013-06-15T12:57:04Z</time>
      </trkpt>
      <trkpt lat="48.52966" lon="2.14456">
        <ele>95.23333</ele>
        <time>2013-06-15T12:57:09Z</time>
      </trkpt>
      <trkpt lat="48.52966" lon="2.14456">
        <ele>95.23333</ele>
        <time>2013-06-15T12:57:14Z</time>
      </trkpt>
      <trkpt lat="48.52966" lon="2.14456">
        <ele>95.23333</ele>
        <time>2013-06-15T12:57:19Z</time>
      </trkpt>
      <trkpt lat="48.52966" lon="2.14456">
        <ele>95.23333</ele>
        <time>2013-06-15T12:57:24Z</time>
      </trkpt>
      <trkpt lat="48.52966" lon="2.14456">
        <ele>95.23333</ele>
        <time>2013-06-15T12:57:29Z</time>
      </trkpt>
      <trkpt lat="48.52966" lon="2.14456">
        <ele>95.23333</ele>
        <time>2013-06-15T12:57:34Z</time>
      </trkpt>
      <trkpt lat="48.52966" lon="2.14456">
        <ele>95.23333</ele>
        <time>2013-06-15T12:57:39Z</time>
      </trkpt>
      <trkpt lat="48.52966" lon="2.14456">
        <ele>95.23333</ele>
        <time>2013-06-15T12:57:44Z</time>
      </trkpt>
      <trkpt lat="48.52966" lon="2.14456">
        <ele>95.23333</ele>
        <time>2013-06-15T12:57:49Z</time>
      </trkpt>
      <trkpt lat="48.52966" lon="2.14455">
        <ele>95.208549</ele>
        <time>2013-06-15T12:57:54Z</time>
      </trkpt>
      <trkpt lat="48.52965" lon="2.14455">
        <ele>95.121019</ele>
        <time>2013-06-15T12:57:59Z</time>
      </trkpt>
      <trkpt lat="48.52964" lon="2.14455">
        <ele>95.782787</ele>
        <time>2013-06-15T12:58:04Z</time>
      </trkpt>
      <trkpt lat="48.5296" lon="2.14456">
        <ele>96.20675</ele>
        <time>2013-06-15T12:58:09Z</time>
      </trkpt>
      <trkpt lat="48.52955" lon="2.14453">
        <ele>97.218142</ele>
        <time>2013-06-15T12:58:14Z</time>
      </trkpt>
      <trkpt lat="48.5295" lon="2.14451">
        <ele>96.843254</ele>
        <time>2013-06-15T12:58:19Z</time>
      </trkpt>
      <trkpt lat="48.52944" lon="2.1445">
        <ele>97.130142</ele>
        <time>2013-06-15T12:58:24Z</time>
      </trkpt>
      <trkpt lat="48.52939" lon="2.14448">
        <ele>98.166333</ele>
        <time>2013-06-15T12:58:29Z</time>
      </trkpt>
      <trkpt lat="48.52934" lon="2.14445">
        <ele>98.515975</ele>
        <time>2013-06-15T12:58:34Z</time>
      </trkpt>
      <trkpt lat="48.52929" lon="2.14444">
        <ele>98.141108</ele>
        <time>2013-06-15T12:58:39Z</time>
      </trkpt>
      <trkpt lat="48.52925" lon="2.14442">
        <ele>98.51554</ele>
        <time>2013-06-15T12:58:44Z</time>
      </trkpt>
      <trkpt lat="48.52921" lon="2.14439">
        <ele>98.203422</ele>
        <time>2013-06-15T12:58:49Z</time>
      </trkpt>
      <trkpt lat="48.52917" lon="2.14436">
        <ele>97.891307</ele>
        <time>2013-06-15T12:58:54Z</time>
      </trkpt>
      <trkpt lat="48.52913" lon="2.14435">
        <ele>98.26575</ele>
        <time>2013-06-15T12:58:59Z</time>
      </trkpt>
      <trkpt lat="48.52908" lon="2.14432">
        <ele>99.277194</ele>
        <time>2013-06-15T12:59:04Z</time>
      </trkpt>
      <trkpt lat="48.52902" lon="2.14429">
        <ele>99.539353</ele>
        <time>2013-06-15T12:59:09Z</time>
      </trkpt>
      <trkpt lat="48.52898" lon="2.14426">
        <ele>99.889032</ele>
        <time>2013-06-15T12:59:14Z</time>
      </trkpt>
      <trkpt lat="48.52892" lon="2.14423">
        <ele>100.151204</ele>
        <time>2013-06-15T12:59:19Z</time>
      </trkpt>
      <trkpt lat="48.52886" lon="2.14421">
        <ele>100.43816</ele>
        <time>2013-06-15T12:59:24Z</time>
      </trkpt>
      <trkpt lat="48.52881" lon="2.14419">
        <ele>100.038566</ele>
        <time>2013-06-15T12:59:29Z</time>
      </trkpt>
      <trkpt lat="48.52876" lon="2.14416">
        <ele>100.300757</ele>
        <time>2013-06-15T12:59:34Z</time>
      </trkpt>
      <trkpt lat="48.52871" lon="2.14413">
        <ele>101.312244</ele>
        <time>2013-06-15T12:59:39Z</time>
      </trkpt>
      <trkpt lat="48.52865" lon="2.1441">
        <ele>100.16338</ele>
        <time>2013-06-15T12:59:44Z</time>
      </trkpt>
      <trkpt lat="48.5286" lon="2.1441">
        <ele>100.562648</ele>
        <time>2013-06-15T12:59:49Z</time>
      </trkpt>
      <trkpt lat="48.52856" lon="2.14407">
        <ele>100.912368</ele>
        <time>2013-06-15T12:59:54Z</time>
      </trkpt>
      <trkpt lat="48.5285" lon="2.14404">
        <ele>101.174591</ele>
        <time>2013-06-15T12:59:59Z</time>
      </trkpt>
      <trkpt lat="48.52845" lon="2.14402">
        <ele>100.799811</ele>
        <time>2013-06-15T13:00:04Z</time>
      </trkpt>
      <trkpt lat="48.5284" lon="2.14399">
        <ele>101.062047</ele>
        <time>2013-06-15T13:00:09Z</time>
      </trkpt>
      <trkpt lat="48.52835" lon="2.14396">
        <ele>100.662504</ele>
        <time>2013-06-15T13:00:14Z</time>
      </trkpt>
      <trkpt lat="48.52829" lon="2.14393">
        <ele>100.262966</ele>
        <time>2013-06-15T13:00:19Z</time>
      </trkpt>
      <trkpt lat="48.52824" lon="2.1439">
        <ele>101.274504</ele>
        <time>2013-06-15T13:00:24Z</time>
      </trkpt>
      <trkpt lat="48.52819" lon="2.14389">
        <ele>100.15047</ele>
        <time>2013-06-15T13:00:29Z</time>
      </trkpt>
      <trkpt lat="48.52813" lon="2.14386">
        <ele>100.412739</ele>
        <time>2013-06-15T13:00:34Z</time>
      </trkpt>
      <trkpt lat="48.52808" lon="2.14383">
        <ele>101.424294</ele>
        <time>2013-06-15T13:00:39Z</time>
      </trkpt>
      <trkpt lat="48.52802" lon="2.1438">
        <ele>101.686576</ele>
        <time>2013-06-15T13:00:44Z</time>
      </trkpt>
      <trkpt lat="48.52797" lon="2.14377">
        <ele>101.948865</ele>
        <time>2013-06-15T13:00:49Z</time>
      </trkpt>
      <trkpt lat="48.5279" lon="2.14374">
        <ele>101.461882</ele>
        <time>2013-06-15T13:00:54Z</time>
      </trkpt>
      <trkpt lat="48.52784" lon="2.14371">
        <ele>100.974908</ele>
        <time>2013-06-15T13:00:59Z</time>
      </trkpt>
      <trkpt lat="48.52778" lon="2.14367">
        <ele>99.801377</ele>
        <time>2013-06-15T13:01:04Z</time>
      </trkpt>
      <trkpt lat="48.52773" lon="2.14365">
        <ele>99.426674</ele>
        <time>2013-06-15T13:01:09Z</time>
      </trkpt>
      <trkpt lat="48.52769" lon="2.14361">
        <ele>98.340638</ele>
        <time>2013-06-15T13:01:14Z</time>
      </trkpt>
      <trkpt lat="48.52765" lon="2.14357">
        <ele>97.254606</ele>
        <time>2013-06-15T13:01:19Z</time>
      </trkpt>
      <trkpt lat="48.52759" lon="2.14354">
        <ele>96.105872</ele>
        <time>2013-06-15T13:01:24Z</time>
      </trkpt>
      <trkpt lat="48.52754" lon="2.14348">
        <ele>95.656879</ele>
        <time>2013-06-15T13:01:29Z</time>
      </trkpt>
      <trkpt lat="48.5275" lon="2.14344">
        <ele>95.981935</ele>
        <time>2013-06-15T13:01:34Z</time>
      </trkpt>
      <trkpt lat="48.52745" lon="2.1434">
        <ele>96.306998</ele>
        <time>2013-06-15T13:01:39Z</time>
      </trkpt>
      <trkpt lat="48.52741" lon="2.14334">
        <ele>95.196226</ele>
        <time>2013-06-15T13:01:44Z</time>
      </trkpt>
      <trkpt lat="48.52737" lon="2.1433">
        <ele>95.521299</ele>
        <time>2013-06-15T13:01:49Z</time>
      </trkpt>
      <trkpt lat="48.52732" lon="2.14323">
        <ele>95.796843</ele>
        <time>2013-06-15T13:01:54Z</time>
      </trkpt>
      <trkpt lat="48.52728" lon="2.14316">
        <ele>94.661323</ele>
        <time>2013-06-15T13:01:59Z</time>
      </trkpt>
      <trkpt lat="48.52724" lon="2.14311">
        <ele>94.299848</ele>
        <time>2013-06-15T13:02:04Z</time>
      </trkpt>
      <trkpt lat="48.5272" lon="2.14302">
        <ele>93.139578</ele>
        <time>2013-06-15T13:02:09Z</time>
      </trkpt>
      <trkpt lat="48.52716" lon="2.14294">
        <ele>92.728586</ele>
        <time>2013-06-15T13:02:14Z</time>
      </trkpt>
      <trkpt lat="48.52714" lon="2.14287">
        <ele>92.429834</ele>
        <time>2013-06-15T13:02:19Z</time>
      </trkpt>
      <trkpt lat="48.52712" lon="2.14279">
        <ele>92.106324</ele>
        <time>2013-06-15T13:02:24Z</time>
      </trkpt>
      <trkpt lat="48.52708" lon="2.14271">
        <ele>92.444624</ele>
        <time>2013-06-15T13:02:29Z</time>
      </trkpt>
      <trkpt lat="48.52707" lon="2.14261">
        <ele>90.772762</ele>
        <time>2013-06-15T13:02:34Z</time>
      </trkpt>
      <trkpt lat="48.52707" lon="2.14253">
        <ele>89.874936</ele>
        <time>2013-06-15T13:02:39Z</time>
      </trkpt>
      <trkpt lat="48.52706" lon="2.14244">
        <ele>90.363429</ele>
        <time>2013-06-15T13:02:44Z</time>
      </trkpt>
      <trkpt lat="48.52707" lon="2.14234">
        <ele>90.939395</ele>
        <time>2013-06-15T13:02:49Z</time>
      </trkpt>
      <trkpt lat="48.52708" lon="2.14225">
        <ele>91.515369</ele>
        <time>2013-06-15T13:02:54Z</time>
      </trkpt>
      <trkpt lat="48.52709" lon="2.14217">
        <ele>90.705034</ele>
        <time>2013-06-15T13:02:59Z</time>
      </trkpt>
      <trkpt lat="48.5271" lon="2.14207">
        <ele>91.281022</ele>
        <time>2013-06-15T13:03:04Z</time>
      </trkpt>
      <trkpt lat="48.52709" lon="2.14199">
        <ele>91.794305</ele>
        <time>2013-06-15T13:03:09Z</time>
      </trkpt>
      <trkpt lat="48.52709" lon="2.14191">
        <ele>92.307594</ele>
        <time>2013-06-15T13:03:14Z</time>
      </trkpt>
      <trkpt lat="48.52709" lon="2.14183">
        <ele>93.570157</ele>
        <time>2013-06-15T13:03:19Z</time>
      </trkpt>
      <trkpt lat="48.52709" lon="2.14174">
        <ele>93.421654</ele>
        <time>2013-06-15T13:03:24Z</time>
      </trkpt>
      <trkpt lat="48.5271" lon="2.14165">
        <ele>92.586605</ele>
        <time>2013-06-15T13:03:29Z</time>
      </trkpt>
      <trkpt lat="48.5271" lon="2.14157">
        <ele>92.438114</ele>
        <time>2013-06-15T13:03:34Z</time>
      </trkpt>
      <trkpt lat="48.5271" lon="2.14147">
        <ele>90.853809</ele>
        <time>2013-06-15T13:03:39Z</time>
      </trkpt>
      <trkpt lat="48.52713" lon="2.14138">
        <ele>88.033372</ele>
        <time>2013-06-15T13:03:44Z</time>
      </trkpt>
      <trkpt lat="48.52714" lon="2.1413">
        <ele>86.561294</ele>
        <time>2013-06-15T13:03:49Z</time>
      </trkpt>
      <trkpt lat="48.52714" lon="2.14122">
        <ele>87.074631</ele>
        <time>2013-06-15T13:03:54Z</time>
      </trkpt>
      <trkpt lat="48.52714" lon="2.14119">
        <ele>87.025143</ele>
        <time>2013-06-15T13:03:59Z</time>
      </trkpt>
      <trkpt lat="48.52715" lon="2.14114">
        <ele>89.086511</ele>
        <time>2013-06-15T13:04:04Z</time>
      </trkpt>
      <trkpt lat="48.52715" lon="2.14106">
        <ele>89.687326</ele>
        <time>2013-06-15T13:04:09Z</time>
      </trkpt>
      <trkpt lat="48.52717" lon="2.14099">
        <ele>88.989282</ele>
        <time>2013-06-15T13:04:14Z</time>
      </trkpt>
      <trkpt lat="48.52717" lon="2.14092">
        <ele>89.52738</ele>
        <time>2013-06-15T13:04:19Z</time>
      </trkpt>
      <trkpt lat="48.52716" lon="2.14085">
        <ele>90.065482</ele>
        <time>2013-06-15T13:04:24Z</time>
      </trkpt>
      <trkpt lat="48.52718" lon="2.14077">
        <ele>90.004513</ele>
        <time>2013-06-15T13:04:29Z</time>
      </trkpt>
      <trkpt lat="48.52718" lon="2.14062">
        <ele>91.143469</ele>
        <time>2013-06-15T13:04:34Z</time>
      </trkpt>
      <trkpt lat="48.52719" lon="2.14052">
        <ele>89.621972</ele>
        <time>2013-06-15T13:04:39Z</time>
      </trkpt>
      <trkpt lat="48.52719" lon="2.14039">
        <ele>90.061158</ele>
        <time>2013-06-15T13:04:44Z</time>
      </trkpt>
      <trkpt lat="48.52719" lon="2.14031">
        <ele>89.912755</ele>
        <time>2013-06-15T13:04:49Z</time>
      </trkpt>
      <trkpt lat="48.52719" lon="2.14022">
        <ele>90.401427</ele>
        <time>2013-06-15T13:04:54Z</time>
      </trkpt>
      <trkpt lat="48.5272" lon="2.14012">
        <ele>90.315772</ele>
        <time>2013-06-15T13:04:59Z</time>
      </trkpt>
      <trkpt lat="48.52722" lon="2.14004">
        <ele>90.254855</ele>
        <time>2013-06-15T13:05:04Z</time>
      </trkpt>
      <trkpt lat="48.52724" lon="2.13996">
        <ele>90.281412</ele>
        <time>2013-06-15T13:05:09Z</time>
      </trkpt>
      <trkpt lat="48.52727" lon="2.1399">
        <ele>91.743778</ele>
        <time>2013-06-15T13:05:14Z</time>
      </trkpt>
      <trkpt lat="48.52729" lon="2.13981">
        <ele>93.843222</ele>
        <time>2013-06-15T13:05:19Z</time>
      </trkpt>
      <trkpt lat="48.5273" lon="2.13973">
        <ele>95.193401</ele>
        <time>2013-06-15T13:05:24Z</time>
      </trkpt>
      <trkpt lat="48.52732" lon="2.13965">
        <ele>95.881786</ele>
        <time>2013-06-15T13:05:29Z</time>
      </trkpt>
      <trkpt lat="48.52734" lon="2.13956">
        <ele>96.545451</ele>
        <time>2013-06-15T13:05:34Z</time>
      </trkpt>
      <trkpt lat="48.52735" lon="2.13948">
        <ele>97.146378</ele>
        <time>2013-06-15T13:05:39Z</time>
      </trkpt>
      <trkpt lat="48.52737" lon="2.1394">
        <ele>97.834782</ele>
        <time>2013-06-15T13:05:44Z</time>
      </trkpt>
      <trkpt lat="48.52738" lon="2.13932">
        <ele>98.43572</ele>
        <time>2013-06-15T13:05:49Z</time>
      </trkpt>
      <trkpt lat="48.52739" lon="2.13925">
        <ele>98.399584</ele>
        <time>2013-06-15T13:05:54Z</time>
      </trkpt>
      <trkpt lat="48.52741" lon="2.13917">
        <ele>99.088006</ele>
        <time>2013-06-15T13:05:59Z</time>
      </trkpt>
      <trkpt lat="48.52742" lon="2.13909">
        <ele>99.02716</ele>
        <time>2013-06-15T13:06:04Z</time>
      </trkpt>
      <trkpt lat="48.52744" lon="2.13901">
        <ele>98.966321</ele>
        <time>2013-06-15T13:06:09Z</time>
      </trkpt>
      <trkpt lat="48.52746" lon="2.13893">
        <ele>99.65476</ele>
        <time>2013-06-15T13:06:14Z</time>
      </trkpt>
      <trkpt lat="48.52747" lon="2.13886">
        <ele>99.618649</ele>
        <time>2013-06-15T13:06:19Z</time>
      </trkpt>
      <trkpt lat="48.52749" lon="2.13878">
        <ele>99.557827</ele>
        <time>2013-06-15T13:06:24Z</time>
      </trkpt>
      <trkpt lat="48.5275" lon="2.1387">
        <ele>100.908084</ele>
        <time>2013-06-15T13:06:29Z</time>
      </trkpt>
      <trkpt lat="48.52751" lon="2.13863">
        <ele>100.871987</ele>
        <time>2013-06-15T13:06:34Z</time>
      </trkpt>
      <trkpt lat="48.52753" lon="2.13855">
        <ele>100.811181</ele>
        <time>2013-06-15T13:06:39Z</time>
      </trkpt>
      <trkpt lat="48.52755" lon="2.13847">
        <ele>101.499656</ele>
        <time>2013-06-15T13:06:44Z</time>
      </trkpt>
      <trkpt lat="48.52756" lon="2.13839">
        <ele>101.438863</ele>
        <time>2013-06-15T13:06:49Z</time>
      </trkpt>
      <trkpt lat="48.52757" lon="2.13831">
        <ele>102.039874</ele>
        <time>2013-06-15T13:06:54Z</time>
      </trkpt>
      <trkpt lat="48.52759" lon="2.13824">
        <ele>102.753076</ele>
        <time>2013-06-15T13:06:59Z</time>
      </trkpt>
      <trkpt lat="48.52761" lon="2.13815">
        <ele>102.667591</ele>
        <time>2013-06-15T13:07:04Z</time>
      </trkpt>
      <trkpt lat="48.52763" lon="2.13806">
        <ele>103.356097</ele>
        <time>2013-06-15T13:07:09Z</time>
      </trkpt>
      <trkpt lat="48.52764" lon="2.13798">
        <ele>103.295333</ele>
        <time>2013-06-15T13:07:14Z</time>
      </trkpt>
      <trkpt lat="48.52766" lon="2.1379">
        <ele>103.983851</ele>
        <time>2013-06-15T13:07:19Z</time>
      </trkpt>
      <trkpt lat="48.52767" lon="2.13782">
        <ele>103.9231</ele>
        <time>2013-06-15T13:07:24Z</time>
      </trkpt>
      <trkpt lat="48.52768" lon="2.13774">
        <ele>104.524151</ele>
        <time>2013-06-15T13:07:29Z</time>
      </trkpt>
      <trkpt lat="48.52769" lon="2.13767">
        <ele>103.738839</ele>
        <time>2013-06-15T13:07:34Z</time>
      </trkpt>
      <trkpt lat="48.5277" lon="2.13759">
        <ele>104.339901</ele>
        <time>2013-06-15T13:07:39Z</time>
      </trkpt>
      <trkpt lat="48.52769" lon="2.13751">
        <ele>104.85349</ele>
        <time>2013-06-15T13:07:44Z</time>
      </trkpt>
      <trkpt lat="48.52768" lon="2.13743">
        <ele>104.617809</ele>
        <time>2013-06-15T13:07:49Z</time>
      </trkpt>
      <trkpt lat="48.52766" lon="2.13735">
        <ele>105.043932</ele>
        <time>2013-06-15T13:07:54Z</time>
      </trkpt>
      <trkpt lat="48.52764" lon="2.13727">
        <ele>105.470061</ele>
        <time>2013-06-15T13:07:59Z</time>
      </trkpt>
      <trkpt lat="48.52763" lon="2.13718">
        <ele>105.896196</ele>
        <time>2013-06-15T13:08:04Z</time>
      </trkpt>
      <trkpt lat="48.52761" lon="2.13711">
        <ele>106.347034</ele>
        <time>2013-06-15T13:08:09Z</time>
      </trkpt>
      <trkpt lat="48.52759" lon="2.13705">
        <ele>106.797877</ele>
        <time>2013-06-15T13:08:14Z</time>
      </trkpt>
      <trkpt lat="48.52757" lon="2.13696">
        <ele>106.474755</ele>
        <time>2013-06-15T13:08:19Z</time>
      </trkpt>
      <trkpt lat="48.52754" lon="2.13689">
        <ele>107.587407</ele>
        <time>2013-06-15T13:08:24Z</time>
      </trkpt>
      <trkpt lat="48.52752" lon="2.13683">
        <ele>107.288991</ele>
        <time>2013-06-15T13:08:29Z</time>
      </trkpt>
      <trkpt lat="48.52749" lon="2.13676">
        <ele>108.401654</ele>
        <time>2013-06-15T13:08:34Z</time>
      </trkpt>
      <trkpt lat="48.52746" lon="2.13671">
        <ele>108.814433</ele>
        <time>2013-06-15T13:08:39Z</time>
      </trkpt>
      <trkpt lat="48.52746" lon="2.13669">
        <ele>108.015776</ele>
        <time>2013-06-15T13:08:44Z</time>
      </trkpt>
      <trkpt lat="48.52743" lon="2.13661">
        <ele>107.692686</ele>
        <time>2013-06-15T13:08:49Z</time>
      </trkpt>
      <trkpt lat="48.52743" lon="2.13658">
        <ele>108.305106</ele>
        <time>2013-06-15T13:08:54Z</time>
      </trkpt>
      <trkpt lat="48.52741" lon="2.13651">
        <ele>108.755987</ele>
        <time>2013-06-15T13:08:59Z</time>
      </trkpt>
      <trkpt lat="48.52739" lon="2.13644">
        <ele>109.206872</ele>
        <time>2013-06-15T13:09:04Z</time>
      </trkpt>
      <trkpt lat="48.52738" lon="2.13644">
        <ele>109.119401</ele>
        <time>2013-06-15T13:09:09Z</time>
      </trkpt>
      <trkpt lat="48.52738" lon="2.13644">
        <ele>108.4576</ele>
        <time>2013-06-15T13:09:14Z</time>
      </trkpt>
      <trkpt lat="48.52738" lon="2.13644">
        <ele>108.4576</ele>
        <time>2013-06-15T13:09:19Z</time>
      </trkpt>
      <trkpt lat="48.52738" lon="2.13644">
        <ele>108.4576</ele>
        <time>2013-06-15T13:09:24Z</time>
      </trkpt>
      <trkpt lat="48.52738" lon="2.13644">
        <ele>108.4576</ele>
        <time>2013-06-15T13:09:29Z</time>
      </trkpt>
      <trkpt lat="48.52738" lon="2.13644">
        <ele>108.4576</ele>
        <time>2013-06-15T13:09:34Z</time>
      </trkpt>
      <trkpt lat="48.52738" lon="2.13644">
        <ele>107.708327</ele>
        <time>2013-06-15T13:09:39Z</time>
      </trkpt>
      <trkpt lat="48.52738" lon="2.13644">
        <ele>107.708327</ele>
        <time>2013-06-15T13:09:44Z</time>
      </trkpt>
      <trkpt lat="48.52738" lon="2.13644">
        <ele>107.708327</ele>
        <time>2013-06-15T13:09:49Z</time>
      </trkpt>
      <trkpt lat="48.52738" lon="2.13644">
        <ele>107.708327</ele>
        <time>2013-06-15T13:09:54Z</time>
      </trkpt>
      <trkpt lat="48.52739" lon="2.13644">
        <ele>107.795798</ele>
        <time>2013-06-15T13:09:59Z</time>
      </trkpt>
      <trkpt lat="48.52713" lon="2.13637">
        <ele>113.003063</ele>
        <time>2013-06-15T13:11:04Z</time>
      </trkpt>
      <trkpt lat="48.5271" lon="2.13632">
        <ele>114.052995</ele>
        <time>2013-06-15T13:11:09Z</time>
      </trkpt>
      <trkpt lat="48.52706" lon="2.13626">
        <ele>114.441126</ele>
        <time>2013-06-15T13:11:14Z</time>
      </trkpt>
      <trkpt lat="48.52703" lon="2.13621">
        <ele>114.079994</ele>
        <time>2013-06-15T13:11:19Z</time>
      </trkpt>
      <trkpt lat="48.527" lon="2.13615">
        <ele>114.468134</ele>
        <time>2013-06-15T13:11:24Z</time>
      </trkpt>
      <trkpt lat="48.52696" lon="2.1361">
        <ele>115.518087</ele>
        <time>2013-06-15T13:11:29Z</time>
      </trkpt>
      <trkpt lat="48.52693" lon="2.13604">
        <ele>115.906237</ele>
        <time>2013-06-15T13:11:34Z</time>
      </trkpt>
      <trkpt lat="48.52689" lon="2.13598">
        <ele>115.545125</ele>
        <time>2013-06-15T13:11:39Z</time>
      </trkpt>
      <trkpt lat="48.52685" lon="2.13591">
        <ele>116.570411</ele>
        <time>2013-06-15T13:11:44Z</time>
      </trkpt>
      <trkpt lat="48.52683" lon="2.13586">
        <ele>117.707842</ele>
        <time>2013-06-15T13:11:49Z</time>
      </trkpt>
      <trkpt lat="48.52678" lon="2.1358">
        <ele>118.008555</ele>
        <time>2013-06-15T13:11:54Z</time>
      </trkpt>
      <trkpt lat="48.52675" lon="2.13576">
        <ele>119.832486</ele>
        <time>2013-06-15T13:11:59Z</time>
      </trkpt>
      <trkpt lat="48.52674" lon="2.13572">
        <ele>119.670989</ele>
        <time>2013-06-15T13:12:04Z</time>
      </trkpt>
      <trkpt lat="48.52673" lon="2.13565">
        <ele>120.209398</ele>
        <time>2013-06-15T13:12:09Z</time>
      </trkpt>
      <trkpt lat="48.52671" lon="2.13564">
        <ele>118.598735</ele>
        <time>2013-06-15T13:12:14Z</time>
      </trkpt>
      <trkpt lat="48.52669" lon="2.1356">
        <ele>119.099054</ele>
        <time>2013-06-15T13:12:19Z</time>
      </trkpt>
      <trkpt lat="48.52666" lon="2.13555">
        <ele>119.511923</ele>
        <time>2013-06-15T13:12:24Z</time>
      </trkpt>
      <trkpt lat="48.52664" lon="2.13551">
        <ele>119.262983</ele>
        <time>2013-06-15T13:12:29Z</time>
      </trkpt>
      <trkpt lat="48.5266" lon="2.13546">
        <ele>119.65118</ele>
        <time>2013-06-15T13:12:34Z</time>
      </trkpt>
      <trkpt lat="48.52656" lon="2.1354">
        <ele>121.363008</ele>
        <time>2013-06-15T13:12:39Z</time>
      </trkpt>
      <trkpt lat="48.52653" lon="2.13534">
        <ele>122.500478</ele>
        <time>2013-06-15T13:12:44Z</time>
      </trkpt>
      <trkpt lat="48.52653" lon="2.1353">
        <ele>124.499338</ele>
        <time>2013-06-15T13:12:49Z</time>
      </trkpt>
      <trkpt lat="48.52652" lon="2.13527">
        <ele>124.362538</ele>
        <time>2013-06-15T13:12:54Z</time>
      </trkpt>
      <trkpt lat="48.52648" lon="2.13522">
        <ele>124.001492</ele>
        <time>2013-06-15T13:12:59Z</time>
      </trkpt>
      <trkpt lat="48.52647" lon="2.13518">
        <ele>123.84002</ele>
        <time>2013-06-15T13:13:04Z</time>
      </trkpt>
      <trkpt lat="48.52643" lon="2.13514">
        <ele>125.663994</ele>
        <time>2013-06-15T13:13:09Z</time>
      </trkpt>
      <trkpt lat="48.5264" lon="2.13507">
        <ele>126.689363</ele>
        <time>2013-06-15T13:13:14Z</time>
      </trkpt>
      <trkpt lat="48.52637" lon="2.13501">
        <ele>125.66652</ele>
        <time>2013-06-15T13:13:19Z</time>
      </trkpt>
      <trkpt lat="48.52635" lon="2.13497">
        <ele>126.166873</ele>
        <time>2013-06-15T13:13:24Z</time>
      </trkpt>
      <trkpt lat="48.52631" lon="2.13493">
        <ele>128.652678</ele>
        <time>2013-06-15T13:13:29Z</time>
      </trkpt>
      <trkpt lat="48.52626" lon="2.13487">
        <ele>130.364557</ele>
        <time>2013-06-15T13:13:34Z</time>
      </trkpt>
      <trkpt lat="48.52623" lon="2.13483">
        <ele>131.439295</ele>
        <time>2013-06-15T13:13:39Z</time>
      </trkpt>
      <trkpt lat="48.52619" lon="2.13478">
        <ele>132.514038</ele>
        <time>2013-06-15T13:13:44Z</time>
      </trkpt>
      <trkpt lat="48.52614" lon="2.13473">
        <ele>131.403781</ele>
        <time>2013-06-15T13:13:49Z</time>
      </trkpt>
      <trkpt lat="48.52609" lon="2.13467">
        <ele>131.617168</ele>
        <time>2013-06-15T13:13:54Z</time>
      </trkpt>
      <trkpt lat="48.52605" lon="2.13464">
        <ele>131.305518</ele>
        <time>2013-06-15T13:13:59Z</time>
      </trkpt>
      <trkpt lat="48.52601" lon="2.1346">
        <ele>132.38028</ele>
        <time>2013-06-15T13:14:04Z</time>
      </trkpt>
      <trkpt lat="48.52597" lon="2.13456">
        <ele>133.455047</ele>
        <time>2013-06-15T13:14:09Z</time>
      </trkpt>
      <trkpt lat="48.52594" lon="2.1345">
        <ele>133.84333</ele>
        <time>2013-06-15T13:14:14Z</time>
      </trkpt>
      <trkpt lat="48.5259" lon="2.13445">
        <ele>134.144183</ele>
        <time>2013-06-15T13:14:19Z</time>
      </trkpt>
      <trkpt lat="48.52588" lon="2.13439">
        <ele>133.870653</ele>
        <time>2013-06-15T13:14:24Z</time>
      </trkpt>
      <trkpt lat="48.52585" lon="2.13435">
        <ele>135.03287</ele>
        <time>2013-06-15T13:14:29Z</time>
      </trkpt>
      <trkpt lat="48.52581" lon="2.13429">
        <ele>136.082993</ele>
        <time>2013-06-15T13:14:34Z</time>
      </trkpt>
      <trkpt lat="48.52578" lon="2.13426">
        <ele>136.520626</ele>
        <time>2013-06-15T13:14:39Z</time>
      </trkpt>
      <trkpt lat="48.52575" lon="2.13424">
        <ele>137.707515</ele>
        <time>2013-06-15T13:14:44Z</time>
      </trkpt>
      <trkpt lat="48.52571" lon="2.13417">
        <ele>136.572657</ele>
        <time>2013-06-15T13:14:49Z</time>
      </trkpt>
      <trkpt lat="48.52568" lon="2.13411">
        <ele>136.211721</ele>
        <time>2013-06-15T13:14:54Z</time>
      </trkpt>
      <trkpt lat="48.52566" lon="2.13406">
        <ele>135.276393</ele>
        <time>2013-06-15T13:14:59Z</time>
      </trkpt>
      <trkpt lat="48.52565" lon="2.13401">
        <ele>135.864233</ele>
        <time>2013-06-15T13:15:04Z</time>
      </trkpt>
      <trkpt lat="48.52561" lon="2.13396">
        <ele>134.754057</ele>
        <time>2013-06-15T13:15:09Z</time>
      </trkpt>
      <trkpt lat="48.52555" lon="2.13389">
        <ele>133.531802</ele>
        <time>2013-06-15T13:15:14Z</time>
      </trkpt>
      <trkpt lat="48.52552" lon="2.13381">
        <ele>133.121573</ele>
        <time>2013-06-15T13:15:19Z</time>
      </trkpt>
      <trkpt lat="48.52546" lon="2.13374">
        <ele>133.310416</ele>
        <time>2013-06-15T13:15:24Z</time>
      </trkpt>
      <trkpt lat="48.52543" lon="2.13367">
        <ele>133.67411</ele>
        <time>2013-06-15T13:15:29Z</time>
      </trkpt>
      <trkpt lat="48.52541" lon="2.1336">
        <ele>134.125232</ele>
        <time>2013-06-15T13:15:34Z</time>
      </trkpt>
      <trkpt lat="48.52537" lon="2.13354">
        <ele>135.175423</ele>
        <time>2013-06-15T13:15:39Z</time>
      </trkpt>
      <trkpt lat="48.52537" lon="2.1335">
        <ele>137.174363</ele>
        <time>2013-06-15T13:15:44Z</time>
      </trkpt>
      <trkpt lat="48.52533" lon="2.13346">
        <ele>138.249217</ele>
        <time>2013-06-15T13:15:49Z</time>
      </trkpt>
      <trkpt lat="48.52529" lon="2.13342">
        <ele>139.324076</ele>
        <time>2013-06-15T13:15:54Z</time>
      </trkpt>
      <trkpt lat="48.52527" lon="2.13337">
        <ele>140.486356</ele>
        <time>2013-06-15T13:15:59Z</time>
      </trkpt>
      <trkpt lat="48.52523" lon="2.13332">
        <ele>140.874738</ele>
        <time>2013-06-15T13:16:04Z</time>
      </trkpt>
      <trkpt lat="48.52518" lon="2.13323">
        <ele>141.038988</ele>
        <time>2013-06-15T13:16:09Z</time>
      </trkpt>
      <trkpt lat="48.52514" lon="2.13317">
        <ele>140.653483</ele>
        <time>2013-06-15T13:16:14Z</time>
      </trkpt>
      <trkpt lat="48.5251" lon="2.13308">
        <ele>141.654413</ele>
        <time>2013-06-15T13:16:19Z</time>
      </trkpt>
      <trkpt lat="48.52509" lon="2.13304">
        <ele>142.904126</ele>
        <time>2013-06-15T13:16:24Z</time>
      </trkpt>
      <trkpt lat="48.52507" lon="2.133">
        <ele>144.06643</ele>
        <time>2013-06-15T13:16:29Z</time>
      </trkpt>
      <trkpt lat="48.52503" lon="2.13293">
        <ele>145.092026</ele>
        <time>2013-06-15T13:16:34Z</time>
      </trkpt>
      <trkpt lat="48.52499" lon="2.13283">
        <ele>144.657253</ele>
        <time>2013-06-15T13:16:39Z</time>
      </trkpt>
      <trkpt lat="48.52494" lon="2.13278">
        <ele>145.620103</ele>
        <time>2013-06-15T13:16:44Z</time>
      </trkpt>
      <trkpt lat="48.52491" lon="2.13273">
        <ele>146.033179</ele>
        <time>2013-06-15T13:16:49Z</time>
      </trkpt>
      <trkpt lat="48.52487" lon="2.13268">
        <ele>145.67237</ele>
        <time>2013-06-15T13:16:54Z</time>
      </trkpt>
      <trkpt lat="48.52483" lon="2.13261">
        <ele>144.537677</ele>
        <time>2013-06-15T13:16:59Z</time>
      </trkpt>
      <trkpt lat="48.5248" lon="2.13258">
        <ele>146.386491</ele>
        <time>2013-06-15T13:17:04Z</time>
      </trkpt>
      <trkpt lat="48.52475" lon="2.13254">
        <ele>146.712179</ele>
        <time>2013-06-15T13:17:09Z</time>
      </trkpt>
      <trkpt lat="48.52473" lon="2.13246">
        <ele>146.389505</ele>
        <time>2013-06-15T13:17:14Z</time>
      </trkpt>
      <trkpt lat="48.52469" lon="2.13239">
        <ele>145.254837</ele>
        <time>2013-06-15T13:17:19Z</time>
      </trkpt>
      <trkpt lat="48.52464" lon="2.13233">
        <ele>145.555898</ele>
        <time>2013-06-15T13:17:24Z</time>
      </trkpt>
      <trkpt lat="48.52461" lon="2.13227">
        <ele>145.944367</ele>
        <time>2013-06-15T13:17:29Z</time>
      </trkpt>
      <trkpt lat="48.52457" lon="2.13222">
        <ele>145.583601</ele>
        <time>2013-06-15T13:17:34Z</time>
      </trkpt>
      <trkpt lat="48.52453" lon="2.13215">
        <ele>145.1108</ele>
        <time>2013-06-15T13:17:39Z</time>
      </trkpt>
      <trkpt lat="48.52449" lon="2.13211">
        <ele>144.774686</ele>
        <time>2013-06-15T13:17:44Z</time>
      </trkpt>
      <trkpt lat="48.52445" lon="2.13206">
        <ele>145.849656</ele>
        <time>2013-06-15T13:17:49Z</time>
      </trkpt>
      <trkpt lat="48.52442" lon="2.13202">
        <ele>146.262788</ele>
        <time>2013-06-15T13:17:54Z</time>
      </trkpt>
      <trkpt lat="48.52436" lon="2.13195">
        <ele>147.1137</ele>
        <time>2013-06-15T13:17:59Z</time>
      </trkpt>
      <trkpt lat="48.52431" lon="2.13188">
        <ele>147.390173</ele>
        <time>2013-06-15T13:18:04Z</time>
      </trkpt>
      <trkpt lat="48.52428" lon="2.13184">
        <ele>147.80332</ele>
        <time>2013-06-15T13:18:09Z</time>
      </trkpt>
      <trkpt lat="48.52428" lon="2.1318">
        <ele>147.72941</ele>
        <time>2013-06-15T13:18:14Z</time>
      </trkpt>
      <trkpt lat="48.52425" lon="2.13173">
        <ele>148.09329</ele>
        <time>2013-06-15T13:18:19Z</time>
      </trkpt>
      <trkpt lat="48.52424" lon="2.13169">
        <ele>148.681228</ele>
        <time>2013-06-15T13:18:24Z</time>
      </trkpt>
      <trkpt lat="48.52423" lon="2.13163">
        <ele>148.495297</ele>
        <time>2013-06-15T13:18:29Z</time>
      </trkpt>
      <trkpt lat="48.52421" lon="2.13154">
        <ele>149.559158</ele>
        <time>2013-06-15T13:18:34Z</time>
      </trkpt>
      <trkpt lat="48.5242" lon="2.13146">
        <ele>149.323969</ele>
        <time>2013-06-15T13:18:39Z</time>
      </trkpt>
      <trkpt lat="48.52419" lon="2.13139">
        <ele>148.451572</ele>
        <time>2013-06-15T13:18:44Z</time>
      </trkpt>
      <trkpt lat="48.52415" lon="2.13132">
        <ele>148.728093</ele>
        <time>2013-06-15T13:18:49Z</time>
      </trkpt>
      <trkpt lat="48.52412" lon="2.13124">
        <ele>147.656298</ele>
        <time>2013-06-15T13:18:54Z</time>
      </trkpt>
      <trkpt lat="48.5241" lon="2.13117">
        <ele>146.696527</ele>
        <time>2013-06-15T13:18:59Z</time>
      </trkpt>
      <trkpt lat="48.52408" lon="2.1311">
        <ele>146.398607</ele>
        <time>2013-06-15T13:19:04Z</time>
      </trkpt>
      <trkpt lat="48.52407" lon="2.13105">
        <ele>147.623789</ele>
        <time>2013-06-15T13:19:09Z</time>
      </trkpt>
      <trkpt lat="48.52405" lon="2.13099">
        <ele>148.848973</ele>
        <time>2013-06-15T13:19:14Z</time>
      </trkpt>
      <trkpt lat="48.524" lon="2.13089">
        <ele>148.327043</ele>
        <time>2013-06-15T13:19:19Z</time>
      </trkpt>
      <trkpt lat="48.52397" lon="2.13081">
        <ele>148.666368</ele>
        <time>2013-06-15T13:19:24Z</time>
      </trkpt>
      <trkpt lat="48.52399" lon="2.13073">
        <ele>148.606004</ele>
        <time>2013-06-15T13:19:29Z</time>
      </trkpt>
      <trkpt lat="48.52397" lon="2.13066">
        <ele>149.057348</ele>
        <time>2013-06-15T13:19:34Z</time>
      </trkpt>
      <trkpt lat="48.52394" lon="2.13058">
        <ele>150.145924</ele>
        <time>2013-06-15T13:19:39Z</time>
      </trkpt>
      <trkpt lat="48.52393" lon="2.13051">
        <ele>151.346511</ele>
        <time>2013-06-15T13:19:44Z</time>
      </trkpt>
      <trkpt lat="48.52394" lon="2.13042">
        <ele>149.763081</ele>
        <time>2013-06-15T13:19:49Z</time>
      </trkpt>
      <trkpt lat="48.5239" lon="2.13033">
        <ele>150.102443</ele>
        <time>2013-06-15T13:19:54Z</time>
      </trkpt>
      <trkpt lat="48.52389" lon="2.13027">
        <ele>149.891964</ele>
        <time>2013-06-15T13:19:59Z</time>
      </trkpt>
      <trkpt lat="48.52388" lon="2.13021">
        <ele>149.706107</ele>
        <time>2013-06-15T13:20:04Z</time>
      </trkpt>
      <trkpt lat="48.52386" lon="2.13014">
        <ele>150.157486</ele>
        <time>2013-06-15T13:20:09Z</time>
      </trkpt>
      <trkpt lat="48.52385" lon="2.13007">
        <ele>149.197788</ele>
        <time>2013-06-15T13:20:14Z</time>
      </trkpt>
      <trkpt lat="48.52382" lon="2.13001">
        <ele>147.488862</ele>
        <time>2013-06-15T13:20:19Z</time>
      </trkpt>
      <trkpt lat="48.52377" lon="2.12991">
        <ele>146.967036</ele>
        <time>2013-06-15T13:20:24Z</time>
      </trkpt>
      <trkpt lat="48.52372" lon="2.12983">
        <ele>146.469836</ele>
        <time>2013-06-15T13:20:29Z</time>
      </trkpt>
      <trkpt lat="48.5237" lon="2.12976">
        <ele>146.172013</ele>
        <time>2013-06-15T13:20:34Z</time>
      </trkpt>
      <trkpt lat="48.52366" lon="2.12971">
        <ele>145.836044</ele>
        <time>2013-06-15T13:20:39Z</time>
      </trkpt>
      <trkpt lat="48.52363" lon="2.12966">
        <ele>144.813614</ele>
        <time>2013-06-15T13:20:44Z</time>
      </trkpt>
      <trkpt lat="48.52361" lon="2.12962">
        <ele>143.903174</ele>
        <time>2013-06-15T13:20:49Z</time>
      </trkpt>
      <trkpt lat="48.52357" lon="2.12958">
        <ele>144.229071</ele>
        <time>2013-06-15T13:20:54Z</time>
      </trkpt>
      <trkpt lat="48.52351" lon="2.12952">
        <ele>143.693762</ele>
        <time>2013-06-15T13:20:59Z</time>
      </trkpt>
      <trkpt lat="48.52345" lon="2.12948">
        <ele>143.932301</ele>
        <time>2013-06-15T13:21:04Z</time>
      </trkpt>
      <trkpt lat="48.52337" lon="2.1294">
        <ele>146.107199</ele>
        <time>2013-06-15T13:21:09Z</time>
      </trkpt>
      <trkpt lat="48.52332" lon="2.12936">
        <ele>145.683899</ele>
        <time>2013-06-15T13:21:14Z</time>
      </trkpt>
      <trkpt lat="48.52328" lon="2.12933">
        <ele>144.623355</ele>
        <time>2013-06-15T13:21:19Z</time>
      </trkpt>
      <trkpt lat="48.52324" lon="2.12928">
        <ele>144.924682</ele>
        <time>2013-06-15T13:21:24Z</time>
      </trkpt>
      <trkpt lat="48.52318" lon="2.12925">
        <ele>143.776784</ele>
        <time>2013-06-15T13:21:29Z</time>
      </trkpt>
      <trkpt lat="48.52314" lon="2.12921">
        <ele>143.440871</ele>
        <time>2013-06-15T13:21:34Z</time>
      </trkpt>
      <trkpt lat="48.5231" lon="2.12916">
        <ele>143.766823</ele>
        <time>2013-06-15T13:21:39Z</time>
      </trkpt>
      <trkpt lat="48.52302" lon="2.12908">
        <ele>143.756881</ele>
        <time>2013-06-15T13:21:44Z</time>
      </trkpt>
      <trkpt lat="48.52295" lon="2.12898">
        <ele>143.809712</ele>
        <time>2013-06-15T13:21:49Z</time>
      </trkpt>
      <trkpt lat="48.52294" lon="2.12893">
        <ele>145.03502</ele>
        <time>2013-06-15T13:21:54Z</time>
      </trkpt>
      <trkpt lat="48.52292" lon="2.12887">
        <ele>145.511111</ele>
        <time>2013-06-15T13:21:59Z</time>
      </trkpt>
      <trkpt lat="48.5229" lon="2.12882">
        <ele>145.987205</ele>
        <time>2013-06-15T13:22:04Z</time>
      </trkpt>
      <trkpt lat="48.52292" lon="2.12875">
        <ele>146.700771</ele>
        <time>2013-06-15T13:22:09Z</time>
      </trkpt>
      <trkpt lat="48.52291" lon="2.12867">
        <ele>147.876889</ele>
        <time>2013-06-15T13:22:14Z</time>
      </trkpt>
      <trkpt lat="48.52289" lon="2.12857">
        <ele>146.868108</ele>
        <time>2013-06-15T13:22:19Z</time>
      </trkpt>
      <trkpt lat="48.52289" lon="2.12852">
        <ele>146.769709</ele>
        <time>2013-06-15T13:22:24Z</time>
      </trkpt>
      <trkpt lat="48.5229" lon="2.12845">
        <ele>147.395935</ele>
        <time>2013-06-15T13:22:29Z</time>
      </trkpt>
      <trkpt lat="48.52293" lon="2.12836">
        <ele>145.325516</ele>
        <time>2013-06-15T13:22:34Z</time>
      </trkpt>
      <trkpt lat="48.52292" lon="2.12825">
        <ele>146.452468</ele>
        <time>2013-06-15T13:22:39Z</time>
      </trkpt>
      <trkpt lat="48.5229" lon="2.12818">
        <ele>147.56586</ele>
        <time>2013-06-15T13:22:44Z</time>
      </trkpt>
      <trkpt lat="48.5229" lon="2.12812">
        <ele>147.46748</ele>
        <time>2013-06-15T13:22:49Z</time>
      </trkpt>
      <trkpt lat="48.52292" lon="2.12804">
        <ele>146.745407</ele>
        <time>2013-06-15T13:22:54Z</time>
      </trkpt>
      <trkpt lat="48.52293" lon="2.128">
        <ele>146.758983</ele>
        <time>2013-06-15T13:22:59Z</time>
      </trkpt>
      <trkpt lat="48.52295" lon="2.12791">
        <ele>145.263107</ele>
        <time>2013-06-15T13:23:04Z</time>
      </trkpt>
      <trkpt lat="48.52296" lon="2.12779">
        <ele>142.968835</ele>
        <time>2013-06-15T13:23:09Z</time>
      </trkpt>
      <trkpt lat="48.52297" lon="2.12768">
        <ele>142.11025</ele>
        <time>2013-06-15T13:23:14Z</time>
      </trkpt>
      <trkpt lat="48.52298" lon="2.12757">
        <ele>140.589812</ele>
        <time>2013-06-15T13:23:19Z</time>
      </trkpt>
      <trkpt lat="48.52297" lon="2.12748">
        <ele>141.741423</ele>
        <time>2013-06-15T13:23:24Z</time>
      </trkpt>
      <trkpt lat="48.52296" lon="2.12738">
        <ele>141.481958</ele>
        <time>2013-06-15T13:23:29Z</time>
      </trkpt>
      <trkpt lat="48.52294" lon="2.12729">
        <ele>142.546228</ele>
        <time>2013-06-15T13:23:34Z</time>
      </trkpt>
      <trkpt lat="48.52292" lon="2.12719">
        <ele>143.697864</ele>
        <time>2013-06-15T13:23:39Z</time>
      </trkpt>
      <trkpt lat="48.52289" lon="2.12711">
        <ele>144.037514</ele>
        <time>2013-06-15T13:23:44Z</time>
      </trkpt>
      <trkpt lat="48.52288" lon="2.12703">
        <ele>144.464528</ele>
        <time>2013-06-15T13:23:49Z</time>
      </trkpt>
      <trkpt lat="48.52285" lon="2.12696">
        <ele>143.417689</ele>
        <time>2013-06-15T13:23:54Z</time>
      </trkpt>
      <trkpt lat="48.52282" lon="2.12686">
        <ele>142.321695</ele>
        <time>2013-06-15T13:23:59Z</time>
      </trkpt>
      <trkpt lat="48.52279" lon="2.12678">
        <ele>143.410594</ele>
        <time>2013-06-15T13:24:04Z</time>
      </trkpt>
      <trkpt lat="48.52275" lon="2.1267">
        <ele>143.001062</ele>
        <time>2013-06-15T13:24:09Z</time>
      </trkpt>
      <trkpt lat="48.52272" lon="2.12663">
        <ele>143.365335</ele>
        <time>2013-06-15T13:24:14Z</time>
      </trkpt>
      <trkpt lat="48.52269" lon="2.12655">
        <ele>143.705036</ele>
        <time>2013-06-15T13:24:19Z</time>
      </trkpt>
      <trkpt lat="48.52266" lon="2.12646">
        <ele>144.044746</ele>
        <time>2013-06-15T13:24:24Z</time>
      </trkpt>
      <trkpt lat="48.52263" lon="2.12639">
        <ele>142.997952</ele>
        <time>2013-06-15T13:24:29Z</time>
      </trkpt>
      <trkpt lat="48.5226" lon="2.12631">
        <ele>143.337676</ele>
        <time>2013-06-15T13:24:34Z</time>
      </trkpt>
      <trkpt lat="48.52257" lon="2.12624">
        <ele>142.952764</ele>
        <time>2013-06-15T13:24:39Z</time>
      </trkpt>
      <trkpt lat="48.52253" lon="2.12616">
        <ele>143.292503</ele>
        <time>2013-06-15T13:24:44Z</time>
      </trkpt>
      <trkpt lat="48.52251" lon="2.12612">
        <ele>144.45518</ele>
        <time>2013-06-15T13:24:49Z</time>
      </trkpt>
      <trkpt lat="48.52248" lon="2.12605">
        <ele>144.157631</ele>
        <time>2013-06-15T13:24:54Z</time>
      </trkpt>
      <trkpt lat="48.52245" lon="2.12597">
        <ele>143.748173</ele>
        <time>2013-06-15T13:24:59Z</time>
      </trkpt>
      <trkpt lat="48.52241" lon="2.1259">
        <ele>144.774378</ele>
        <time>2013-06-15T13:25:04Z</time>
      </trkpt>
      <trkpt lat="48.52238" lon="2.12581">
        <ele>145.11415</ele>
        <time>2013-06-15T13:25:09Z</time>
      </trkpt>
      <trkpt lat="48.52234" lon="2.12574">
        <ele>145.391155</ele>
        <time>2013-06-15T13:25:14Z</time>
      </trkpt>
      <trkpt lat="48.5223" lon="2.12568">
        <ele>145.006296</ele>
        <time>2013-06-15T13:25:19Z</time>
      </trkpt>
      <trkpt lat="48.52227" lon="2.12562">
        <ele>145.395222</ele>
        <time>2013-06-15T13:25:24Z</time>
      </trkpt>
      <trkpt lat="48.52223" lon="2.12555">
        <ele>145.010375</ele>
        <time>2013-06-15T13:25:29Z</time>
      </trkpt>
      <trkpt lat="48.52219" lon="2.12549">
        <ele>144.650098</ele>
        <time>2013-06-15T13:25:34Z</time>
      </trkpt>
      <trkpt lat="48.52217" lon="2.12543">
        <ele>144.352601</ele>
        <time>2013-06-15T13:25:39Z</time>
      </trkpt>
      <trkpt lat="48.52214" lon="2.12536">
        <ele>144.716984</ele>
        <time>2013-06-15T13:25:44Z</time>
      </trkpt>
      <trkpt lat="48.5221" lon="2.1253">
        <ele>145.018599</ele>
        <time>2013-06-15T13:25:49Z</time>
      </trkpt>
      <trkpt lat="48.52207" lon="2.12523">
        <ele>145.382994</ele>
        <time>2013-06-15T13:25:54Z</time>
      </trkpt>
      <trkpt lat="48.52203" lon="2.12515">
        <ele>145.722833</ele>
        <time>2013-06-15T13:25:59Z</time>
      </trkpt>
      <trkpt lat="48.52199" lon="2.12508">
        <ele>145.999907</ele>
        <time>2013-06-15T13:26:04Z</time>
      </trkpt>
      <trkpt lat="48.52195" lon="2.12502">
        <ele>146.301549</ele>
        <time>2013-06-15T13:26:09Z</time>
      </trkpt>
      <trkpt lat="48.52192" lon="2.12494">
        <ele>146.64141</ele>
        <time>2013-06-15T13:26:14Z</time>
      </trkpt>
      <trkpt lat="48.52188" lon="2.12487">
        <ele>146.256628</ele>
        <time>2013-06-15T13:26:19Z</time>
      </trkpt>
      <trkpt lat="48.52184" lon="2.1248">
        <ele>145.122644</ele>
        <time>2013-06-15T13:26:24Z</time>
      </trkpt>
      <trkpt lat="48.52179" lon="2.12473">
        <ele>145.399755</ele>
        <time>2013-06-15T13:26:29Z</time>
      </trkpt>
      <trkpt lat="48.52176" lon="2.12468">
        <ele>145.788757</ele>
        <time>2013-06-15T13:26:34Z</time>
      </trkpt>
      <trkpt lat="48.52171" lon="2.12461">
        <ele>145.316675</ele>
        <time>2013-06-15T13:26:39Z</time>
      </trkpt>
      <trkpt lat="48.52168" lon="2.12454">
        <ele>144.931927</ele>
        <time>2013-06-15T13:26:44Z</time>
      </trkpt>
      <trkpt lat="48.52163" lon="2.12448">
        <ele>143.822534</ele>
        <time>2013-06-15T13:26:49Z</time>
      </trkpt>
      <trkpt lat="48.52158" lon="2.12441">
        <ele>143.350476</ele>
        <time>2013-06-15T13:26:54Z</time>
      </trkpt>
      <trkpt lat="48.52153" lon="2.12436">
        <ele>142.902979</ele>
        <time>2013-06-15T13:26:59Z</time>
      </trkpt>
      <trkpt lat="48.52149" lon="2.1243">
        <ele>143.204694</ele>
        <time>2013-06-15T13:27:04Z</time>
      </trkpt>
      <trkpt lat="48.52145" lon="2.12426">
        <ele>142.869081</ele>
        <time>2013-06-15T13:27:09Z</time>
      </trkpt>
      <trkpt lat="48.5214" lon="2.1242">
        <ele>142.421604</ele>
        <time>2013-06-15T13:27:14Z</time>
      </trkpt>
      <trkpt lat="48.52135" lon="2.12416">
        <ele>141.998685</ele>
        <time>2013-06-15T13:27:19Z</time>
      </trkpt>
      <trkpt lat="48.52131" lon="2.1241">
        <ele>142.300424</ele>
        <time>2013-06-15T13:27:24Z</time>
      </trkpt>
      <trkpt lat="48.52126" lon="2.12405">
        <ele>141.852968</ele>
        <time>2013-06-15T13:27:29Z</time>
      </trkpt>
      <trkpt lat="48.52121" lon="2.12401">
        <ele>141.430068</ele>
        <time>2013-06-15T13:27:34Z</time>
      </trkpt>
      <trkpt lat="48.52115" lon="2.12398">
        <ele>141.693611</ele>
        <time>2013-06-15T13:27:39Z</time>
      </trkpt>
      <trkpt lat="48.5211" lon="2.12393">
        <ele>141.270723</ele>
        <time>2013-06-15T13:27:44Z</time>
      </trkpt>
      <trkpt lat="48.52105" lon="2.1239">
        <ele>141.534279</ele>
        <time>2013-06-15T13:27:49Z</time>
      </trkpt>
      <trkpt lat="48.52099" lon="2.12389">
        <ele>141.160498</ele>
        <time>2013-06-15T13:27:54Z</time>
      </trkpt>
      <trkpt lat="48.52093" lon="2.12386">
        <ele>140.67487</ele>
        <time>2013-06-15T13:27:59Z</time>
      </trkpt>
      <trkpt lat="48.52087" lon="2.12384">
        <ele>140.962992</ele>
        <time>2013-06-15T13:28:04Z</time>
      </trkpt>
      <trkpt lat="48.52081" lon="2.12385">
        <ele>140.551018</ele>
        <time>2013-06-15T13:28:09Z</time>
      </trkpt>
      <trkpt lat="48.52075" lon="2.12385">
        <ele>140.863701</ele>
        <time>2013-06-15T13:28:14Z</time>
      </trkpt>
      <trkpt lat="48.52069" lon="2.12385">
        <ele>140.427195</ele>
        <time>2013-06-15T13:28:19Z</time>
      </trkpt>
      <trkpt lat="48.52063" lon="2.12385">
        <ele>140.739891</ele>
        <time>2013-06-15T13:28:24Z</time>
      </trkpt>
      <trkpt lat="48.52058" lon="2.12384">
        <ele>141.052594</ele>
        <time>2013-06-15T13:28:29Z</time>
      </trkpt>
      <trkpt lat="48.52052" lon="2.12385">
        <ele>141.389849</ele>
        <time>2013-06-15T13:28:34Z</time>
      </trkpt>
      <trkpt lat="48.52045" lon="2.12385">
        <ele>141.61527</ele>
        <time>2013-06-15T13:28:39Z</time>
      </trkpt>
      <trkpt lat="48.5204" lon="2.12385">
        <ele>141.266095</ele>
        <time>2013-06-15T13:28:44Z</time>
      </trkpt>
      <trkpt lat="48.52034" lon="2.12386">
        <ele>141.603371</ele>
        <time>2013-06-15T13:28:49Z</time>
      </trkpt>
      <trkpt lat="48.52028" lon="2.12386">
        <ele>141.166916</ele>
        <time>2013-06-15T13:28:54Z</time>
      </trkpt>
      <trkpt lat="48.52022" lon="2.12386">
        <ele>140.817758</ele>
        <time>2013-06-15T13:28:59Z</time>
      </trkpt>
      <trkpt lat="48.52017" lon="2.12387">
        <ele>141.155053</ele>
        <time>2013-06-15T13:29:04Z</time>
      </trkpt>
      <trkpt lat="48.52012" lon="2.12386">
        <ele>142.216996</ele>
        <time>2013-06-15T13:29:09Z</time>
      </trkpt>
      <trkpt lat="48.52006" lon="2.12385">
        <ele>141.843306</ele>
        <time>2013-06-15T13:29:14Z</time>
      </trkpt>
      <trkpt lat="48.52001" lon="2.12382">
        <ele>142.106979</ele>
        <time>2013-06-15T13:29:19Z</time>
      </trkpt>
      <trkpt lat="48.51996" lon="2.12379">
        <ele>142.457941</ele>
        <time>2013-06-15T13:29:24Z</time>
      </trkpt>
      <trkpt lat="48.51991" lon="2.12377">
        <ele>142.746173</ele>
        <time>2013-06-15T13:29:29Z</time>
      </trkpt>
      <trkpt lat="48.51986" lon="2.12375">
        <ele>143.097145</ele>
        <time>2013-06-15T13:29:34Z</time>
      </trkpt>
      <trkpt lat="48.51981" lon="2.1237">
        <ele>143.336297</ele>
        <time>2013-06-15T13:29:39Z</time>
      </trkpt>
      <trkpt lat="48.51976" lon="2.12367">
        <ele>143.68728</ele>
        <time>2013-06-15T13:29:44Z</time>
      </trkpt>
      <trkpt lat="48.5197" lon="2.12363">
        <ele>143.926446</ele>
        <time>2013-06-15T13:29:49Z</time>
      </trkpt>
      <trkpt lat="48.51965" lon="2.12361">
        <ele>144.214709</ele>
        <time>2013-06-15T13:29:54Z</time>
      </trkpt>
      <trkpt lat="48.5196" lon="2.12361">
        <ele>143.865613</ele>
        <time>2013-06-15T13:29:59Z</time>
      </trkpt>
      <trkpt lat="48.51954" lon="2.12365">
        <ele>143.590155</ele>
        <time>2013-06-15T13:30:04Z</time>
      </trkpt>
      <trkpt lat="48.51949" lon="2.1237">
        <ele>143.33925</ele>
        <time>2013-06-15T13:30:09Z</time>
      </trkpt>
      <trkpt lat="48.51945" lon="2.12374">
        <ele>143.151075</ele>
        <time>2013-06-15T13:30:14Z</time>
      </trkpt>
      <trkpt lat="48.51941" lon="2.12381">
        <ele>143.011998</ele>
        <time>2013-06-15T13:30:19Z</time>
      </trkpt>
      <trkpt lat="48.51937" lon="2.12386">
        <ele>143.510292</ele>
        <time>2013-06-15T13:30:24Z</time>
      </trkpt>
      <trkpt lat="48.51933" lon="2.12393">
        <ele>143.371228</ele>
        <time>2013-06-15T13:30:29Z</time>
      </trkpt>
      <trkpt lat="48.5193" lon="2.12399">
        <ele>142.570258</ele>
        <time>2013-06-15T13:30:34Z</time>
      </trkpt>
      <trkpt lat="48.51926" lon="2.12406">
        <ele>142.431207</ele>
        <time>2013-06-15T13:30:39Z</time>
      </trkpt>
      <trkpt lat="48.51923" lon="2.12413">
        <ele>141.630248</ele>
        <time>2013-06-15T13:30:44Z</time>
      </trkpt>
      <trkpt lat="48.51923" lon="2.12413">
        <ele>141.630248</ele>
        <time>2013-06-15T13:30:49Z</time>
      </trkpt>
      <trkpt lat="48.51919" lon="2.12417">
        <ele>140.780194</ele>
        <time>2013-06-15T13:30:54Z</time>
      </trkpt>
      <trkpt lat="48.51917" lon="2.12422">
        <ele>140.703872</ele>
        <time>2013-06-15T13:30:59Z</time>
      </trkpt>
      <trkpt lat="48.51917" lon="2.12422">
        <ele>140.041958</ele>
        <time>2013-06-15T13:31:04Z</time>
      </trkpt>
      <trkpt lat="48.51917" lon="2.12422">
        <ele>140.041958</ele>
        <time>2013-06-15T13:31:09Z</time>
      </trkpt>
      <trkpt lat="48.51915" lon="2.12427">
        <ele>139.965639</ele>
        <time>2013-06-15T13:31:14Z</time>
      </trkpt>
      <trkpt lat="48.51912" lon="2.12434">
        <ele>139.913877</ele>
        <time>2013-06-15T13:31:19Z</time>
      </trkpt>
      <trkpt lat="48.51909" lon="2.12439">
        <ele>139.837567</ele>
        <time>2013-06-15T13:31:24Z</time>
      </trkpt>
      <trkpt lat="48.51908" lon="2.12443">
        <ele>139.823967</ele>
        <time>2013-06-15T13:31:29Z</time>
      </trkpt>
      <trkpt lat="48.51907" lon="2.12446">
        <ele>139.785814</ele>
        <time>2013-06-15T13:31:34Z</time>
      </trkpt>
      <trkpt lat="48.51904" lon="2.12451">
        <ele>138.960336</ele>
        <time>2013-06-15T13:31:39Z</time>
      </trkpt>
      <trkpt lat="48.519" lon="2.12455">
        <ele>138.110307</ele>
        <time>2013-06-15T13:31:44Z</time>
      </trkpt>
      <trkpt lat="48.51895" lon="2.12459">
        <ele>137.834939</ele>
        <time>2013-06-15T13:31:49Z</time>
      </trkpt>
      <trkpt lat="48.51891" lon="2.12464">
        <ele>136.922217</ele>
        <time>2013-06-15T13:31:54Z</time>
      </trkpt>
      <trkpt lat="48.51885" lon="2.12469">
        <ele>136.67142</ele>
        <time>2013-06-15T13:31:59Z</time>
      </trkpt>
      <trkpt lat="48.51881" lon="2.12473">
        <ele>135.734153</ele>
        <time>2013-06-15T13:32:04Z</time>
      </trkpt>
      <trkpt lat="48.51877" lon="2.12477">
        <ele>135.546065</ele>
        <time>2013-06-15T13:32:09Z</time>
      </trkpt>
      <trkpt lat="48.51873" lon="2.12481">
        <ele>135.35798</ele>
        <time>2013-06-15T13:32:14Z</time>
      </trkpt>
      <trkpt lat="48.51869" lon="2.12486">
        <ele>135.194459</ele>
        <time>2013-06-15T13:32:19Z</time>
      </trkpt>
      <trkpt lat="48.51865" lon="2.12492">
        <ele>135.692864</ele>
        <time>2013-06-15T13:32:24Z</time>
      </trkpt>
      <trkpt lat="48.51861" lon="2.12494">
        <ele>135.480234</ele>
        <time>2013-06-15T13:32:29Z</time>
      </trkpt>
      <trkpt lat="48.51858" lon="2.12498">
        <ele>135.379416</ele>
        <time>2013-06-15T13:32:34Z</time>
      </trkpt>
      <trkpt lat="48.51853" lon="2.12502">
        <ele>134.354935</ele>
        <time>2013-06-15T13:32:39Z</time>
      </trkpt>
      <trkpt lat="48.5185" lon="2.12503">
        <ele>134.205002</ele>
        <time>2013-06-15T13:32:44Z</time>
      </trkpt>
      <trkpt lat="48.51845" lon="2.12506">
        <ele>133.905139</ele>
        <time>2013-06-15T13:32:49Z</time>
      </trkpt>
      <trkpt lat="48.5184" lon="2.12511">
        <ele>132.992482</ele>
        <time>2013-06-15T13:32:54Z</time>
      </trkpt>
      <trkpt lat="48.51833" lon="2.12513">
        <ele>131.107052</ele>
        <time>2013-06-15T13:32:59Z</time>
      </trkpt>
      <trkpt lat="48.51828" lon="2.12517">
        <ele>130.831772</ele>
        <time>2013-06-15T13:33:04Z</time>
      </trkpt>
      <trkpt lat="48.51824" lon="2.12521">
        <ele>129.981812</ele>
        <time>2013-06-15T13:33:09Z</time>
      </trkpt>
      <trkpt lat="48.51821" lon="2.12525">
        <ele>128.38269</ele>
        <time>2013-06-15T13:33:14Z</time>
      </trkpt>
      <trkpt lat="48.51817" lon="2.12529">
        <ele>125.372479</ele>
        <time>2013-06-15T13:33:19Z</time>
      </trkpt>
      <trkpt lat="48.51812" lon="2.12533">
        <ele>123.686127</ele>
        <time>2013-06-15T13:33:24Z</time>
      </trkpt>
      <trkpt lat="48.51808" lon="2.12538">
        <ele>123.522676</ele>
        <time>2013-06-15T13:33:29Z</time>
      </trkpt>
      <trkpt lat="48.51804" lon="2.12544">
        <ele>121.948137</ele>
        <time>2013-06-15T13:33:34Z</time>
      </trkpt>
      <trkpt lat="48.51799" lon="2.12549">
        <ele>120.286369</ele>
        <time>2013-06-15T13:33:39Z</time>
      </trkpt>
      <trkpt lat="48.51794" lon="2.12553">
        <ele>118.600041</ele>
        <time>2013-06-15T13:33:44Z</time>
      </trkpt>
      <trkpt lat="48.51789" lon="2.12557">
        <ele>117.662882</ele>
        <time>2013-06-15T13:33:49Z</time>
      </trkpt>
      <trkpt lat="48.51784" lon="2.12559">
        <ele>115.951998</ele>
        <time>2013-06-15T13:33:54Z</time>
      </trkpt>
      <trkpt lat="48.51779" lon="2.12563">
        <ele>114.265688</ele>
        <time>2013-06-15T13:33:59Z</time>
      </trkpt>
      <trkpt lat="48.51775" lon="2.1257">
        <ele>111.96659</ele>
        <time>2013-06-15T13:34:04Z</time>
      </trkpt>
      <trkpt lat="48.5177" lon="2.12574">
        <ele>111.029453</ele>
        <time>2013-06-15T13:34:09Z</time>
      </trkpt>
      <trkpt lat="48.51765" lon="2.1258">
        <ele>109.392303</ele>
        <time>2013-06-15T13:34:14Z</time>
      </trkpt>
      <trkpt lat="48.51762" lon="2.12587">
        <ele>108.591545</ele>
        <time>2013-06-15T13:34:19Z</time>
      </trkpt>
      <trkpt lat="48.51759" lon="2.12594">
        <ele>107.790794</ele>
        <time>2013-06-15T13:34:24Z</time>
      </trkpt>
      <trkpt lat="48.51755" lon="2.12602">
        <ele>107.014621</ele>
        <time>2013-06-15T13:34:29Z</time>
      </trkpt>
      <trkpt lat="48.51753" lon="2.12607">
        <ele>106.938467</ele>
        <time>2013-06-15T13:34:34Z</time>
      </trkpt>
      <trkpt lat="48.5175" lon="2.12614">
        <ele>106.886891</ele>
        <time>2013-06-15T13:34:39Z</time>
      </trkpt>
      <trkpt lat="48.51749" lon="2.12619">
        <ele>105.486874</ele>
        <time>2013-06-15T13:34:44Z</time>
      </trkpt>
      <trkpt lat="48.51746" lon="2.12624">
        <ele>104.661574</ele>
        <time>2013-06-15T13:34:49Z</time>
      </trkpt>
      <trkpt lat="48.51742" lon="2.1263">
        <ele>103.08712</ele>
        <time>2013-06-15T13:34:54Z</time>
      </trkpt>
      <trkpt lat="48.51737" lon="2.12632">
        <ele>102.787392</ele>
        <time>2013-06-15T13:34:59Z</time>
      </trkpt>
      <trkpt lat="48.51732" lon="2.12631">
        <ele>101.002846</ele>
        <time>2013-06-15T13:35:04Z</time>
      </trkpt>
      <trkpt lat="48.51729" lon="2.12624">
        <ele>100.70553</ele>
        <time>2013-06-15T13:35:09Z</time>
      </trkpt>
      <trkpt lat="48.51729" lon="2.12624">
        <ele>99.956374</ele>
        <time>2013-06-15T13:35:14Z</time>
      </trkpt>
      <trkpt lat="48.51729" lon="2.12624">
        <ele>99.956374</ele>
        <time>2013-06-15T13:35:19Z</time>
      </trkpt>
      <trkpt lat="48.51727" lon="2.12624">
        <ele>99.120001</ele>
        <time>2013-06-15T13:35:24Z</time>
      </trkpt>
      <trkpt lat="48.51727" lon="2.12624">
        <ele>99.120001</ele>
        <time>2013-06-15T13:35:29Z</time>
      </trkpt>
      <trkpt lat="48.51725" lon="2.12621">
        <ele>99.645572</ele>
        <time>2013-06-15T13:35:34Z</time>
      </trkpt>
      <trkpt lat="48.51722" lon="2.12616">
        <ele>99.372839</ele>
        <time>2013-06-15T13:35:39Z</time>
      </trkpt>
      <trkpt lat="48.5172" lon="2.1261">
        <ele>99.100109</ele>
        <time>2013-06-15T13:35:44Z</time>
      </trkpt>
      <trkpt lat="48.51719" lon="2.12609">
        <ele>98.98832</ele>
        <time>2013-06-15T13:35:49Z</time>
      </trkpt>
      <trkpt lat="48.5172" lon="2.12606">
        <ele>99.026388</ele>
        <time>2013-06-15T13:35:54Z</time>
      </trkpt>
      <trkpt lat="48.5172" lon="2.12606">
        <ele>99.026388</ele>
        <time>2013-06-15T13:35:59Z</time>
      </trkpt>
      <trkpt lat="48.5172" lon="2.12606">
        <ele>99.026388</ele>
        <time>2013-06-15T13:36:04Z</time>
      </trkpt>
      <trkpt lat="48.5172" lon="2.12606">
        <ele>99.026388</ele>
        <time>2013-06-15T13:36:09Z</time>
      </trkpt>
      <trkpt lat="48.5172" lon="2.12606">
        <ele>99.026388</ele>
        <time>2013-06-15T13:36:14Z</time>
      </trkpt>
      <trkpt lat="48.5172" lon="2.12606">
        <ele>99.026388</ele>
        <time>2013-06-15T13:36:19Z</time>
      </trkpt>
      <trkpt lat="48.5172" lon="2.12606">
        <ele>99.026388</ele>
        <time>2013-06-15T13:36:24Z</time>
      </trkpt>
      <trkpt lat="48.5172" lon="2.12606">
        <ele>99.026388</ele>
        <time>2013-06-15T13:36:29Z</time>
      </trkpt>
      <trkpt lat="48.5172" lon="2.12606">
        <ele>99.026388</ele>
        <time>2013-06-15T13:36:34Z</time>
      </trkpt>
      <trkpt lat="48.5172" lon="2.12606">
        <ele>99.026388</ele>
        <time>2013-06-15T13:36:39Z</time>
      </trkpt>
      <trkpt lat="48.5172" lon="2.12606">
        <ele>99.026388</ele>
        <time>2013-06-15T13:36:44Z</time>
      </trkpt>
      <trkpt lat="48.5172" lon="2.12606">
        <ele>99.026388</ele>
        <time>2013-06-15T13:36:49Z</time>
      </trkpt>
      <trkpt lat="48.5172" lon="2.12606">
        <ele>99.026388</ele>
        <time>2013-06-15T13:36:54Z</time>
      </trkpt>
      <trkpt lat="48.5172" lon="2.12606">
        <ele>99.026388</ele>
        <time>2013-06-15T13:36:59Z</time>
      </trkpt>
      <trkpt lat="48.5172" lon="2.12606">
        <ele>99.026388</ele>
        <time>2013-06-15T13:37:04Z</time>
      </trkpt>
      <trkpt lat="48.5172" lon="2.12606">
        <ele>99.026388</ele>
        <time>2013-06-15T13:37:09Z</time>
      </trkpt>
      <trkpt lat="48.5172" lon="2.12606">
        <ele>99.026388</ele>
        <time>2013-06-15T13:37:14Z</time>
      </trkpt>
      <trkpt lat="48.5172" lon="2.12606">
        <ele>99.026388</ele>
        <time>2013-06-15T13:37:19Z</time>
      </trkpt>
      <trkpt lat="48.5172" lon="2.12606">
        <ele>99.026388</ele>
        <time>2013-06-15T13:37:24Z</time>
      </trkpt>
      <trkpt lat="48.5172" lon="2.12606">
        <ele>99.026388</ele>
        <time>2013-06-15T13:37:29Z</time>
      </trkpt>
      <trkpt lat="48.5172" lon="2.12606">
        <ele>99.026388</ele>
        <time>2013-06-15T13:37:34Z</time>
      </trkpt>
      <trkpt lat="48.5172" lon="2.12607">
        <ele>99.050961</ele>
        <time>2013-06-15T13:37:39Z</time>
      </trkpt>
      <trkpt lat="48.51721" lon="2.12607">
        <ele>98.389022</ele>
        <time>2013-06-15T13:37:44Z</time>
      </trkpt>
      <trkpt lat="48.51721" lon="2.12606">
        <ele>98.364449</ele>
        <time>2013-06-15T13:37:49Z</time>
      </trkpt>
      <trkpt lat="48.51721" lon="2.12606">
        <ele>98.364449</ele>
        <time>2013-06-15T13:37:54Z</time>
      </trkpt>
      <trkpt lat="48.51721" lon="2.12606">
        <ele>98.364449</ele>
        <time>2013-06-15T13:37:59Z</time>
      </trkpt>
      <trkpt lat="48.51721" lon="2.12606">
        <ele>98.364449</ele>
        <time>2013-06-15T13:38:04Z</time>
      </trkpt>
      <trkpt lat="48.51721" lon="2.12606">
        <ele>98.364449</ele>
        <time>2013-06-15T13:38:09Z</time>
      </trkpt>
      <trkpt lat="48.51721" lon="2.12606">
        <ele>98.364449</ele>
        <time>2013-06-15T13:38:14Z</time>
      </trkpt>
      <trkpt lat="48.51721" lon="2.12606">
        <ele>98.364449</ele>
        <time>2013-06-15T13:38:19Z</time>
      </trkpt>
      <trkpt lat="48.5172" lon="2.12606">
        <ele>99.026388</ele>
        <time>2013-06-15T13:38:24Z</time>
      </trkpt>
      <trkpt lat="48.5172" lon="2.12606">
        <ele>99.026388</ele>
        <time>2013-06-15T13:38:29Z</time>
      </trkpt>
      <trkpt lat="48.5172" lon="2.12606">
        <ele>99.026388</ele>
        <time>2013-06-15T13:38:34Z</time>
      </trkpt>
      <trkpt lat="48.5172" lon="2.12606">
        <ele>99.026388</ele>
        <time>2013-06-15T13:38:39Z</time>
      </trkpt>
      <trkpt lat="48.5172" lon="2.12606">
        <ele>99.026388</ele>
        <time>2013-06-15T13:38:44Z</time>
      </trkpt>
      <trkpt lat="48.5172" lon="2.12606">
        <ele>99.026388</ele>
        <time>2013-06-15T13:38:49Z</time>
      </trkpt>
      <trkpt lat="48.5172" lon="2.12606">
        <ele>99.026388</ele>
        <time>2013-06-15T13:38:54Z</time>
      </trkpt>
      <trkpt lat="48.5172" lon="2.12606">
        <ele>99.026388</ele>
        <time>2013-06-15T13:38:59Z</time>
      </trkpt>
      <trkpt lat="48.5172" lon="2.12606">
        <ele>99.026388</ele>
        <time>2013-06-15T13:39:04Z</time>
      </trkpt>
      <trkpt lat="48.5172" lon="2.12606">
        <ele>99.026388</ele>
        <time>2013-06-15T13:39:09Z</time>
      </trkpt>
      <trkpt lat="48.5172" lon="2.12606">
        <ele>99.026388</ele>
        <time>2013-06-15T13:39:14Z</time>
      </trkpt>
      <trkpt lat="48.5172" lon="2.12606">
        <ele>99.026388</ele>
        <time>2013-06-15T13:39:19Z</time>
      </trkpt>
      <trkpt lat="48.5172" lon="2.12606">
        <ele>99.026388</ele>
        <time>2013-06-15T13:39:24Z</time>
      </trkpt>
      <trkpt lat="48.5172" lon="2.12606">
        <ele>99.026388</ele>
        <time>2013-06-15T13:39:29Z</time>
      </trkpt>
      <trkpt lat="48.5172" lon="2.12606">
        <ele>99.026388</ele>
        <time>2013-06-15T13:39:34Z</time>
      </trkpt>
      <trkpt lat="48.5172" lon="2.12606">
        <ele>99.026388</ele>
        <time>2013-06-15T13:39:39Z</time>
      </trkpt>
      <trkpt lat="48.5172" lon="2.12606">
        <ele>99.026388</ele>
        <time>2013-06-15T13:39:44Z</time>
      </trkpt>
      <trkpt lat="48.5172" lon="2.12606">
        <ele>99.026388</ele>
        <time>2013-06-15T13:39:49Z</time>
      </trkpt>
      <trkpt lat="48.5172" lon="2.12606">
        <ele>99.026388</ele>
        <time>2013-06-15T13:39:54Z</time>
      </trkpt>
      <trkpt lat="48.5172" lon="2.12606">
        <ele>99.026388</ele>
        <time>2013-06-15T13:39:59Z</time>
      </trkpt>
      <trkpt lat="48.5172" lon="2.12606">
        <ele>99.026388</ele>
        <time>2013-06-15T13:40:04Z</time>
      </trkpt>
      <trkpt lat="48.5172" lon="2.12606">
        <ele>99.026388</ele>
        <time>2013-06-15T13:40:09Z</time>
      </trkpt>
      <trkpt lat="48.5172" lon="2.12606">
        <ele>99.026388</ele>
        <time>2013-06-15T13:40:14Z</time>
      </trkpt>
      <trkpt lat="48.5172" lon="2.12606">
        <ele>99.026388</ele>
        <time>2013-06-15T13:40:19Z</time>
      </trkpt>
      <trkpt lat="48.5172" lon="2.12606">
        <ele>99.026388</ele>
        <time>2013-06-15T13:40:24Z</time>
      </trkpt>
      <trkpt lat="48.5172" lon="2.12606">
        <ele>99.026388</ele>
        <time>2013-06-15T13:40:29Z</time>
      </trkpt>
      <trkpt lat="48.5172" lon="2.12606">
        <ele>99.026388</ele>
        <time>2013-06-15T13:40:34Z</time>
      </trkpt>
      <trkpt lat="48.5172" lon="2.12607">
        <ele>99.050961</ele>
        <time>2013-06-15T13:40:39Z</time>
      </trkpt>
      <trkpt lat="48.5172" lon="2.12607">
        <ele>99.050961</ele>
        <time>2013-06-15T13:40:44Z</time>
      </trkpt>
      <trkpt lat="48.5172" lon="2.12607">
        <ele>99.050961</ele>
        <time>2013-06-15T13:40:49Z</time>
      </trkpt>
      <trkpt lat="48.51721" lon="2.12607">
        <ele>98.389022</ele>
        <time>2013-06-15T13:40:54Z</time>
      </trkpt>
      <trkpt lat="48.51721" lon="2.12607">
        <ele>98.389022</ele>
        <time>2013-06-15T13:40:59Z</time>
      </trkpt>
      <trkpt lat="48.5172" lon="2.12606">
        <ele>98.277233</ele>
        <time>2013-06-15T13:41:04Z</time>
      </trkpt>
      <trkpt lat="48.51719" lon="2.12607">
        <ele>97.552652</ele>
        <time>2013-06-15T13:41:09Z</time>
      </trkpt>
      <trkpt lat="48.51718" lon="2.12607">
        <ele>98.214592</ele>
        <time>2013-06-15T13:41:14Z</time>
      </trkpt>
      <trkpt lat="48.51718" lon="2.12607">
        <ele>98.214592</ele>
        <time>2013-06-15T13:41:19Z</time>
      </trkpt>
      <trkpt lat="48.51718" lon="2.12607">
        <ele>98.214592</ele>
        <time>2013-06-15T13:41:24Z</time>
      </trkpt>
      <trkpt lat="48.51718" lon="2.12607">
        <ele>98.214592</ele>
        <time>2013-06-15T13:41:29Z</time>
      </trkpt>
      <trkpt lat="48.51718" lon="2.12607">
        <ele>98.214592</ele>
        <time>2013-06-15T13:41:34Z</time>
      </trkpt>
      <trkpt lat="48.51718" lon="2.12607">
        <ele>98.214592</ele>
        <time>2013-06-15T13:41:39Z</time>
      </trkpt>
      <trkpt lat="48.51718" lon="2.12607">
        <ele>97.465437</ele>
        <time>2013-06-15T13:41:44Z</time>
      </trkpt>
      <trkpt lat="48.51718" lon="2.12607">
        <ele>97.465437</ele>
        <time>2013-06-15T13:41:49Z</time>
      </trkpt>
      <trkpt lat="48.51718" lon="2.12607">
        <ele>97.465437</ele>
        <time>2013-06-15T13:41:54Z</time>
      </trkpt>
      <trkpt lat="48.51717" lon="2.12607">
        <ele>96.716283</ele>
        <time>2013-06-15T13:41:59Z</time>
      </trkpt>
      <trkpt lat="48.51717" lon="2.12607">
        <ele>96.716283</ele>
        <time>2013-06-15T13:42:04Z</time>
      </trkpt>
      <trkpt lat="48.51717" lon="2.12607">
        <ele>96.716283</ele>
        <time>2013-06-15T13:42:09Z</time>
      </trkpt>
      <trkpt lat="48.51717" lon="2.12607">
        <ele>96.716283</ele>
        <time>2013-06-15T13:42:14Z</time>
      </trkpt>
      <trkpt lat="48.51717" lon="2.12607">
        <ele>96.716283</ele>
        <time>2013-06-15T13:42:19Z</time>
      </trkpt>
      <trkpt lat="48.51717" lon="2.12607">
        <ele>96.716283</ele>
        <time>2013-06-15T13:42:24Z</time>
      </trkpt>
      <trkpt lat="48.51716" lon="2.12607">
        <ele>97.378223</ele>
        <time>2013-06-15T13:42:29Z</time>
      </trkpt>
      <trkpt lat="48.51717" lon="2.12605">
        <ele>96.667136</ele>
        <time>2013-06-15T13:42:34Z</time>
      </trkpt>
      <trkpt lat="48.51717" lon="2.12601">
        <ele>96.593416</ele>
        <time>2013-06-15T13:42:39Z</time>
      </trkpt>
      <trkpt lat="48.51717" lon="2.12599">
        <ele>96.568843</ele>
        <time>2013-06-15T13:42:44Z</time>
      </trkpt>
      <trkpt lat="48.51717" lon="2.12599">
        <ele>96.568843</ele>
        <time>2013-06-15T13:42:49Z</time>
      </trkpt>
      <trkpt lat="48.51717" lon="2.12599">
        <ele>96.568843</ele>
        <time>2013-06-15T13:42:54Z</time>
      </trkpt>
      <trkpt lat="48.51717" lon="2.12599">
        <ele>96.568843</ele>
        <time>2013-06-15T13:42:59Z</time>
      </trkpt>
      <trkpt lat="48.51716" lon="2.12598">
        <ele>96.457055</ele>
        <time>2013-06-15T13:43:04Z</time>
      </trkpt>
      <trkpt lat="48.51715" lon="2.12595">
        <ele>97.06985</ele>
        <time>2013-06-15T13:43:09Z</time>
      </trkpt>
      <trkpt lat="48.51712" lon="2.12591">
        <ele>97.483646</ele>
        <time>2013-06-15T13:43:14Z</time>
      </trkpt>
      <trkpt lat="48.5171" lon="2.12585">
        <ele>97.960087</ele>
        <time>2013-06-15T13:43:19Z</time>
      </trkpt>
      <trkpt lat="48.51708" lon="2.12581">
        <ele>97.711948</ele>
        <time>2013-06-15T13:43:24Z</time>
      </trkpt>
      <trkpt lat="48.51705" lon="2.12576">
        <ele>98.101183</ele>
        <time>2013-06-15T13:43:29Z</time>
      </trkpt>
      <trkpt lat="48.51701" lon="2.1257">
        <ele>97.74127</ele>
        <time>2013-06-15T13:43:34Z</time>
      </trkpt>
      <trkpt lat="48.51697" lon="2.12563">
        <ele>97.356794</ele>
        <time>2013-06-15T13:43:39Z</time>
      </trkpt>
      <trkpt lat="48.51694" lon="2.12558">
        <ele>96.33495</ele>
        <time>2013-06-15T13:43:44Z</time>
      </trkpt>
      <trkpt lat="48.51691" lon="2.12551">
        <ele>97.36158</ele>
        <time>2013-06-15T13:43:49Z</time>
      </trkpt>
      <trkpt lat="48.51688" lon="2.12545">
        <ele>96.339745</ele>
        <time>2013-06-15T13:43:54Z</time>
      </trkpt>
      <trkpt lat="48.51683" lon="2.12539">
        <ele>96.641804</ele>
        <time>2013-06-15T13:43:59Z</time>
      </trkpt>
      <trkpt lat="48.51679" lon="2.12533">
        <ele>96.257358</ele>
        <time>2013-06-15T13:44:04Z</time>
      </trkpt>
      <trkpt lat="48.51676" lon="2.12526">
        <ele>95.872919</ele>
        <time>2013-06-15T13:44:09Z</time>
      </trkpt>
      <trkpt lat="48.51672" lon="2.1252">
        <ele>95.513051</ele>
        <time>2013-06-15T13:44:14Z</time>
      </trkpt>
      <trkpt lat="48.51668" lon="2.12514">
        <ele>95.815134</ele>
        <time>2013-06-15T13:44:19Z</time>
      </trkpt>
      <trkpt lat="48.51664" lon="2.12509">
        <ele>95.455277</ele>
        <time>2013-06-15T13:44:24Z</time>
      </trkpt>
      <trkpt lat="48.5166" lon="2.12503">
        <ele>95.757373</ele>
        <time>2013-06-15T13:44:29Z</time>
      </trkpt>
      <trkpt lat="48.51656" lon="2.12498">
        <ele>95.397527</ele>
        <time>2013-06-15T13:44:34Z</time>
      </trkpt>
      <trkpt lat="48.51652" lon="2.12492">
        <ele>94.288539</ele>
        <time>2013-06-15T13:44:39Z</time>
      </trkpt>
      <trkpt lat="48.51648" lon="2.12487">
        <ele>93.928704</ele>
        <time>2013-06-15T13:44:44Z</time>
      </trkpt>
      <trkpt lat="48.51644" lon="2.12481">
        <ele>94.230824</ele>
        <time>2013-06-15T13:44:49Z</time>
      </trkpt>
      <trkpt lat="48.51637" lon="2.12477">
        <ele>93.72117</ele>
        <time>2013-06-15T13:44:54Z</time>
      </trkpt>
      <trkpt lat="48.51634" lon="2.12471">
        <ele>93.361353</ele>
        <time>2013-06-15T13:44:59Z</time>
      </trkpt>
      <trkpt lat="48.5163" lon="2.12466">
        <ele>93.001541</ele>
        <time>2013-06-15T13:45:04Z</time>
      </trkpt>
      <trkpt lat="48.51626" lon="2.12459">
        <ele>92.617177</ele>
        <time>2013-06-15T13:45:09Z</time>
      </trkpt>
      <trkpt lat="48.51622" lon="2.12453">
        <ele>92.919329</ele>
        <time>2013-06-15T13:45:14Z</time>
      </trkpt>
      <trkpt lat="48.51618" lon="2.12446">
        <ele>92.534978</ele>
        <time>2013-06-15T13:45:19Z</time>
      </trkpt>
      <trkpt lat="48.51614" lon="2.12441">
        <ele>91.426047</ele>
        <time>2013-06-15T13:45:24Z</time>
      </trkpt>
      <trkpt lat="48.51609" lon="2.12434">
        <ele>91.703663</ele>
        <time>2013-06-15T13:45:30Z</time>
      </trkpt>
      <trkpt lat="48.51604" lon="2.12428">
        <ele>91.2567</ele>
        <time>2013-06-15T13:45:35Z</time>
      </trkpt>
      <trkpt lat="48.51601" lon="2.12422">
        <ele>90.89693</ele>
        <time>2013-06-15T13:45:40Z</time>
      </trkpt>
      <trkpt lat="48.51596" lon="2.12415">
        <ele>91.174568</ele>
        <time>2013-06-15T13:45:45Z</time>
      </trkpt>
      <trkpt lat="48.51591" lon="2.12411">
        <ele>90.752178</ele>
        <time>2013-06-15T13:45:50Z</time>
      </trkpt>
      <trkpt lat="48.51587" lon="2.12406">
        <ele>91.054382</ele>
        <time>2013-06-15T13:45:55Z</time>
      </trkpt>
      <trkpt lat="48.51582" lon="2.12401">
        <ele>90.632005</ele>
        <time>2013-06-15T13:46:00Z</time>
      </trkpt>
      <trkpt lat="48.51576" lon="2.12397">
        <ele>90.871593</ele>
        <time>2013-06-15T13:46:05Z</time>
      </trkpt>
      <trkpt lat="48.51571" lon="2.12391">
        <ele>91.835776</ele>
        <time>2013-06-15T13:46:10Z</time>
      </trkpt>
      <trkpt lat="48.51564" lon="2.12388">
        <ele>93.423849</ele>
        <time>2013-06-15T13:46:15Z</time>
      </trkpt>
      <trkpt lat="48.51559" lon="2.12385">
        <ele>93.026049</ele>
        <time>2013-06-15T13:46:20Z</time>
      </trkpt>
      <trkpt lat="48.51554" lon="2.12383">
        <ele>92.628254</ele>
        <time>2013-06-15T13:46:25Z</time>
      </trkpt>
      <trkpt lat="48.5155" lon="2.1238">
        <ele>90.157406</ele>
        <time>2013-06-15T13:46:30Z</time>
      </trkpt>
      <trkpt lat="48.51545" lon="2.12377">
        <ele>89.759622</ele>
        <time>2013-06-15T13:46:35Z</time>
      </trkpt>
      <trkpt lat="48.51539" lon="2.12374">
        <ele>89.274673</ele>
        <time>2013-06-15T13:46:40Z</time>
      </trkpt>
      <trkpt lat="48.51532" lon="2.12372">
        <ele>90.225379</ele>
        <time>2013-06-15T13:46:45Z</time>
      </trkpt>
      <trkpt lat="48.51526" lon="2.12369">
        <ele>89.740447</ele>
        <time>2013-06-15T13:46:50Z</time>
      </trkpt>
      <trkpt lat="48.51521" lon="2.12368">
        <ele>89.367236</ele>
        <time>2013-06-15T13:46:55Z</time>
      </trkpt>
      <trkpt lat="48.51515" lon="2.12366">
        <ele>89.655997</ele>
        <time>2013-06-15T13:47:00Z</time>
      </trkpt>
      <trkpt lat="48.5151" lon="2.12363">
        <ele>88.50912</ele>
        <time>2013-06-15T13:47:05Z</time>
      </trkpt>
      <trkpt lat="48.51504" lon="2.12362">
        <ele>88.797895</ele>
        <time>2013-06-15T13:47:10Z</time>
      </trkpt>
      <trkpt lat="48.51499" lon="2.1236">
        <ele>88.424706</ele>
        <time>2013-06-15T13:47:15Z</time>
      </trkpt>
      <trkpt lat="48.51494" lon="2.12357">
        <ele>88.026977</ele>
        <time>2013-06-15T13:47:20Z</time>
      </trkpt>
      <trkpt lat="48.51489" lon="2.12354">
        <ele>87.629253</ele>
        <time>2013-06-15T13:47:25Z</time>
      </trkpt>
      <trkpt lat="48.51483" lon="2.12351">
        <ele>87.893507</ele>
        <time>2013-06-15T13:47:30Z</time>
      </trkpt>
      <trkpt lat="48.51477" lon="2.1235">
        <ele>88.182312</ele>
        <time>2013-06-15T13:47:35Z</time>
      </trkpt>
      <trkpt lat="48.51475" lon="2.1235">
        <ele>88.008004</ele>
        <time>2013-06-15T13:47:40Z</time>
      </trkpt>
      <trkpt lat="48.51477" lon="2.1235">
        <ele>88.844284</ele>
        <time>2013-06-15T13:47:45Z</time>
      </trkpt>
      <trkpt lat="48.5148" lon="2.1235">
        <ele>90.516847</ele>
        <time>2013-06-15T13:47:50Z</time>
      </trkpt>
      <trkpt lat="48.51482" lon="2.12348">
        <ele>90.579457</ele>
        <time>2013-06-15T13:47:55Z</time>
      </trkpt>
      <trkpt lat="48.51482" lon="2.12348">
        <ele>90.579457</ele>
        <time>2013-06-15T13:48:00Z</time>
      </trkpt>
      <trkpt lat="48.51481" lon="2.12348">
        <ele>91.241429</ele>
        <time>2013-06-15T13:48:05Z</time>
      </trkpt>
      <trkpt lat="48.5148" lon="2.12348">
        <ele>91.9034</ele>
        <time>2013-06-15T13:48:10Z</time>
      </trkpt>
      <trkpt lat="48.51476" lon="2.12347">
        <ele>91.617391</ele>
        <time>2013-06-15T13:48:15Z</time>
      </trkpt>
      <trkpt lat="48.51471" lon="2.12347">
        <ele>91.930749</ele>
        <time>2013-06-15T13:48:20Z</time>
      </trkpt>
      <trkpt lat="48.51465" lon="2.12344">
        <ele>92.195024</ele>
        <time>2013-06-15T13:48:25Z</time>
      </trkpt>
      <trkpt lat="48.51461" lon="2.12341">
        <ele>91.135358</ele>
        <time>2013-06-15T13:48:30Z</time>
      </trkpt>
      <trkpt lat="48.51456" lon="2.12336">
        <ele>91.462251</ele>
        <time>2013-06-15T13:48:35Z</time>
      </trkpt>
      <trkpt lat="48.51452" lon="2.12332">
        <ele>91.789149</ele>
        <time>2013-06-15T13:48:40Z</time>
      </trkpt>
      <trkpt lat="48.51448" lon="2.12329">
        <ele>92.889718</ele>
        <time>2013-06-15T13:48:45Z</time>
      </trkpt>
      <trkpt lat="48.51444" lon="2.12326">
        <ele>92.579192</ele>
        <time>2013-06-15T13:48:50Z</time>
      </trkpt>
      <trkpt lat="48.51442" lon="2.12324">
        <ele>92.355815</ele>
        <time>2013-06-15T13:48:55Z</time>
      </trkpt>
      <trkpt lat="48.51438" lon="2.12323">
        <ele>93.505479</ele>
        <time>2013-06-15T13:49:00Z</time>
      </trkpt>
      <trkpt lat="48.51437" lon="2.12321">
        <ele>94.780349</ele>
        <time>2013-06-15T13:49:05Z</time>
      </trkpt>
      <trkpt lat="48.51436" lon="2.12321">
        <ele>94.031227</ele>
        <time>2013-06-15T13:49:10Z</time>
      </trkpt>
      <trkpt lat="48.51436" lon="2.12321">
        <ele>94.031227</ele>
        <time>2013-06-15T13:49:15Z</time>
      </trkpt>
      <trkpt lat="48.51436" lon="2.12321">
        <ele>94.031227</ele>
        <time>2013-06-15T13:49:20Z</time>
      </trkpt>
      <trkpt lat="48.51437" lon="2.12321">
        <ele>94.780349</ele>
        <time>2013-06-15T13:49:25Z</time>
      </trkpt>
      <trkpt lat="48.51436" lon="2.12321">
        <ele>94.031227</ele>
        <time>2013-06-15T13:49:30Z</time>
      </trkpt>
      <trkpt lat="48.51435" lon="2.12318">
        <ele>94.644121</ele>
        <time>2013-06-15T13:49:35Z</time>
      </trkpt>
      <trkpt lat="48.51434" lon="2.12314">
        <ele>94.483353</ele>
        <time>2013-06-15T13:49:40Z</time>
      </trkpt>
      <trkpt lat="48.51432" lon="2.12308">
        <ele>94.960023</ele>
        <time>2013-06-15T13:49:45Z</time>
      </trkpt>
      <trkpt lat="48.5143" lon="2.12303">
        <ele>94.687576</ele>
        <time>2013-06-15T13:49:50Z</time>
      </trkpt>
      <trkpt lat="48.51428" lon="2.12297">
        <ele>93.753153</ele>
        <time>2013-06-15T13:49:55Z</time>
      </trkpt>
      <trkpt lat="48.51425" lon="2.12293">
        <ele>92.756131</ele>
        <time>2013-06-15T13:50:00Z</time>
      </trkpt>
      <trkpt lat="48.51422" lon="2.12285">
        <ele>91.685498</ele>
        <time>2013-06-15T13:50:05Z</time>
      </trkpt>
      <trkpt lat="48.51419" lon="2.12278">
        <ele>90.639409</ele>
        <time>2013-06-15T13:50:10Z</time>
      </trkpt>
      <trkpt lat="48.51417" lon="2.12271">
        <ele>90.342446</ele>
        <time>2013-06-15T13:50:15Z</time>
      </trkpt>
      <trkpt lat="48.51412" lon="2.12264">
        <ele>90.62033</ele>
        <time>2013-06-15T13:50:20Z</time>
      </trkpt>
      <trkpt lat="48.51408" lon="2.12257">
        <ele>90.898222</ele>
        <time>2013-06-15T13:50:25Z</time>
      </trkpt>
      <trkpt lat="48.51404" lon="2.12252">
        <ele>91.949774</ele>
        <time>2013-06-15T13:50:30Z</time>
      </trkpt>
      <trkpt lat="48.514" lon="2.12243">
        <ele>92.203146</ele>
        <time>2013-06-15T13:50:35Z</time>
      </trkpt>
      <trkpt lat="48.51396" lon="2.12235">
        <ele>91.045428</ele>
        <time>2013-06-15T13:50:40Z</time>
      </trkpt>
      <trkpt lat="48.51391" lon="2.12227">
        <ele>91.29882</ele>
        <time>2013-06-15T13:50:45Z</time>
      </trkpt>
      <trkpt lat="48.51387" lon="2.12218">
        <ele>91.552222</ele>
        <time>2013-06-15T13:50:50Z</time>
      </trkpt>
      <trkpt lat="48.51382" lon="2.12211">
        <ele>91.081047</ele>
        <time>2013-06-15T13:50:55Z</time>
      </trkpt>
      <trkpt lat="48.51378" lon="2.12206">
        <ele>91.383525</ele>
        <time>2013-06-15T13:51:00Z</time>
      </trkpt>
      <trkpt lat="48.51375" lon="2.12199">
        <ele>91.748609</ele>
        <time>2013-06-15T13:51:05Z</time>
      </trkpt>
      <trkpt lat="48.51372" lon="2.12191">
        <ele>91.427185</ele>
        <time>2013-06-15T13:51:10Z</time>
      </trkpt>
      <trkpt lat="48.5137" lon="2.12185">
        <ele>92.565923</ele>
        <time>2013-06-15T13:51:15Z</time>
      </trkpt>
      <trkpt lat="48.51367" lon="2.12177">
        <ele>93.655612</ele>
        <time>2013-06-15T13:51:20Z</time>
      </trkpt>
      <trkpt lat="48.51364" lon="2.1217">
        <ele>92.609618</ele>
        <time>2013-06-15T13:51:25Z</time>
      </trkpt>
      <trkpt lat="48.51363" lon="2.12166">
        <ele>92.448918</ele>
        <time>2013-06-15T13:51:30Z</time>
      </trkpt>
      <trkpt lat="48.51363" lon="2.12165">
        <ele>92.424394</ele>
        <time>2013-06-15T13:51:35Z</time>
      </trkpt>
      <trkpt lat="48.51363" lon="2.12166">
        <ele>92.448918</ele>
        <time>2013-06-15T13:51:40Z</time>
      </trkpt>
      <trkpt lat="48.51362" lon="2.12166">
        <ele>92.361793</ele>
        <time>2013-06-15T13:51:45Z</time>
      </trkpt>
      <trkpt lat="48.51362" lon="2.12164">
        <ele>93.748369</ele>
        <time>2013-06-15T13:51:50Z</time>
      </trkpt>
      <trkpt lat="48.51362" lon="2.12163">
        <ele>93.723845</ele>
        <time>2013-06-15T13:51:55Z</time>
      </trkpt>
      <trkpt lat="48.51361" lon="2.12162">
        <ele>94.361309</ele>
        <time>2013-06-15T13:52:00Z</time>
      </trkpt>
      <trkpt lat="48.51361" lon="2.12162">
        <ele>94.361309</ele>
        <time>2013-06-15T13:52:05Z</time>
      </trkpt>
      <trkpt lat="48.51361" lon="2.12162">
        <ele>94.361309</ele>
        <time>2013-06-15T13:52:10Z</time>
      </trkpt>
      <trkpt lat="48.51361" lon="2.12162">
        <ele>94.361309</ele>
        <time>2013-06-15T13:52:15Z</time>
      </trkpt>
      <trkpt lat="48.51361" lon="2.12162">
        <ele>94.361309</ele>
        <time>2013-06-15T13:52:20Z</time>
      </trkpt>
      <trkpt lat="48.51361" lon="2.12162">
        <ele>94.361309</ele>
        <time>2013-06-15T13:52:25Z</time>
      </trkpt>
      <trkpt lat="48.51361" lon="2.12162">
        <ele>94.361309</ele>
        <time>2013-06-15T13:52:30Z</time>
      </trkpt>
      <trkpt lat="48.51361" lon="2.12162">
        <ele>94.361309</ele>
        <time>2013-06-15T13:52:35Z</time>
      </trkpt>
      <trkpt lat="48.51361" lon="2.12162">
        <ele>94.361309</ele>
        <time>2013-06-15T13:52:40Z</time>
      </trkpt>
      <trkpt lat="48.51362" lon="2.12162">
        <ele>93.699321</ele>
        <time>2013-06-15T13:52:45Z</time>
      </trkpt>
      <trkpt lat="48.51362" lon="2.12162">
        <ele>93.699321</ele>
        <time>2013-06-15T13:52:50Z</time>
      </trkpt>
      <trkpt lat="48.51361" lon="2.12162">
        <ele>94.361309</ele>
        <time>2013-06-15T13:52:55Z</time>
      </trkpt>
      <trkpt lat="48.51362" lon="2.12162">
        <ele>93.699321</ele>
        <time>2013-06-15T13:53:00Z</time>
      </trkpt>
      <trkpt lat="48.51362" lon="2.12162">
        <ele>93.699321</ele>
        <time>2013-06-15T13:53:05Z</time>
      </trkpt>
      <trkpt lat="48.51362" lon="2.12162">
        <ele>93.699321</ele>
        <time>2013-06-15T13:53:10Z</time>
      </trkpt>
      <trkpt lat="48.51362" lon="2.12162">
        <ele>93.699321</ele>
        <time>2013-06-15T13:53:15Z</time>
      </trkpt>
      <trkpt lat="48.51364" lon="2.12161">
        <ele>93.099935</ele>
        <time>2013-06-15T13:53:20Z</time>
      </trkpt>
      <trkpt lat="48.51364" lon="2.12159">
        <ele>92.413423</ele>
        <time>2013-06-15T13:53:25Z</time>
      </trkpt>
      <trkpt lat="48.51366" lon="2.12155">
        <ele>92.426978</ele>
        <time>2013-06-15T13:53:30Z</time>
      </trkpt>
      <trkpt lat="48.51364" lon="2.12148">
        <ele>91.468124</ele>
        <time>2013-06-15T13:53:35Z</time>
      </trkpt>
      <trkpt lat="48.51362" lon="2.1214">
        <ele>91.146741</ele>
        <time>2013-06-15T13:53:40Z</time>
      </trkpt>
      <trkpt lat="48.5136" lon="2.12132">
        <ele>91.574477</ele>
        <time>2013-06-15T13:53:45Z</time>
      </trkpt>
      <trkpt lat="48.51359" lon="2.12125">
        <ele>91.364752</ele>
        <time>2013-06-15T13:53:50Z</time>
      </trkpt>
      <trkpt lat="48.51356" lon="2.12118">
        <ele>91.067906</ele>
        <time>2013-06-15T13:53:55Z</time>
      </trkpt>
      <trkpt lat="48.51354" lon="2.1211">
        <ele>90.746548</ele>
        <time>2013-06-15T13:54:00Z</time>
      </trkpt>
      <trkpt lat="48.51351" lon="2.12105">
        <ele>90.474231</ele>
        <time>2013-06-15T13:54:05Z</time>
      </trkpt>
      <trkpt lat="48.5135" lon="2.12096">
        <ele>90.240006</ele>
        <time>2013-06-15T13:54:10Z</time>
      </trkpt>
      <trkpt lat="48.5135" lon="2.12096">
        <ele>90.240006</ele>
        <time>2013-06-15T13:54:15Z</time>
      </trkpt>
      <trkpt lat="48.5135" lon="2.12096">
        <ele>90.240006</ele>
        <time>2013-06-15T13:54:20Z</time>
      </trkpt>
      <trkpt lat="48.5135" lon="2.12096">
        <ele>90.240006</ele>
        <time>2013-06-15T13:54:25Z</time>
      </trkpt>
      <trkpt lat="48.51349" lon="2.12095">
        <ele>90.128367</ele>
        <time>2013-06-15T13:54:30Z</time>
      </trkpt>
      <trkpt lat="48.51349" lon="2.12095">
        <ele>90.128367</ele>
        <time>2013-06-15T13:54:35Z</time>
      </trkpt>
      <trkpt lat="48.51349" lon="2.12095">
        <ele>90.128367</ele>
        <time>2013-06-15T13:54:40Z</time>
      </trkpt>
      <trkpt lat="48.51349" lon="2.12095">
        <ele>90.128367</ele>
        <time>2013-06-15T13:54:45Z</time>
      </trkpt>
      <trkpt lat="48.51349" lon="2.12095">
        <ele>90.128367</ele>
        <time>2013-06-15T13:54:50Z</time>
      </trkpt>
      <trkpt lat="48.51349" lon="2.12095">
        <ele>90.128367</ele>
        <time>2013-06-15T13:54:55Z</time>
      </trkpt>
      <trkpt lat="48.51349" lon="2.12095">
        <ele>90.128367</ele>
        <time>2013-06-15T13:55:00Z</time>
      </trkpt>
      <trkpt lat="48.51349" lon="2.12095">
        <ele>90.128367</ele>
        <time>2013-06-15T13:55:05Z</time>
      </trkpt>
      <trkpt lat="48.51349" lon="2.12095">
        <ele>90.128367</ele>
        <time>2013-06-15T13:55:10Z</time>
      </trkpt>
      <trkpt lat="48.51349" lon="2.12095">
        <ele>90.128367</ele>
        <time>2013-06-15T13:55:15Z</time>
      </trkpt>
      <trkpt lat="48.51349" lon="2.12095">
        <ele>90.128367</ele>
        <time>2013-06-15T13:55:20Z</time>
      </trkpt>
      <trkpt lat="48.51349" lon="2.12095">
        <ele>90.128367</ele>
        <time>2013-06-15T13:55:25Z</time>
      </trkpt>
      <trkpt lat="48.51349" lon="2.12095">
        <ele>90.128367</ele>
        <time>2013-06-15T13:55:30Z</time>
      </trkpt>
      <trkpt lat="48.51349" lon="2.12095">
        <ele>90.128367</ele>
        <time>2013-06-15T13:55:35Z</time>
      </trkpt>
      <trkpt lat="48.51349" lon="2.12095">
        <ele>90.128367</ele>
        <time>2013-06-15T13:55:40Z</time>
      </trkpt>
      <trkpt lat="48.51349" lon="2.12095">
        <ele>90.128367</ele>
        <time>2013-06-15T13:55:45Z</time>
      </trkpt>
      <trkpt lat="48.51349" lon="2.12095">
        <ele>90.128367</ele>
        <time>2013-06-15T13:55:50Z</time>
      </trkpt>
      <trkpt lat="48.51349" lon="2.12095">
        <ele>90.128367</ele>
        <time>2013-06-15T13:55:55Z</time>
      </trkpt>
      <trkpt lat="48.51349" lon="2.12095">
        <ele>90.128367</ele>
        <time>2013-06-15T13:56:00Z</time>
      </trkpt>
      <trkpt lat="48.51348" lon="2.12095">
        <ele>90.790357</ele>
        <time>2013-06-15T13:56:05Z</time>
      </trkpt>
      <trkpt lat="48.51348" lon="2.12095">
        <ele>90.790357</ele>
        <time>2013-06-15T13:56:10Z</time>
      </trkpt>
      <trkpt lat="48.51348" lon="2.12095">
        <ele>90.790357</ele>
        <time>2013-06-15T13:56:15Z</time>
      </trkpt>
      <trkpt lat="48.51348" lon="2.12095">
        <ele>90.790357</ele>
        <time>2013-06-15T13:56:20Z</time>
      </trkpt>
      <trkpt lat="48.51348" lon="2.12095">
        <ele>90.790357</ele>
        <time>2013-06-15T13:56:25Z</time>
      </trkpt>
      <trkpt lat="48.51348" lon="2.12095">
        <ele>90.790357</ele>
        <time>2013-06-15T13:56:30Z</time>
      </trkpt>
      <trkpt lat="48.51348" lon="2.12095">
        <ele>90.790357</ele>
        <time>2013-06-15T13:56:35Z</time>
      </trkpt>
      <trkpt lat="48.51348" lon="2.12095">
        <ele>90.790357</ele>
        <time>2013-06-15T13:56:40Z</time>
      </trkpt>
      <trkpt lat="48.51348" lon="2.12095">
        <ele>90.790357</ele>
        <time>2013-06-15T13:56:45Z</time>
      </trkpt>
      <trkpt lat="48.51348" lon="2.12092">
        <ele>91.403315</ele>
        <time>2013-06-15T13:56:50Z</time>
      </trkpt>
      <trkpt lat="48.51347" lon="2.12089">
        <ele>91.267161</ele>
        <time>2013-06-15T13:56:55Z</time>
      </trkpt>
      <trkpt lat="48.51345" lon="2.12085">
        <ele>92.517595</ele>
        <time>2013-06-15T13:57:00Z</time>
      </trkpt>
      <trkpt lat="48.51343" lon="2.1208">
        <ele>92.994405</ele>
        <time>2013-06-15T13:57:05Z</time>
      </trkpt>
      <trkpt lat="48.51343" lon="2.12074">
        <ele>93.558338</ele>
        <time>2013-06-15T13:57:10Z</time>
      </trkpt>
      <trkpt lat="48.51342" lon="2.12066">
        <ele>93.324136</ele>
        <time>2013-06-15T13:57:15Z</time>
      </trkpt>
      <trkpt lat="48.5134" lon="2.12058">
        <ele>93.751932</ele>
        <time>2013-06-15T13:57:20Z</time>
      </trkpt>
      <trkpt lat="48.51338" lon="2.12051">
        <ele>94.204245</ele>
        <time>2013-06-15T13:57:25Z</time>
      </trkpt>
      <trkpt lat="48.51336" lon="2.12048">
        <ele>93.980985</ele>
        <time>2013-06-15T13:57:30Z</time>
      </trkpt>
      <trkpt lat="48.51334" lon="2.12044">
        <ele>93.820334</ele>
        <time>2013-06-15T13:57:35Z</time>
      </trkpt>
      <trkpt lat="48.51334" lon="2.12037">
        <ele>94.359775</ele>
        <time>2013-06-15T13:57:40Z</time>
      </trkpt>
      <trkpt lat="48.51333" lon="2.12031">
        <ele>94.89922</ele>
        <time>2013-06-15T13:57:45Z</time>
      </trkpt>
      <trkpt lat="48.51332" lon="2.12026">
        <ele>94.738576</ele>
        <time>2013-06-15T13:57:50Z</time>
      </trkpt>
      <trkpt lat="48.51332" lon="2.12026">
        <ele>94.738576</ele>
        <time>2013-06-15T13:57:55Z</time>
      </trkpt>
      <trkpt lat="48.51332" lon="2.12026">
        <ele>94.738576</ele>
        <time>2013-06-15T13:58:00Z</time>
      </trkpt>
      <trkpt lat="48.51332" lon="2.12026">
        <ele>94.738576</ele>
        <time>2013-06-15T13:58:05Z</time>
      </trkpt>
      <trkpt lat="48.51332" lon="2.12026">
        <ele>94.738576</ele>
        <time>2013-06-15T13:58:10Z</time>
      </trkpt>
      <trkpt lat="48.51332" lon="2.1202">
        <ele>94.616035</ele>
        <time>2013-06-15T13:58:15Z</time>
      </trkpt>
      <trkpt lat="48.51332" lon="2.1201">
        <ele>95.106476</ele>
        <time>2013-06-15T13:58:20Z</time>
      </trkpt>
      <trkpt lat="48.51331" lon="2.11999">
        <ele>94.82331</ele>
        <time>2013-06-15T13:58:25Z</time>
      </trkpt>
      <trkpt lat="48.5133" lon="2.11991">
        <ele>96.000266</ele>
        <time>2013-06-15T13:58:30Z</time>
      </trkpt>
      <trkpt lat="48.51326" lon="2.11983">
        <ele>96.341002</ele>
        <time>2013-06-15T13:58:35Z</time>
      </trkpt>
      <trkpt lat="48.51323" lon="2.11973">
        <ele>96.657244</ele>
        <time>2013-06-15T13:58:40Z</time>
      </trkpt>
      <trkpt lat="48.51322" lon="2.11965">
        <ele>97.085111</ele>
        <time>2013-06-15T13:58:45Z</time>
      </trkpt>
      <trkpt lat="48.5132" lon="2.11957">
        <ele>97.512984</ele>
        <time>2013-06-15T13:58:50Z</time>
      </trkpt>
      <trkpt lat="48.51318" lon="2.11947">
        <ele>97.916364</ele>
        <time>2013-06-15T13:58:55Z</time>
      </trkpt>
      <trkpt lat="48.51316" lon="2.11939">
        <ele>98.344251</ele>
        <time>2013-06-15T13:59:00Z</time>
      </trkpt>
      <trkpt lat="48.51314" lon="2.11929">
        <ele>99.409642</ele>
        <time>2013-06-15T13:59:05Z</time>
      </trkpt>
      <trkpt lat="48.51311" lon="2.1192">
        <ele>100.475043</ele>
        <time>2013-06-15T13:59:10Z</time>
      </trkpt>
      <trkpt lat="48.51309" lon="2.11912">
        <ele>100.153844</ele>
        <time>2013-06-15T13:59:15Z</time>
      </trkpt>
      <trkpt lat="48.51307" lon="2.11903">
        <ele>100.581759</ele>
        <time>2013-06-15T13:59:20Z</time>
      </trkpt>
      <trkpt lat="48.51305" lon="2.11895">
        <ele>101.671677</ele>
        <time>2013-06-15T13:59:25Z</time>
      </trkpt>
      <trkpt lat="48.51304" lon="2.1189">
        <ele>102.235701</ele>
        <time>2013-06-15T13:59:30Z</time>
      </trkpt>
      <trkpt lat="48.51303" lon="2.11881">
        <ele>102.001637</ele>
        <time>2013-06-15T13:59:35Z</time>
      </trkpt>
      <trkpt lat="48.51303" lon="2.11872">
        <ele>102.492193</ele>
        <time>2013-06-15T13:59:40Z</time>
      </trkpt>
      <trkpt lat="48.51302" lon="2.11862">
        <ele>102.982758</ele>
        <time>2013-06-15T13:59:45Z</time>
      </trkpt>
      <trkpt lat="48.51302" lon="2.11853">
        <ele>103.47333</ele>
        <time>2013-06-15T13:59:50Z</time>
      </trkpt>
      <trkpt lat="48.51301" lon="2.11842">
        <ele>103.939423</ele>
        <time>2013-06-15T13:59:55Z</time>
      </trkpt>
      <trkpt lat="48.51301" lon="2.11831">
        <ele>103.743528</ele>
        <time>2013-06-15T14:00:00Z</time>
      </trkpt>
      <trkpt lat="48.51302" lon="2.1182">
        <ele>104.29675</ele>
        <time>2013-06-15T14:00:05Z</time>
      </trkpt>
      <trkpt lat="48.51304" lon="2.11811">
        <ele>104.212469</ele>
        <time>2013-06-15T14:00:10Z</time>
      </trkpt>
      <trkpt lat="48.51305" lon="2.11801">
        <ele>105.539299</ele>
        <time>2013-06-15T14:00:15Z</time>
      </trkpt>
      <trkpt lat="48.51308" lon="2.11795">
        <ele>106.340214</ele>
        <time>2013-06-15T14:00:20Z</time>
      </trkpt>
      <trkpt lat="48.5131" lon="2.11795">
        <ele>107.176432</ele>
        <time>2013-06-15T14:00:25Z</time>
      </trkpt>
      <trkpt lat="48.51311" lon="2.11794">
        <ele>106.489954</ele>
        <time>2013-06-15T14:00:30Z</time>
      </trkpt>
      <trkpt lat="48.51314" lon="2.11796">
        <ele>107.462248</ele>
        <time>2013-06-15T14:00:35Z</time>
      </trkpt>
      <trkpt lat="48.51317" lon="2.11802">
        <ele>107.821515</ele>
        <time>2013-06-15T14:00:40Z</time>
      </trkpt>
      <trkpt lat="48.51321" lon="2.11809">
        <ele>108.20527</ele>
        <time>2013-06-15T14:00:45Z</time>
      </trkpt>
      <trkpt lat="48.51325" lon="2.11817">
        <ele>107.202413</ele>
        <time>2013-06-15T14:00:50Z</time>
      </trkpt>
      <trkpt lat="48.51327" lon="2.11825">
        <ele>108.185547</ele>
        <time>2013-06-15T14:00:55Z</time>
      </trkpt>
      <trkpt lat="48.51329" lon="2.11832">
        <ele>108.482207</ele>
        <time>2013-06-15T14:01:00Z</time>
      </trkpt>
      <trkpt lat="48.51332" lon="2.11842">
        <ele>108.165853</ele>
        <time>2013-06-15T14:01:06Z</time>
      </trkpt>
      <trkpt lat="48.51334" lon="2.11849">
        <ele>108.462525</ele>
        <time>2013-06-15T14:01:11Z</time>
      </trkpt>
      <trkpt lat="48.51337" lon="2.11856">
        <ele>108.759202</ele>
        <time>2013-06-15T14:01:16Z</time>
      </trkpt>
      <trkpt lat="48.51339" lon="2.11864">
        <ele>108.331264</ele>
        <time>2013-06-15T14:01:21Z</time>
      </trkpt>
      <trkpt lat="48.51342" lon="2.11871">
        <ele>109.377062</ele>
        <time>2013-06-15T14:01:26Z</time>
      </trkpt>
      <trkpt lat="48.51344" lon="2.11876">
        <ele>109.649265</ele>
        <time>2013-06-15T14:01:31Z</time>
      </trkpt>
      <trkpt lat="48.51346" lon="2.11883">
        <ele>111.357065</ele>
        <time>2013-06-15T14:01:36Z</time>
      </trkpt>
      <trkpt lat="48.5135" lon="2.1189">
        <ele>113.151992</ele>
        <time>2013-06-15T14:01:41Z</time>
      </trkpt>
      <trkpt lat="48.51354" lon="2.11897">
        <ele>113.535822</ele>
        <time>2013-06-15T14:01:46Z</time>
      </trkpt>
      <trkpt lat="48.51358" lon="2.11902">
        <ele>114.644278</ele>
        <time>2013-06-15T14:01:51Z</time>
      </trkpt>
      <trkpt lat="48.51362" lon="2.11908">
        <ele>115.75274</ele>
        <time>2013-06-15T14:01:56Z</time>
      </trkpt>
      <trkpt lat="48.51366" lon="2.11913">
        <ele>117.523197</ele>
        <time>2013-06-15T14:02:01Z</time>
      </trkpt>
      <trkpt lat="48.51371" lon="2.11918">
        <ele>117.945187</ele>
        <time>2013-06-15T14:02:06Z</time>
      </trkpt>
      <trkpt lat="48.51375" lon="2.1192">
        <ele>119.004675</ele>
        <time>2013-06-15T14:02:11Z</time>
      </trkpt>
      <trkpt lat="48.51381" lon="2.11922">
        <ele>120.126799</ele>
        <time>2013-06-15T14:02:16Z</time>
      </trkpt>
      <trkpt lat="48.51387" lon="2.11925">
        <ele>119.862325</ele>
        <time>2013-06-15T14:02:21Z</time>
      </trkpt>
      <trkpt lat="48.51391" lon="2.11926">
        <ele>120.89733</ele>
        <time>2013-06-15T14:02:26Z</time>
      </trkpt>
      <trkpt lat="48.51396" lon="2.11928">
        <ele>121.270356</ele>
        <time>2013-06-15T14:02:31Z</time>
      </trkpt>
      <trkpt lat="48.514" lon="2.11929">
        <ele>122.967354</ele>
        <time>2013-06-15T14:02:36Z</time>
      </trkpt>
      <trkpt lat="48.51405" lon="2.11931">
        <ele>124.089506</ele>
        <time>2013-06-15T14:02:41Z</time>
      </trkpt>
      <trkpt lat="48.51411" lon="2.1193">
        <ele>124.413551</ele>
        <time>2013-06-15T14:02:46Z</time>
      </trkpt>
      <trkpt lat="48.51414" lon="2.11929">
        <ele>124.650465</ele>
        <time>2013-06-15T14:02:51Z</time>
      </trkpt>
      <trkpt lat="48.51418" lon="2.11927">
        <ele>126.298482</ele>
        <time>2013-06-15T14:02:56Z</time>
      </trkpt>
      <trkpt lat="48.51423" lon="2.11926">
        <ele>125.87342</ele>
        <time>2013-06-15T14:03:01Z</time>
      </trkpt>
      <trkpt lat="48.51428" lon="2.11924">
        <ele>124.761886</ele>
        <time>2013-06-15T14:03:06Z</time>
      </trkpt>
      <trkpt lat="48.51432" lon="2.1192">
        <ele>124.287841</ele>
        <time>2013-06-15T14:03:11Z</time>
      </trkpt>
      <trkpt lat="48.51437" lon="2.11915">
        <ele>123.789306</ele>
        <time>2013-06-15T14:03:16Z</time>
      </trkpt>
      <trkpt lat="48.51442" lon="2.1191">
        <ele>122.628799</ele>
        <time>2013-06-15T14:03:21Z</time>
      </trkpt>
      <trkpt lat="48.51444" lon="2.11907">
        <ele>120.593875</ele>
        <time>2013-06-15T14:03:26Z</time>
      </trkpt>
      <trkpt lat="48.51444" lon="2.11907">
        <ele>120.593875</ele>
        <time>2013-06-15T14:03:31Z</time>
      </trkpt>
      <trkpt lat="48.51448" lon="2.11903">
        <ele>120.032705</ele>
        <time>2013-06-15T14:03:36Z</time>
      </trkpt>
      <trkpt lat="48.51451" lon="2.11898">
        <ele>120.858145</ele>
        <time>2013-06-15T14:03:41Z</time>
      </trkpt>
      <trkpt lat="48.51455" lon="2.11891">
        <ele>120.997121</ele>
        <time>2013-06-15T14:03:46Z</time>
      </trkpt>
      <trkpt lat="48.51459" lon="2.11883">
        <ele>122.522713</ele>
        <time>2013-06-15T14:03:51Z</time>
      </trkpt>
      <trkpt lat="48.51462" lon="2.11875">
        <ele>123.299188</ele>
        <time>2013-06-15T14:03:56Z</time>
      </trkpt>
      <trkpt lat="48.51466" lon="2.11866">
        <ele>123.389206</ele>
        <time>2013-06-15T14:04:01Z</time>
      </trkpt>
      <trkpt lat="48.51468" lon="2.11858">
        <ele>124.078548</ele>
        <time>2013-06-15T14:04:06Z</time>
      </trkpt>
      <trkpt lat="48.51471" lon="2.11851">
        <ele>124.130408</ele>
        <time>2013-06-15T14:04:11Z</time>
      </trkpt>
      <trkpt lat="48.51474" lon="2.11846">
        <ele>126.366988</ele>
        <time>2013-06-15T14:04:16Z</time>
      </trkpt>
      <trkpt lat="48.51476" lon="2.1184">
        <ele>127.854445</ele>
        <time>2013-06-15T14:04:21Z</time>
      </trkpt>
      <trkpt lat="48.5148" lon="2.11835">
        <ele>128.679932</ele>
        <time>2013-06-15T14:04:26Z</time>
      </trkpt>
      <trkpt lat="48.51482" lon="2.1183">
        <ele>130.167398</ele>
        <time>2013-06-15T14:04:31Z</time>
      </trkpt>
      <trkpt lat="48.51486" lon="2.11826">
        <ele>131.766505</ele>
        <time>2013-06-15T14:04:36Z</time>
      </trkpt>
      <trkpt lat="48.5149" lon="2.1182">
        <ele>131.930033</ele>
        <time>2013-06-15T14:04:41Z</time>
      </trkpt>
      <trkpt lat="48.51493" lon="2.11814">
        <ele>131.319953</ele>
        <time>2013-06-15T14:04:46Z</time>
      </trkpt>
      <trkpt lat="48.51497" lon="2.1181">
        <ele>131.507974</ele>
        <time>2013-06-15T14:04:51Z</time>
      </trkpt>
      <trkpt lat="48.515" lon="2.11806">
        <ele>133.019942</ele>
        <time>2013-06-15T14:04:56Z</time>
      </trkpt>
      <trkpt lat="48.51503" lon="2.11801">
        <ele>132.434358</ele>
        <time>2013-06-15T14:05:01Z</time>
      </trkpt>
      <trkpt lat="48.51507" lon="2.11797">
        <ele>132.622391</ele>
        <time>2013-06-15T14:05:06Z</time>
      </trkpt>
      <trkpt lat="48.51511" lon="2.1179">
        <ele>132.761466</ele>
        <time>2013-06-15T14:05:11Z</time>
      </trkpt>
      <trkpt lat="48.51514" lon="2.11786">
        <ele>134.360608</ele>
        <time>2013-06-15T14:05:16Z</time>
      </trkpt>
      <trkpt lat="48.51518" lon="2.11782">
        <ele>135.210624</ele>
        <time>2013-06-15T14:05:21Z</time>
      </trkpt>
      <trkpt lat="48.51522" lon="2.11777">
        <ele>136.785295</ele>
        <time>2013-06-15T14:05:26Z</time>
      </trkpt>
      <trkpt lat="48.51525" lon="2.11773">
        <ele>137.635317</ele>
        <time>2013-06-15T14:05:31Z</time>
      </trkpt>
      <trkpt lat="48.51529" lon="2.11769">
        <ele>138.572508</ele>
        <time>2013-06-15T14:05:36Z</time>
      </trkpt>
      <trkpt lat="48.51533" lon="2.11764">
        <ele>138.736093</ele>
        <time>2013-06-15T14:05:41Z</time>
      </trkpt>
      <trkpt lat="48.51539" lon="2.11757">
        <ele>134.729074</ele>
        <time>2013-06-15T14:05:46Z</time>
      </trkpt>
      <trkpt lat="48.51543" lon="2.11752">
        <ele>134.230706</ele>
        <time>2013-06-15T14:05:51Z</time>
      </trkpt>
      <trkpt lat="48.51548" lon="2.11748">
        <ele>134.505954</ele>
        <time>2013-06-15T14:05:56Z</time>
      </trkpt>
      <trkpt lat="48.51553" lon="2.11744">
        <ele>135.443173</ele>
        <time>2013-06-15T14:06:01Z</time>
      </trkpt>
      <trkpt lat="48.51558" lon="2.11741">
        <ele>135.718434</ele>
        <time>2013-06-15T14:06:06Z</time>
      </trkpt>
      <trkpt lat="48.51563" lon="2.11739">
        <ele>134.631549</ele>
        <time>2013-06-15T14:06:11Z</time>
      </trkpt>
      <trkpt lat="48.5157" lon="2.11738">
        <ele>133.631844</ele>
        <time>2013-06-15T14:06:16Z</time>
      </trkpt>
      <trkpt lat="48.51575" lon="2.1174">
        <ele>134.005019</ele>
        <time>2013-06-15T14:06:21Z</time>
      </trkpt>
      <trkpt lat="48.5158" lon="2.11742">
        <ele>134.378199</ele>
        <time>2013-06-15T14:06:26Z</time>
      </trkpt>
      <trkpt lat="48.51585" lon="2.11743">
        <ele>134.751385</ele>
        <time>2013-06-15T14:06:31Z</time>
      </trkpt>
      <trkpt lat="48.5159" lon="2.11746">
        <ele>135.14905</ele>
        <time>2013-06-15T14:06:36Z</time>
      </trkpt>
      <trkpt lat="48.51593" lon="2.1175">
        <ele>135.484016</ele>
        <time>2013-06-15T14:06:41Z</time>
      </trkpt>
      <trkpt lat="48.51598" lon="2.11753">
        <ele>135.881692</ele>
        <time>2013-06-15T14:06:46Z</time>
      </trkpt>
      <trkpt lat="48.51604" lon="2.11755">
        <ele>136.254898</ele>
        <time>2013-06-15T14:06:51Z</time>
      </trkpt>
      <trkpt lat="48.51609" lon="2.11756">
        <ele>136.628108</ele>
        <time>2013-06-15T14:06:56Z</time>
      </trkpt>
      <trkpt lat="48.51614" lon="2.11758">
        <ele>137.001324</ele>
        <time>2013-06-15T14:07:01Z</time>
      </trkpt>
      <trkpt lat="48.51619" lon="2.11757">
        <ele>137.325593</ele>
        <time>2013-06-15T14:07:06Z</time>
      </trkpt>
      <trkpt lat="48.51623" lon="2.11754">
        <ele>138.287346</ele>
        <time>2013-06-15T14:07:11Z</time>
      </trkpt>
      <trkpt lat="48.51628" lon="2.11752">
        <ele>138.587149</ele>
        <time>2013-06-15T14:07:16Z</time>
      </trkpt>
      <trkpt lat="48.51633" lon="2.11748">
        <ele>139.524437</ele>
        <time>2013-06-15T14:07:21Z</time>
      </trkpt>
      <trkpt lat="48.51637" lon="2.11742">
        <ele>141.099209</ele>
        <time>2013-06-15T14:07:26Z</time>
      </trkpt>
      <trkpt lat="48.51641" lon="2.11738">
        <ele>142.036507</ele>
        <time>2013-06-15T14:07:31Z</time>
      </trkpt>
      <trkpt lat="48.51644" lon="2.11733">
        <ele>142.862144</ele>
        <time>2013-06-15T14:07:36Z</time>
      </trkpt>
      <trkpt lat="48.51648" lon="2.11729">
        <ele>143.050306</ele>
        <time>2013-06-15T14:07:41Z</time>
      </trkpt>
      <trkpt lat="48.51652" lon="2.11725">
        <ele>143.238471</ele>
        <time>2013-06-15T14:07:46Z</time>
      </trkpt>
      <trkpt lat="48.51655" lon="2.11721">
        <ele>142.677494</ele>
        <time>2013-06-15T14:07:51Z</time>
      </trkpt>
      <trkpt lat="48.51659" lon="2.11717">
        <ele>142.865668</ele>
        <time>2013-06-15T14:07:56Z</time>
      </trkpt>
      <trkpt lat="48.51663" lon="2.11712">
        <ele>143.029375</ele>
        <time>2013-06-15T14:08:01Z</time>
      </trkpt>
      <trkpt lat="48.51668" lon="2.11707">
        <ele>142.531138</ele>
        <time>2013-06-15T14:08:06Z</time>
      </trkpt>
      <trkpt lat="48.51671" lon="2.11703">
        <ele>141.970177</ele>
        <time>2013-06-15T14:08:11Z</time>
      </trkpt>
      <trkpt lat="48.51675" lon="2.11699">
        <ele>142.158368</ele>
        <time>2013-06-15T14:08:16Z</time>
      </trkpt>
      <trkpt lat="48.51679" lon="2.11695">
        <ele>143.095714</ele>
        <time>2013-06-15T14:08:21Z</time>
      </trkpt>
      <trkpt lat="48.51683" lon="2.11691">
        <ele>143.283915</ele>
        <time>2013-06-15T14:08:26Z</time>
      </trkpt>
      <trkpt lat="48.51688" lon="2.11686">
        <ele>144.196803</ele>
        <time>2013-06-15T14:08:31Z</time>
      </trkpt>
      <trkpt lat="48.51692" lon="2.11682">
        <ele>143.723066</ele>
        <time>2013-06-15T14:08:36Z</time>
      </trkpt>
      <trkpt lat="48.51697" lon="2.11678">
        <ele>144.660432</ele>
        <time>2013-06-15T14:08:41Z</time>
      </trkpt>
      <trkpt lat="48.51702" lon="2.11674">
        <ele>144.935858</ele>
        <time>2013-06-15T14:08:46Z</time>
      </trkpt>
      <trkpt lat="48.51707" lon="2.11671">
        <ele>145.211291</ele>
        <time>2013-06-15T14:08:51Z</time>
      </trkpt>
      <trkpt lat="48.51712" lon="2.11668">
        <ele>145.511195</ele>
        <time>2013-06-15T14:08:56Z</time>
      </trkpt>
      <trkpt lat="48.51717" lon="2.11664">
        <ele>145.78664</ele>
        <time>2013-06-15T14:09:01Z</time>
      </trkpt>
      <trkpt lat="48.51723" lon="2.1166">
        <ele>146.062091</ele>
        <time>2013-06-15T14:09:06Z</time>
      </trkpt>
      <trkpt lat="48.51727" lon="2.11658">
        <ele>147.023955</ele>
        <time>2013-06-15T14:09:11Z</time>
      </trkpt>
      <trkpt lat="48.51733" lon="2.11654">
        <ele>146.637477</ele>
        <time>2013-06-15T14:09:16Z</time>
      </trkpt>
      <trkpt lat="48.51738" lon="2.11652">
        <ele>146.93741</ele>
        <time>2013-06-15T14:09:21Z</time>
      </trkpt>
      <trkpt lat="48.51743" lon="2.11648">
        <ele>147.212886</ele>
        <time>2013-06-15T14:09:26Z</time>
      </trkpt>
      <trkpt lat="48.51748" lon="2.11644">
        <ele>147.488369</ele>
        <time>2013-06-15T14:09:31Z</time>
      </trkpt>
      <trkpt lat="48.51754" lon="2.11641">
        <ele>147.126381</ele>
        <time>2013-06-15T14:09:36Z</time>
      </trkpt>
      <trkpt lat="48.5176" lon="2.11638">
        <ele>148.151035</ele>
        <time>2013-06-15T14:09:41Z</time>
      </trkpt>
      <trkpt lat="48.51766" lon="2.11634">
        <ele>147.7646</ele>
        <time>2013-06-15T14:09:46Z</time>
      </trkpt>
      <trkpt lat="48.51771" lon="2.11631">
        <ele>148.064571</ele>
        <time>2013-06-15T14:09:51Z</time>
      </trkpt>
      <trkpt lat="48.51776" lon="2.11627">
        <ele>148.340086</ele>
        <time>2013-06-15T14:09:56Z</time>
      </trkpt>
      <trkpt lat="48.51782" lon="2.11624">
        <ele>148.702835</ele>
        <time>2013-06-15T14:10:01Z</time>
      </trkpt>
      <trkpt lat="48.51787" lon="2.1162">
        <ele>148.978364</ele>
        <time>2013-06-15T14:10:06Z</time>
      </trkpt>
      <trkpt lat="48.51793" lon="2.11617">
        <ele>149.278359</ele>
        <time>2013-06-15T14:10:11Z</time>
      </trkpt>
      <trkpt lat="48.51798" lon="2.11613">
        <ele>149.553901</ele>
        <time>2013-06-15T14:10:16Z</time>
      </trkpt>
      <trkpt lat="48.51803" lon="2.11611">
        <ele>149.853908</ele>
        <time>2013-06-15T14:10:21Z</time>
      </trkpt>
      <trkpt lat="48.51809" lon="2.11606">
        <ele>149.443073</ele>
        <time>2013-06-15T14:10:26Z</time>
      </trkpt>
      <trkpt lat="48.51814" lon="2.11603">
        <ele>149.743092</ele>
        <time>2013-06-15T14:10:31Z</time>
      </trkpt>
      <trkpt lat="48.51819" lon="2.11599">
        <ele>150.01866</ele>
        <time>2013-06-15T14:10:36Z</time>
      </trkpt>
      <trkpt lat="48.51825" lon="2.11595">
        <ele>149.632304</ele>
        <time>2013-06-15T14:10:41Z</time>
      </trkpt>
      <trkpt lat="48.5183" lon="2.11592">
        <ele>149.907885</ele>
        <time>2013-06-15T14:10:46Z</time>
      </trkpt>
      <trkpt lat="48.51835" lon="2.11588">
        <ele>150.183473</ele>
        <time>2013-06-15T14:10:51Z</time>
      </trkpt>
      <trkpt lat="48.5184" lon="2.11585">
        <ele>150.483522</ele>
        <time>2013-06-15T14:10:56Z</time>
      </trkpt>
      <trkpt lat="48.51843" lon="2.11583">
        <ele>150.609094</ele>
        <time>2013-06-15T14:11:01Z</time>
      </trkpt>
      <trkpt lat="48.51843" lon="2.11581">
        <ele>149.922712</ele>
        <time>2013-06-15T14:11:06Z</time>
      </trkpt>
      <trkpt lat="48.51846" lon="2.1158">
        <ele>150.072741</ele>
        <time>2013-06-15T14:11:11Z</time>
      </trkpt>
      <trkpt lat="48.51851" lon="2.11576">
        <ele>151.010275</ele>
        <time>2013-06-15T14:11:16Z</time>
      </trkpt>
      <trkpt lat="48.51855" lon="2.11574">
        <ele>150.561172</ele>
        <time>2013-06-15T14:11:21Z</time>
      </trkpt>
      <trkpt lat="48.51861" lon="2.1157">
        <ele>150.174865</ele>
        <time>2013-06-15T14:11:26Z</time>
      </trkpt>
      <trkpt lat="48.51866" lon="2.11565">
        <ele>150.426039</ele>
        <time>2013-06-15T14:11:31Z</time>
      </trkpt>
      <trkpt lat="48.51871" lon="2.11561">
        <ele>150.701671</ele>
        <time>2013-06-15T14:11:36Z</time>
      </trkpt>
      <trkpt lat="48.51876" lon="2.11557">
        <ele>150.977311</ele>
        <time>2013-06-15T14:11:41Z</time>
      </trkpt>
      <trkpt lat="48.51881" lon="2.11553">
        <ele>151.252956</ele>
        <time>2013-06-15T14:11:46Z</time>
      </trkpt>
      <trkpt lat="48.51887" lon="2.11548">
        <ele>151.504157</ele>
        <time>2013-06-15T14:11:51Z</time>
      </trkpt>
      <trkpt lat="48.51891" lon="2.11544">
        <ele>151.030642</ele>
        <time>2013-06-15T14:11:56Z</time>
      </trkpt>
      <trkpt lat="48.51896" lon="2.1154">
        <ele>151.306307</ele>
        <time>2013-06-15T14:12:01Z</time>
      </trkpt>
      <trkpt lat="48.51902" lon="2.11535">
        <ele>151.557529</ele>
        <time>2013-06-15T14:12:06Z</time>
      </trkpt>
      <trkpt lat="48.51907" lon="2.11531">
        <ele>151.833207</ele>
        <time>2013-06-15T14:12:11Z</time>
      </trkpt>
      <trkpt lat="48.51911" lon="2.11527">
        <ele>151.359715</ele>
        <time>2013-06-15T14:12:16Z</time>
      </trkpt>
      <trkpt lat="48.51917" lon="2.11523">
        <ele>150.973487</ele>
        <time>2013-06-15T14:12:21Z</time>
      </trkpt>
      <trkpt lat="48.51922" lon="2.1152">
        <ele>151.249184</ele>
        <time>2013-06-15T14:12:26Z</time>
      </trkpt>
      <trkpt lat="48.51927" lon="2.11514">
        <ele>151.500441</ele>
        <time>2013-06-15T14:12:31Z</time>
      </trkpt>
      <trkpt lat="48.5193" lon="2.11512">
        <ele>151.626073</ele>
        <time>2013-06-15T14:12:36Z</time>
      </trkpt>
      <trkpt lat="48.51935" lon="2.11508">
        <ele>151.152607</ele>
        <time>2013-06-15T14:12:41Z</time>
      </trkpt>
      <trkpt lat="48.5194" lon="2.11504">
        <ele>151.428327</ele>
        <time>2013-06-15T14:12:46Z</time>
      </trkpt>
      <trkpt lat="48.51944" lon="2.11499">
        <ele>150.930428</ele>
        <time>2013-06-15T14:12:51Z</time>
      </trkpt>
      <trkpt lat="48.51949" lon="2.11495">
        <ele>151.206161</ele>
        <time>2013-06-15T14:12:56Z</time>
      </trkpt>
      <trkpt lat="48.51954" lon="2.11491">
        <ele>150.732718</ele>
        <time>2013-06-15T14:13:01Z</time>
      </trkpt>
      <trkpt lat="48.51958" lon="2.11486">
        <ele>151.645933</ele>
        <time>2013-06-15T14:13:06Z</time>
      </trkpt>
      <trkpt lat="48.51963" lon="2.11482">
        <ele>151.172501</ele>
        <time>2013-06-15T14:13:11Z</time>
      </trkpt>
      <trkpt lat="48.51969" lon="2.11478">
        <ele>150.786347</ele>
        <time>2013-06-15T14:13:16Z</time>
      </trkpt>
      <trkpt lat="48.51974" lon="2.11473">
        <ele>151.037669</ele>
        <time>2013-06-15T14:13:21Z</time>
      </trkpt>
      <trkpt lat="48.51978" lon="2.11466">
        <ele>151.177284</ele>
        <time>2013-06-15T14:13:26Z</time>
      </trkpt>
      <trkpt lat="48.51983" lon="2.11461">
        <ele>151.428621</ele>
        <time>2013-06-15T14:13:31Z</time>
      </trkpt>
      <trkpt lat="48.51988" lon="2.11457">
        <ele>150.955219</ele>
        <time>2013-06-15T14:13:36Z</time>
      </trkpt>
      <trkpt lat="48.51992" lon="2.11452">
        <ele>150.457384</ele>
        <time>2013-06-15T14:13:41Z</time>
      </trkpt>
      <trkpt lat="48.51997" lon="2.11446">
        <ele>150.684303</ele>
        <time>2013-06-15T14:13:46Z</time>
      </trkpt>
      <trkpt lat="48.52002" lon="2.1144">
        <ele>150.186481</ele>
        <time>2013-06-15T14:13:51Z</time>
      </trkpt>
      <trkpt lat="48.52007" lon="2.11435">
        <ele>151.099761</ele>
        <time>2013-06-15T14:13:56Z</time>
      </trkpt>
      <trkpt lat="48.52011" lon="2.11428">
        <ele>150.577515</ele>
        <time>2013-06-15T14:14:01Z</time>
      </trkpt>
      <trkpt lat="48.52016" lon="2.11423">
        <ele>150.079714</ele>
        <time>2013-06-15T14:14:06Z</time>
      </trkpt>
      <trkpt lat="48.5202" lon="2.11418">
        <ele>150.993013</ele>
        <time>2013-06-15T14:14:11Z</time>
      </trkpt>
      <trkpt lat="48.52025" lon="2.11411">
        <ele>150.470789</ele>
        <time>2013-06-15T14:14:16Z</time>
      </trkpt>
      <trkpt lat="48.52029" lon="2.11406">
        <ele>149.973007</ele>
        <time>2013-06-15T14:14:21Z</time>
      </trkpt>
      <trkpt lat="48.52033" lon="2.11401">
        <ele>150.137135</ele>
        <time>2013-06-15T14:14:26Z</time>
      </trkpt>
      <trkpt lat="48.52038" lon="2.11396">
        <ele>151.050459</ele>
        <time>2013-06-15T14:14:31Z</time>
      </trkpt>
      <trkpt lat="48.52042" lon="2.11389">
        <ele>150.528264</ele>
        <time>2013-06-15T14:14:36Z</time>
      </trkpt>
      <trkpt lat="48.52048" lon="2.11383">
        <ele>150.755269</ele>
        <time>2013-06-15T14:14:41Z</time>
      </trkpt>
      <trkpt lat="48.52052" lon="2.11377">
        <ele>150.25752</ele>
        <time>2013-06-15T14:14:46Z</time>
      </trkpt>
      <trkpt lat="48.52057" lon="2.11371">
        <ele>150.484542</ele>
        <time>2013-06-15T14:14:51Z</time>
      </trkpt>
      <trkpt lat="48.52061" lon="2.11366">
        <ele>150.648707</ele>
        <time>2013-06-15T14:14:56Z</time>
      </trkpt>
      <trkpt lat="48.52067" lon="2.11359">
        <ele>150.875744</ele>
        <time>2013-06-15T14:15:01Z</time>
      </trkpt>
      <trkpt lat="48.52071" lon="2.11354">
        <ele>150.378022</ele>
        <time>2013-06-15T14:15:06Z</time>
      </trkpt>
      <trkpt lat="48.52076" lon="2.11347">
        <ele>150.605076</ele>
        <time>2013-06-15T14:15:11Z</time>
      </trkpt>
      <trkpt lat="48.5208" lon="2.11341">
        <ele>150.74484</ele>
        <time>2013-06-15T14:15:16Z</time>
      </trkpt>
      <trkpt lat="48.52085" lon="2.11335">
        <ele>150.996336</ele>
        <time>2013-06-15T14:15:21Z</time>
      </trkpt>
      <trkpt lat="48.5209" lon="2.1133">
        <ele>150.498641</ele>
        <time>2013-06-15T14:15:26Z</time>
      </trkpt>
      <trkpt lat="48.52094" lon="2.11325">
        <ele>150.662849</ele>
        <time>2013-06-15T14:15:31Z</time>
      </trkpt>
      <trkpt lat="48.52098" lon="2.1132">
        <ele>150.165167</ele>
        <time>2013-06-15T14:15:36Z</time>
      </trkpt>
      <trkpt lat="48.52103" lon="2.11313">
        <ele>151.054162</ele>
        <time>2013-06-15T14:15:41Z</time>
      </trkpt>
      <trkpt lat="48.52108" lon="2.11308">
        <ele>150.556493</ele>
        <time>2013-06-15T14:15:46Z</time>
      </trkpt>
      <trkpt lat="48.52113" lon="2.11301">
        <ele>150.78361</ele>
        <time>2013-06-15T14:15:51Z</time>
      </trkpt>
      <trkpt lat="48.52117" lon="2.11296">
        <ele>150.285955</ele>
        <time>2013-06-15T14:15:56Z</time>
      </trkpt>
      <trkpt lat="48.52121" lon="2.11289">
        <ele>150.425779</ele>
        <time>2013-06-15T14:16:01Z</time>
      </trkpt>
      <trkpt lat="48.52126" lon="2.11284">
        <ele>150.677338</ele>
        <time>2013-06-15T14:16:06Z</time>
      </trkpt>
      <trkpt lat="48.52131" lon="2.11278">
        <ele>150.155285</ele>
        <time>2013-06-15T14:16:11Z</time>
      </trkpt>
      <trkpt lat="48.52136" lon="2.11271">
        <ele>149.633239</ele>
        <time>2013-06-15T14:16:16Z</time>
      </trkpt>
      <trkpt lat="48.5214" lon="2.11266">
        <ele>150.546711</ele>
        <time>2013-06-15T14:16:21Z</time>
      </trkpt>
      <trkpt lat="48.52145" lon="2.11259">
        <ele>150.02468</ele>
        <time>2013-06-15T14:16:26Z</time>
      </trkpt>
      <trkpt lat="48.52149" lon="2.11253">
        <ele>149.502657</ele>
        <time>2013-06-15T14:16:31Z</time>
      </trkpt>
      <trkpt lat="48.52155" lon="2.11248">
        <ele>149.754261</ele>
        <time>2013-06-15T14:16:36Z</time>
      </trkpt>
      <trkpt lat="48.52158" lon="2.11241">
        <ele>149.894141</ele>
        <time>2013-06-15T14:16:41Z</time>
      </trkpt>
      <trkpt lat="48.52163" lon="2.11236">
        <ele>149.396554</ele>
        <time>2013-06-15T14:16:46Z</time>
      </trkpt>
      <trkpt lat="48.52168" lon="2.11229">
        <ele>148.87456</ele>
        <time>2013-06-15T14:16:51Z</time>
      </trkpt>
      <trkpt lat="48.52172" lon="2.11224">
        <ele>149.788079</ele>
        <time>2013-06-15T14:16:56Z</time>
      </trkpt>
      <trkpt lat="48.52177" lon="2.11217">
        <ele>149.2661</ele>
        <time>2013-06-15T14:17:01Z</time>
      </trkpt>
      <trkpt lat="48.52181" lon="2.11211">
        <ele>148.744129</ele>
        <time>2013-06-15T14:17:06Z</time>
      </trkpt>
      <trkpt lat="48.52185" lon="2.11204">
        <ele>148.88405</ele>
        <time>2013-06-15T14:17:11Z</time>
      </trkpt>
      <trkpt lat="48.52189" lon="2.11198">
        <ele>149.023978</ele>
        <time>2013-06-15T14:17:16Z</time>
      </trkpt>
      <trkpt lat="48.52194" lon="2.11191">
        <ele>148.50203</ele>
        <time>2013-06-15T14:17:21Z</time>
      </trkpt>
      <trkpt lat="48.52198" lon="2.11184">
        <ele>149.391181</ele>
        <time>2013-06-15T14:17:26Z</time>
      </trkpt>
      <trkpt lat="48.52203" lon="2.11179">
        <ele>148.893655</ele>
        <time>2013-06-15T14:17:31Z</time>
      </trkpt>
      <trkpt lat="48.52208" lon="2.11173">
        <ele>148.371728</ele>
        <time>2013-06-15T14:17:36Z</time>
      </trkpt>
      <trkpt lat="48.52211" lon="2.11167">
        <ele>148.536096</ele>
        <time>2013-06-15T14:17:41Z</time>
      </trkpt>
      <trkpt lat="48.52217" lon="2.11161">
        <ele>148.763396</ele>
        <time>2013-06-15T14:17:46Z</time>
      </trkpt>
      <trkpt lat="48.52221" lon="2.11154">
        <ele>148.903372</ele>
        <time>2013-06-15T14:17:51Z</time>
      </trkpt>
      <trkpt lat="48.52225" lon="2.11148">
        <ele>148.381476</ele>
        <time>2013-06-15T14:17:56Z</time>
      </trkpt>
      <trkpt lat="48.52229" lon="2.11141">
        <ele>148.521466</ele>
        <time>2013-06-15T14:18:01Z</time>
      </trkpt>
      <trkpt lat="48.52233" lon="2.11134">
        <ele>148.661463</ele>
        <time>2013-06-15T14:18:06Z</time>
      </trkpt>
      <trkpt lat="48.52237" lon="2.11128">
        <ele>148.801467</ele>
        <time>2013-06-15T14:18:11Z</time>
      </trkpt>
      <trkpt lat="48.52242" lon="2.1112">
        <ele>148.255201</ele>
        <time>2013-06-15T14:18:16Z</time>
      </trkpt>
      <trkpt lat="48.52246" lon="2.11115">
        <ele>148.419618</ele>
        <time>2013-06-15T14:18:21Z</time>
      </trkpt>
      <trkpt lat="48.52248" lon="2.11107">
        <ele>148.447905</ele>
        <time>2013-06-15T14:18:26Z</time>
      </trkpt>
      <trkpt lat="48.52252" lon="2.111">
        <ele>148.587936</ele>
        <time>2013-06-15T14:18:31Z</time>
      </trkpt>
      <trkpt lat="48.52256" lon="2.11092">
        <ele>148.703578</ele>
        <time>2013-06-15T14:18:36Z</time>
      </trkpt>
      <trkpt lat="48.52259" lon="2.11085">
        <ele>148.094406</ele>
        <time>2013-06-15T14:18:41Z</time>
      </trkpt>
      <trkpt lat="48.52263" lon="2.11077">
        <ele>148.871938</ele>
        <time>2013-06-15T14:18:46Z</time>
      </trkpt>
      <trkpt lat="48.52266" lon="2.11071">
        <ele>148.262779</ele>
        <time>2013-06-15T14:18:51Z</time>
      </trkpt>
      <trkpt lat="48.5227" lon="2.11063">
        <ele>148.378451</ele>
        <time>2013-06-15T14:18:56Z</time>
      </trkpt>
      <trkpt lat="48.52273" lon="2.11056">
        <ele>148.431178</ele>
        <time>2013-06-15T14:19:01Z</time>
      </trkpt>
      <trkpt lat="48.52277" lon="2.11048">
        <ele>148.546865</ele>
        <time>2013-06-15T14:19:06Z</time>
      </trkpt>
      <trkpt lat="48.5228" lon="2.1104">
        <ele>147.913341</ele>
        <time>2013-06-15T14:19:11Z</time>
      </trkpt>
      <trkpt lat="48.52283" lon="2.11033">
        <ele>148.715306</ele>
        <time>2013-06-15T14:19:16Z</time>
      </trkpt>
      <trkpt lat="48.52287" lon="2.11025">
        <ele>148.081797</ele>
        <time>2013-06-15T14:19:21Z</time>
      </trkpt>
      <trkpt lat="48.5229" lon="2.11019">
        <ele>148.883774</ele>
        <time>2013-06-15T14:19:26Z</time>
      </trkpt>
      <trkpt lat="48.52293" lon="2.11011">
        <ele>148.250279</ele>
        <time>2013-06-15T14:19:31Z</time>
      </trkpt>
      <trkpt lat="48.52296" lon="2.11004">
        <ele>149.052269</ele>
        <time>2013-06-15T14:19:36Z</time>
      </trkpt>
      <trkpt lat="48.523" lon="2.10996">
        <ele>148.418788</ele>
        <time>2013-06-15T14:19:41Z</time>
      </trkpt>
      <trkpt lat="48.52303" lon="2.1099">
        <ele>149.220791</ele>
        <time>2013-06-15T14:19:46Z</time>
      </trkpt>
      <trkpt lat="48.52307" lon="2.10982">
        <ele>149.336546</ele>
        <time>2013-06-15T14:19:51Z</time>
      </trkpt>
      <trkpt lat="48.5231" lon="2.10974">
        <ele>149.364957</ele>
        <time>2013-06-15T14:19:56Z</time>
      </trkpt>
      <trkpt lat="48.52314" lon="2.10967">
        <ele>149.50511</ele>
        <time>2013-06-15T14:20:01Z</time>
      </trkpt>
      <trkpt lat="48.52317" lon="2.10959">
        <ele>150.282757</ele>
        <time>2013-06-15T14:20:06Z</time>
      </trkpt>
      <trkpt lat="48.5232" lon="2.10952">
        <ele>149.6737</ele>
        <time>2013-06-15T14:20:11Z</time>
      </trkpt>
      <trkpt lat="48.52324" lon="2.10946">
        <ele>150.47574</ele>
        <time>2013-06-15T14:20:16Z</time>
      </trkpt>
      <trkpt lat="48.52327" lon="2.10938">
        <ele>149.842317</ele>
        <time>2013-06-15T14:20:21Z</time>
      </trkpt>
      <trkpt lat="48.5233" lon="2.10931">
        <ele>150.64437</ele>
        <time>2013-06-15T14:20:26Z</time>
      </trkpt>
      <trkpt lat="48.52334" lon="2.10923">
        <ele>150.01096</ele>
        <time>2013-06-15T14:20:31Z</time>
      </trkpt>
      <trkpt lat="48.52337" lon="2.10915">
        <ele>150.126785</ele>
        <time>2013-06-15T14:20:36Z</time>
      </trkpt>
      <trkpt lat="48.52341" lon="2.10908">
        <ele>150.928857</ele>
        <time>2013-06-15T14:20:41Z</time>
      </trkpt>
      <trkpt lat="48.52344" lon="2.10902">
        <ele>150.319844</ele>
        <time>2013-06-15T14:20:46Z</time>
      </trkpt>
      <trkpt lat="48.52347" lon="2.10894">
        <ele>151.097555</ele>
        <time>2013-06-15T14:20:51Z</time>
      </trkpt>
      <trkpt lat="48.52351" lon="2.10886">
        <ele>150.464183</ele>
        <time>2013-06-15T14:20:56Z</time>
      </trkpt>
      <trkpt lat="48.52354" lon="2.10878">
        <ele>151.241909</ele>
        <time>2013-06-15T14:21:01Z</time>
      </trkpt>
      <trkpt lat="48.52357" lon="2.10871">
        <ele>150.632922</ele>
        <time>2013-06-15T14:21:06Z</time>
      </trkpt>
      <trkpt lat="48.52361" lon="2.10863">
        <ele>151.410662</ele>
        <time>2013-06-15T14:21:11Z</time>
      </trkpt>
      <trkpt lat="48.52364" lon="2.10855">
        <ele>150.777319</ele>
        <time>2013-06-15T14:21:16Z</time>
      </trkpt>
      <trkpt lat="48.52368" lon="2.10849">
        <ele>150.91758</ele>
        <time>2013-06-15T14:21:21Z</time>
      </trkpt>
      <trkpt lat="48.52372" lon="2.10841">
        <ele>151.033482</ele>
        <time>2013-06-15T14:21:26Z</time>
      </trkpt>
      <trkpt lat="48.52375" lon="2.10833">
        <ele>151.062022</ele>
        <time>2013-06-15T14:21:31Z</time>
      </trkpt>
      <trkpt lat="48.52378" lon="2.10825">
        <ele>151.17794</ele>
        <time>2013-06-15T14:21:36Z</time>
      </trkpt>
      <trkpt lat="48.52382" lon="2.10817">
        <ele>151.293865</ele>
        <time>2013-06-15T14:21:41Z</time>
      </trkpt>
      <trkpt lat="48.52385" lon="2.1081">
        <ele>151.346791</ele>
        <time>2013-06-15T14:21:46Z</time>
      </trkpt>
      <trkpt lat="48.52388" lon="2.10802">
        <ele>151.375359</ele>
        <time>2013-06-15T14:21:51Z</time>
      </trkpt>
      <trkpt lat="48.52391" lon="2.10795">
        <ele>152.177528</ele>
        <time>2013-06-15T14:21:56Z</time>
      </trkpt>
      <trkpt lat="48.52394" lon="2.10789">
        <ele>151.568611</ele>
        <time>2013-06-15T14:22:01Z</time>
      </trkpt>
      <trkpt lat="48.52398" lon="2.10781">
        <ele>152.346432</ele>
        <time>2013-06-15T14:22:06Z</time>
      </trkpt>
      <trkpt lat="48.52401" lon="2.10774">
        <ele>151.737528</ele>
        <time>2013-06-15T14:22:11Z</time>
      </trkpt>
      <trkpt lat="48.52404" lon="2.10767">
        <ele>152.539721</ele>
        <time>2013-06-15T14:22:16Z</time>
      </trkpt>
      <trkpt lat="48.52408" lon="2.10759">
        <ele>151.906471</ele>
        <time>2013-06-15T14:22:21Z</time>
      </trkpt>
      <trkpt lat="48.52412" lon="2.10751">
        <ele>152.022464</ele>
        <time>2013-06-15T14:22:26Z</time>
      </trkpt>
      <trkpt lat="48.52416" lon="2.10744">
        <ele>152.138464</ele>
        <time>2013-06-15T14:22:31Z</time>
      </trkpt>
      <trkpt lat="48.52418" lon="2.10737">
        <ele>152.191449</ele>
        <time>2013-06-15T14:22:36Z</time>
      </trkpt>
      <trkpt lat="48.52421" lon="2.10729">
        <ele>152.96932</ele>
        <time>2013-06-15T14:22:41Z</time>
      </trkpt>
      <trkpt lat="48.52424" lon="2.10722">
        <ele>153.022316</ele>
        <time>2013-06-15T14:22:46Z</time>
      </trkpt>
      <trkpt lat="48.52428" lon="2.10714">
        <ele>153.138346</ele>
        <time>2013-06-15T14:22:51Z</time>
      </trkpt>
      <trkpt lat="48.52432" lon="2.10708">
        <ele>153.278736</ele>
        <time>2013-06-15T14:22:56Z</time>
      </trkpt>
      <trkpt lat="48.52435" lon="2.10701">
        <ele>152.669895</ele>
        <time>2013-06-15T14:23:01Z</time>
      </trkpt>
      <trkpt lat="48.52439" lon="2.10693">
        <ele>153.447802</ele>
        <time>2013-06-15T14:23:06Z</time>
      </trkpt>
      <trkpt lat="48.52443" lon="2.10686">
        <ele>153.588212</ele>
        <time>2013-06-15T14:23:11Z</time>
      </trkpt>
      <trkpt lat="48.52446" lon="2.1068">
        <ele>152.97939</ele>
        <time>2013-06-15T14:23:16Z</time>
      </trkpt>
      <trkpt lat="48.52449" lon="2.10672">
        <ele>153.757319</ele>
        <time>2013-06-15T14:23:21Z</time>
      </trkpt>
      <trkpt lat="48.52453" lon="2.10665">
        <ele>153.148509</ele>
        <time>2013-06-15T14:23:26Z</time>
      </trkpt>
      <trkpt lat="48.52456" lon="2.10658">
        <ele>153.950797</ele>
        <time>2013-06-15T14:23:31Z</time>
      </trkpt>
      <trkpt lat="48.5246" lon="2.10652">
        <ele>154.091239</ele>
        <time>2013-06-15T14:23:36Z</time>
      </trkpt>
      <trkpt lat="48.52464" lon="2.10645">
        <ele>153.569838</ele>
        <time>2013-06-15T14:23:41Z</time>
      </trkpt>
      <trkpt lat="48.52468" lon="2.10639">
        <ele>154.372144</ele>
        <time>2013-06-15T14:23:46Z</time>
      </trkpt>
      <trkpt lat="48.52471" lon="2.10632">
        <ele>154.512607</ele>
        <time>2013-06-15T14:23:51Z</time>
      </trkpt>
      <trkpt lat="48.52476" lon="2.10627">
        <ele>154.015569</ele>
        <time>2013-06-15T14:23:56Z</time>
      </trkpt>
      <trkpt lat="48.52481" lon="2.1062">
        <ele>154.905287</ele>
        <time>2013-06-15T14:24:01Z</time>
      </trkpt>
      <trkpt lat="48.52485" lon="2.10615">
        <ele>154.408262</ele>
        <time>2013-06-15T14:24:06Z</time>
      </trkpt>
      <trkpt lat="48.5249" lon="2.1061">
        <ele>154.660487</ele>
        <time>2013-06-15T14:24:11Z</time>
      </trkpt>
      <trkpt lat="48.52494" lon="2.10604">
        <ele>154.825322</ele>
        <time>2013-06-15T14:24:16Z</time>
      </trkpt>
      <trkpt lat="48.52499" lon="2.10599">
        <ele>155.077561</ele>
        <time>2013-06-15T14:24:21Z</time>
      </trkpt>
      <trkpt lat="48.52504" lon="2.10594">
        <ele>154.580562</ele>
        <time>2013-06-15T14:24:26Z</time>
      </trkpt>
      <trkpt lat="48.52509" lon="2.10587">
        <ele>154.808479</ele>
        <time>2013-06-15T14:24:31Z</time>
      </trkpt>
      <trkpt lat="48.52514" lon="2.10582">
        <ele>155.722585</ele>
        <time>2013-06-15T14:24:36Z</time>
      </trkpt>
      <trkpt lat="48.52518" lon="2.10577">
        <ele>155.225606</ele>
        <time>2013-06-15T14:24:41Z</time>
      </trkpt>
      <trkpt lat="48.52523" lon="2.1057">
        <ele>155.453547</ele>
        <time>2013-06-15T14:24:46Z</time>
      </trkpt>
      <trkpt lat="48.52528" lon="2.10565">
        <ele>154.956582</ele>
        <time>2013-06-15T14:24:51Z</time>
      </trkpt>
      <trkpt lat="48.52533" lon="2.1056">
        <ele>155.870714</ele>
        <time>2013-06-15T14:24:56Z</time>
      </trkpt>
      <trkpt lat="48.52537" lon="2.10555">
        <ele>155.373762</ele>
        <time>2013-06-15T14:25:01Z</time>
      </trkpt>
      <trkpt lat="48.52542" lon="2.10551">
        <ele>155.650399</ele>
        <time>2013-06-15T14:25:06Z</time>
      </trkpt>
      <trkpt lat="48.52548" lon="2.10546">
        <ele>155.24087</ele>
        <time>2013-06-15T14:25:11Z</time>
      </trkpt>
      <trkpt lat="48.52553" lon="2.10542">
        <ele>155.51752</ele>
        <time>2013-06-15T14:25:16Z</time>
      </trkpt>
      <trkpt lat="48.52558" lon="2.10537">
        <ele>155.020595</ele>
        <time>2013-06-15T14:25:21Z</time>
      </trkpt>
      <trkpt lat="48.52562" lon="2.10531">
        <ele>154.523676</ele>
        <time>2013-06-15T14:25:26Z</time>
      </trkpt>
      <trkpt lat="48.52568" lon="2.10526">
        <ele>154.776016</ele>
        <time>2013-06-15T14:25:31Z</time>
      </trkpt>
      <trkpt lat="48.52572" lon="2.10521">
        <ele>154.940947</ele>
        <time>2013-06-15T14:25:36Z</time>
      </trkpt>
      <trkpt lat="48.52575" lon="2.10516">
        <ele>155.105883</ele>
        <time>2013-06-15T14:25:41Z</time>
      </trkpt>
      <trkpt lat="48.5258" lon="2.10509">
        <ele>154.584662</ele>
        <time>2013-06-15T14:25:46Z</time>
      </trkpt>
      <trkpt lat="48.52585" lon="2.10504">
        <ele>154.837029</ele>
        <time>2013-06-15T14:25:51Z</time>
      </trkpt>
      <trkpt lat="48.52589" lon="2.10497">
        <ele>154.977658</ele>
        <time>2013-06-15T14:25:56Z</time>
      </trkpt>
      <trkpt lat="48.52594" lon="2.10492">
        <ele>155.23004</ele>
        <time>2013-06-15T14:26:01Z</time>
      </trkpt>
      <trkpt lat="48.526" lon="2.10487">
        <ele>155.482429</ele>
        <time>2013-06-15T14:26:06Z</time>
      </trkpt>
      <trkpt lat="48.52605" lon="2.10482">
        <ele>155.734826</ele>
        <time>2013-06-15T14:26:11Z</time>
      </trkpt>
      <trkpt lat="48.52609" lon="2.10476">
        <ele>155.237973</ele>
        <time>2013-06-15T14:26:16Z</time>
      </trkpt>
      <trkpt lat="48.52615" lon="2.10471">
        <ele>154.828553</ele>
        <time>2013-06-15T14:26:21Z</time>
      </trkpt>
      <trkpt lat="48.5262" lon="2.10466">
        <ele>155.080973</ele>
        <time>2013-06-15T14:26:26Z</time>
      </trkpt>
      <trkpt lat="48.52625" lon="2.10461">
        <ele>154.584141</ele>
        <time>2013-06-15T14:26:31Z</time>
      </trkpt>
      <trkpt lat="48.5263" lon="2.10457">
        <ele>154.860896</ele>
        <time>2013-06-15T14:26:36Z</time>
      </trkpt>
      <trkpt lat="48.52636" lon="2.10452">
        <ele>154.451508</ele>
        <time>2013-06-15T14:26:41Z</time>
      </trkpt>
      <trkpt lat="48.52641" lon="2.10447">
        <ele>154.703957</ele>
        <time>2013-06-15T14:26:46Z</time>
      </trkpt>
      <trkpt lat="48.52646" lon="2.10441">
        <ele>154.956413</ele>
        <time>2013-06-15T14:26:51Z</time>
      </trkpt>
      <trkpt lat="48.52651" lon="2.10436">
        <ele>153.797788</ele>
        <time>2013-06-15T14:26:56Z</time>
      </trkpt>
      <trkpt lat="48.52657" lon="2.10431">
        <ele>154.05026</ele>
        <time>2013-06-15T14:27:01Z</time>
      </trkpt>
      <trkpt lat="48.52662" lon="2.10426">
        <ele>154.302739</ele>
        <time>2013-06-15T14:27:06Z</time>
      </trkpt>
      <trkpt lat="48.52668" lon="2.10422">
        <ele>153.917718</ele>
        <time>2013-06-15T14:27:11Z</time>
      </trkpt>
      <trkpt lat="48.52673" lon="2.10417">
        <ele>154.170212</ele>
        <time>2013-06-15T14:27:16Z</time>
      </trkpt>
      <trkpt lat="48.52677" lon="2.10412">
        <ele>153.673449</ele>
        <time>2013-06-15T14:27:21Z</time>
      </trkpt>
      <trkpt lat="48.52683" lon="2.10406">
        <ele>153.925957</ele>
        <time>2013-06-15T14:27:26Z</time>
      </trkpt>
      <trkpt lat="48.52688" lon="2.10401">
        <ele>154.178473</ele>
        <time>2013-06-15T14:27:31Z</time>
      </trkpt>
      <trkpt lat="48.52693" lon="2.10396">
        <ele>154.430997</ele>
        <time>2013-06-15T14:27:36Z</time>
      </trkpt>
      <trkpt lat="48.52697" lon="2.10391">
        <ele>153.934261</ele>
        <time>2013-06-15T14:27:41Z</time>
      </trkpt>
      <trkpt lat="48.52703" lon="2.10386">
        <ele>154.186799</ele>
        <time>2013-06-15T14:27:46Z</time>
      </trkpt>
      <trkpt lat="48.52708" lon="2.1038">
        <ele>154.439345</ele>
        <time>2013-06-15T14:27:51Z</time>
      </trkpt>
      <trkpt lat="48.52712" lon="2.10375">
        <ele>153.942628</ele>
        <time>2013-06-15T14:27:56Z</time>
      </trkpt>
      <trkpt lat="48.52718" lon="2.10369">
        <ele>154.170878</ele>
        <time>2013-06-15T14:28:01Z</time>
      </trkpt>
      <trkpt lat="48.52723" lon="2.10363">
        <ele>154.423446</ele>
        <time>2013-06-15T14:28:06Z</time>
      </trkpt>
      <trkpt lat="48.52728" lon="2.10357">
        <ele>154.651713</ele>
        <time>2013-06-15T14:28:11Z</time>
      </trkpt>
      <trkpt lat="48.52733" lon="2.1035">
        <ele>154.130717</ele>
        <time>2013-06-15T14:28:16Z</time>
      </trkpt>
      <trkpt lat="48.52738" lon="2.10345">
        <ele>154.383308</ele>
        <time>2013-06-15T14:28:21Z</time>
      </trkpt>
      <trkpt lat="48.52742" lon="2.10338">
        <ele>154.524143</ele>
        <time>2013-06-15T14:28:26Z</time>
      </trkpt>
      <trkpt lat="48.52747" lon="2.10332">
        <ele>154.752443</ele>
        <time>2013-06-15T14:28:31Z</time>
      </trkpt>
      <trkpt lat="48.52751" lon="2.10327">
        <ele>154.255783</ele>
        <time>2013-06-15T14:28:36Z</time>
      </trkpt>
      <trkpt lat="48.52756" lon="2.1032">
        <ele>155.145913</ele>
        <time>2013-06-15T14:28:41Z</time>
      </trkpt>
      <trkpt lat="48.52761" lon="2.10315">
        <ele>154.649266</ele>
        <time>2013-06-15T14:28:46Z</time>
      </trkpt>
      <trkpt lat="48.52766" lon="2.10308">
        <ele>154.877598</ele>
        <time>2013-06-15T14:28:51Z</time>
      </trkpt>
      <trkpt lat="48.5277" lon="2.10302">
        <ele>154.356663</ele>
        <time>2013-06-15T14:28:56Z</time>
      </trkpt>
      <trkpt lat="48.52775" lon="2.10296">
        <ele>155.271125</ele>
        <time>2013-06-15T14:29:01Z</time>
      </trkpt>
      <trkpt lat="48.52779" lon="2.1029">
        <ele>154.750205</ele>
        <time>2013-06-15T14:29:06Z</time>
      </trkpt>
      <trkpt lat="48.52785" lon="2.10283">
        <ele>154.97857</ele>
        <time>2013-06-15T14:29:11Z</time>
      </trkpt>
      <trkpt lat="48.52789" lon="2.10277">
        <ele>154.457666</ele>
        <time>2013-06-15T14:29:16Z</time>
      </trkpt>
      <trkpt lat="48.52794" lon="2.1027">
        <ele>155.347857</ele>
        <time>2013-06-15T14:29:21Z</time>
      </trkpt>
      <trkpt lat="48.52798" lon="2.10265">
        <ele>154.851267</ele>
        <time>2013-06-15T14:29:26Z</time>
      </trkpt>
      <trkpt lat="48.52803" lon="2.10258">
        <ele>155.741472</ele>
        <time>2013-06-15T14:29:31Z</time>
      </trkpt>
      <trkpt lat="48.52808" lon="2.10252">
        <ele>155.220599</ele>
        <time>2013-06-15T14:29:36Z</time>
      </trkpt>
      <trkpt lat="48.52813" lon="2.10246">
        <ele>155.473309</ele>
        <time>2013-06-15T14:29:41Z</time>
      </trkpt>
      <trkpt lat="48.52818" lon="2.1024">
        <ele>155.701732</ele>
        <time>2013-06-15T14:29:46Z</time>
      </trkpt>
      <trkpt lat="48.52822" lon="2.10235">
        <ele>155.866981</ele>
        <time>2013-06-15T14:29:51Z</time>
      </trkpt>
      <trkpt lat="48.52826" lon="2.10228">
        <ele>155.346138</ele>
        <time>2013-06-15T14:29:56Z</time>
      </trkpt>
      <trkpt lat="48.52832" lon="2.10223">
        <ele>155.598878</ele>
        <time>2013-06-15T14:30:01Z</time>
      </trkpt>
      <trkpt lat="48.52836" lon="2.10216">
        <ele>155.739853</ele>
        <time>2013-06-15T14:30:06Z</time>
      </trkpt>
      <trkpt lat="48.5284" lon="2.1021">
        <ele>155.219032</ele>
        <time>2013-06-15T14:30:11Z</time>
      </trkpt>
      <trkpt lat="48.52845" lon="2.10203">
        <ele>156.109305</ele>
        <time>2013-06-15T14:30:16Z</time>
      </trkpt>
      <trkpt lat="48.52849" lon="2.10198">
        <ele>155.61279</ele>
        <time>2013-06-15T14:30:21Z</time>
      </trkpt>
      <trkpt lat="48.52854" lon="2.10194">
        <ele>155.889856</ele>
        <time>2013-06-15T14:30:26Z</time>
      </trkpt>
      <trkpt lat="48.52859" lon="2.10187">
        <ele>155.369064</ele>
        <time>2013-06-15T14:30:31Z</time>
      </trkpt>
      <trkpt lat="48.52863" lon="2.10181">
        <ele>155.51008</ele>
        <time>2013-06-15T14:30:36Z</time>
      </trkpt>
      <trkpt lat="48.52867" lon="2.10176">
        <ele>155.67539</ele>
        <time>2013-06-15T14:30:41Z</time>
      </trkpt>
      <trkpt lat="48.52871" lon="2.10169">
        <ele>155.154619</ele>
        <time>2013-06-15T14:30:46Z</time>
      </trkpt>
      <trkpt lat="48.52875" lon="2.10162">
        <ele>155.295655</ele>
        <time>2013-06-15T14:30:51Z</time>
      </trkpt>
      <trkpt lat="48.5288" lon="2.10156">
        <ele>154.7749</ele>
        <time>2013-06-15T14:30:56Z</time>
      </trkpt>
      <trkpt lat="48.52884" lon="2.10149">
        <ele>154.91595</ele>
        <time>2013-06-15T14:31:01Z</time>
      </trkpt>
      <trkpt lat="48.52888" lon="2.10143">
        <ele>155.057007</ele>
        <time>2013-06-15T14:31:06Z</time>
      </trkpt>
      <trkpt lat="48.52892" lon="2.10136">
        <ele>155.19807</ele>
        <time>2013-06-15T14:31:11Z</time>
      </trkpt>
      <trkpt lat="48.52896" lon="2.10129">
        <ele>154.677344</ele>
        <time>2013-06-15T14:31:16Z</time>
      </trkpt>
      <trkpt lat="48.529" lon="2.10123">
        <ele>154.818421</ele>
        <time>2013-06-15T14:31:21Z</time>
      </trkpt>
      <trkpt lat="48.52904" lon="2.10116">
        <ele>154.959506</ele>
        <time>2013-06-15T14:31:26Z</time>
      </trkpt>
      <trkpt lat="48.52909" lon="2.1011">
        <ele>154.438802</ele>
        <time>2013-06-15T14:31:31Z</time>
      </trkpt>
      <trkpt lat="48.52912" lon="2.10103">
        <ele>153.830607</ele>
        <time>2013-06-15T14:31:36Z</time>
      </trkpt>
      <trkpt lat="48.52916" lon="2.10096">
        <ele>153.971712</ele>
        <time>2013-06-15T14:31:41Z</time>
      </trkpt>
      <trkpt lat="48.5292" lon="2.10088">
        <ele>154.088546</ele>
        <time>2013-06-15T14:31:46Z</time>
      </trkpt>
      <trkpt lat="48.52923" lon="2.10082">
        <ele>153.480371</ele>
        <time>2013-06-15T14:31:51Z</time>
      </trkpt>
      <trkpt lat="48.52927" lon="2.10075">
        <ele>154.283288</ele>
        <time>2013-06-15T14:31:56Z</time>
      </trkpt>
      <trkpt lat="48.5293" lon="2.10067">
        <ele>153.65085</ele>
        <time>2013-06-15T14:32:01Z</time>
      </trkpt>
      <trkpt lat="48.52933" lon="2.1006">
        <ele>153.704485</ele>
        <time>2013-06-15T14:32:06Z</time>
      </trkpt>
      <trkpt lat="48.52936" lon="2.10052">
        <ele>153.07206</ele>
        <time>2013-06-15T14:32:11Z</time>
      </trkpt>
      <trkpt lat="48.5294" lon="2.10044">
        <ele>153.188939</ele>
        <time>2013-06-15T14:32:16Z</time>
      </trkpt>
      <trkpt lat="48.52943" lon="2.10036">
        <ele>153.218321</ele>
        <time>2013-06-15T14:32:21Z</time>
      </trkpt>
      <trkpt lat="48.52945" lon="2.10028">
        <ele>153.24771</ele>
        <time>2013-06-15T14:32:26Z</time>
      </trkpt>
      <trkpt lat="48.52948" lon="2.1002">
        <ele>153.277106</ele>
        <time>2013-06-15T14:32:31Z</time>
      </trkpt>
      <trkpt lat="48.52951" lon="2.10012">
        <ele>153.306508</ele>
        <time>2013-06-15T14:32:36Z</time>
      </trkpt>
      <trkpt lat="48.52953" lon="2.10004">
        <ele>153.335917</ele>
        <time>2013-06-15T14:32:41Z</time>
      </trkpt>
      <trkpt lat="48.52955" lon="2.09996">
        <ele>152.616036</ele>
        <time>2013-06-15T14:32:46Z</time>
      </trkpt>
      <trkpt lat="48.52958" lon="2.09987">
        <ele>152.621194</ele>
        <time>2013-06-15T14:32:51Z</time>
      </trkpt>
      <trkpt lat="48.52961" lon="2.09979">
        <ele>152.650625</ele>
        <time>2013-06-15T14:32:56Z</time>
      </trkpt>
      <trkpt lat="48.52964" lon="2.09971">
        <ele>152.680062</ele>
        <time>2013-06-15T14:33:01Z</time>
      </trkpt>
      <trkpt lat="48.52966" lon="2.09963">
        <ele>152.709507</ele>
        <time>2013-06-15T14:33:06Z</time>
      </trkpt>
      <trkpt lat="48.52969" lon="2.09955">
        <ele>152.738958</ele>
        <time>2013-06-15T14:33:11Z</time>
      </trkpt>
      <trkpt lat="48.52971" lon="2.09946">
        <ele>151.994856</ele>
        <time>2013-06-15T14:33:16Z</time>
      </trkpt>
      <trkpt lat="48.52974" lon="2.09938">
        <ele>152.024322</ele>
        <time>2013-06-15T14:33:21Z</time>
      </trkpt>
      <trkpt lat="48.52976" lon="2.09928">
        <ele>152.029536</ele>
        <time>2013-06-15T14:33:26Z</time>
      </trkpt>
      <trkpt lat="48.52979" lon="2.0992">
        <ele>152.059017</ele>
        <time>2013-06-15T14:33:31Z</time>
      </trkpt>
      <trkpt lat="48.52981" lon="2.09911">
        <ele>151.314948</ele>
        <time>2013-06-15T14:33:36Z</time>
      </trkpt>
      <trkpt lat="48.52983" lon="2.09903">
        <ele>152.006228</ele>
        <time>2013-06-15T14:33:41Z</time>
      </trkpt>
      <trkpt lat="48.52986" lon="2.09895">
        <ele>152.035729</ele>
        <time>2013-06-15T14:33:46Z</time>
      </trkpt>
      <trkpt lat="48.52988" lon="2.09887">
        <ele>151.315937</ele>
        <time>2013-06-15T14:33:51Z</time>
      </trkpt>
      <trkpt lat="48.52991" lon="2.09879">
        <ele>151.345452</ele>
        <time>2013-06-15T14:33:56Z</time>
      </trkpt>
      <trkpt lat="48.52993" lon="2.09869">
        <ele>151.350722</ele>
        <time>2013-06-15T14:34:01Z</time>
      </trkpt>
      <trkpt lat="48.52996" lon="2.09861">
        <ele>151.380251</ele>
        <time>2013-06-15T14:34:06Z</time>
      </trkpt>
      <trkpt lat="48.52999" lon="2.09853">
        <ele>151.409788</ele>
        <time>2013-06-15T14:34:11Z</time>
      </trkpt>
      <trkpt lat="48.53001" lon="2.09848">
        <ele>151.487829</ele>
        <time>2013-06-15T14:34:16Z</time>
      </trkpt>
      <trkpt lat="48.53003" lon="2.09845">
        <ele>150.865067</ele>
        <time>2013-06-15T14:34:21Z</time>
      </trkpt>
      <trkpt lat="48.53003" lon="2.09845">
        <ele>150.865067</ele>
        <time>2013-06-15T14:34:26Z</time>
      </trkpt>
      <trkpt lat="48.53003" lon="2.09845">
        <ele>150.865067</ele>
        <time>2013-06-15T14:34:31Z</time>
      </trkpt>
      <trkpt lat="48.53003" lon="2.09844">
        <ele>150.840819</ele>
        <time>2013-06-15T14:34:36Z</time>
      </trkpt>
      <trkpt lat="48.53005" lon="2.09837">
        <ele>151.556402</ele>
        <time>2013-06-15T14:34:41Z</time>
      </trkpt>
      <trkpt lat="48.53007" lon="2.09831">
        <ele>150.860903</ele>
        <time>2013-06-15T14:34:46Z</time>
      </trkpt>
      <trkpt lat="48.53008" lon="2.09824">
        <ele>151.488974</ele>
        <time>2013-06-15T14:34:51Z</time>
      </trkpt>
      <trkpt lat="48.5301" lon="2.09817">
        <ele>152.20457</ele>
        <time>2013-06-15T14:34:56Z</time>
      </trkpt>
      <trkpt lat="48.53011" lon="2.09812">
        <ele>151.445808</ele>
        <time>2013-06-15T14:35:01Z</time>
      </trkpt>
      <trkpt lat="48.53013" lon="2.09805">
        <ele>152.161412</ele>
        <time>2013-06-15T14:35:06Z</time>
      </trkpt>
      <trkpt lat="48.53014" lon="2.09797">
        <ele>151.354169</ele>
        <time>2013-06-15T14:35:11Z</time>
      </trkpt>
      <trkpt lat="48.53015" lon="2.09789">
        <ele>151.958018</ele>
        <time>2013-06-15T14:35:16Z</time>
      </trkpt>
      <trkpt lat="48.53016" lon="2.09781">
        <ele>151.900091</ele>
        <time>2013-06-15T14:35:21Z</time>
      </trkpt>
      <trkpt lat="48.53017" lon="2.09773">
        <ele>151.84217</ele>
        <time>2013-06-15T14:35:26Z</time>
      </trkpt>
      <trkpt lat="48.53018" lon="2.09765">
        <ele>151.696732</ele>
        <time>2013-06-15T14:35:31Z</time>
      </trkpt>
      <trkpt lat="48.53019" lon="2.09757">
        <ele>151.638823</ele>
        <time>2013-06-15T14:35:36Z</time>
      </trkpt>
      <trkpt lat="48.5302" lon="2.09747">
        <ele>151.556682</ele>
        <time>2013-06-15T14:35:41Z</time>
      </trkpt>
      <trkpt lat="48.53021" lon="2.09739">
        <ele>150.749481</ele>
        <time>2013-06-15T14:35:46Z</time>
      </trkpt>
      <trkpt lat="48.53022" lon="2.09738">
        <ele>151.474549</ele>
        <time>2013-06-15T14:35:51Z</time>
      </trkpt>
      <trkpt lat="48.53023" lon="2.0973">
        <ele>151.41666</ele>
        <time>2013-06-15T14:35:56Z</time>
      </trkpt>
      <trkpt lat="48.53024" lon="2.0972">
        <ele>151.996323</ele>
        <time>2013-06-15T14:36:01Z</time>
      </trkpt>
      <trkpt lat="48.53026" lon="2.09712">
        <ele>151.276665</ele>
        <time>2013-06-15T14:36:06Z</time>
      </trkpt>
      <trkpt lat="48.53026" lon="2.09703">
        <ele>151.107037</ele>
        <time>2013-06-15T14:36:11Z</time>
      </trkpt>
      <trkpt lat="48.53028" lon="2.09695">
        <ele>151.049173</ele>
        <time>2013-06-15T14:36:16Z</time>
      </trkpt>
      <trkpt lat="48.53028" lon="2.09687">
        <ele>150.242008</ele>
        <time>2013-06-15T14:36:21Z</time>
      </trkpt>
      <trkpt lat="48.53029" lon="2.09677">
        <ele>150.072401</ele>
        <time>2013-06-15T14:36:26Z</time>
      </trkpt>
      <trkpt lat="48.53029" lon="2.09669">
        <ele>149.92703</ele>
        <time>2013-06-15T14:36:31Z</time>
      </trkpt>
      <trkpt lat="48.5303" lon="2.09665">
        <ele>149.941872</ele>
        <time>2013-06-15T14:36:36Z</time>
      </trkpt>
      <trkpt lat="48.53033" lon="2.09658">
        <ele>149.995787</ele>
        <time>2013-06-15T14:36:41Z</time>
      </trkpt>
      <trkpt lat="48.53037" lon="2.09653">
        <ele>150.161461</ele>
        <time>2013-06-15T14:36:46Z</time>
      </trkpt>
      <trkpt lat="48.53041" lon="2.09646">
        <ele>150.302914</ele>
        <time>2013-06-15T14:36:51Z</time>
      </trkpt>
      <trkpt lat="48.53045" lon="2.09641">
        <ele>149.806821</ele>
        <time>2013-06-15T14:36:56Z</time>
      </trkpt>
      <trkpt lat="48.53049" lon="2.09635">
        <ele>149.948287</ele>
        <time>2013-06-15T14:37:01Z</time>
      </trkpt>
      <trkpt lat="48.53053" lon="2.09629">
        <ele>150.113984</ele>
        <time>2013-06-15T14:37:06Z</time>
      </trkpt>
      <trkpt lat="48.53056" lon="2.09623">
        <ele>149.506154</ele>
        <time>2013-06-15T14:37:11Z</time>
      </trkpt>
      <trkpt lat="48.53061" lon="2.09615">
        <ele>150.372728</ele>
        <time>2013-06-15T14:37:16Z</time>
      </trkpt>
      <trkpt lat="48.53064" lon="2.09608">
        <ele>149.764911</ele>
        <time>2013-06-15T14:37:21Z</time>
      </trkpt>
      <trkpt lat="48.53068" lon="2.096">
        <ele>149.132881</ele>
        <time>2013-06-15T14:37:26Z</time>
      </trkpt>
      <trkpt lat="48.5307" lon="2.09592">
        <ele>149.162633</ele>
        <time>2013-06-15T14:37:31Z</time>
      </trkpt>
      <trkpt lat="48.53074" lon="2.09584">
        <ele>148.530618</ele>
        <time>2013-06-15T14:37:36Z</time>
      </trkpt>
      <trkpt lat="48.53076" lon="2.09576">
        <ele>148.560384</ele>
        <time>2013-06-15T14:37:41Z</time>
      </trkpt>
      <trkpt lat="48.5308" lon="2.09567">
        <ele>149.315253</ele>
        <time>2013-06-15T14:37:46Z</time>
      </trkpt>
      <trkpt lat="48.53083" lon="2.09559">
        <ele>148.683261</ele>
        <time>2013-06-15T14:37:51Z</time>
      </trkpt>
      <trkpt lat="48.53086" lon="2.09552">
        <ele>148.737264</ele>
        <time>2013-06-15T14:37:56Z</time>
      </trkpt>
      <trkpt lat="48.5309" lon="2.09543">
        <ele>148.830385</ele>
        <time>2013-06-15T14:38:01Z</time>
      </trkpt>
      <trkpt lat="48.53092" lon="2.09535">
        <ele>148.860189</ele>
        <time>2013-06-15T14:38:06Z</time>
      </trkpt>
      <trkpt lat="48.53096" lon="2.09527">
        <ele>148.97754</ele>
        <time>2013-06-15T14:38:11Z</time>
      </trkpt>
      <trkpt lat="48.531" lon="2.09519">
        <ele>148.345586</ele>
        <time>2013-06-15T14:38:16Z</time>
      </trkpt>
      <trkpt lat="48.53104" lon="2.09512">
        <ele>148.487163</ele>
        <time>2013-06-15T14:38:21Z</time>
      </trkpt>
      <trkpt lat="48.53106" lon="2.09504">
        <ele>148.516994</ele>
        <time>2013-06-15T14:38:26Z</time>
      </trkpt>
      <trkpt lat="48.5311" lon="2.09496">
        <ele>148.634377</ele>
        <time>2013-06-15T14:38:31Z</time>
      </trkpt>
      <trkpt lat="48.53114" lon="2.0949">
        <ele>148.02666</ele>
        <time>2013-06-15T14:38:36Z</time>
      </trkpt>
      <trkpt lat="48.53118" lon="2.09482">
        <ele>148.144058</ele>
        <time>2013-06-15T14:38:41Z</time>
      </trkpt>
      <trkpt lat="48.53121" lon="2.09475">
        <ele>148.28567</ele>
        <time>2013-06-15T14:38:46Z</time>
      </trkpt>
      <trkpt lat="48.53126" lon="2.09468">
        <ele>147.76552</ele>
        <time>2013-06-15T14:38:51Z</time>
      </trkpt>
      <trkpt lat="48.5313" lon="2.09462">
        <ele>147.907146</ele>
        <time>2013-06-15T14:38:56Z</time>
      </trkpt>
      <trkpt lat="48.53134" lon="2.09455">
        <ele>148.048778</ele>
        <time>2013-06-15T14:39:01Z</time>
      </trkpt>
      <trkpt lat="48.53138" lon="2.09449">
        <ele>148.190418</ele>
        <time>2013-06-15T14:39:06Z</time>
      </trkpt>
      <trkpt lat="48.53142" lon="2.09442">
        <ele>148.332064</ele>
        <time>2013-06-15T14:39:11Z</time>
      </trkpt>
      <trkpt lat="48.53146" lon="2.09435">
        <ele>149.223036</ele>
        <time>2013-06-15T14:39:16Z</time>
      </trkpt>
      <trkpt lat="48.5315" lon="2.09429">
        <ele>149.364696</ele>
        <time>2013-06-15T14:39:21Z</time>
      </trkpt>
      <trkpt lat="48.53154" lon="2.09422">
        <ele>149.506363</ele>
        <time>2013-06-15T14:39:26Z</time>
      </trkpt>
      <trkpt lat="48.53158" lon="2.09414">
        <ele>149.623838</ele>
        <time>2013-06-15T14:39:31Z</time>
      </trkpt>
      <trkpt lat="48.53163" lon="2.09406">
        <ele>150.490643</ele>
        <time>2013-06-15T14:39:36Z</time>
      </trkpt>
      <trkpt lat="48.53165" lon="2.094">
        <ele>150.544774</ele>
        <time>2013-06-15T14:39:41Z</time>
      </trkpt>
      <trkpt lat="48.53168" lon="2.09393">
        <ele>150.598911</ele>
        <time>2013-06-15T14:39:46Z</time>
      </trkpt>
      <trkpt lat="48.53171" lon="2.09388">
        <ele>150.677247</ele>
        <time>2013-06-15T14:39:51Z</time>
      </trkpt>
      <trkpt lat="48.53173" lon="2.09381">
        <ele>151.393156</ele>
        <time>2013-06-15T14:39:56Z</time>
      </trkpt>
      <trkpt lat="48.53175" lon="2.09375">
        <ele>151.4715</ele>
        <time>2013-06-15T14:40:01Z</time>
      </trkpt>
      <trkpt lat="48.53179" lon="2.09369">
        <ele>152.274978</ele>
        <time>2013-06-15T14:40:06Z</time>
      </trkpt>
      <trkpt lat="48.53181" lon="2.09361">
        <ele>151.555623</ele>
        <time>2013-06-15T14:40:11Z</time>
      </trkpt>
      <trkpt lat="48.53183" lon="2.09353">
        <ele>151.585599</ele>
        <time>2013-06-15T14:40:16Z</time>
      </trkpt>
      <trkpt lat="48.53186" lon="2.09346">
        <ele>153.800181</ele>
        <time>2013-06-15T14:40:21Z</time>
      </trkpt>
      <trkpt lat="48.53186" lon="2.09339">
        <ele>154.340994</ele>
        <time>2013-06-15T14:40:26Z</time>
      </trkpt>
      <trkpt lat="48.53185" lon="2.09335">
        <ele>154.180864</ele>
        <time>2013-06-15T14:40:31Z</time>
      </trkpt>
      <trkpt lat="48.53184" lon="2.09335">
        <ele>154.842626</ele>
        <time>2013-06-15T14:40:36Z</time>
      </trkpt>
      <trkpt lat="48.53184" lon="2.09335">
        <ele>154.842626</ele>
        <time>2013-06-15T14:40:41Z</time>
      </trkpt>
      <trkpt lat="48.53183" lon="2.09334">
        <ele>155.480199</ele>
        <time>2013-06-15T14:40:46Z</time>
      </trkpt>
      <trkpt lat="48.53182" lon="2.0933">
        <ele>155.320072</ele>
        <time>2013-06-15T14:40:51Z</time>
      </trkpt>
      <trkpt lat="48.53179" lon="2.09327">
        <ele>154.34725</ele>
        <time>2013-06-15T14:40:56Z</time>
      </trkpt>
      <trkpt lat="48.53178" lon="2.0932">
        <ele>154.138752</ele>
        <time>2013-06-15T14:41:01Z</time>
      </trkpt>
      <trkpt lat="48.53177" lon="2.09312">
        <ele>155.317158</ele>
        <time>2013-06-15T14:41:06Z</time>
      </trkpt>
      <trkpt lat="48.53176" lon="2.09304">
        <ele>154.422721</ele>
        <time>2013-06-15T14:41:11Z</time>
      </trkpt>
      <trkpt lat="48.53176" lon="2.09296">
        <ele>154.277613</ele>
        <time>2013-06-15T14:41:16Z</time>
      </trkpt>
      <trkpt lat="48.53177" lon="2.09287">
        <ele>152.721424</ele>
        <time>2013-06-15T14:41:21Z</time>
      </trkpt>
      <trkpt lat="48.53177" lon="2.09278">
        <ele>152.552145</ele>
        <time>2013-06-15T14:41:26Z</time>
      </trkpt>
      <trkpt lat="48.53175" lon="2.09268">
        <ele>150.796667</ele>
        <time>2013-06-15T14:41:31Z</time>
      </trkpt>
      <trkpt lat="48.53173" lon="2.0926">
        <ele>149.814702</ele>
        <time>2013-06-15T14:41:36Z</time>
      </trkpt>
      <trkpt lat="48.53171" lon="2.09253">
        <ele>150.268007</ele>
        <time>2013-06-15T14:41:41Z</time>
      </trkpt>
      <trkpt lat="48.53169" lon="2.09244">
        <ele>149.923639</ele>
        <time>2013-06-15T14:41:46Z</time>
      </trkpt>
      <trkpt lat="48.53166" lon="2.09237">
        <ele>149.627634</ele>
        <time>2013-06-15T14:41:51Z</time>
      </trkpt>
      <trkpt lat="48.53163" lon="2.09229">
        <ele>149.969223</ele>
        <time>2013-06-15T14:41:56Z</time>
      </trkpt>
      <trkpt lat="48.53161" lon="2.09222">
        <ele>151.833637</ele>
        <time>2013-06-15T14:42:01Z</time>
      </trkpt>
      <trkpt lat="48.53159" lon="2.09214">
        <ele>152.92456</ele>
        <time>2013-06-15T14:42:06Z</time>
      </trkpt>
      <trkpt lat="48.53157" lon="2.09203">
        <ele>154.716464</ele>
        <time>2013-06-15T14:42:11Z</time>
      </trkpt>
      <trkpt lat="48.53156" lon="2.09194">
        <ele>154.48387</ele>
        <time>2013-06-15T14:42:16Z</time>
      </trkpt>
      <trkpt lat="48.53154" lon="2.09186">
        <ele>154.163728</ele>
        <time>2013-06-15T14:42:21Z</time>
      </trkpt>
      <trkpt lat="48.53154" lon="2.09175">
        <ele>152.559273</ele>
        <time>2013-06-15T14:42:26Z</time>
      </trkpt>
      <trkpt lat="48.53153" lon="2.09167">
        <ele>150.915612</ele>
        <time>2013-06-15T14:42:31Z</time>
      </trkpt>
      <trkpt lat="48.53153" lon="2.09161">
        <ele>149.383679</ele>
        <time>2013-06-15T14:42:36Z</time>
      </trkpt>
      <trkpt lat="48.53152" lon="2.09155">
        <ele>150.610539</ele>
        <time>2013-06-15T14:42:41Z</time>
      </trkpt>
      <trkpt lat="48.53151" lon="2.0915">
        <ele>149.015227</ele>
        <time>2013-06-15T14:42:46Z</time>
      </trkpt>
      <trkpt lat="48.53149" lon="2.09144">
        <ele>148.081686</ele>
        <time>2013-06-15T14:42:51Z</time>
      </trkpt>
      <trkpt lat="48.53148" lon="2.09136">
        <ele>147.187367</ele>
        <time>2013-06-15T14:42:56Z</time>
      </trkpt>
      <trkpt lat="48.53149" lon="2.09129">
        <ele>147.066539</ele>
        <time>2013-06-15T14:43:01Z</time>
      </trkpt>
      <trkpt lat="48.5315" lon="2.09124">
        <ele>147.057432</ele>
        <time>2013-06-15T14:43:06Z</time>
      </trkpt>
      <trkpt lat="48.53149" lon="2.09116">
        <ele>148.235982</ele>
        <time>2013-06-15T14:43:11Z</time>
      </trkpt>
      <trkpt lat="48.53148" lon="2.09112">
        <ele>148.825259</ele>
        <time>2013-06-15T14:43:16Z</time>
      </trkpt>
      <trkpt lat="48.53148" lon="2.09108">
        <ele>148.003451</ele>
        <time>2013-06-15T14:43:21Z</time>
      </trkpt>
      <trkpt lat="48.53148" lon="2.09105">
        <ele>147.955126</ele>
        <time>2013-06-15T14:43:26Z</time>
      </trkpt>
      <trkpt lat="48.53146" lon="2.09102">
        <ele>148.481017</ele>
        <time>2013-06-15T14:43:31Z</time>
      </trkpt>
      <trkpt lat="48.53143" lon="2.09097">
        <ele>147.459949</ele>
        <time>2013-06-15T14:43:36Z</time>
      </trkpt>
      <trkpt lat="48.5314" lon="2.09091">
        <ele>145.777116</ele>
        <time>2013-06-15T14:43:41Z</time>
      </trkpt>
      <trkpt lat="48.53135" lon="2.09086">
        <ele>143.16987</ele>
        <time>2013-06-15T14:43:46Z</time>
      </trkpt>
      <trkpt lat="48.53129" lon="2.09087">
        <ele>143.505607</ele>
        <time>2013-06-15T14:43:51Z</time>
      </trkpt>
      <trkpt lat="48.53123" lon="2.09086">
        <ele>142.406103</ele>
        <time>2013-06-15T14:43:56Z</time>
      </trkpt>
      <trkpt lat="48.53119" lon="2.09088">
        <ele>143.578715</ele>
        <time>2013-06-15T14:44:01Z</time>
      </trkpt>
      <trkpt lat="48.53114" lon="2.09087">
        <ele>144.639624</ele>
        <time>2013-06-15T14:44:06Z</time>
      </trkpt>
      <trkpt lat="48.53109" lon="2.09086">
        <ele>143.515976</ele>
        <time>2013-06-15T14:44:11Z</time>
      </trkpt>
      <trkpt lat="48.53105" lon="2.09086">
        <ele>141.842263</ele>
        <time>2013-06-15T14:44:16Z</time>
      </trkpt>
      <trkpt lat="48.53103" lon="2.09086">
        <ele>142.416495</ele>
        <time>2013-06-15T14:44:21Z</time>
      </trkpt>
      <trkpt lat="48.53099" lon="2.09087">
        <ele>142.178033</ele>
        <time>2013-06-15T14:44:26Z</time>
      </trkpt>
      <trkpt lat="48.53095" lon="2.09087">
        <ele>141.915415</ele>
        <time>2013-06-15T14:44:31Z</time>
      </trkpt>
      <trkpt lat="48.53093" lon="2.09085">
        <ele>142.46549</ele>
        <time>2013-06-15T14:44:36Z</time>
      </trkpt>
      <trkpt lat="48.53092" lon="2.09084">
        <ele>140.942703</ele>
        <time>2013-06-15T14:44:41Z</time>
      </trkpt>
      <trkpt lat="48.53087" lon="2.09082">
        <ele>140.568392</ele>
        <time>2013-06-15T14:44:46Z</time>
      </trkpt>
      <trkpt lat="48.53084" lon="2.09081">
        <ele>142.442023</ele>
        <time>2013-06-15T14:44:52Z</time>
      </trkpt>
      <trkpt lat="48.53083" lon="2.09078">
        <ele>143.055479</ele>
        <time>2013-06-15T14:44:57Z</time>
      </trkpt>
      <trkpt lat="48.53082" lon="2.09071">
        <ele>141.436059</ele>
        <time>2013-06-15T14:45:02Z</time>
      </trkpt>
      <trkpt lat="48.5308" lon="2.09066">
        <ele>141.164354</ele>
        <time>2013-06-15T14:45:07Z</time>
      </trkpt>
      <trkpt lat="48.53076" lon="2.09062">
        <ele>139.418187</ele>
        <time>2013-06-15T14:45:12Z</time>
      </trkpt>
      <trkpt lat="48.53071" lon="2.09055">
        <ele>137.536177</ele>
        <time>2013-06-15T14:45:17Z</time>
      </trkpt>
      <trkpt lat="48.53066" lon="2.09048">
        <ele>137.065265</ele>
        <time>2013-06-15T14:45:22Z</time>
      </trkpt>
      <trkpt lat="48.53062" lon="2.09041">
        <ele>134.521494</ele>
        <time>2013-06-15T14:45:27Z</time>
      </trkpt>
      <trkpt lat="48.53058" lon="2.09035">
        <ele>134.824062</ele>
        <time>2013-06-15T14:45:32Z</time>
      </trkpt>
      <trkpt lat="48.53053" lon="2.0903">
        <ele>135.126637</ele>
        <time>2013-06-15T14:45:37Z</time>
      </trkpt>
      <trkpt lat="48.5305" lon="2.09027">
        <ele>135.565053</ele>
        <time>2013-06-15T14:45:42Z</time>
      </trkpt>
      <trkpt lat="48.5305" lon="2.09023">
        <ele>135.492592</ele>
        <time>2013-06-15T14:45:47Z</time>
      </trkpt>
      <trkpt lat="48.5305" lon="2.09017">
        <ele>135.39598</ele>
        <time>2013-06-15T14:45:52Z</time>
      </trkpt>
      <trkpt lat="48.53051" lon="2.09013">
        <ele>136.072831</ele>
        <time>2013-06-15T14:45:57Z</time>
      </trkpt>
      <trkpt lat="48.53054" lon="2.09007">
        <ele>136.127128</ele>
        <time>2013-06-15T14:46:02Z</time>
      </trkpt>
      <trkpt lat="48.53057" lon="2.09">
        <ele>135.51965</ele>
        <time>2013-06-15T14:46:07Z</time>
      </trkpt>
      <trkpt lat="48.53062" lon="2.08995">
        <ele>135.773169</ele>
        <time>2013-06-15T14:46:12Z</time>
      </trkpt>
      <trkpt lat="48.53064" lon="2.08991">
        <ele>135.78825</ele>
        <time>2013-06-15T14:46:17Z</time>
      </trkpt>
      <trkpt lat="48.53063" lon="2.08991">
        <ele>135.03894</ele>
        <time>2013-06-15T14:46:22Z</time>
      </trkpt>
      <trkpt lat="48.53065" lon="2.08988">
        <ele>135.827482</ele>
        <time>2013-06-15T14:46:27Z</time>
      </trkpt>
      <trkpt lat="48.53069" lon="2.08983">
        <ele>135.993481</ele>
        <time>2013-06-15T14:46:32Z</time>
      </trkpt>
      <trkpt lat="48.53073" lon="2.0898">
        <ele>135.546004</ele>
        <time>2013-06-15T14:46:37Z</time>
      </trkpt>
      <trkpt lat="48.53077" lon="2.08978">
        <ele>136.422086</ele>
        <time>2013-06-15T14:46:42Z</time>
      </trkpt>
      <trkpt lat="48.53081" lon="2.08974">
        <ele>135.95047</ele>
        <time>2013-06-15T14:46:47Z</time>
      </trkpt>
      <trkpt lat="48.53084" lon="2.0897">
        <ele>135.391322</ele>
        <time>2013-06-15T14:46:52Z</time>
      </trkpt>
      <trkpt lat="48.53089" lon="2.08966">
        <ele>136.330804</ele>
        <time>2013-06-15T14:46:57Z</time>
      </trkpt>
      <trkpt lat="48.53093" lon="2.08962">
        <ele>137.932065</ele>
        <time>2013-06-15T14:47:02Z</time>
      </trkpt>
      <trkpt lat="48.53097" lon="2.08958">
        <ele>137.460468</ele>
        <time>2013-06-15T14:47:07Z</time>
      </trkpt>
      <trkpt lat="48.53099" lon="2.08955">
        <ele>138.24903</ele>
        <time>2013-06-15T14:47:12Z</time>
      </trkpt>
      <trkpt lat="48.53104" lon="2.0895">
        <ele>138.50261</ele>
        <time>2013-06-15T14:47:17Z</time>
      </trkpt>
      <trkpt lat="48.53108" lon="2.08945">
        <ele>138.668656</ele>
        <time>2013-06-15T14:47:22Z</time>
      </trkpt>
      <trkpt lat="48.53114" lon="2.08937">
        <ele>138.212191</ele>
        <time>2013-06-15T14:47:27Z</time>
      </trkpt>
      <trkpt lat="48.53118" lon="2.08931">
        <ele>138.354108</ele>
        <time>2013-06-15T14:47:32Z</time>
      </trkpt>
      <trkpt lat="48.53122" lon="2.08927">
        <ele>138.544315</ele>
        <time>2013-06-15T14:47:37Z</time>
      </trkpt>
      <trkpt lat="48.53125" lon="2.08923">
        <ele>137.985209</ele>
        <time>2013-06-15T14:47:42Z</time>
      </trkpt>
      <trkpt lat="48.5313" lon="2.08916">
        <ele>137.465372</ele>
        <time>2013-06-15T14:47:47Z</time>
      </trkpt>
      <trkpt lat="48.53134" lon="2.0891">
        <ele>138.356631</ele>
        <time>2013-06-15T14:47:52Z</time>
      </trkpt>
      <trkpt lat="48.53138" lon="2.08906">
        <ele>137.135769</ele>
        <time>2013-06-15T14:47:57Z</time>
      </trkpt>
      <trkpt lat="48.53145" lon="2.08899">
        <ele>137.452822</ele>
        <time>2013-06-15T14:48:02Z</time>
      </trkpt>
      <trkpt lat="48.53149" lon="2.08897">
        <ele>138.416518</ele>
        <time>2013-06-15T14:48:07Z</time>
      </trkpt>
      <trkpt lat="48.53152" lon="2.08894">
        <ele>139.292666</ele>
        <time>2013-06-15T14:48:12Z</time>
      </trkpt>
      <trkpt lat="48.53157" lon="2.08891">
        <ele>140.256369</ele>
        <time>2013-06-15T14:48:17Z</time>
      </trkpt>
      <trkpt lat="48.5316" lon="2.08892">
        <ele>141.180798</ele>
        <time>2013-06-15T14:48:22Z</time>
      </trkpt>
      <trkpt lat="48.53164" lon="2.0889">
        <ele>140.757558</ele>
        <time>2013-06-15T14:48:27Z</time>
      </trkpt>
      <trkpt lat="48.53172" lon="2.08887">
        <ele>140.461161</ele>
        <time>2013-06-15T14:48:32Z</time>
      </trkpt>
      <trkpt lat="48.53177" lon="2.08881">
        <ele>138.641992</ele>
        <time>2013-06-15T14:48:37Z</time>
      </trkpt>
      <trkpt lat="48.53183" lon="2.08878">
        <ele>138.91982</ele>
        <time>2013-06-15T14:48:42Z</time>
      </trkpt>
      <trkpt lat="48.53188" lon="2.08874">
        <ele>138.535891</ele>
        <time>2013-06-15T14:48:47Z</time>
      </trkpt>
      <trkpt lat="48.53194" lon="2.0887">
        <ele>138.15197</ele>
        <time>2013-06-15T14:48:52Z</time>
      </trkpt>
      <trkpt lat="48.532" lon="2.08863">
        <ele>136.970462</ele>
        <time>2013-06-15T14:48:57Z</time>
      </trkpt>
      <trkpt lat="48.53206" lon="2.08854">
        <ele>135.078936</ele>
        <time>2013-06-15T14:49:02Z</time>
      </trkpt>
      <trkpt lat="48.5321" lon="2.08848">
        <ele>133.148121</ele>
        <time>2013-06-15T14:49:07Z</time>
      </trkpt>
      <trkpt lat="48.53214" lon="2.08841">
        <ele>133.290162</ele>
        <time>2013-06-15T14:49:12Z</time>
      </trkpt>
      <trkpt lat="48.53217" lon="2.08835">
        <ele>132.682881</ele>
        <time>2013-06-15T14:49:17Z</time>
      </trkpt>
      <trkpt lat="48.53221" lon="2.08828">
        <ele>133.486694</ele>
        <time>2013-06-15T14:49:22Z</time>
      </trkpt>
      <trkpt lat="48.53224" lon="2.0882">
        <ele>134.266384</ele>
        <time>2013-06-15T14:49:27Z</time>
      </trkpt>
      <trkpt lat="48.53226" lon="2.08812">
        <ele>134.95851</ele>
        <time>2013-06-15T14:49:32Z</time>
      </trkpt>
      <trkpt lat="48.53229" lon="2.08804">
        <ele>134.988885</ele>
        <time>2013-06-15T14:49:37Z</time>
      </trkpt>
      <trkpt lat="48.53231" lon="2.08797">
        <ele>134.294064</ele>
        <time>2013-06-15T14:49:42Z</time>
      </trkpt>
      <trkpt lat="48.53233" lon="2.0879">
        <ele>134.348577</ele>
        <time>2013-06-15T14:49:47Z</time>
      </trkpt>
      <trkpt lat="48.53235" lon="2.08785">
        <ele>135.088977</ele>
        <time>2013-06-15T14:49:52Z</time>
      </trkpt>
      <trkpt lat="48.53239" lon="2.08781">
        <ele>136.690408</ele>
        <time>2013-06-15T14:49:57Z</time>
      </trkpt>
      <trkpt lat="48.53243" lon="2.08777">
        <ele>136.880757</ele>
        <time>2013-06-15T14:50:02Z</time>
      </trkpt>
      <trkpt lat="48.53246" lon="2.08775">
        <ele>137.756989</ele>
        <time>2013-06-15T14:50:07Z</time>
      </trkpt>
      <trkpt lat="48.5325" lon="2.08772">
        <ele>137.971468</ele>
        <time>2013-06-15T14:50:12Z</time>
      </trkpt>
      <trkpt lat="48.53256" lon="2.0877">
        <ele>137.611773</ele>
        <time>2013-06-15T14:50:17Z</time>
      </trkpt>
      <trkpt lat="48.5326" lon="2.08768">
        <ele>137.850383</ele>
        <time>2013-06-15T14:50:22Z</time>
      </trkpt>
      <trkpt lat="48.53264" lon="2.08766">
        <ele>135.992033</ele>
        <time>2013-06-15T14:50:27Z</time>
      </trkpt>
      <trkpt lat="48.53269" lon="2.08765">
        <ele>135.568897</ele>
        <time>2013-06-15T14:50:32Z</time>
      </trkpt>
      <trkpt lat="48.53274" lon="2.08764">
        <ele>135.895099</ele>
        <time>2013-06-15T14:50:37Z</time>
      </trkpt>
      <trkpt lat="48.5328" lon="2.0876">
        <ele>136.260645</ele>
        <time>2013-06-15T14:50:42Z</time>
      </trkpt>
      <trkpt lat="48.53286" lon="2.08759">
        <ele>138.747281</ele>
        <time>2013-06-15T14:50:47Z</time>
      </trkpt>
      <trkpt lat="48.53293" lon="2.08756">
        <ele>139.886302</ele>
        <time>2013-06-15T14:50:52Z</time>
      </trkpt>
      <trkpt lat="48.53298" lon="2.0875">
        <ele>138.704958</ele>
        <time>2013-06-15T14:50:57Z</time>
      </trkpt>
      <trkpt lat="48.53306" lon="2.08741">
        <ele>136.239477</ele>
        <time>2013-06-15T14:51:02Z</time>
      </trkpt>
      <trkpt lat="48.53313" lon="2.08734">
        <ele>134.483999</ele>
        <time>2013-06-15T14:51:07Z</time>
      </trkpt>
      <trkpt lat="48.53317" lon="2.0873">
        <ele>133.92508</ele>
        <time>2013-06-15T14:51:12Z</time>
      </trkpt>
      <trkpt lat="48.53324" lon="2.08724">
        <ele>130.758536</ele>
        <time>2013-06-15T14:51:17Z</time>
      </trkpt>
      <trkpt lat="48.53329" lon="2.08716">
        <ele>128.14204</ele>
        <time>2013-06-15T14:51:22Z</time>
      </trkpt>
      <trkpt lat="48.53334" lon="2.08711">
        <ele>127.646617</ele>
        <time>2013-06-15T14:51:27Z</time>
      </trkpt>
      <trkpt lat="48.5334" lon="2.08706">
        <ele>127.238798</ele>
        <time>2013-06-15T14:51:32Z</time>
      </trkpt>
      <trkpt lat="48.53341" lon="2.08702">
        <ele>125.842964</ele>
        <time>2013-06-15T14:51:37Z</time>
      </trkpt>
      <trkpt lat="48.53345" lon="2.08696">
        <ele>124.598216</ele>
        <time>2013-06-15T14:51:42Z</time>
      </trkpt>
      <trkpt lat="48.5335" lon="2.08689">
        <ele>123.392846</ele>
        <time>2013-06-15T14:51:47Z</time>
      </trkpt>
      <trkpt lat="48.53356" lon="2.08682">
        <ele>122.211599</ele>
        <time>2013-06-15T14:51:52Z</time>
      </trkpt>
      <trkpt lat="48.53361" lon="2.08674">
        <ele>119.595164</ele>
        <time>2013-06-15T14:51:57Z</time>
      </trkpt>
      <trkpt lat="48.53366" lon="2.08669">
        <ele>118.438047</ele>
        <time>2013-06-15T14:52:02Z</time>
      </trkpt>
      <trkpt lat="48.53371" lon="2.08664">
        <ele>119.353763</ele>
        <time>2013-06-15T14:52:07Z</time>
      </trkpt>
      <trkpt lat="48.53375" lon="2.08657">
        <ele>120.245376</ele>
        <time>2013-06-15T14:52:12Z</time>
      </trkpt>
      <trkpt lat="48.53381" lon="2.08652">
        <ele>120.499366</ele>
        <time>2013-06-15T14:52:17Z</time>
      </trkpt>
      <trkpt lat="48.53385" lon="2.08645">
        <ele>120.641648</ele>
        <time>2013-06-15T14:52:22Z</time>
      </trkpt>
      <trkpt lat="48.5339" lon="2.08639">
        <ele>119.46046</ele>
        <time>2013-06-15T14:52:27Z</time>
      </trkpt>
      <trkpt lat="48.53394" lon="2.08634">
        <ele>119.626862</ele>
        <time>2013-06-15T14:52:32Z</time>
      </trkpt>
      <trkpt lat="48.53398" lon="2.08628">
        <ele>119.131533</ele>
        <time>2013-06-15T14:52:37Z</time>
      </trkpt>
      <trkpt lat="48.53402" lon="2.08623">
        <ele>117.886861</ele>
        <time>2013-06-15T14:52:42Z</time>
      </trkpt>
      <trkpt lat="48.53408" lon="2.08619">
        <ele>118.914348</ele>
        <time>2013-06-15T14:52:47Z</time>
      </trkpt>
      <trkpt lat="48.53413" lon="2.08615">
        <ele>119.192493</ele>
        <time>2013-06-15T14:52:52Z</time>
      </trkpt>
      <trkpt lat="48.53418" lon="2.0861">
        <ele>119.44654</ele>
        <time>2013-06-15T14:52:57Z</time>
      </trkpt>
      <trkpt lat="48.53422" lon="2.08606">
        <ele>118.225995</ele>
        <time>2013-06-15T14:53:02Z</time>
      </trkpt>
      <trkpt lat="48.53429" lon="2.08604">
        <ele>117.954148</ele>
        <time>2013-06-15T14:53:07Z</time>
      </trkpt>
      <trkpt lat="48.53435" lon="2.08602">
        <ele>116.183604</ele>
        <time>2013-06-15T14:53:12Z</time>
      </trkpt>
      <trkpt lat="48.53442" lon="2.08599">
        <ele>115.162422</ele>
        <time>2013-06-15T14:53:17Z</time>
      </trkpt>
      <trkpt lat="48.53447" lon="2.08598">
        <ele>114.827081</ele>
        <time>2013-06-15T14:53:22Z</time>
      </trkpt>
      <trkpt lat="48.53453" lon="2.08597">
        <ele>114.491746</ele>
        <time>2013-06-15T14:53:27Z</time>
      </trkpt>
      <trkpt lat="48.53459" lon="2.08596">
        <ele>112.745334</ele>
        <time>2013-06-15T14:53:32Z</time>
      </trkpt>
      <trkpt lat="48.53465" lon="2.08596">
        <ele>112.434115</ele>
        <time>2013-06-15T14:53:37Z</time>
      </trkpt>
      <trkpt lat="48.53471" lon="2.08595">
        <ele>112.0988</ele>
        <time>2013-06-15T14:53:42Z</time>
      </trkpt>
      <trkpt lat="48.53476" lon="2.08597">
        <ele>111.062338</ele>
        <time>2013-06-15T14:53:47Z</time>
      </trkpt>
      <trkpt lat="48.53482" lon="2.08597">
        <ele>110.751137</ele>
        <time>2013-06-15T14:53:52Z</time>
      </trkpt>
      <trkpt lat="48.53488" lon="2.08598">
        <ele>111.213404</ele>
        <time>2013-06-15T14:53:57Z</time>
      </trkpt>
      <trkpt lat="48.53494" lon="2.086">
        <ele>110.264595</ele>
        <time>2013-06-15T14:54:02Z</time>
      </trkpt>
      <trkpt lat="48.53499" lon="2.08602">
        <ele>109.889881</ele>
        <time>2013-06-15T14:54:07Z</time>
      </trkpt>
      <trkpt lat="48.53501" lon="2.08602">
        <ele>110.065155</ele>
        <time>2013-06-15T14:54:12Z</time>
      </trkpt>
      <trkpt lat="48.53501" lon="2.08602">
        <ele>110.065155</ele>
        <time>2013-06-15T14:54:17Z</time>
      </trkpt>
      <trkpt lat="48.53503" lon="2.08602">
        <ele>109.491069</ele>
        <time>2013-06-15T14:54:22Z</time>
      </trkpt>
      <trkpt lat="48.53509" lon="2.08602">
        <ele>109.179899</ele>
        <time>2013-06-15T14:54:27Z</time>
      </trkpt>
      <trkpt lat="48.53516" lon="2.08604">
        <ele>108.980478</ele>
        <time>2013-06-15T14:54:32Z</time>
      </trkpt>
      <trkpt lat="48.53522" lon="2.08605">
        <ele>108.693425</ele>
        <time>2013-06-15T14:54:37Z</time>
      </trkpt>
      <trkpt lat="48.53527" lon="2.08606">
        <ele>108.382276</ele>
        <time>2013-06-15T14:54:42Z</time>
      </trkpt>
      <trkpt lat="48.53533" lon="2.08609">
        <ele>108.119339</ele>
        <time>2013-06-15T14:54:47Z</time>
      </trkpt>
      <trkpt lat="48.53538" lon="2.08609">
        <ele>108.469922</ele>
        <time>2013-06-15T14:54:52Z</time>
      </trkpt>
      <trkpt lat="48.53545" lon="2.0861">
        <ele>107.521176</ele>
        <time>2013-06-15T14:54:57Z</time>
      </trkpt>
      <trkpt lat="48.53551" lon="2.08612">
        <ele>107.983522</ele>
        <time>2013-06-15T14:55:02Z</time>
      </trkpt>
      <trkpt lat="48.53557" lon="2.08614">
        <ele>107.69651</ele>
        <time>2013-06-15T14:55:07Z</time>
      </trkpt>
      <trkpt lat="48.53562" lon="2.08614">
        <ele>107.3854</ele>
        <time>2013-06-15T14:55:12Z</time>
      </trkpt>
      <trkpt lat="48.53568" lon="2.08615">
        <ele>107.0984</ele>
        <time>2013-06-15T14:55:17Z</time>
      </trkpt>
      <trkpt lat="48.53574" lon="2.08617">
        <ele>106.811406</ele>
        <time>2013-06-15T14:55:22Z</time>
      </trkpt>
      <trkpt lat="48.5358" lon="2.08617">
        <ele>105.838602</ele>
        <time>2013-06-15T14:55:27Z</time>
      </trkpt>
      <trkpt lat="48.53585" lon="2.08619">
        <ele>106.213335</ele>
        <time>2013-06-15T14:55:32Z</time>
      </trkpt>
      <trkpt lat="48.53592" lon="2.0862">
        <ele>105.26465</ele>
        <time>2013-06-15T14:55:37Z</time>
      </trkpt>
      <trkpt lat="48.53597" lon="2.08621">
        <ele>104.953579</ele>
        <time>2013-06-15T14:55:42Z</time>
      </trkpt>
      <trkpt lat="48.53603" lon="2.08622">
        <ele>104.666619</ele>
        <time>2013-06-15T14:55:47Z</time>
      </trkpt>
      <trkpt lat="48.53609" lon="2.08624">
        <ele>105.129039</ele>
        <time>2013-06-15T14:55:52Z</time>
      </trkpt>
      <trkpt lat="48.53615" lon="2.08624">
        <ele>105.479696</ele>
        <time>2013-06-15T14:55:57Z</time>
      </trkpt>
      <trkpt lat="48.5362" lon="2.08626">
        <ele>106.603838</ele>
        <time>2013-06-15T14:56:02Z</time>
      </trkpt>
      <trkpt lat="48.53625" lon="2.08627">
        <ele>106.978611</ele>
        <time>2013-06-15T14:56:07Z</time>
      </trkpt>
      <trkpt lat="48.5363" lon="2.08629">
        <ele>106.604014</ele>
        <time>2013-06-15T14:56:12Z</time>
      </trkpt>
      <trkpt lat="48.53635" lon="2.0863">
        <ele>109.139255</ele>
        <time>2013-06-15T14:56:17Z</time>
      </trkpt>
      <trkpt lat="48.5364" lon="2.08633">
        <ele>109.538149</ele>
        <time>2013-06-15T14:56:22Z</time>
      </trkpt>
      <trkpt lat="48.53645" lon="2.08633">
        <ele>109.13946</ele>
        <time>2013-06-15T14:56:27Z</time>
      </trkpt>
      <trkpt lat="48.53648" lon="2.08633">
        <ele>110.81356</ele>
        <time>2013-06-15T14:56:32Z</time>
      </trkpt>
      <trkpt lat="48.53653" lon="2.08635">
        <ele>111.850065</ele>
        <time>2013-06-15T14:56:37Z</time>
      </trkpt>
      <trkpt lat="48.53657" lon="2.08634">
        <ele>112.088985</ele>
        <time>2013-06-15T14:56:42Z</time>
      </trkpt>
      <trkpt lat="48.53661" lon="2.08631">
        <ele>111.642099</ele>
        <time>2013-06-15T14:56:47Z</time>
      </trkpt>
      <trkpt lat="48.53667" lon="2.08627">
        <ele>111.258791</ele>
        <time>2013-06-15T14:56:52Z</time>
      </trkpt>
      <trkpt lat="48.53676" lon="2.08621">
        <ele>109.591561</ele>
        <time>2013-06-15T14:56:57Z</time>
      </trkpt>
      <trkpt lat="48.53683" lon="2.08613">
        <ele>108.561945</ele>
        <time>2013-06-15T14:57:02Z</time>
      </trkpt>
      <trkpt lat="48.53691" lon="2.08604">
        <ele>106.758861</ele>
        <time>2013-06-15T14:57:07Z</time>
      </trkpt>
      <trkpt lat="48.53697" lon="2.08595">
        <ele>104.86811</ele>
        <time>2013-06-15T14:57:12Z</time>
      </trkpt>
      <trkpt lat="48.53701" lon="2.08587">
        <ele>104.324866</ele>
        <time>2013-06-15T14:57:17Z</time>
      </trkpt>
      <trkpt lat="48.53704" lon="2.08578">
        <ele>104.331544</ele>
        <time>2013-06-15T14:57:22Z</time>
      </trkpt>
      <trkpt lat="48.53707" lon="2.08568">
        <ele>103.676533</ele>
        <time>2013-06-15T14:57:27Z</time>
      </trkpt>
      <trkpt lat="48.53708" lon="2.08559">
        <ele>103.507853</ele>
        <time>2013-06-15T14:57:32Z</time>
      </trkpt>
      <trkpt lat="48.53709" lon="2.08551">
        <ele>102.039883</ele>
        <time>2013-06-15T14:57:37Z</time>
      </trkpt>
      <trkpt lat="48.5371" lon="2.08543">
        <ele>101.233615</ele>
        <time>2013-06-15T14:57:42Z</time>
      </trkpt>
      <trkpt lat="48.53711" lon="2.08533">
        <ele>101.152643</ele>
        <time>2013-06-15T14:57:47Z</time>
      </trkpt>
      <trkpt lat="48.53712" lon="2.08524">
        <ele>100.322295</ele>
        <time>2013-06-15T14:57:52Z</time>
      </trkpt>
      <trkpt lat="48.53714" lon="2.08515">
        <ele>100.241339</ele>
        <time>2013-06-15T14:57:57Z</time>
      </trkpt>
      <trkpt lat="48.53715" lon="2.08507">
        <ele>98.773401</ele>
        <time>2013-06-15T14:58:02Z</time>
      </trkpt>
      <trkpt lat="48.53717" lon="2.08499">
        <ele>98.054854</ele>
        <time>2013-06-15T14:58:07Z</time>
      </trkpt>
      <trkpt lat="48.53719" lon="2.08489">
        <ele>97.312225</ele>
        <time>2013-06-15T14:58:12Z</time>
      </trkpt>
      <trkpt lat="48.53721" lon="2.08481">
        <ele>98.004773</ele>
        <time>2013-06-15T14:58:17Z</time>
      </trkpt>
      <trkpt lat="48.53723" lon="2.08472">
        <ele>96.512773</ele>
        <time>2013-06-15T14:58:22Z</time>
      </trkpt>
      <trkpt lat="48.53725" lon="2.08464">
        <ele>97.205335</ele>
        <time>2013-06-15T14:58:27Z</time>
      </trkpt>
      <trkpt lat="48.53727" lon="2.08454">
        <ele>96.462736</ele>
        <time>2013-06-15T14:58:32Z</time>
      </trkpt>
      <trkpt lat="48.53728" lon="2.08446">
        <ele>97.067619</ele>
        <time>2013-06-15T14:58:37Z</time>
      </trkpt>
      <trkpt lat="48.5373" lon="2.08437">
        <ele>96.325036</ele>
        <time>2013-06-15T14:58:42Z</time>
      </trkpt>
      <trkpt lat="48.53731" lon="2.08429">
        <ele>96.268237</ele>
        <time>2013-06-15T14:58:47Z</time>
      </trkpt>
      <trkpt lat="48.53733" lon="2.08419">
        <ele>96.187363</ele>
        <time>2013-06-15T14:58:52Z</time>
      </trkpt>
      <trkpt lat="48.53732" lon="2.0841">
        <ele>95.269417</ele>
        <time>2013-06-15T14:58:57Z</time>
      </trkpt>
      <trkpt lat="48.53734" lon="2.084">
        <ele>94.526865</ele>
        <time>2013-06-15T14:59:02Z</time>
      </trkpt>
      <trkpt lat="48.53735" lon="2.08392">
        <ele>95.131786</ele>
        <time>2013-06-15T14:59:07Z</time>
      </trkpt>
      <trkpt lat="48.53737" lon="2.08383">
        <ele>95.800331</ele>
        <time>2013-06-15T14:59:12Z</time>
      </trkpt>
      <trkpt lat="48.53739" lon="2.08373">
        <ele>95.057802</ele>
        <time>2013-06-15T14:59:17Z</time>
      </trkpt>
      <trkpt lat="48.5374" lon="2.08365">
        <ele>94.251661</ele>
        <time>2013-06-15T14:59:22Z</time>
      </trkpt>
      <trkpt lat="48.53741" lon="2.08357">
        <ele>93.445526</ele>
        <time>2013-06-15T14:59:27Z</time>
      </trkpt>
      <trkpt lat="48.53742" lon="2.08348">
        <ele>91.953631</ele>
        <time>2013-06-15T14:59:32Z</time>
      </trkpt>
      <trkpt lat="48.53743" lon="2.0834">
        <ele>91.147508</ele>
        <time>2013-06-15T14:59:37Z</time>
      </trkpt>
      <trkpt lat="48.53743" lon="2.0833">
        <ele>89.567932</ele>
        <time>2013-06-15T14:59:42Z</time>
      </trkpt>
      <trkpt lat="48.53746" lon="2.08322">
        <ele>88.849517</ele>
        <time>2013-06-15T14:59:47Z</time>
      </trkpt>
      <trkpt lat="48.53746" lon="2.08313">
        <ele>88.681037</ele>
        <time>2013-06-15T14:59:52Z</time>
      </trkpt>
      <trkpt lat="48.53747" lon="2.08304">
        <ele>88.60026</ele>
        <time>2013-06-15T14:59:57Z</time>
      </trkpt>
      <trkpt lat="48.53749" lon="2.08296">
        <ele>88.543558</ele>
        <time>2013-06-15T15:00:02Z</time>
      </trkpt>
      <trkpt lat="48.53749" lon="2.08287">
        <ele>87.737472</ele>
        <time>2013-06-15T15:00:07Z</time>
      </trkpt>
      <trkpt lat="48.5375" lon="2.08278">
        <ele>86.907328</ele>
        <time>2013-06-15T15:00:12Z</time>
      </trkpt>
      <trkpt lat="48.53752" lon="2.08269">
        <ele>86.82658</ele>
        <time>2013-06-15T15:00:17Z</time>
      </trkpt>
      <trkpt lat="48.53752" lon="2.08259">
        <ele>87.407533</ele>
        <time>2013-06-15T15:00:22Z</time>
      </trkpt>
      <trkpt lat="48.53753" lon="2.08252">
        <ele>87.287226</ele>
        <time>2013-06-15T15:00:27Z</time>
      </trkpt>
      <trkpt lat="48.53753" lon="2.08243">
        <ele>85.707721</ele>
        <time>2013-06-15T15:00:32Z</time>
      </trkpt>
      <trkpt lat="48.53752" lon="2.08233">
        <ele>85.451608</ele>
        <time>2013-06-15T15:00:37Z</time>
      </trkpt>
      <trkpt lat="48.5375" lon="2.08225">
        <ele>84.470171</ele>
        <time>2013-06-15T15:00:42Z</time>
      </trkpt>
      <trkpt lat="48.53748" lon="2.08216">
        <ele>83.464684</ele>
        <time>2013-06-15T15:00:47Z</time>
      </trkpt>
      <trkpt lat="48.53747" lon="2.08208">
        <ele>83.23265</ele>
        <time>2013-06-15T15:00:52Z</time>
      </trkpt>
      <trkpt lat="48.53744" lon="2.08201">
        <ele>82.187592</ele>
        <time>2013-06-15T15:00:57Z</time>
      </trkpt>
      <trkpt lat="48.53741" lon="2.08194">
        <ele>81.142541</ele>
        <time>2013-06-15T15:01:02Z</time>
      </trkpt>
      <trkpt lat="48.53737" lon="2.08187">
        <ele>80.759189</ele>
        <time>2013-06-15T15:01:07Z</time>
      </trkpt>
      <trkpt lat="48.53734" lon="2.0818">
        <ele>80.375844</ele>
        <time>2013-06-15T15:01:12Z</time>
      </trkpt>
      <trkpt lat="48.5373" lon="2.08173">
        <ele>79.992506</ele>
        <time>2013-06-15T15:01:17Z</time>
      </trkpt>
      <trkpt lat="48.53726" lon="2.08168">
        <ele>79.633226</ele>
        <time>2013-06-15T15:01:22Z</time>
      </trkpt>
      <trkpt lat="48.53723" lon="2.08161">
        <ele>79.249901</ele>
        <time>2013-06-15T15:01:27Z</time>
      </trkpt>
      <trkpt lat="48.53719" lon="2.08152">
        <ele>78.842532</ele>
        <time>2013-06-15T15:01:32Z</time>
      </trkpt>
      <trkpt lat="48.53718" lon="2.08146">
        <ele>78.634597</ele>
        <time>2013-06-15T15:01:37Z</time>
      </trkpt>
      <trkpt lat="48.53715" lon="2.08137">
        <ele>78.976628</ele>
        <time>2013-06-15T15:01:42Z</time>
      </trkpt>
      <trkpt lat="48.53712" lon="2.08132">
        <ele>80.116145</ele>
        <time>2013-06-15T15:01:47Z</time>
      </trkpt>
      <trkpt lat="48.53714" lon="2.08125">
        <ele>80.832983</ele>
        <time>2013-06-15T15:01:52Z</time>
      </trkpt>
      <trkpt lat="48.53718" lon="2.08118">
        <ele>79.564734</ele>
        <time>2013-06-15T15:01:57Z</time>
      </trkpt>
      <trkpt lat="48.53722" lon="2.08113">
        <ele>78.982233</ele>
        <time>2013-06-15T15:02:02Z</time>
      </trkpt>
      <trkpt lat="48.53724" lon="2.08108">
        <ele>79.061433</ele>
        <time>2013-06-15T15:02:07Z</time>
      </trkpt>
      <trkpt lat="48.53729" lon="2.08107">
        <ele>78.638764</ele>
        <time>2013-06-15T15:02:12Z</time>
      </trkpt>
      <trkpt lat="48.53729" lon="2.08109">
        <ele>78.686853</ele>
        <time>2013-06-15T15:02:17Z</time>
      </trkpt>
      <trkpt lat="48.53729" lon="2.08112">
        <ele>78.734942</ele>
        <time>2013-06-15T15:02:22Z</time>
      </trkpt>
      <trkpt lat="48.53724" lon="2.08113">
        <ele>78.408226</ele>
        <time>2013-06-15T15:02:27Z</time>
      </trkpt>
      <trkpt lat="48.53723" lon="2.08112">
        <ele>77.634795</ele>
        <time>2013-06-15T15:02:32Z</time>
      </trkpt>
      <trkpt lat="48.53724" lon="2.08111">
        <ele>78.360136</ele>
        <time>2013-06-15T15:02:37Z</time>
      </trkpt>
      <trkpt lat="48.53724" lon="2.08111">
        <ele>78.360136</ele>
        <time>2013-06-15T15:02:42Z</time>
      </trkpt>
      <trkpt lat="48.53722" lon="2.0811">
        <ele>78.272446</ele>
        <time>2013-06-15T15:02:47Z</time>
      </trkpt>
      <trkpt lat="48.53721" lon="2.0811">
        <ele>78.184757</ele>
        <time>2013-06-15T15:02:52Z</time>
      </trkpt>
      <trkpt lat="48.53721" lon="2.0811">
        <ele>78.184757</ele>
        <time>2013-06-15T15:02:57Z</time>
      </trkpt>
      <trkpt lat="48.53721" lon="2.0811">
        <ele>78.184757</ele>
        <time>2013-06-15T15:03:02Z</time>
      </trkpt>
      <trkpt lat="48.53721" lon="2.0811">
        <ele>78.184757</ele>
        <time>2013-06-15T15:03:07Z</time>
      </trkpt>
      <trkpt lat="48.53721" lon="2.0811">
        <ele>78.184757</ele>
        <time>2013-06-15T15:03:12Z</time>
      </trkpt>
      <trkpt lat="48.53717" lon="2.08112">
        <ele>77.945736</ele>
        <time>2013-06-15T15:03:17Z</time>
      </trkpt>
      <trkpt lat="48.53712" lon="2.0811">
        <ele>76.821556</ele>
        <time>2013-06-15T15:03:22Z</time>
      </trkpt>
      <trkpt lat="48.53708" lon="2.08109">
        <ele>76.534452</ele>
        <time>2013-06-15T15:03:27Z</time>
      </trkpt>
      <trkpt lat="48.53705" lon="2.08107">
        <ele>76.996736</ele>
        <time>2013-06-15T15:03:32Z</time>
      </trkpt>
      <trkpt lat="48.53701" lon="2.08103">
        <ele>77.410933</ele>
        <time>2013-06-15T15:03:37Z</time>
      </trkpt>
      <trkpt lat="48.53701" lon="2.08103">
        <ele>77.410933</ele>
        <time>2013-06-15T15:03:42Z</time>
      </trkpt>
      <trkpt lat="48.53701" lon="2.08103">
        <ele>77.410933</ele>
        <time>2013-06-15T15:03:47Z</time>
      </trkpt>
      <trkpt lat="48.537" lon="2.08103">
        <ele>77.323249</ele>
        <time>2013-06-15T15:03:52Z</time>
      </trkpt>
      <trkpt lat="48.53697" lon="2.08101">
        <ele>77.785537</ele>
        <time>2013-06-15T15:03:57Z</time>
      </trkpt>
      <trkpt lat="48.53695" lon="2.08101">
        <ele>77.610172</ele>
        <time>2013-06-15T15:04:02Z</time>
      </trkpt>
      <trkpt lat="48.53695" lon="2.08101">
        <ele>77.610172</ele>
        <time>2013-06-15T15:04:07Z</time>
      </trkpt>
      <trkpt lat="48.53695" lon="2.08101">
        <ele>77.610172</ele>
        <time>2013-06-15T15:04:12Z</time>
      </trkpt>
      <trkpt lat="48.53695" lon="2.081">
        <ele>78.335511</ele>
        <time>2013-06-15T15:04:17Z</time>
      </trkpt>
      <trkpt lat="48.53695" lon="2.081">
        <ele>78.335511</ele>
        <time>2013-06-15T15:04:22Z</time>
      </trkpt>
      <trkpt lat="48.53693" lon="2.08098">
        <ele>78.136102</ele>
        <time>2013-06-15T15:04:27Z</time>
      </trkpt>
      <trkpt lat="48.53691" lon="2.08096">
        <ele>78.662034</ele>
        <time>2013-06-15T15:04:32Z</time>
      </trkpt>
      <trkpt lat="48.53688" lon="2.08093">
        <ele>78.438586</ele>
        <time>2013-06-15T15:04:37Z</time>
      </trkpt>
      <trkpt lat="48.53682" lon="2.08093">
        <ele>78.749566</ele>
        <time>2013-06-15T15:04:42Z</time>
      </trkpt>
      <trkpt lat="48.5368" lon="2.08088">
        <ele>78.50208</ele>
        <time>2013-06-15T15:04:47Z</time>
      </trkpt>
      <trkpt lat="48.53678" lon="2.08083">
        <ele>78.230554</ele>
        <time>2013-06-15T15:04:52Z</time>
      </trkpt>
      <trkpt lat="48.53674" lon="2.08076">
        <ele>78.596694</ele>
        <time>2013-06-15T15:04:57Z</time>
      </trkpt>
      <trkpt lat="48.5367" lon="2.0807">
        <ele>78.899203</ele>
        <time>2013-06-15T15:05:02Z</time>
      </trkpt>
      <trkpt lat="48.53666" lon="2.08065">
        <ele>77.790636</ele>
        <time>2013-06-15T15:05:07Z</time>
      </trkpt>
      <trkpt lat="48.53661" lon="2.08059">
        <ele>78.093158</ele>
        <time>2013-06-15T15:05:12Z</time>
      </trkpt>
      <trkpt lat="48.53657" lon="2.08056">
        <ele>78.443764</ele>
        <time>2013-06-15T15:05:17Z</time>
      </trkpt>
      <trkpt lat="48.53652" lon="2.08055">
        <ele>79.480119</ele>
        <time>2013-06-15T15:05:22Z</time>
      </trkpt>
      <trkpt lat="48.53647" lon="2.08054">
        <ele>80.540518</ele>
        <time>2013-06-15T15:05:27Z</time>
      </trkpt>
      <trkpt lat="48.53641" lon="2.08054">
        <ele>80.851546</ele>
        <time>2013-06-15T15:05:32Z</time>
      </trkpt>
      <trkpt lat="48.53636" lon="2.08055">
        <ele>80.524911</ele>
        <time>2013-06-15T15:05:37Z</time>
      </trkpt>
      <trkpt lat="48.53631" lon="2.08055">
        <ele>80.174242</ele>
        <time>2013-06-15T15:05:42Z</time>
      </trkpt>
      <trkpt lat="48.53632" lon="2.08053">
        <ele>80.213831</ele>
        <time>2013-06-15T15:05:47Z</time>
      </trkpt>
      <trkpt lat="48.53631" lon="2.08044">
        <ele>79.981936</ele>
        <time>2013-06-15T15:05:52Z</time>
      </trkpt>
      <trkpt lat="48.5363" lon="2.08036">
        <ele>79.750047</ele>
        <time>2013-06-15T15:05:57Z</time>
      </trkpt>
      <trkpt lat="48.53628" lon="2.08028">
        <ele>80.179873</ele>
        <time>2013-06-15T15:06:02Z</time>
      </trkpt>
      <trkpt lat="48.53628" lon="2.08027">
        <ele>80.155837</ele>
        <time>2013-06-15T15:06:07Z</time>
      </trkpt>
      <trkpt lat="48.53628" lon="2.08017">
        <ele>80.649301</ele>
        <time>2013-06-15T15:06:12Z</time>
      </trkpt>
      <trkpt lat="48.53627" lon="2.08009">
        <ele>81.166807</ele>
        <time>2013-06-15T15:06:17Z</time>
      </trkpt>
      <trkpt lat="48.53627" lon="2.08002">
        <ele>81.708351</ele>
        <time>2013-06-15T15:06:22Z</time>
      </trkpt>
      <trkpt lat="48.53625" lon="2.08002">
        <ele>81.620685</ele>
        <time>2013-06-15T15:06:27Z</time>
      </trkpt>
      <trkpt lat="48.53625" lon="2.08002">
        <ele>81.620685</ele>
        <time>2013-06-15T15:06:32Z</time>
      </trkpt>
      <trkpt lat="48.53625" lon="2.08002">
        <ele>81.620685</ele>
        <time>2013-06-15T15:06:37Z</time>
      </trkpt>
      <trkpt lat="48.53625" lon="2.08002">
        <ele>81.620685</ele>
        <time>2013-06-15T15:06:42Z</time>
      </trkpt>
      <trkpt lat="48.53624" lon="2.08002">
        <ele>81.533021</ele>
        <time>2013-06-15T15:06:47Z</time>
      </trkpt>
      <trkpt lat="48.53624" lon="2.08003">
        <ele>81.557053</ele>
        <time>2013-06-15T15:06:52Z</time>
      </trkpt>
      <trkpt lat="48.53624" lon="2.08003">
        <ele>81.557053</ele>
        <time>2013-06-15T15:06:57Z</time>
      </trkpt>
      <trkpt lat="48.53624" lon="2.08003">
        <ele>81.557053</ele>
        <time>2013-06-15T15:07:02Z</time>
      </trkpt>
      <trkpt lat="48.53624" lon="2.08003">
        <ele>81.557053</ele>
        <time>2013-06-15T15:07:07Z</time>
      </trkpt>
      <trkpt lat="48.53624" lon="2.08003">
        <ele>81.557053</ele>
        <time>2013-06-15T15:07:12Z</time>
      </trkpt>
      <trkpt lat="48.53624" lon="2.08003">
        <ele>81.557053</ele>
        <time>2013-06-15T15:07:17Z</time>
      </trkpt>
      <trkpt lat="48.53624" lon="2.08003">
        <ele>81.557053</ele>
        <time>2013-06-15T15:07:22Z</time>
      </trkpt>
      <trkpt lat="48.53624" lon="2.08003">
        <ele>81.557053</ele>
        <time>2013-06-15T15:07:27Z</time>
      </trkpt>
      <trkpt lat="48.53624" lon="2.08003">
        <ele>81.557053</ele>
        <time>2013-06-15T15:07:32Z</time>
      </trkpt>
      <trkpt lat="48.53624" lon="2.08003">
        <ele>81.557053</ele>
        <time>2013-06-15T15:07:37Z</time>
      </trkpt>
      <trkpt lat="48.53624" lon="2.08003">
        <ele>81.557053</ele>
        <time>2013-06-15T15:07:42Z</time>
      </trkpt>
      <trkpt lat="48.53624" lon="2.08003">
        <ele>81.557053</ele>
        <time>2013-06-15T15:07:47Z</time>
      </trkpt>
      <trkpt lat="48.53624" lon="2.08003">
        <ele>81.557053</ele>
        <time>2013-06-15T15:07:52Z</time>
      </trkpt>
      <trkpt lat="48.53623" lon="2.08006">
        <ele>81.517455</ele>
        <time>2013-06-15T15:07:57Z</time>
      </trkpt>
      <trkpt lat="48.53621" lon="2.08009">
        <ele>81.477857</ele>
        <time>2013-06-15T15:08:02Z</time>
      </trkpt>
      <trkpt lat="48.53621" lon="2.08005">
        <ele>81.405757</ele>
        <time>2013-06-15T15:08:07Z</time>
      </trkpt>
      <trkpt lat="48.53621" lon="2.08001">
        <ele>81.995369</ele>
        <time>2013-06-15T15:08:12Z</time>
      </trkpt>
      <trkpt lat="48.5362" lon="2.07995">
        <ele>81.149866</ele>
        <time>2013-06-15T15:08:17Z</time>
      </trkpt>
      <trkpt lat="48.53618" lon="2.07988">
        <ele>81.603755</ele>
        <time>2013-06-15T15:08:22Z</time>
      </trkpt>
      <trkpt lat="48.53621" lon="2.0798">
        <ele>80.885524</ele>
        <time>2013-06-15T15:08:27Z</time>
      </trkpt>
      <trkpt lat="48.53623" lon="2.07973">
        <ele>82.351788</ele>
        <time>2013-06-15T15:08:32Z</time>
      </trkpt>
      <trkpt lat="48.53625" lon="2.07971">
        <ele>83.140768</ele>
        <time>2013-06-15T15:08:37Z</time>
      </trkpt>
      <trkpt lat="48.53628" lon="2.07964">
        <ele>83.195955</ele>
        <time>2013-06-15T15:08:42Z</time>
      </trkpt>
      <trkpt lat="48.53631" lon="2.07958">
        <ele>82.589438</ele>
        <time>2013-06-15T15:08:47Z</time>
      </trkpt>
      <trkpt lat="48.53632" lon="2.07949">
        <ele>82.532941</ele>
        <time>2013-06-15T15:08:52Z</time>
      </trkpt>
      <trkpt lat="48.53633" lon="2.07941">
        <ele>81.727076</ele>
        <time>2013-06-15T15:08:57Z</time>
      </trkpt>
      <trkpt lat="48.53631" lon="2.07933">
        <ele>82.156967</ele>
        <time>2013-06-15T15:09:02Z</time>
      </trkpt>
      <trkpt lat="48.53632" lon="2.07925">
        <ele>82.012821</ele>
        <time>2013-06-15T15:09:07Z</time>
      </trkpt>
      <trkpt lat="48.53631" lon="2.07916">
        <ele>81.756992</ele>
        <time>2013-06-15T15:09:12Z</time>
      </trkpt>
      <trkpt lat="48.53629" lon="2.07906">
        <ele>81.501171</ele>
        <time>2013-06-15T15:09:17Z</time>
      </trkpt>
      <trkpt lat="48.53628" lon="2.07898">
        <ele>81.269378</ele>
        <time>2013-06-15T15:09:22Z</time>
      </trkpt>
      <trkpt lat="48.53627" lon="2.07888">
        <ele>81.013572</ele>
        <time>2013-06-15T15:09:27Z</time>
      </trkpt>
      <trkpt lat="48.53626" lon="2.0788">
        <ele>80.781792</ele>
        <time>2013-06-15T15:09:32Z</time>
      </trkpt>
      <trkpt lat="48.53624" lon="2.07872">
        <ele>81.211729</ele>
        <time>2013-06-15T15:09:37Z</time>
      </trkpt>
      <trkpt lat="48.53623" lon="2.07864">
        <ele>80.230587</ele>
        <time>2013-06-15T15:09:42Z</time>
      </trkpt>
      <trkpt lat="48.53621" lon="2.07854">
        <ele>79.225435</ele>
        <time>2013-06-15T15:09:47Z</time>
      </trkpt>
      <trkpt lat="48.53619" lon="2.07846">
        <ele>79.655392</ele>
        <time>2013-06-15T15:09:52Z</time>
      </trkpt>
      <trkpt lat="48.53617" lon="2.07838">
        <ele>80.085355</ele>
        <time>2013-06-15T15:09:57Z</time>
      </trkpt>
      <trkpt lat="48.53616" lon="2.07828">
        <ele>79.8296</ele>
        <time>2013-06-15T15:10:02Z</time>
      </trkpt>
      <trkpt lat="48.53614" lon="2.0782">
        <ele>79.510203</ele>
        <time>2013-06-15T15:10:07Z</time>
      </trkpt>
      <trkpt lat="48.53612" lon="2.07811">
        <ele>79.916175</ele>
        <time>2013-06-15T15:10:12Z</time>
      </trkpt>
      <trkpt lat="48.5361" lon="2.07802">
        <ele>80.346165</ele>
        <time>2013-06-15T15:10:17Z</time>
      </trkpt>
      <trkpt lat="48.53609" lon="2.07794">
        <ele>79.365077</ele>
        <time>2013-06-15T15:10:22Z</time>
      </trkpt>
      <trkpt lat="48.53606" lon="2.07783">
        <ele>78.997692</ele>
        <time>2013-06-15T15:10:28Z</time>
      </trkpt>
      <trkpt lat="48.53605" lon="2.07774">
        <ele>78.741983</ele>
        <time>2013-06-15T15:10:33Z</time>
      </trkpt>
      <trkpt lat="48.53603" lon="2.07765">
        <ele>79.172002</ele>
        <time>2013-06-15T15:10:38Z</time>
      </trkpt>
      <trkpt lat="48.53601" lon="2.07757">
        <ele>79.602027</ele>
        <time>2013-06-15T15:10:43Z</time>
      </trkpt>
      <trkpt lat="48.536" lon="2.07748">
        <ele>78.596969</ele>
        <time>2013-06-15T15:10:48Z</time>
      </trkpt>
      <trkpt lat="48.53597" lon="2.0774">
        <ele>78.277636</ele>
        <time>2013-06-15T15:10:53Z</time>
      </trkpt>
      <trkpt lat="48.53596" lon="2.07731">
        <ele>78.707681</ele>
        <time>2013-06-15T15:10:58Z</time>
      </trkpt>
      <trkpt lat="48.53594" lon="2.07723">
        <ele>79.137733</ele>
        <time>2013-06-15T15:11:03Z</time>
      </trkpt>
      <trkpt lat="48.53591" lon="2.07715">
        <ele>78.81842</ele>
        <time>2013-06-15T15:11:08Z</time>
      </trkpt>
      <trkpt lat="48.5359" lon="2.07707">
        <ele>78.586769</ele>
        <time>2013-06-15T15:11:13Z</time>
      </trkpt>
      <trkpt lat="48.53588" lon="2.07698">
        <ele>78.267469</ele>
        <time>2013-06-15T15:11:18Z</time>
      </trkpt>
      <trkpt lat="48.53586" lon="2.0769">
        <ele>77.28646</ele>
        <time>2013-06-15T15:11:23Z</time>
      </trkpt>
      <trkpt lat="48.53584" lon="2.07682">
        <ele>76.967174</ele>
        <time>2013-06-15T15:11:28Z</time>
      </trkpt>
      <trkpt lat="48.53582" lon="2.07675">
        <ele>77.421259</ele>
        <time>2013-06-15T15:11:33Z</time>
      </trkpt>
      <trkpt lat="48.53583" lon="2.07673">
        <ele>78.122639</ele>
        <time>2013-06-15T15:11:38Z</time>
      </trkpt>
      <trkpt lat="48.53583" lon="2.07671">
        <ele>78.098644</ele>
        <time>2013-06-15T15:11:43Z</time>
      </trkpt>
      <trkpt lat="48.53583" lon="2.07671">
        <ele>78.848014</ele>
        <time>2013-06-15T15:11:48Z</time>
      </trkpt>
      <trkpt lat="48.53583" lon="2.07671">
        <ele>78.848014</ele>
        <time>2013-06-15T15:11:53Z</time>
      </trkpt>
      <trkpt lat="48.53583" lon="2.07671">
        <ele>78.848014</ele>
        <time>2013-06-15T15:11:58Z</time>
      </trkpt>
      <trkpt lat="48.53583" lon="2.07671">
        <ele>78.848014</ele>
        <time>2013-06-15T15:12:03Z</time>
      </trkpt>
      <trkpt lat="48.53583" lon="2.0767">
        <ele>78.824019</ele>
        <time>2013-06-15T15:12:08Z</time>
      </trkpt>
      <trkpt lat="48.53583" lon="2.0767">
        <ele>78.824019</ele>
        <time>2013-06-15T15:12:13Z</time>
      </trkpt>
      <trkpt lat="48.53583" lon="2.0767">
        <ele>79.485736</ele>
        <time>2013-06-15T15:12:18Z</time>
      </trkpt>
      <trkpt lat="48.53581" lon="2.0767">
        <ele>79.398083</ele>
        <time>2013-06-15T15:12:23Z</time>
      </trkpt>
      <trkpt lat="48.5358" lon="2.07666">
        <ele>79.238447</ele>
        <time>2013-06-15T15:12:28Z</time>
      </trkpt>
      <trkpt lat="48.53577" lon="2.07659">
        <ele>79.604892</ele>
        <time>2013-06-15T15:12:33Z</time>
      </trkpt>
      <trkpt lat="48.53575" lon="2.07652">
        <ele>80.058993</ele>
        <time>2013-06-15T15:12:38Z</time>
      </trkpt>
      <trkpt lat="48.53573" lon="2.07644">
        <ele>79.739739</ele>
        <time>2013-06-15T15:12:43Z</time>
      </trkpt>
      <trkpt lat="48.53571" lon="2.07637">
        <ele>78.782764</ele>
        <time>2013-06-15T15:12:48Z</time>
      </trkpt>
      <trkpt lat="48.53568" lon="2.07629">
        <ele>79.125241</ele>
        <time>2013-06-15T15:12:53Z</time>
      </trkpt>
      <trkpt lat="48.53566" lon="2.0762">
        <ele>78.806006</ele>
        <time>2013-06-15T15:12:58Z</time>
      </trkpt>
      <trkpt lat="48.53563" lon="2.07612">
        <ele>78.486779</ele>
        <time>2013-06-15T15:13:03Z</time>
      </trkpt>
      <trkpt lat="48.5356" lon="2.07604">
        <ele>78.829278</ele>
        <time>2013-06-15T15:13:08Z</time>
      </trkpt>
      <trkpt lat="48.53556" lon="2.07597">
        <ele>78.446404</ele>
        <time>2013-06-15T15:13:13Z</time>
      </trkpt>
      <trkpt lat="48.53553" lon="2.07589">
        <ele>78.039551</ele>
        <time>2013-06-15T15:13:18Z</time>
      </trkpt>
      <trkpt lat="48.5355" lon="2.07583">
        <ele>78.430042</ele>
        <time>2013-06-15T15:13:23Z</time>
      </trkpt>
      <trkpt lat="48.53546" lon="2.07576">
        <ele>78.047188</ele>
        <time>2013-06-15T15:13:28Z</time>
      </trkpt>
      <trkpt lat="48.53542" lon="2.07568">
        <ele>78.302079</ele>
        <time>2013-06-15T15:13:33Z</time>
      </trkpt>
      <trkpt lat="48.53538" lon="2.07561">
        <ele>77.91924</ele>
        <time>2013-06-15T15:13:38Z</time>
      </trkpt>
      <trkpt lat="48.53534" lon="2.07554">
        <ele>77.536407</ele>
        <time>2013-06-15T15:13:43Z</time>
      </trkpt>
      <trkpt lat="48.53531" lon="2.07547">
        <ele>77.153581</ele>
        <time>2013-06-15T15:13:48Z</time>
      </trkpt>
      <trkpt lat="48.53528" lon="2.0754">
        <ele>77.520125</ele>
        <time>2013-06-15T15:13:53Z</time>
      </trkpt>
      <trkpt lat="48.53523" lon="2.07532">
        <ele>77.775058</ele>
        <time>2013-06-15T15:13:58Z</time>
      </trkpt>
      <trkpt lat="48.5352" lon="2.07525">
        <ele>77.392253</ele>
        <time>2013-06-15T15:14:03Z</time>
      </trkpt>
      <trkpt lat="48.53516" lon="2.07517">
        <ele>77.734839</ele>
        <time>2013-06-15T15:14:08Z</time>
      </trkpt>
      <trkpt lat="48.53513" lon="2.0751">
        <ele>77.352048</ele>
        <time>2013-06-15T15:14:13Z</time>
      </trkpt>
      <trkpt lat="48.5351" lon="2.07502">
        <ele>77.694649</ele>
        <time>2013-06-15T15:14:18Z</time>
      </trkpt>
      <trkpt lat="48.53507" lon="2.07493">
        <ele>78.037258</ele>
        <time>2013-06-15T15:14:23Z</time>
      </trkpt>
      <trkpt lat="48.53503" lon="2.07485">
        <ele>77.630514</ele>
        <time>2013-06-15T15:14:28Z</time>
      </trkpt>
      <trkpt lat="48.535" lon="2.07477">
        <ele>77.973138</ele>
        <time>2013-06-15T15:14:33Z</time>
      </trkpt>
      <trkpt lat="48.53497" lon="2.0747">
        <ele>78.339742</ele>
        <time>2013-06-15T15:14:38Z</time>
      </trkpt>
      <trkpt lat="48.53493" lon="2.07462">
        <ele>77.933021</ele>
        <time>2013-06-15T15:14:43Z</time>
      </trkpt>
      <trkpt lat="48.53491" lon="2.07455">
        <ele>77.637909</ele>
        <time>2013-06-15T15:14:48Z</time>
      </trkpt>
      <trkpt lat="48.53487" lon="2.07446">
        <ele>77.231203</ele>
        <time>2013-06-15T15:14:53Z</time>
      </trkpt>
      <trkpt lat="48.53484" lon="2.0744">
        <ele>77.597833</ele>
        <time>2013-06-15T15:14:58Z</time>
      </trkpt>
      <trkpt lat="48.5348" lon="2.07433">
        <ele>77.21511</ele>
        <time>2013-06-15T15:15:03Z</time>
      </trkpt>
      <trkpt lat="48.53477" lon="2.07424">
        <ele>77.557785</ele>
        <time>2013-06-15T15:15:08Z</time>
      </trkpt>
      <trkpt lat="48.53473" lon="2.07417">
        <ele>77.836808</ele>
        <time>2013-06-15T15:15:13Z</time>
      </trkpt>
      <trkpt lat="48.53469" lon="2.07412">
        <ele>78.889161</ele>
        <time>2013-06-15T15:15:18Z</time>
      </trkpt>
      <trkpt lat="48.53465" lon="2.07405">
        <ele>78.506466</ele>
        <time>2013-06-15T15:15:23Z</time>
      </trkpt>
      <trkpt lat="48.53461" lon="2.07398">
        <ele>78.78551</ele>
        <time>2013-06-15T15:15:28Z</time>
      </trkpt>
      <trkpt lat="48.53457" lon="2.07391">
        <ele>78.402829</ele>
        <time>2013-06-15T15:15:33Z</time>
      </trkpt>
      <trkpt lat="48.53453" lon="2.07384">
        <ele>78.681889</ele>
        <time>2013-06-15T15:15:38Z</time>
      </trkpt>
      <trkpt lat="48.53449" lon="2.07377">
        <ele>78.960956</ele>
        <time>2013-06-15T15:15:43Z</time>
      </trkpt>
      <trkpt lat="48.53446" lon="2.0737">
        <ele>78.665914</ele>
        <time>2013-06-15T15:15:48Z</time>
      </trkpt>
      <trkpt lat="48.53442" lon="2.07365">
        <ele>79.718309</ele>
        <time>2013-06-15T15:15:53Z</time>
      </trkpt>
      <trkpt lat="48.53439" lon="2.07362">
        <ele>78.745802</ele>
        <time>2013-06-15T15:15:58Z</time>
      </trkpt>
      <trkpt lat="48.53438" lon="2.07355">
        <ele>78.538389</ele>
        <time>2013-06-15T15:16:03Z</time>
      </trkpt>
      <trkpt lat="48.53436" lon="2.07348">
        <ele>78.243365</ele>
        <time>2013-06-15T15:16:08Z</time>
      </trkpt>
      <trkpt lat="48.53433" lon="2.07344">
        <ele>79.407351</ele>
        <time>2013-06-15T15:16:13Z</time>
      </trkpt>
      <trkpt lat="48.53431" lon="2.07337">
        <ele>79.861687</ele>
        <time>2013-06-15T15:16:18Z</time>
      </trkpt>
      <trkpt lat="48.5343" lon="2.07332">
        <ele>79.678247</ele>
        <time>2013-06-15T15:16:23Z</time>
      </trkpt>
      <trkpt lat="48.53428" lon="2.07323">
        <ele>79.359284</ele>
        <time>2013-06-15T15:16:28Z</time>
      </trkpt>
      <trkpt lat="48.53428" lon="2.07319">
        <ele>79.287419</ele>
        <time>2013-06-15T15:16:33Z</time>
      </trkpt>
      <trkpt lat="48.53426" lon="2.07312">
        <ele>78.992421</ele>
        <time>2013-06-15T15:16:38Z</time>
      </trkpt>
      <trkpt lat="48.53422" lon="2.07306">
        <ele>79.359166</ele>
        <time>2013-06-15T15:16:43Z</time>
      </trkpt>
      <trkpt lat="48.53419" lon="2.07299">
        <ele>79.725918</ele>
        <time>2013-06-15T15:16:48Z</time>
      </trkpt>
      <trkpt lat="48.53417" lon="2.07292">
        <ele>80.842026</ele>
        <time>2013-06-15T15:16:53Z</time>
      </trkpt>
      <trkpt lat="48.53414" lon="2.07286">
        <ele>80.570999</ele>
        <time>2013-06-15T15:16:58Z</time>
      </trkpt>
      <trkpt lat="48.53413" lon="2.07279">
        <ele>81.025376</ele>
        <time>2013-06-15T15:17:03Z</time>
      </trkpt>
      <trkpt lat="48.53411" lon="2.07271">
        <ele>80.794068</ele>
        <time>2013-06-15T15:17:08Z</time>
      </trkpt>
      <trkpt lat="48.53412" lon="2.07263">
        <ele>80.650375</ele>
        <time>2013-06-15T15:17:13Z</time>
      </trkpt>
      <trkpt lat="48.53413" lon="2.07255">
        <ele>80.594297</ele>
        <time>2013-06-15T15:17:18Z</time>
      </trkpt>
      <trkpt lat="48.53414" lon="2.07247">
        <ele>80.538225</ele>
        <time>2013-06-15T15:17:23Z</time>
      </trkpt>
      <trkpt lat="48.53415" lon="2.0724">
        <ele>79.756754</ele>
        <time>2013-06-15T15:17:28Z</time>
      </trkpt>
      <trkpt lat="48.53412" lon="2.07233">
        <ele>80.123548</ele>
        <time>2013-06-15T15:17:33Z</time>
      </trkpt>
      <trkpt lat="48.5341" lon="2.07228">
        <ele>79.852551</ele>
        <time>2013-06-15T15:17:38Z</time>
      </trkpt>
      <trkpt lat="48.53408" lon="2.07225">
        <ele>80.378796</ele>
        <time>2013-06-15T15:17:43Z</time>
      </trkpt>
      <trkpt lat="48.53407" lon="2.07225">
        <ele>79.629446</ele>
        <time>2013-06-15T15:17:48Z</time>
      </trkpt>
      <trkpt lat="48.53407" lon="2.07225">
        <ele>78.880096</ele>
        <time>2013-06-15T15:17:53Z</time>
      </trkpt>
      <trkpt lat="48.53407" lon="2.07225">
        <ele>78.880096</ele>
        <time>2013-06-15T15:17:58Z</time>
      </trkpt>
      <trkpt lat="48.53407" lon="2.07225">
        <ele>78.880096</ele>
        <time>2013-06-15T15:18:03Z</time>
      </trkpt>
      <trkpt lat="48.53407" lon="2.07224">
        <ele>78.194411</ele>
        <time>2013-06-15T15:18:08Z</time>
      </trkpt>
      <trkpt lat="48.53407" lon="2.07224">
        <ele>78.194411</ele>
        <time>2013-06-15T15:18:13Z</time>
      </trkpt>
      <trkpt lat="48.53407" lon="2.07224">
        <ele>78.194411</ele>
        <time>2013-06-15T15:18:18Z</time>
      </trkpt>
      <trkpt lat="48.53407" lon="2.07224">
        <ele>78.194411</ele>
        <time>2013-06-15T15:18:23Z</time>
      </trkpt>
      <trkpt lat="48.53407" lon="2.07224">
        <ele>78.194411</ele>
        <time>2013-06-15T15:18:28Z</time>
      </trkpt>
      <trkpt lat="48.53407" lon="2.07224">
        <ele>78.194411</ele>
        <time>2013-06-15T15:18:33Z</time>
      </trkpt>
      <trkpt lat="48.53407" lon="2.07224">
        <ele>78.194411</ele>
        <time>2013-06-15T15:18:38Z</time>
      </trkpt>
      <trkpt lat="48.53407" lon="2.07224">
        <ele>78.194411</ele>
        <time>2013-06-15T15:18:43Z</time>
      </trkpt>
      <trkpt lat="48.53407" lon="2.07224">
        <ele>78.194411</ele>
        <time>2013-06-15T15:18:48Z</time>
      </trkpt>
      <trkpt lat="48.53407" lon="2.07224">
        <ele>78.194411</ele>
        <time>2013-06-15T15:18:53Z</time>
      </trkpt>
      <trkpt lat="48.53407" lon="2.07224">
        <ele>78.194411</ele>
        <time>2013-06-15T15:18:58Z</time>
      </trkpt>
      <trkpt lat="48.53407" lon="2.07224">
        <ele>78.194411</ele>
        <time>2013-06-15T15:19:03Z</time>
      </trkpt>
      <trkpt lat="48.53407" lon="2.07224">
        <ele>78.856153</ele>
        <time>2013-06-15T15:19:08Z</time>
      </trkpt>
      <trkpt lat="48.53407" lon="2.07224">
        <ele>78.856153</ele>
        <time>2013-06-15T15:19:13Z</time>
      </trkpt>
      <trkpt lat="48.53407" lon="2.07224">
        <ele>78.856153</ele>
        <time>2013-06-15T15:19:18Z</time>
      </trkpt>
      <trkpt lat="48.53407" lon="2.07224">
        <ele>78.856153</ele>
        <time>2013-06-15T15:19:23Z</time>
      </trkpt>
      <trkpt lat="48.53407" lon="2.07224">
        <ele>78.194411</ele>
        <time>2013-06-15T15:19:28Z</time>
      </trkpt>
      <trkpt lat="48.53408" lon="2.07224">
        <ele>78.943761</ele>
        <time>2013-06-15T15:19:33Z</time>
      </trkpt>
      <trkpt lat="48.53408" lon="2.07224">
        <ele>78.943761</ele>
        <time>2013-06-15T15:19:38Z</time>
      </trkpt>
      <trkpt lat="48.53408" lon="2.07224">
        <ele>78.943761</ele>
        <time>2013-06-15T15:19:43Z</time>
      </trkpt>
      <trkpt lat="48.53408" lon="2.07224">
        <ele>78.943761</ele>
        <time>2013-06-15T15:19:48Z</time>
      </trkpt>
      <trkpt lat="48.53408" lon="2.07224">
        <ele>78.943761</ele>
        <time>2013-06-15T15:19:53Z</time>
      </trkpt>
      <trkpt lat="48.53408" lon="2.07224">
        <ele>78.943761</ele>
        <time>2013-06-15T15:19:58Z</time>
      </trkpt>
      <trkpt lat="48.53408" lon="2.07224">
        <ele>78.943761</ele>
        <time>2013-06-15T15:20:03Z</time>
      </trkpt>
      <trkpt lat="48.53408" lon="2.07224">
        <ele>78.943761</ele>
        <time>2013-06-15T15:20:08Z</time>
      </trkpt>
      <trkpt lat="48.53408" lon="2.07224">
        <ele>78.943761</ele>
        <time>2013-06-15T15:20:13Z</time>
      </trkpt>
      <trkpt lat="48.53408" lon="2.07224">
        <ele>78.943761</ele>
        <time>2013-06-15T15:20:18Z</time>
      </trkpt>
      <trkpt lat="48.53408" lon="2.07224">
        <ele>78.943761</ele>
        <time>2013-06-15T15:20:23Z</time>
      </trkpt>
      <trkpt lat="48.53408" lon="2.07224">
        <ele>78.943761</ele>
        <time>2013-06-15T15:20:28Z</time>
      </trkpt>
      <trkpt lat="48.53408" lon="2.07224">
        <ele>78.943761</ele>
        <time>2013-06-15T15:20:33Z</time>
      </trkpt>
      <trkpt lat="48.53408" lon="2.07224">
        <ele>78.943761</ele>
        <time>2013-06-15T15:20:38Z</time>
      </trkpt>
      <trkpt lat="48.53408" lon="2.07224">
        <ele>78.943761</ele>
        <time>2013-06-15T15:20:43Z</time>
      </trkpt>
      <trkpt lat="48.53408" lon="2.07224">
        <ele>78.943761</ele>
        <time>2013-06-15T15:20:48Z</time>
      </trkpt>
      <trkpt lat="48.53408" lon="2.07224">
        <ele>78.943761</ele>
        <time>2013-06-15T15:20:53Z</time>
      </trkpt>
      <trkpt lat="48.53408" lon="2.07224">
        <ele>78.943761</ele>
        <time>2013-06-15T15:20:58Z</time>
      </trkpt>
      <trkpt lat="48.53408" lon="2.07224">
        <ele>78.943761</ele>
        <time>2013-06-15T15:21:03Z</time>
      </trkpt>
      <trkpt lat="48.53408" lon="2.07224">
        <ele>78.943761</ele>
        <time>2013-06-15T15:21:08Z</time>
      </trkpt>
      <trkpt lat="48.53408" lon="2.07224">
        <ele>78.943761</ele>
        <time>2013-06-15T15:21:13Z</time>
      </trkpt>
      <trkpt lat="48.53408" lon="2.07224">
        <ele>78.943761</ele>
        <time>2013-06-15T15:21:18Z</time>
      </trkpt>
      <trkpt lat="48.53408" lon="2.07224">
        <ele>78.943761</ele>
        <time>2013-06-15T15:21:23Z</time>
      </trkpt>
      <trkpt lat="48.53408" lon="2.07224">
        <ele>78.943761</ele>
        <time>2013-06-15T15:21:28Z</time>
      </trkpt>
      <trkpt lat="48.53408" lon="2.07224">
        <ele>78.943761</ele>
        <time>2013-06-15T15:21:33Z</time>
      </trkpt>
      <trkpt lat="48.53408" lon="2.07224">
        <ele>78.943761</ele>
        <time>2013-06-15T15:21:38Z</time>
      </trkpt>
      <trkpt lat="48.53408" lon="2.07224">
        <ele>78.943761</ele>
        <time>2013-06-15T15:21:43Z</time>
      </trkpt>
      <trkpt lat="48.53408" lon="2.07224">
        <ele>78.943761</ele>
        <time>2013-06-15T15:21:48Z</time>
      </trkpt>
      <trkpt lat="48.53408" lon="2.07224">
        <ele>78.943761</ele>
        <time>2013-06-15T15:21:53Z</time>
      </trkpt>
      <trkpt lat="48.53408" lon="2.07224">
        <ele>78.943761</ele>
        <time>2013-06-15T15:21:58Z</time>
      </trkpt>
      <trkpt lat="48.53408" lon="2.07224">
        <ele>78.943761</ele>
        <time>2013-06-15T15:22:03Z</time>
      </trkpt>
      <trkpt lat="48.53408" lon="2.07224">
        <ele>78.943761</ele>
        <time>2013-06-15T15:22:08Z</time>
      </trkpt>
      <trkpt lat="48.53408" lon="2.07224">
        <ele>78.943761</ele>
        <time>2013-06-15T15:22:13Z</time>
      </trkpt>
      <trkpt lat="48.53408" lon="2.07224">
        <ele>78.943761</ele>
        <time>2013-06-15T15:22:18Z</time>
      </trkpt>
      <trkpt lat="48.53408" lon="2.07222">
        <ele>78.919817</ele>
        <time>2013-06-15T15:22:23Z</time>
      </trkpt>
      <trkpt lat="48.53408" lon="2.07222">
        <ele>78.919817</ele>
        <time>2013-06-15T15:22:28Z</time>
      </trkpt>
      <trkpt lat="48.53408" lon="2.07222">
        <ele>78.919817</ele>
        <time>2013-06-15T15:22:33Z</time>
      </trkpt>
      <trkpt lat="48.53408" lon="2.07222">
        <ele>78.919817</ele>
        <time>2013-06-15T15:22:38Z</time>
      </trkpt>
      <trkpt lat="48.53408" lon="2.07222">
        <ele>78.919817</ele>
        <time>2013-06-15T15:22:43Z</time>
      </trkpt>
      <trkpt lat="48.53408" lon="2.07222">
        <ele>78.919817</ele>
        <time>2013-06-15T15:22:48Z</time>
      </trkpt>
      <trkpt lat="48.53408" lon="2.07222">
        <ele>78.919817</ele>
        <time>2013-06-15T15:22:53Z</time>
      </trkpt>
      <trkpt lat="48.53408" lon="2.07222">
        <ele>78.919817</ele>
        <time>2013-06-15T15:22:58Z</time>
      </trkpt>
      <trkpt lat="48.53408" lon="2.07222">
        <ele>78.919817</ele>
        <time>2013-06-15T15:23:03Z</time>
      </trkpt>
      <trkpt lat="48.53408" lon="2.07222">
        <ele>78.919817</ele>
        <time>2013-06-15T15:23:08Z</time>
      </trkpt>
      <trkpt lat="48.53408" lon="2.07222">
        <ele>78.919817</ele>
        <time>2013-06-15T15:23:13Z</time>
      </trkpt>
      <trkpt lat="48.53408" lon="2.07222">
        <ele>78.919817</ele>
        <time>2013-06-15T15:23:18Z</time>
      </trkpt>
      <trkpt lat="48.53408" lon="2.07222">
        <ele>78.919817</ele>
        <time>2013-06-15T15:23:23Z</time>
      </trkpt>
      <trkpt lat="48.53408" lon="2.07222">
        <ele>78.919817</ele>
        <time>2013-06-15T15:23:28Z</time>
      </trkpt>
      <trkpt lat="48.53408" lon="2.07222">
        <ele>78.919817</ele>
        <time>2013-06-15T15:23:33Z</time>
      </trkpt>
      <trkpt lat="48.53408" lon="2.07222">
        <ele>78.919817</ele>
        <time>2013-06-15T15:23:38Z</time>
      </trkpt>
      <trkpt lat="48.53408" lon="2.07222">
        <ele>78.919817</ele>
        <time>2013-06-15T15:23:43Z</time>
      </trkpt>
      <trkpt lat="48.53408" lon="2.07222">
        <ele>78.919817</ele>
        <time>2013-06-15T15:23:48Z</time>
      </trkpt>
      <trkpt lat="48.53408" lon="2.07222">
        <ele>78.919817</ele>
        <time>2013-06-15T15:23:53Z</time>
      </trkpt>
      <trkpt lat="48.53408" lon="2.07222">
        <ele>78.919817</ele>
        <time>2013-06-15T15:23:58Z</time>
      </trkpt>
      <trkpt lat="48.53408" lon="2.07222">
        <ele>78.919817</ele>
        <time>2013-06-15T15:24:03Z</time>
      </trkpt>
      <trkpt lat="48.53408" lon="2.07222">
        <ele>78.919817</ele>
        <time>2013-06-15T15:24:08Z</time>
      </trkpt>
      <trkpt lat="48.53408" lon="2.07222">
        <ele>78.919817</ele>
        <time>2013-06-15T15:24:13Z</time>
      </trkpt>
      <trkpt lat="48.53408" lon="2.07222">
        <ele>78.919817</ele>
        <time>2013-06-15T15:24:18Z</time>
      </trkpt>
      <trkpt lat="48.53408" lon="2.07222">
        <ele>78.919817</ele>
        <time>2013-06-15T15:24:23Z</time>
      </trkpt>
      <trkpt lat="48.53408" lon="2.07222">
        <ele>78.919817</ele>
        <time>2013-06-15T15:24:28Z</time>
      </trkpt>
      <trkpt lat="48.53408" lon="2.07222">
        <ele>78.919817</ele>
        <time>2013-06-15T15:24:33Z</time>
      </trkpt>
      <trkpt lat="48.53407" lon="2.07222">
        <ele>78.170467</ele>
        <time>2013-06-15T15:24:38Z</time>
      </trkpt>
      <trkpt lat="48.53406" lon="2.07222">
        <ele>78.082859</ele>
        <time>2013-06-15T15:24:43Z</time>
      </trkpt>
      <trkpt lat="48.53404" lon="2.07218">
        <ele>77.174072</ele>
        <time>2013-06-15T15:24:48Z</time>
      </trkpt>
      <trkpt lat="48.53401" lon="2.07215">
        <ele>76.201623</ele>
        <time>2013-06-15T15:24:53Z</time>
      </trkpt>
      <trkpt lat="48.53402" lon="2.07215">
        <ele>76.950971</ele>
        <time>2013-06-15T15:24:58Z</time>
      </trkpt>
      <trkpt lat="48.53402" lon="2.07215">
        <ele>76.950971</ele>
        <time>2013-06-15T15:25:03Z</time>
      </trkpt>
      <trkpt lat="48.53402" lon="2.07215">
        <ele>76.950971</ele>
        <time>2013-06-15T15:25:08Z</time>
      </trkpt>
      <trkpt lat="48.53401" lon="2.07215">
        <ele>77.612714</ele>
        <time>2013-06-15T15:25:13Z</time>
      </trkpt>
      <trkpt lat="48.53401" lon="2.07217">
        <ele>76.887308</ele>
        <time>2013-06-15T15:25:18Z</time>
      </trkpt>
      <trkpt lat="48.53397" lon="2.07215">
        <ele>78.011638</ele>
        <time>2013-06-15T15:25:23Z</time>
      </trkpt>
      <trkpt lat="48.53395" lon="2.07211">
        <ele>79.925039</ele>
        <time>2013-06-15T15:25:28Z</time>
      </trkpt>
      <trkpt lat="48.53393" lon="2.07203">
        <ele>80.355526</ele>
        <time>2013-06-15T15:25:33Z</time>
      </trkpt>
      <trkpt lat="48.53387" lon="2.07203">
        <ele>77.844672</ele>
        <time>2013-06-15T15:25:38Z</time>
      </trkpt>
      <trkpt lat="48.53383" lon="2.07205">
        <ele>77.629747</ele>
        <time>2013-06-15T15:25:43Z</time>
      </trkpt>
      <trkpt lat="48.5338" lon="2.07209">
        <ele>77.438768</ele>
        <time>2013-06-15T15:25:48Z</time>
      </trkpt>
      <trkpt lat="48.53376" lon="2.07216">
        <ele>78.706771</ele>
        <time>2013-06-15T15:25:53Z</time>
      </trkpt>
      <trkpt lat="48.53372" lon="2.07219">
        <ele>79.265147</ele>
        <time>2013-06-15T15:25:58Z</time>
      </trkpt>
      <trkpt lat="48.53368" lon="2.07225">
        <ele>80.509217</ele>
        <time>2013-06-15T15:26:03Z</time>
      </trkpt>
      <trkpt lat="48.53365" lon="2.07229">
        <ele>81.067601</ele>
        <time>2013-06-15T15:26:08Z</time>
      </trkpt>
      <trkpt lat="48.53362" lon="2.07234">
        <ele>80.988186</ele>
        <time>2013-06-15T15:26:13Z</time>
      </trkpt>
      <trkpt lat="48.53359" lon="2.07231">
        <ele>81.42685</ele>
        <time>2013-06-15T15:26:18Z</time>
      </trkpt>
      <trkpt lat="48.53356" lon="2.07225">
        <ele>81.068284</ele>
        <time>2013-06-15T15:26:23Z</time>
      </trkpt>
      <trkpt lat="48.53352" lon="2.07219">
        <ele>81.435122</ele>
        <time>2013-06-15T15:26:28Z</time>
      </trkpt>
      <trkpt lat="48.53349" lon="2.07212">
        <ele>82.463716</ele>
        <time>2013-06-15T15:26:33Z</time>
      </trkpt>
      <trkpt lat="48.53345" lon="2.07205">
        <ele>82.081225</ele>
        <time>2013-06-15T15:26:38Z</time>
      </trkpt>
      <trkpt lat="48.53342" lon="2.07198">
        <ele>82.448082</ele>
        <time>2013-06-15T15:26:43Z</time>
      </trkpt>
      <trkpt lat="48.53338" lon="2.07192">
        <ele>82.751295</ele>
        <time>2013-06-15T15:26:48Z</time>
      </trkpt>
      <trkpt lat="48.53335" lon="2.07184">
        <ele>81.683132</ele>
        <time>2013-06-15T15:26:53Z</time>
      </trkpt>
      <trkpt lat="48.53331" lon="2.07177">
        <ele>82.050008</ele>
        <time>2013-06-15T15:26:58Z</time>
      </trkpt>
      <trkpt lat="48.53328" lon="2.0717">
        <ele>82.41689</ele>
        <time>2013-06-15T15:27:03Z</time>
      </trkpt>
      <trkpt lat="48.53325" lon="2.07163">
        <ele>82.783778</ele>
        <time>2013-06-15T15:27:08Z</time>
      </trkpt>
      <trkpt lat="48.53321" lon="2.07158">
        <ele>83.087021</ele>
        <time>2013-06-15T15:27:13Z</time>
      </trkpt>
      <trkpt lat="48.53318" lon="2.07151">
        <ele>83.453921</ele>
        <time>2013-06-15T15:27:18Z</time>
      </trkpt>
      <trkpt lat="48.53315" lon="2.07142">
        <ele>82.385799</ele>
        <time>2013-06-15T15:27:23Z</time>
      </trkpt>
      <trkpt lat="48.53311" lon="2.07134">
        <ele>81.979438</ele>
        <time>2013-06-15T15:27:28Z</time>
      </trkpt>
      <trkpt lat="48.53307" lon="2.07127">
        <ele>81.597019</ele>
        <time>2013-06-15T15:27:33Z</time>
      </trkpt>
      <trkpt lat="48.53304" lon="2.0712">
        <ele>82.6257</ele>
        <time>2013-06-15T15:27:38Z</time>
      </trkpt>
      <trkpt lat="48.53301" lon="2.07113">
        <ele>82.992632</ele>
        <time>2013-06-15T15:27:43Z</time>
      </trkpt>
      <trkpt lat="48.53298" lon="2.07107">
        <ele>82.697814</ele>
        <time>2013-06-15T15:27:48Z</time>
      </trkpt>
      <trkpt lat="48.53296" lon="2.07101">
        <ele>83.176267</ele>
        <time>2013-06-15T15:27:53Z</time>
      </trkpt>
      <trkpt lat="48.53293" lon="2.07094">
        <ele>83.543215</ele>
        <time>2013-06-15T15:27:58Z</time>
      </trkpt>
      <trkpt lat="48.5329" lon="2.07087">
        <ele>83.160833</ele>
        <time>2013-06-15T15:28:03Z</time>
      </trkpt>
      <trkpt lat="48.53286" lon="2.0708">
        <ele>83.527793</ele>
        <time>2013-06-15T15:28:08Z</time>
      </trkpt>
      <trkpt lat="48.53283" lon="2.07073">
        <ele>85.305852</ele>
        <time>2013-06-15T15:28:13Z</time>
      </trkpt>
      <trkpt lat="48.5328" lon="2.07066">
        <ele>84.923489</ele>
        <time>2013-06-15T15:28:18Z</time>
      </trkpt>
      <trkpt lat="48.53277" lon="2.0706">
        <ele>85.290467</ele>
        <time>2013-06-15T15:28:23Z</time>
      </trkpt>
      <trkpt lat="48.53274" lon="2.07053">
        <ele>84.246357</ele>
        <time>2013-06-15T15:28:28Z</time>
      </trkpt>
      <trkpt lat="48.53269" lon="2.07047">
        <ele>84.549698</ele>
        <time>2013-06-15T15:28:33Z</time>
      </trkpt>
      <trkpt lat="48.53265" lon="2.0704">
        <ele>85.578455</ele>
        <time>2013-06-15T15:28:38Z</time>
      </trkpt>
      <trkpt lat="48.53261" lon="2.07033">
        <ele>85.857885</ele>
        <time>2013-06-15T15:28:43Z</time>
      </trkpt>
      <trkpt lat="48.53257" lon="2.07028">
        <ele>85.499484</ele>
        <time>2013-06-15T15:28:48Z</time>
      </trkpt>
      <trkpt lat="48.53254" lon="2.07022">
        <ele>86.552182</ele>
        <time>2013-06-15T15:28:53Z</time>
      </trkpt>
      <trkpt lat="48.53249" lon="2.07016">
        <ele>86.855554</ele>
        <time>2013-06-15T15:28:58Z</time>
      </trkpt>
      <trkpt lat="48.53245" lon="2.07011">
        <ele>87.158933</ele>
        <time>2013-06-15T15:29:03Z</time>
      </trkpt>
      <trkpt lat="48.5324" lon="2.07004">
        <ele>87.438398</ele>
        <time>2013-06-15T15:29:08Z</time>
      </trkpt>
      <trkpt lat="48.53235" lon="2.06997">
        <ele>86.968542</ele>
        <time>2013-06-15T15:29:13Z</time>
      </trkpt>
      <trkpt lat="48.53232" lon="2.0699">
        <ele>87.335588</ele>
        <time>2013-06-15T15:29:18Z</time>
      </trkpt>
      <trkpt lat="48.53229" lon="2.06984">
        <ele>88.388322</ele>
        <time>2013-06-15T15:29:23Z</time>
      </trkpt>
      <trkpt lat="48.53224" lon="2.06976">
        <ele>88.643901</ele>
        <time>2013-06-15T15:29:28Z</time>
      </trkpt>
      <trkpt lat="48.5322" lon="2.06969">
        <ele>88.923405</ele>
        <time>2013-06-15T15:29:33Z</time>
      </trkpt>
      <trkpt lat="48.53217" lon="2.06962">
        <ele>89.290476</ele>
        <time>2013-06-15T15:29:38Z</time>
      </trkpt>
      <trkpt lat="48.53212" lon="2.06955">
        <ele>89.569994</ele>
        <time>2013-06-15T15:29:43Z</time>
      </trkpt>
      <trkpt lat="48.53208" lon="2.06947">
        <ele>89.076281</ele>
        <time>2013-06-15T15:29:48Z</time>
      </trkpt>
      <trkpt lat="48.53203" lon="2.0694">
        <ele>89.355816</ele>
        <time>2013-06-15T15:29:53Z</time>
      </trkpt>
      <trkpt lat="48.53199" lon="2.06933">
        <ele>89.635359</ele>
        <time>2013-06-15T15:29:58Z</time>
      </trkpt>
      <trkpt lat="48.53195" lon="2.06925">
        <ele>89.229229</ele>
        <time>2013-06-15T15:30:03Z</time>
      </trkpt>
      <trkpt lat="48.53191" lon="2.06918">
        <ele>89.508787</ele>
        <time>2013-06-15T15:30:08Z</time>
      </trkpt>
      <trkpt lat="48.53188" lon="2.06909">
        <ele>89.851998</ele>
        <time>2013-06-15T15:30:13Z</time>
      </trkpt>
      <trkpt lat="48.53183" lon="2.06902">
        <ele>90.131572</ele>
        <time>2013-06-15T15:30:18Z</time>
      </trkpt>
      <trkpt lat="48.53179" lon="2.06896">
        <ele>90.411154</ele>
        <time>2013-06-15T15:30:23Z</time>
      </trkpt>
      <trkpt lat="48.53176" lon="2.0689">
        <ele>90.8022</ele>
        <time>2013-06-15T15:30:28Z</time>
      </trkpt>
      <trkpt lat="48.53173" lon="2.06888">
        <ele>91.264968</ele>
        <time>2013-06-15T15:30:33Z</time>
      </trkpt>
      <trkpt lat="48.53173" lon="2.06887">
        <ele>91.241062</ele>
        <time>2013-06-15T15:30:38Z</time>
      </trkpt>
      <trkpt lat="48.53173" lon="2.06888">
        <ele>92.014291</ele>
        <time>2013-06-15T15:30:43Z</time>
      </trkpt>
      <trkpt lat="48.53173" lon="2.06888">
        <ele>92.014291</ele>
        <time>2013-06-15T15:30:48Z</time>
      </trkpt>
      <trkpt lat="48.53173" lon="2.06888">
        <ele>92.014291</ele>
        <time>2013-06-15T15:30:53Z</time>
      </trkpt>
      <trkpt lat="48.53173" lon="2.06888">
        <ele>92.014291</ele>
        <time>2013-06-15T15:30:58Z</time>
      </trkpt>
      <trkpt lat="48.53173" lon="2.0689">
        <ele>92.69997</ele>
        <time>2013-06-15T15:31:03Z</time>
      </trkpt>
      <trkpt lat="48.53168" lon="2.06894">
        <ele>94.581915</ele>
        <time>2013-06-15T15:31:08Z</time>
      </trkpt>
      <trkpt lat="48.53168" lon="2.06894">
        <ele>94.581915</ele>
        <time>2013-06-15T15:31:13Z</time>
      </trkpt>
      <trkpt lat="48.53166" lon="2.069">
        <ele>96.686774</ele>
        <time>2013-06-15T15:31:18Z</time>
      </trkpt>
      <trkpt lat="48.53162" lon="2.06904">
        <ele>98.656275</ele>
        <time>2013-06-15T15:31:23Z</time>
      </trkpt>
      <trkpt lat="48.53159" lon="2.06912">
        <ele>97.875313</ele>
        <time>2013-06-15T15:31:28Z</time>
      </trkpt>
      <trkpt lat="48.53157" lon="2.06917">
        <ele>97.79586</ele>
        <time>2013-06-15T15:31:33Z</time>
      </trkpt>
      <trkpt lat="48.53155" lon="2.06925">
        <ele>99.262872</ele>
        <time>2013-06-15T15:31:38Z</time>
      </trkpt>
      <trkpt lat="48.53153" lon="2.06932">
        <ele>97.134466</ele>
        <time>2013-06-15T15:31:43Z</time>
      </trkpt>
      <trkpt lat="48.53149" lon="2.06939">
        <ele>98.40249</ele>
        <time>2013-06-15T15:31:48Z</time>
      </trkpt>
      <trkpt lat="48.53148" lon="2.06944">
        <ele>99.159916</ele>
        <time>2013-06-15T15:31:53Z</time>
      </trkpt>
      <trkpt lat="48.53148" lon="2.06947">
        <ele>97.796646</ele>
        <time>2013-06-15T15:31:58Z</time>
      </trkpt>
      <trkpt lat="48.53146" lon="2.06951">
        <ele>97.031523</ele>
        <time>2013-06-15T15:32:03Z</time>
      </trkpt>
      <trkpt lat="48.53143" lon="2.06955">
        <ele>96.178861</ele>
        <time>2013-06-15T15:32:08Z</time>
      </trkpt>
      <trkpt lat="48.53142" lon="2.06959">
        <ele>98.323477</ele>
        <time>2013-06-15T15:32:13Z</time>
      </trkpt>
      <trkpt lat="48.53142" lon="2.06957">
        <ele>99.710659</ele>
        <time>2013-06-15T15:32:18Z</time>
      </trkpt>
      <trkpt lat="48.53143" lon="2.06962">
        <ele>99.120626</ele>
        <time>2013-06-15T15:32:23Z</time>
      </trkpt>
      <trkpt lat="48.53144" lon="2.06968">
        <ele>99.327744</ele>
        <time>2013-06-15T15:32:28Z</time>
      </trkpt>
      <trkpt lat="48.53147" lon="2.06975">
        <ele>98.960633</ele>
        <time>2013-06-15T15:32:33Z</time>
      </trkpt>
      <trkpt lat="48.53152" lon="2.06981">
        <ele>100.06825</ele>
        <time>2013-06-15T15:32:38Z</time>
      </trkpt>
      <trkpt lat="48.53155" lon="2.06982">
        <ele>100.354801</ele>
        <time>2013-06-15T15:32:43Z</time>
      </trkpt>
      <trkpt lat="48.53157" lon="2.06978">
        <ele>98.959499</ele>
        <time>2013-06-15T15:32:48Z</time>
      </trkpt>
      <trkpt lat="48.53156" lon="2.06978">
        <ele>98.210179</ele>
        <time>2013-06-15T15:32:53Z</time>
      </trkpt>
      <trkpt lat="48.53157" lon="2.06974">
        <ele>102.459262</ele>
        <time>2013-06-15T15:40:18Z</time>
      </trkpt>
      <trkpt lat="48.53157" lon="2.06976">
        <ele>101.733858</ele>
        <time>2013-06-15T15:40:23Z</time>
      </trkpt>
      <trkpt lat="48.53158" lon="2.06977">
        <ele>105.416833</ele>
        <time>2013-06-15T15:40:28Z</time>
      </trkpt>
      <trkpt lat="48.53159" lon="2.06978">
        <ele>106.19007</ele>
        <time>2013-06-15T15:40:33Z</time>
      </trkpt>
      <trkpt lat="48.53159" lon="2.06978">
        <ele>106.19007</ele>
        <time>2013-06-15T15:40:38Z</time>
      </trkpt>
      <trkpt lat="48.53159" lon="2.06978">
        <ele>106.19007</ele>
        <time>2013-06-15T15:40:43Z</time>
      </trkpt>
      <trkpt lat="48.53159" lon="2.06978">
        <ele>106.19007</ele>
        <time>2013-06-15T15:40:48Z</time>
      </trkpt>
      <trkpt lat="48.53159" lon="2.06978">
        <ele>106.19007</ele>
        <time>2013-06-15T15:40:53Z</time>
      </trkpt>
      <trkpt lat="48.53159" lon="2.06978">
        <ele>106.19007</ele>
        <time>2013-06-15T15:40:58Z</time>
      </trkpt>
      <trkpt lat="48.53159" lon="2.06978">
        <ele>106.19007</ele>
        <time>2013-06-15T15:41:03Z</time>
      </trkpt>
      <trkpt lat="48.53159" lon="2.06978">
        <ele>106.19007</ele>
        <time>2013-06-15T15:41:08Z</time>
      </trkpt>
      <trkpt lat="48.53159" lon="2.06978">
        <ele>106.19007</ele>
        <time>2013-06-15T15:41:13Z</time>
      </trkpt>
      <trkpt lat="48.53159" lon="2.06978">
        <ele>106.19007</ele>
        <time>2013-06-15T15:41:18Z</time>
      </trkpt>
      <trkpt lat="48.53159" lon="2.06978">
        <ele>106.19007</ele>
        <time>2013-06-15T15:41:23Z</time>
      </trkpt>
      <trkpt lat="48.53159" lon="2.06978">
        <ele>106.19007</ele>
        <time>2013-06-15T15:41:28Z</time>
      </trkpt>
      <trkpt lat="48.53159" lon="2.06978">
        <ele>106.19007</ele>
        <time>2013-06-15T15:41:33Z</time>
      </trkpt>
      <trkpt lat="48.53159" lon="2.06978">
        <ele>106.19007</ele>
        <time>2013-06-15T15:41:38Z</time>
      </trkpt>
      <trkpt lat="48.53159" lon="2.06978">
        <ele>106.19007</ele>
        <time>2013-06-15T15:41:43Z</time>
      </trkpt>
      <trkpt lat="48.5316" lon="2.06978">
        <ele>105.528295</ele>
        <time>2013-06-15T15:41:48Z</time>
      </trkpt>
      <trkpt lat="48.5316" lon="2.06978">
        <ele>105.528295</ele>
        <time>2013-06-15T15:41:53Z</time>
      </trkpt>
      <trkpt lat="48.5316" lon="2.06978">
        <ele>105.528295</ele>
        <time>2013-06-15T15:41:58Z</time>
      </trkpt>
      <trkpt lat="48.5316" lon="2.06978">
        <ele>105.528295</ele>
        <time>2013-06-15T15:42:03Z</time>
      </trkpt>
      <trkpt lat="48.5316" lon="2.06978">
        <ele>105.528295</ele>
        <time>2013-06-15T15:42:08Z</time>
      </trkpt>
      <trkpt lat="48.53159" lon="2.06978">
        <ele>106.19007</ele>
        <time>2013-06-15T15:42:13Z</time>
      </trkpt>
      <trkpt lat="48.53159" lon="2.06978">
        <ele>106.19007</ele>
        <time>2013-06-15T15:42:18Z</time>
      </trkpt>
      <trkpt lat="48.53159" lon="2.06978">
        <ele>106.19007</ele>
        <time>2013-06-15T15:42:23Z</time>
      </trkpt>
      <trkpt lat="48.53159" lon="2.06978">
        <ele>106.19007</ele>
        <time>2013-06-15T15:42:28Z</time>
      </trkpt>
      <trkpt lat="48.53159" lon="2.06978">
        <ele>106.19007</ele>
        <time>2013-06-15T15:42:33Z</time>
      </trkpt>
      <trkpt lat="48.53159" lon="2.06978">
        <ele>106.19007</ele>
        <time>2013-06-15T15:42:38Z</time>
      </trkpt>
      <trkpt lat="48.53159" lon="2.06978">
        <ele>106.19007</ele>
        <time>2013-06-15T15:42:43Z</time>
      </trkpt>
      <trkpt lat="48.53159" lon="2.06978">
        <ele>106.19007</ele>
        <time>2013-06-15T15:42:48Z</time>
      </trkpt>
      <trkpt lat="48.53159" lon="2.06978">
        <ele>106.19007</ele>
        <time>2013-06-15T15:42:53Z</time>
      </trkpt>
      <trkpt lat="48.5316" lon="2.06978">
        <ele>105.528295</ele>
        <time>2013-06-15T15:42:58Z</time>
      </trkpt>
      <trkpt lat="48.5316" lon="2.06978">
        <ele>105.528295</ele>
        <time>2013-06-15T15:43:03Z</time>
      </trkpt>
      <trkpt lat="48.53159" lon="2.06978">
        <ele>106.939391</ele>
        <time>2013-06-15T15:43:08Z</time>
      </trkpt>
      <trkpt lat="48.53159" lon="2.06978">
        <ele>106.939391</ele>
        <time>2013-06-15T15:43:13Z</time>
      </trkpt>
      <trkpt lat="48.53159" lon="2.06978">
        <ele>106.939391</ele>
        <time>2013-06-15T15:43:18Z</time>
      </trkpt>
      <trkpt lat="48.53159" lon="2.06978">
        <ele>106.939391</ele>
        <time>2013-06-15T15:43:23Z</time>
      </trkpt>
      <trkpt lat="48.53159" lon="2.06978">
        <ele>106.939391</ele>
        <time>2013-06-15T15:43:28Z</time>
      </trkpt>
      <trkpt lat="48.53159" lon="2.06978">
        <ele>106.939391</ele>
        <time>2013-06-15T15:43:33Z</time>
      </trkpt>
      <trkpt lat="48.53159" lon="2.06978">
        <ele>106.939391</ele>
        <time>2013-06-15T15:43:38Z</time>
      </trkpt>
      <trkpt lat="48.53159" lon="2.06978">
        <ele>106.939391</ele>
        <time>2013-06-15T15:43:43Z</time>
      </trkpt>
      <trkpt lat="48.53159" lon="2.06978">
        <ele>106.939391</ele>
        <time>2013-06-15T15:43:48Z</time>
      </trkpt>
      <trkpt lat="48.53158" lon="2.06978">
        <ele>105.440749</ele>
        <time>2013-06-15T15:43:53Z</time>
      </trkpt>
    </trkseg>
  </trk>
</gpx>